<?xml version="1.0" encoding="UTF-8" standalone="no" ?>
<gpx xmlns="http://www.topografix.com/GPX/1/1" xmlns:xsi="http://www.w3.org/2001/XMLSchema-instance" xsi:schemaLocation="http://www.topografix.com/GPX/1/1 http://www.topografix.com/GPX/1/1/gpx.xsd" version="1.1" creator="VisuGPX - https://www.visugpx.com">
  <metadata>
    <name>Sortie Peygros et Tanneron</name>
    <desc><![CDATA[Sortie Peygros et Tanneron]]></desc>
  </metadata>
  <trk>
    <name><![CDATA[tanneron avec Fabienne et Julien ]]></name>
    <trkseg>
      <trkpt lat="43.58156" lon="6.94408">
        <ele>14.63208</ele>
        <time>2013-09-14T13:56:50Z</time>
      </trkpt>
      <trkpt lat="43.58155" lon="6.94415">
        <ele>14.70166</ele>
        <time>2013-09-14T13:57:04Z</time>
      </trkpt>
      <trkpt lat="43.58158" lon="6.94421">
        <ele>14.833055</ele>
        <time>2013-09-14T13:59:33Z</time>
      </trkpt>
      <trkpt lat="43.58163" lon="6.94427">
        <ele>15.017145</ele>
        <time>2013-09-14T13:59:37Z</time>
      </trkpt>
      <trkpt lat="43.58167" lon="6.94433">
        <ele>15.192352</ele>
        <time>2013-09-14T13:59:41Z</time>
      </trkpt>
      <trkpt lat="43.58171" lon="6.94435">
        <ele>15.417932</ele>
        <time>2013-09-14T13:59:45Z</time>
      </trkpt>
      <trkpt lat="43.58176" lon="6.94431">
        <ele>15.602868</ele>
        <time>2013-09-14T13:59:48Z</time>
      </trkpt>
      <trkpt lat="43.58181" lon="6.94422">
        <ele>15.757462</ele>
        <time>2013-09-14T13:59:51Z</time>
      </trkpt>
      <trkpt lat="43.58188" lon="6.94408">
        <ele>15.907841</ele>
        <time>2013-09-14T13:59:54Z</time>
      </trkpt>
      <trkpt lat="43.58191" lon="6.94396">
        <ele>15.852146</ele>
        <time>2013-09-14T13:59:58Z</time>
      </trkpt>
      <trkpt lat="43.58187" lon="6.94377">
        <ele>15.363437</ele>
        <time>2013-09-14T14:00:02Z</time>
      </trkpt>
      <trkpt lat="43.58181" lon="6.94361">
        <ele>14.923567</ele>
        <time>2013-09-14T14:00:05Z</time>
      </trkpt>
      <trkpt lat="43.58175" lon="6.9434">
        <ele>14.379532</ele>
        <time>2013-09-14T14:00:09Z</time>
      </trkpt>
      <trkpt lat="43.58166" lon="6.94329">
        <ele>13.91525</ele>
        <time>2013-09-14T14:00:12Z</time>
      </trkpt>
      <trkpt lat="43.5815" lon="6.94318">
        <ele>13.449662</ele>
        <time>2013-09-14T14:00:16Z</time>
      </trkpt>
      <trkpt lat="43.58132" lon="6.94308">
        <ele>12.993464</ele>
        <time>2013-09-14T14:00:20Z</time>
      </trkpt>
      <trkpt lat="43.58118" lon="6.94302">
        <ele>12.663654</ele>
        <time>2013-09-14T14:00:23Z</time>
      </trkpt>
      <trkpt lat="43.58104" lon="6.94296">
        <ele>12.379326</ele>
        <time>2013-09-14T14:00:26Z</time>
      </trkpt>
      <trkpt lat="43.58087" lon="6.94285">
        <ele>12.056482</ele>
        <time>2013-09-14T14:00:29Z</time>
      </trkpt>
      <trkpt lat="43.58075" lon="6.94279">
        <ele>12</ele>
        <time>2013-09-14T14:00:33Z</time>
      </trkpt>
      <trkpt lat="43.58059" lon="6.94272">
        <ele>12</ele>
        <time>2013-09-14T14:00:37Z</time>
      </trkpt>
      <trkpt lat="43.58042" lon="6.94265">
        <ele>12</ele>
        <time>2013-09-14T14:00:41Z</time>
      </trkpt>
      <trkpt lat="43.58026" lon="6.94258">
        <ele>12</ele>
        <time>2013-09-14T14:00:45Z</time>
      </trkpt>
      <trkpt lat="43.58009" lon="6.94248">
        <ele>12</ele>
        <time>2013-09-14T14:00:49Z</time>
      </trkpt>
      <trkpt lat="43.57997" lon="6.9424">
        <ele>12</ele>
        <time>2013-09-14T14:00:52Z</time>
      </trkpt>
      <trkpt lat="43.57985" lon="6.94224">
        <ele>12</ele>
        <time>2013-09-14T14:00:56Z</time>
      </trkpt>
      <trkpt lat="43.57973" lon="6.94208">
        <ele>12</ele>
        <time>2013-09-14T14:00:59Z</time>
      </trkpt>
      <trkpt lat="43.57964" lon="6.94195">
        <ele>12</ele>
        <time>2013-09-14T14:01:03Z</time>
      </trkpt>
      <trkpt lat="43.57952" lon="6.94178">
        <ele>12</ele>
        <time>2013-09-14T14:01:07Z</time>
      </trkpt>
      <trkpt lat="43.57942" lon="6.9416">
        <ele>12</ele>
        <time>2013-09-14T14:01:11Z</time>
      </trkpt>
      <trkpt lat="43.57931" lon="6.94142">
        <ele>12</ele>
        <time>2013-09-14T14:01:15Z</time>
      </trkpt>
      <trkpt lat="43.57918" lon="6.94128">
        <ele>12</ele>
        <time>2013-09-14T14:01:19Z</time>
      </trkpt>
      <trkpt lat="43.57906" lon="6.94119">
        <ele>11.875183</ele>
        <time>2013-09-14T14:01:22Z</time>
      </trkpt>
      <trkpt lat="43.57891" lon="6.94108">
        <ele>11.68634</ele>
        <time>2013-09-14T14:01:26Z</time>
      </trkpt>
      <trkpt lat="43.57874" lon="6.941">
        <ele>11.484985</ele>
        <time>2013-09-14T14:01:30Z</time>
      </trkpt>
      <trkpt lat="43.57857" lon="6.94096">
        <ele>11.280334</ele>
        <time>2013-09-14T14:01:34Z</time>
      </trkpt>
      <trkpt lat="43.57843" lon="6.94091">
        <ele>11.118652</ele>
        <time>2013-09-14T14:01:37Z</time>
      </trkpt>
      <trkpt lat="43.57824" lon="6.94084">
        <ele>11</ele>
        <time>2013-09-14T14:01:41Z</time>
      </trkpt>
      <trkpt lat="43.57805" lon="6.94073">
        <ele>11</ele>
        <time>2013-09-14T14:01:45Z</time>
      </trkpt>
      <trkpt lat="43.57793" lon="6.94062">
        <ele>11</ele>
        <time>2013-09-14T14:01:48Z</time>
      </trkpt>
      <trkpt lat="43.57782" lon="6.94049">
        <ele>11</ele>
        <time>2013-09-14T14:01:51Z</time>
      </trkpt>
      <trkpt lat="43.57767" lon="6.94031">
        <ele>11</ele>
        <time>2013-09-14T14:01:55Z</time>
      </trkpt>
      <trkpt lat="43.57753" lon="6.94013">
        <ele>11</ele>
        <time>2013-09-14T14:01:59Z</time>
      </trkpt>
      <trkpt lat="43.5774" lon="6.93994">
        <ele>11</ele>
        <time>2013-09-14T14:02:03Z</time>
      </trkpt>
      <trkpt lat="43.57726" lon="6.93978">
        <ele>11</ele>
        <time>2013-09-14T14:02:07Z</time>
      </trkpt>
      <trkpt lat="43.57721" lon="6.93956">
        <ele>11</ele>
        <time>2013-09-14T14:02:11Z</time>
      </trkpt>
      <trkpt lat="43.57738" lon="6.93937">
        <ele>11</ele>
        <time>2013-09-14T14:02:15Z</time>
      </trkpt>
      <trkpt lat="43.57751" lon="6.93925">
        <ele>11</ele>
        <time>2013-09-14T14:02:18Z</time>
      </trkpt>
      <trkpt lat="43.57764" lon="6.93913">
        <ele>11</ele>
        <time>2013-09-14T14:02:21Z</time>
      </trkpt>
      <trkpt lat="43.57781" lon="6.93897">
        <ele>11</ele>
        <time>2013-09-14T14:02:25Z</time>
      </trkpt>
      <trkpt lat="43.57798" lon="6.93881">
        <ele>11</ele>
        <time>2013-09-14T14:02:29Z</time>
      </trkpt>
      <trkpt lat="43.57809" lon="6.93867">
        <ele>11</ele>
        <time>2013-09-14T14:02:32Z</time>
      </trkpt>
      <trkpt lat="43.57827" lon="6.9385">
        <ele>11</ele>
        <time>2013-09-14T14:02:36Z</time>
      </trkpt>
      <trkpt lat="43.5784" lon="6.93835">
        <ele>11.001515</ele>
        <time>2013-09-14T14:02:39Z</time>
      </trkpt>
      <trkpt lat="43.57859" lon="6.93819">
        <ele>11</ele>
        <time>2013-09-14T14:02:43Z</time>
      </trkpt>
      <trkpt lat="43.57872" lon="6.93806">
        <ele>11</ele>
        <time>2013-09-14T14:02:46Z</time>
      </trkpt>
      <trkpt lat="43.57888" lon="6.9379">
        <ele>11</ele>
        <time>2013-09-14T14:02:49Z</time>
      </trkpt>
      <trkpt lat="43.57893" lon="6.93789">
        <ele>11</ele>
        <time>2013-09-14T14:02:53Z</time>
      </trkpt>
      <trkpt lat="43.57887" lon="6.93788">
        <ele>11</ele>
        <time>2013-09-14T14:03:07Z</time>
      </trkpt>
      <trkpt lat="43.57892" lon="6.93784">
        <ele>11</ele>
        <time>2013-09-14T14:03:55Z</time>
      </trkpt>
      <trkpt lat="43.57901" lon="6.93775">
        <ele>11</ele>
        <time>2013-09-14T14:03:59Z</time>
      </trkpt>
      <trkpt lat="43.57913" lon="6.93763">
        <ele>11</ele>
        <time>2013-09-14T14:04:03Z</time>
      </trkpt>
      <trkpt lat="43.57929" lon="6.93747">
        <ele>11</ele>
        <time>2013-09-14T14:04:07Z</time>
      </trkpt>
      <trkpt lat="43.57944" lon="6.93734">
        <ele>11</ele>
        <time>2013-09-14T14:04:11Z</time>
      </trkpt>
      <trkpt lat="43.57956" lon="6.93722">
        <ele>11</ele>
        <time>2013-09-14T14:04:14Z</time>
      </trkpt>
      <trkpt lat="43.57966" lon="6.9371">
        <ele>11</ele>
        <time>2013-09-14T14:04:17Z</time>
      </trkpt>
      <trkpt lat="43.57981" lon="6.93694">
        <ele>11</ele>
        <time>2013-09-14T14:04:21Z</time>
      </trkpt>
      <trkpt lat="43.57994" lon="6.93681">
        <ele>11</ele>
        <time>2013-09-14T14:04:24Z</time>
      </trkpt>
      <trkpt lat="43.58011" lon="6.93665">
        <ele>11.13385</ele>
        <time>2013-09-14T14:04:28Z</time>
      </trkpt>
      <trkpt lat="43.58027" lon="6.93648">
        <ele>11.325867</ele>
        <time>2013-09-14T14:04:32Z</time>
      </trkpt>
      <trkpt lat="43.58041" lon="6.93637">
        <ele>11.486938</ele>
        <time>2013-09-14T14:04:35Z</time>
      </trkpt>
      <trkpt lat="43.58055" lon="6.93617">
        <ele>11.656738</ele>
        <time>2013-09-14T14:04:39Z</time>
      </trkpt>
      <trkpt lat="43.58069" lon="6.93597">
        <ele>11.822937</ele>
        <time>2013-09-14T14:04:43Z</time>
      </trkpt>
      <trkpt lat="43.58081" lon="6.93578">
        <ele>11.976013</ele>
        <time>2013-09-14T14:04:47Z</time>
      </trkpt>
      <trkpt lat="43.58095" lon="6.93559">
        <ele>12</ele>
        <time>2013-09-14T14:04:51Z</time>
      </trkpt>
      <trkpt lat="43.58105" lon="6.93544">
        <ele>12</ele>
        <time>2013-09-14T14:04:54Z</time>
      </trkpt>
      <trkpt lat="43.58119" lon="6.93523">
        <ele>12</ele>
        <time>2013-09-14T14:04:58Z</time>
      </trkpt>
      <trkpt lat="43.58129" lon="6.93511">
        <ele>12</ele>
        <time>2013-09-14T14:05:01Z</time>
      </trkpt>
      <trkpt lat="43.58143" lon="6.93493">
        <ele>12</ele>
        <time>2013-09-14T14:05:05Z</time>
      </trkpt>
      <trkpt lat="43.5815" lon="6.93474">
        <ele>12</ele>
        <time>2013-09-14T14:05:08Z</time>
      </trkpt>
      <trkpt lat="43.5815" lon="6.93446">
        <ele>12</ele>
        <time>2013-09-14T14:05:12Z</time>
      </trkpt>
      <trkpt lat="43.58152" lon="6.9342">
        <ele>12</ele>
        <time>2013-09-14T14:05:16Z</time>
      </trkpt>
      <trkpt lat="43.58159" lon="6.93393">
        <ele>12</ele>
        <time>2013-09-14T14:05:20Z</time>
      </trkpt>
      <trkpt lat="43.58166" lon="6.93365">
        <ele>12</ele>
        <time>2013-09-14T14:05:24Z</time>
      </trkpt>
      <trkpt lat="43.58171" lon="6.93344">
        <ele>12</ele>
        <time>2013-09-14T14:05:27Z</time>
      </trkpt>
      <trkpt lat="43.58179" lon="6.93318">
        <ele>12</ele>
        <time>2013-09-14T14:05:31Z</time>
      </trkpt>
      <trkpt lat="43.58184" lon="6.93299">
        <ele>12</ele>
        <time>2013-09-14T14:05:34Z</time>
      </trkpt>
      <trkpt lat="43.58192" lon="6.93275">
        <ele>12</ele>
        <time>2013-09-14T14:05:38Z</time>
      </trkpt>
      <trkpt lat="43.58198" lon="6.93256">
        <ele>12</ele>
        <time>2013-09-14T14:05:41Z</time>
      </trkpt>
      <trkpt lat="43.58206" lon="6.93242">
        <ele>12</ele>
        <time>2013-09-14T14:05:44Z</time>
      </trkpt>
      <trkpt lat="43.58219" lon="6.93235">
        <ele>12</ele>
        <time>2013-09-14T14:05:47Z</time>
      </trkpt>
      <trkpt lat="43.58237" lon="6.93224">
        <ele>12</ele>
        <time>2013-09-14T14:05:51Z</time>
      </trkpt>
      <trkpt lat="43.58249" lon="6.93215">
        <ele>12</ele>
        <time>2013-09-14T14:05:54Z</time>
      </trkpt>
      <trkpt lat="43.5826" lon="6.93201">
        <ele>12</ele>
        <time>2013-09-14T14:05:57Z</time>
      </trkpt>
      <trkpt lat="43.58274" lon="6.93182">
        <ele>12</ele>
        <time>2013-09-14T14:06:01Z</time>
      </trkpt>
      <trkpt lat="43.58283" lon="6.93167">
        <ele>12</ele>
        <time>2013-09-14T14:06:04Z</time>
      </trkpt>
      <trkpt lat="43.58299" lon="6.93157">
        <ele>12</ele>
        <time>2013-09-14T14:06:08Z</time>
      </trkpt>
      <trkpt lat="43.58318" lon="6.93146">
        <ele>12</ele>
        <time>2013-09-14T14:06:12Z</time>
      </trkpt>
      <trkpt lat="43.5833" lon="6.93134">
        <ele>12</ele>
        <time>2013-09-14T14:06:15Z</time>
      </trkpt>
      <trkpt lat="43.58342" lon="6.93114">
        <ele>12</ele>
        <time>2013-09-14T14:06:19Z</time>
      </trkpt>
      <trkpt lat="43.58354" lon="6.93094">
        <ele>12</ele>
        <time>2013-09-14T14:06:23Z</time>
      </trkpt>
      <trkpt lat="43.58367" lon="6.93076">
        <ele>12</ele>
        <time>2013-09-14T14:06:27Z</time>
      </trkpt>
      <trkpt lat="43.58382" lon="6.93062">
        <ele>12</ele>
        <time>2013-09-14T14:06:31Z</time>
      </trkpt>
      <trkpt lat="43.58398" lon="6.93049">
        <ele>12</ele>
        <time>2013-09-14T14:06:35Z</time>
      </trkpt>
      <trkpt lat="43.58415" lon="6.93039">
        <ele>12</ele>
        <time>2013-09-14T14:06:39Z</time>
      </trkpt>
      <trkpt lat="43.58433" lon="6.93026">
        <ele>12.197205</ele>
        <time>2013-09-14T14:06:43Z</time>
      </trkpt>
      <trkpt lat="43.58446" lon="6.93015">
        <ele>12.354797</ele>
        <time>2013-09-14T14:06:46Z</time>
      </trkpt>
      <trkpt lat="43.58464" lon="6.93">
        <ele>12.564819</ele>
        <time>2013-09-14T14:06:50Z</time>
      </trkpt>
      <trkpt lat="43.58481" lon="6.9299">
        <ele>12.801612</ele>
        <time>2013-09-14T14:06:54Z</time>
      </trkpt>
      <trkpt lat="43.58494" lon="6.92981">
        <ele>12.94257</ele>
        <time>2013-09-14T14:06:57Z</time>
      </trkpt>
      <trkpt lat="43.58507" lon="6.92973">
        <ele>13</ele>
        <time>2013-09-14T14:07:00Z</time>
      </trkpt>
      <trkpt lat="43.58524" lon="6.92966">
        <ele>13</ele>
        <time>2013-09-14T14:07:04Z</time>
      </trkpt>
      <trkpt lat="43.58542" lon="6.92966">
        <ele>13</ele>
        <time>2013-09-14T14:07:08Z</time>
      </trkpt>
      <trkpt lat="43.58556" lon="6.92965">
        <ele>13</ele>
        <time>2013-09-14T14:07:11Z</time>
      </trkpt>
      <trkpt lat="43.58574" lon="6.92965">
        <ele>13</ele>
        <time>2013-09-14T14:07:15Z</time>
      </trkpt>
      <trkpt lat="43.58588" lon="6.92962">
        <ele>13</ele>
        <time>2013-09-14T14:07:18Z</time>
      </trkpt>
      <trkpt lat="43.58606" lon="6.92952">
        <ele>13</ele>
        <time>2013-09-14T14:07:22Z</time>
      </trkpt>
      <trkpt lat="43.58621" lon="6.92946">
        <ele>13</ele>
        <time>2013-09-14T14:07:25Z</time>
      </trkpt>
      <trkpt lat="43.58635" lon="6.92942">
        <ele>13</ele>
        <time>2013-09-14T14:07:28Z</time>
      </trkpt>
      <trkpt lat="43.58646" lon="6.92945">
        <ele>13</ele>
        <time>2013-09-14T14:07:31Z</time>
      </trkpt>
      <trkpt lat="43.5866" lon="6.92953">
        <ele>13</ele>
        <time>2013-09-14T14:07:34Z</time>
      </trkpt>
      <trkpt lat="43.58678" lon="6.92963">
        <ele>13</ele>
        <time>2013-09-14T14:07:38Z</time>
      </trkpt>
      <trkpt lat="43.58694" lon="6.92966">
        <ele>13</ele>
        <time>2013-09-14T14:07:41Z</time>
      </trkpt>
      <trkpt lat="43.58714" lon="6.92965">
        <ele>13</ele>
        <time>2013-09-14T14:07:45Z</time>
      </trkpt>
      <trkpt lat="43.58729" lon="6.92962">
        <ele>13</ele>
        <time>2013-09-14T14:07:48Z</time>
      </trkpt>
      <trkpt lat="43.58749" lon="6.92955">
        <ele>13</ele>
        <time>2013-09-14T14:07:52Z</time>
      </trkpt>
      <trkpt lat="43.58768" lon="6.92946">
        <ele>13</ele>
        <time>2013-09-14T14:07:56Z</time>
      </trkpt>
      <trkpt lat="43.58787" lon="6.92934">
        <ele>13</ele>
        <time>2013-09-14T14:08:00Z</time>
      </trkpt>
      <trkpt lat="43.58801" lon="6.92927">
        <ele>13</ele>
        <time>2013-09-14T14:08:03Z</time>
      </trkpt>
      <trkpt lat="43.58815" lon="6.9292">
        <ele>13</ele>
        <time>2013-09-14T14:08:06Z</time>
      </trkpt>
      <trkpt lat="43.58833" lon="6.9291">
        <ele>13</ele>
        <time>2013-09-14T14:08:10Z</time>
      </trkpt>
      <trkpt lat="43.58847" lon="6.92901">
        <ele>13</ele>
        <time>2013-09-14T14:08:13Z</time>
      </trkpt>
      <trkpt lat="43.58866" lon="6.92893">
        <ele>13</ele>
        <time>2013-09-14T14:08:17Z</time>
      </trkpt>
      <trkpt lat="43.5888" lon="6.9289">
        <ele>13</ele>
        <time>2013-09-14T14:08:20Z</time>
      </trkpt>
      <trkpt lat="43.58898" lon="6.92887">
        <ele>13</ele>
        <time>2013-09-14T14:08:24Z</time>
      </trkpt>
      <trkpt lat="43.58913" lon="6.92889">
        <ele>13</ele>
        <time>2013-09-14T14:08:27Z</time>
      </trkpt>
      <trkpt lat="43.58927" lon="6.92888">
        <ele>13</ele>
        <time>2013-09-14T14:08:30Z</time>
      </trkpt>
      <trkpt lat="43.58944" lon="6.92887">
        <ele>13</ele>
        <time>2013-09-14T14:08:34Z</time>
      </trkpt>
      <trkpt lat="43.58963" lon="6.92887">
        <ele>13</ele>
        <time>2013-09-14T14:08:38Z</time>
      </trkpt>
      <trkpt lat="43.58979" lon="6.92888">
        <ele>13</ele>
        <time>2013-09-14T14:08:41Z</time>
      </trkpt>
      <trkpt lat="43.58993" lon="6.92888">
        <ele>13</ele>
        <time>2013-09-14T14:08:44Z</time>
      </trkpt>
      <trkpt lat="43.59012" lon="6.9289">
        <ele>13</ele>
        <time>2013-09-14T14:08:48Z</time>
      </trkpt>
      <trkpt lat="43.59026" lon="6.92891">
        <ele>13</ele>
        <time>2013-09-14T14:08:51Z</time>
      </trkpt>
      <trkpt lat="43.59034" lon="6.92888">
        <ele>13</ele>
        <time>2013-09-14T14:08:54Z</time>
      </trkpt>
      <trkpt lat="43.59041" lon="6.92885">
        <ele>13</ele>
        <time>2013-09-14T14:08:57Z</time>
      </trkpt>
      <trkpt lat="43.59054" lon="6.92891">
        <ele>13</ele>
        <time>2013-09-14T14:09:01Z</time>
      </trkpt>
      <trkpt lat="43.59065" lon="6.92897">
        <ele>13</ele>
        <time>2013-09-14T14:09:04Z</time>
      </trkpt>
      <trkpt lat="43.5908" lon="6.92905">
        <ele>13</ele>
        <time>2013-09-14T14:09:08Z</time>
      </trkpt>
      <trkpt lat="43.5909" lon="6.92914">
        <ele>13.070917</ele>
        <time>2013-09-14T14:09:11Z</time>
      </trkpt>
      <trkpt lat="43.59099" lon="6.92923">
        <ele>13.252996</ele>
        <time>2013-09-14T14:09:14Z</time>
      </trkpt>
      <trkpt lat="43.59114" lon="6.92919">
        <ele>13.385429</ele>
        <time>2013-09-14T14:09:18Z</time>
      </trkpt>
      <trkpt lat="43.59123" lon="6.92899">
        <ele>13.373814</ele>
        <time>2013-09-14T14:09:22Z</time>
      </trkpt>
      <trkpt lat="43.59134" lon="6.92879">
        <ele>13.326454</ele>
        <time>2013-09-14T14:09:26Z</time>
      </trkpt>
      <trkpt lat="43.59142" lon="6.92862">
        <ele>13.240938</ele>
        <time>2013-09-14T14:09:29Z</time>
      </trkpt>
      <trkpt lat="43.59155" lon="6.92835">
        <ele>13.01984</ele>
        <time>2013-09-14T14:09:33Z</time>
      </trkpt>
      <trkpt lat="43.59166" lon="6.92808">
        <ele>13</ele>
        <time>2013-09-14T14:09:37Z</time>
      </trkpt>
      <trkpt lat="43.59173" lon="6.92787">
        <ele>13.14856</ele>
        <time>2013-09-14T14:09:40Z</time>
      </trkpt>
      <trkpt lat="43.59182" lon="6.92759">
        <ele>13.361206</ele>
        <time>2013-09-14T14:09:44Z</time>
      </trkpt>
      <trkpt lat="43.59188" lon="6.92738">
        <ele>13.508545</ele>
        <time>2013-09-14T14:09:47Z</time>
      </trkpt>
      <trkpt lat="43.59196" lon="6.92713">
        <ele>13.703857</ele>
        <time>2013-09-14T14:09:51Z</time>
      </trkpt>
      <trkpt lat="43.59203" lon="6.92696">
        <ele>13.879883</ele>
        <time>2013-09-14T14:09:54Z</time>
      </trkpt>
      <trkpt lat="43.59216" lon="6.92676">
        <ele>14.178589</ele>
        <time>2013-09-14T14:09:58Z</time>
      </trkpt>
      <trkpt lat="43.59233" lon="6.92662">
        <ele>14.582275</ele>
        <time>2013-09-14T14:10:02Z</time>
      </trkpt>
      <trkpt lat="43.59251" lon="6.92652">
        <ele>15.02472</ele>
        <time>2013-09-14T14:10:06Z</time>
      </trkpt>
      <trkpt lat="43.59269" lon="6.92645">
        <ele>15.513444</ele>
        <time>2013-09-14T14:10:10Z</time>
      </trkpt>
      <trkpt lat="43.59282" lon="6.9264">
        <ele>15.890254</ele>
        <time>2013-09-14T14:10:13Z</time>
      </trkpt>
      <trkpt lat="43.59295" lon="6.92634">
        <ele>16.282043</ele>
        <time>2013-09-14T14:10:16Z</time>
      </trkpt>
      <trkpt lat="43.59312" lon="6.9263">
        <ele>16.80331</ele>
        <time>2013-09-14T14:10:20Z</time>
      </trkpt>
      <trkpt lat="43.59327" lon="6.92629">
        <ele>17.274113</ele>
        <time>2013-09-14T14:10:24Z</time>
      </trkpt>
      <trkpt lat="43.59344" lon="6.92632">
        <ele>17.610615</ele>
        <time>2013-09-14T14:10:28Z</time>
      </trkpt>
      <trkpt lat="43.5936" lon="6.92634">
        <ele>17.906895</ele>
        <time>2013-09-14T14:10:32Z</time>
      </trkpt>
      <trkpt lat="43.59377" lon="6.92634">
        <ele>18.242325</ele>
        <time>2013-09-14T14:10:36Z</time>
      </trkpt>
      <trkpt lat="43.59391" lon="6.92636">
        <ele>18.497557</ele>
        <time>2013-09-14T14:10:39Z</time>
      </trkpt>
      <trkpt lat="43.59409" lon="6.92639">
        <ele>18.84865</ele>
        <time>2013-09-14T14:10:43Z</time>
      </trkpt>
      <trkpt lat="43.59424" lon="6.9264">
        <ele>19.028534</ele>
        <time>2013-09-14T14:10:47Z</time>
      </trkpt>
      <trkpt lat="43.59432" lon="6.92639">
        <ele>19.062418</ele>
        <time>2013-09-14T14:10:50Z</time>
      </trkpt>
      <trkpt lat="43.59441" lon="6.92641">
        <ele>19.091507</ele>
        <time>2013-09-14T14:10:54Z</time>
      </trkpt>
      <trkpt lat="43.5945" lon="6.92648">
        <ele>19.089285</ele>
        <time>2013-09-14T14:10:58Z</time>
      </trkpt>
      <trkpt lat="43.59461" lon="6.92658">
        <ele>19.053989</ele>
        <time>2013-09-14T14:11:02Z</time>
      </trkpt>
      <trkpt lat="43.59472" lon="6.92652">
        <ele>19.115158</ele>
        <time>2013-09-14T14:11:05Z</time>
      </trkpt>
      <trkpt lat="43.59462" lon="6.92631">
        <ele>19.236565</ele>
        <time>2013-09-14T14:11:09Z</time>
      </trkpt>
      <trkpt lat="43.59459" lon="6.92612">
        <ele>19.326946</ele>
        <time>2013-09-14T14:11:12Z</time>
      </trkpt>
      <trkpt lat="43.59454" lon="6.92589">
        <ele>19.41338</ele>
        <time>2013-09-14T14:11:16Z</time>
      </trkpt>
      <trkpt lat="43.59449" lon="6.92572">
        <ele>19.567711</ele>
        <time>2013-09-14T14:11:19Z</time>
      </trkpt>
      <trkpt lat="43.59439" lon="6.92551">
        <ele>19.761213</ele>
        <time>2013-09-14T14:11:23Z</time>
      </trkpt>
      <trkpt lat="43.59429" lon="6.92532">
        <ele>19.853859</ele>
        <time>2013-09-14T14:11:27Z</time>
      </trkpt>
      <trkpt lat="43.59419" lon="6.92514">
        <ele>19.879576</ele>
        <time>2013-09-14T14:11:31Z</time>
      </trkpt>
      <trkpt lat="43.59411" lon="6.92496">
        <ele>19.960032</ele>
        <time>2013-09-14T14:11:35Z</time>
      </trkpt>
      <trkpt lat="43.59397" lon="6.92486">
        <ele>19.789421</ele>
        <time>2013-09-14T14:11:39Z</time>
      </trkpt>
      <trkpt lat="43.59381" lon="6.92479">
        <ele>19.435017</ele>
        <time>2013-09-14T14:11:43Z</time>
      </trkpt>
      <trkpt lat="43.59369" lon="6.92469">
        <ele>19.192284</ele>
        <time>2013-09-14T14:11:46Z</time>
      </trkpt>
      <trkpt lat="43.59357" lon="6.92451">
        <ele>18.889597</ele>
        <time>2013-09-14T14:11:50Z</time>
      </trkpt>
      <trkpt lat="43.59345" lon="6.92433">
        <ele>18.525129</ele>
        <time>2013-09-14T14:11:54Z</time>
      </trkpt>
      <trkpt lat="43.59337" lon="6.92419">
        <ele>18.180214</ele>
        <time>2013-09-14T14:11:57Z</time>
      </trkpt>
      <trkpt lat="43.59331" lon="6.92405">
        <ele>18.186625</ele>
        <time>2013-09-14T14:12:00Z</time>
      </trkpt>
      <trkpt lat="43.59322" lon="6.92385">
        <ele>18.304707</ele>
        <time>2013-09-14T14:12:04Z</time>
      </trkpt>
      <trkpt lat="43.59316" lon="6.92371">
        <ele>18.371023</ele>
        <time>2013-09-14T14:12:07Z</time>
      </trkpt>
      <trkpt lat="43.59306" lon="6.92351">
        <ele>18.349226</ele>
        <time>2013-09-14T14:12:11Z</time>
      </trkpt>
      <trkpt lat="43.59294" lon="6.92332">
        <ele>18.156982</ele>
        <time>2013-09-14T14:12:15Z</time>
      </trkpt>
      <trkpt lat="43.59281" lon="6.92315">
        <ele>17.934082</ele>
        <time>2013-09-14T14:12:19Z</time>
      </trkpt>
      <trkpt lat="43.59267" lon="6.92302">
        <ele>17.560547</ele>
        <time>2013-09-14T14:12:23Z</time>
      </trkpt>
      <trkpt lat="43.59255" lon="6.92294">
        <ele>17.196045</ele>
        <time>2013-09-14T14:12:26Z</time>
      </trkpt>
      <trkpt lat="43.59241" lon="6.92281">
        <ele>16.955799</ele>
        <time>2013-09-14T14:12:30Z</time>
      </trkpt>
      <trkpt lat="43.59227" lon="6.92265">
        <ele>16.842724</ele>
        <time>2013-09-14T14:12:34Z</time>
      </trkpt>
      <trkpt lat="43.5922" lon="6.92243">
        <ele>16.905945</ele>
        <time>2013-09-14T14:12:38Z</time>
      </trkpt>
      <trkpt lat="43.5922" lon="6.92225">
        <ele>16.914551</ele>
        <time>2013-09-14T14:12:41Z</time>
      </trkpt>
      <trkpt lat="43.59221" lon="6.92208">
        <ele>16.960327</ele>
        <time>2013-09-14T14:12:44Z</time>
      </trkpt>
      <trkpt lat="43.59225" lon="6.92185">
        <ele>17.098022</ele>
        <time>2013-09-14T14:12:48Z</time>
      </trkpt>
      <trkpt lat="43.59228" lon="6.92167">
        <ele>17.201477</ele>
        <time>2013-09-14T14:12:51Z</time>
      </trkpt>
      <trkpt lat="43.59232" lon="6.92141">
        <ele>17.117653</ele>
        <time>2013-09-14T14:12:55Z</time>
      </trkpt>
      <trkpt lat="43.59234" lon="6.92121">
        <ele>16.990543</ele>
        <time>2013-09-14T14:12:58Z</time>
      </trkpt>
      <trkpt lat="43.59236" lon="6.92094">
        <ele>16.777288</ele>
        <time>2013-09-14T14:13:02Z</time>
      </trkpt>
      <trkpt lat="43.5924" lon="6.92068">
        <ele>16.590448</ele>
        <time>2013-09-14T14:13:06Z</time>
      </trkpt>
      <trkpt lat="43.59243" lon="6.92049">
        <ele>16.465294</ele>
        <time>2013-09-14T14:13:09Z</time>
      </trkpt>
      <trkpt lat="43.5925" lon="6.92027">
        <ele>16.346546</ele>
        <time>2013-09-14T14:13:13Z</time>
      </trkpt>
      <trkpt lat="43.59257" lon="6.92005">
        <ele>16.414673</ele>
        <time>2013-09-14T14:13:17Z</time>
      </trkpt>
      <trkpt lat="43.59263" lon="6.91989">
        <ele>16.57856</ele>
        <time>2013-09-14T14:13:20Z</time>
      </trkpt>
      <trkpt lat="43.59271" lon="6.91967">
        <ele>16.787697</ele>
        <time>2013-09-14T14:13:24Z</time>
      </trkpt>
      <trkpt lat="43.59277" lon="6.91951">
        <ele>16.897306</ele>
        <time>2013-09-14T14:13:27Z</time>
      </trkpt>
      <trkpt lat="43.59284" lon="6.91929">
        <ele>16.941095</ele>
        <time>2013-09-14T14:13:31Z</time>
      </trkpt>
      <trkpt lat="43.5929" lon="6.91913">
        <ele>16.946859</ele>
        <time>2013-09-14T14:13:34Z</time>
      </trkpt>
      <trkpt lat="43.59299" lon="6.91893">
        <ele>17.010214</ele>
        <time>2013-09-14T14:13:38Z</time>
      </trkpt>
      <trkpt lat="43.59309" lon="6.91874">
        <ele>17.043451</ele>
        <time>2013-09-14T14:13:42Z</time>
      </trkpt>
      <trkpt lat="43.59319" lon="6.91856">
        <ele>17.063234</ele>
        <time>2013-09-14T14:13:46Z</time>
      </trkpt>
      <trkpt lat="43.59328" lon="6.91844">
        <ele>17.055656</ele>
        <time>2013-09-14T14:13:49Z</time>
      </trkpt>
      <trkpt lat="43.59339" lon="6.91832">
        <ele>17.121906</ele>
        <time>2013-09-14T14:13:53Z</time>
      </trkpt>
      <trkpt lat="43.5935" lon="6.91823">
        <ele>17.248131</ele>
        <time>2013-09-14T14:13:57Z</time>
      </trkpt>
      <trkpt lat="43.59359" lon="6.91818">
        <ele>17.379131</ele>
        <time>2013-09-14T14:14:00Z</time>
      </trkpt>
      <trkpt lat="43.59368" lon="6.91812">
        <ele>17.474285</ele>
        <time>2013-09-14T14:14:03Z</time>
      </trkpt>
      <trkpt lat="43.59379" lon="6.91802">
        <ele>17.514797</ele>
        <time>2013-09-14T14:14:07Z</time>
      </trkpt>
      <trkpt lat="43.59389" lon="6.91791">
        <ele>17.478933</ele>
        <time>2013-09-14T14:14:10Z</time>
      </trkpt>
      <trkpt lat="43.59399" lon="6.91776">
        <ele>17.351973</ele>
        <time>2013-09-14T14:14:13Z</time>
      </trkpt>
      <trkpt lat="43.59408" lon="6.91764">
        <ele>17.211216</ele>
        <time>2013-09-14T14:14:16Z</time>
      </trkpt>
      <trkpt lat="43.59418" lon="6.91752">
        <ele>17.07576</ele>
        <time>2013-09-14T14:14:19Z</time>
      </trkpt>
      <trkpt lat="43.59428" lon="6.91736">
        <ele>17.077206</ele>
        <time>2013-09-14T14:14:23Z</time>
      </trkpt>
      <trkpt lat="43.59438" lon="6.9172">
        <ele>17.055759</ele>
        <time>2013-09-14T14:14:27Z</time>
      </trkpt>
      <trkpt lat="43.59446" lon="6.91708">
        <ele>17.020973</ele>
        <time>2013-09-14T14:14:30Z</time>
      </trkpt>
      <trkpt lat="43.59456" lon="6.91693">
        <ele>16.928474</ele>
        <time>2013-09-14T14:14:34Z</time>
      </trkpt>
      <trkpt lat="43.59462" lon="6.91686">
        <ele>16.903885</ele>
        <time>2013-09-14T14:14:37Z</time>
      </trkpt>
      <trkpt lat="43.59469" lon="6.9168">
        <ele>16.889351</ele>
        <time>2013-09-14T14:14:40Z</time>
      </trkpt>
      <trkpt lat="43.59478" lon="6.91668">
        <ele>16.761856</ele>
        <time>2013-09-14T14:14:44Z</time>
      </trkpt>
      <trkpt lat="43.59487" lon="6.91662">
        <ele>16.862181</ele>
        <time>2013-09-14T14:14:47Z</time>
      </trkpt>
      <trkpt lat="43.59496" lon="6.91653">
        <ele>16.97036</ele>
        <time>2013-09-14T14:14:50Z</time>
      </trkpt>
      <trkpt lat="43.59507" lon="6.9164">
        <ele>17.562229</ele>
        <time>2013-09-14T14:14:53Z</time>
      </trkpt>
      <trkpt lat="43.59516" lon="6.91631">
        <ele>18.080172</ele>
        <time>2013-09-14T14:14:57Z</time>
      </trkpt>
      <trkpt lat="43.59529" lon="6.91624">
        <ele>18.711895</ele>
        <time>2013-09-14T14:15:00Z</time>
      </trkpt>
      <trkpt lat="43.59539" lon="6.91621">
        <ele>19.166645</ele>
        <time>2013-09-14T14:15:04Z</time>
      </trkpt>
      <trkpt lat="43.59548" lon="6.91618">
        <ele>19.505552</ele>
        <time>2013-09-14T14:15:07Z</time>
      </trkpt>
      <trkpt lat="43.5956" lon="6.91611">
        <ele>19.648115</ele>
        <time>2013-09-14T14:15:11Z</time>
      </trkpt>
      <trkpt lat="43.5957" lon="6.91601">
        <ele>19.253305</ele>
        <time>2013-09-14T14:15:15Z</time>
      </trkpt>
      <trkpt lat="43.59576" lon="6.91591">
        <ele>18.536306</ele>
        <time>2013-09-14T14:15:18Z</time>
      </trkpt>
      <trkpt lat="43.5958" lon="6.91577">
        <ele>17.89299</ele>
        <time>2013-09-14T14:15:21Z</time>
      </trkpt>
      <trkpt lat="43.59585" lon="6.91565">
        <ele>18.321344</ele>
        <time>2013-09-14T14:15:24Z</time>
      </trkpt>
      <trkpt lat="43.59593" lon="6.91551">
        <ele>20.19969</ele>
        <time>2013-09-14T14:15:28Z</time>
      </trkpt>
      <trkpt lat="43.59601" lon="6.91541">
        <ele>21.458307</ele>
        <time>2013-09-14T14:15:31Z</time>
      </trkpt>
      <trkpt lat="43.59608" lon="6.91524">
        <ele>21.35742</ele>
        <time>2013-09-14T14:15:35Z</time>
      </trkpt>
      <trkpt lat="43.59613" lon="6.91511">
        <ele>20.477341</ele>
        <time>2013-09-14T14:15:38Z</time>
      </trkpt>
      <trkpt lat="43.59617" lon="6.91494">
        <ele>19.304386</ele>
        <time>2013-09-14T14:15:42Z</time>
      </trkpt>
      <trkpt lat="43.59622" lon="6.91478">
        <ele>19.172272</ele>
        <time>2013-09-14T14:15:46Z</time>
      </trkpt>
      <trkpt lat="43.59623" lon="6.91469">
        <ele>18.953733</ele>
        <time>2013-09-14T14:15:49Z</time>
      </trkpt>
      <trkpt lat="43.59624" lon="6.91458">
        <ele>18.733057</ele>
        <time>2013-09-14T14:15:53Z</time>
      </trkpt>
      <trkpt lat="43.59626" lon="6.91441">
        <ele>18.252621</ele>
        <time>2013-09-14T14:15:57Z</time>
      </trkpt>
      <trkpt lat="43.5963" lon="6.91424">
        <ele>17.686714</ele>
        <time>2013-09-14T14:16:00Z</time>
      </trkpt>
      <trkpt lat="43.59636" lon="6.91401">
        <ele>17.885365</ele>
        <time>2013-09-14T14:16:04Z</time>
      </trkpt>
      <trkpt lat="43.59644" lon="6.91381">
        <ele>18.376968</ele>
        <time>2013-09-14T14:16:08Z</time>
      </trkpt>
      <trkpt lat="43.59653" lon="6.91372">
        <ele>18.412468</ele>
        <time>2013-09-14T14:16:11Z</time>
      </trkpt>
      <trkpt lat="43.59667" lon="6.91369">
        <ele>18.147383</ele>
        <time>2013-09-14T14:16:15Z</time>
      </trkpt>
      <trkpt lat="43.59681" lon="6.91368">
        <ele>18.252506</ele>
        <time>2013-09-14T14:16:19Z</time>
      </trkpt>
      <trkpt lat="43.59693" lon="6.91367">
        <ele>18.324104</ele>
        <time>2013-09-14T14:16:23Z</time>
      </trkpt>
      <trkpt lat="43.597" lon="6.91367">
        <ele>18.361799</ele>
        <time>2013-09-14T14:16:26Z</time>
      </trkpt>
      <trkpt lat="43.59709" lon="6.91366">
        <ele>18.396416</ele>
        <time>2013-09-14T14:16:30Z</time>
      </trkpt>
      <trkpt lat="43.59714" lon="6.91364">
        <ele>18.387995</ele>
        <time>2013-09-14T14:16:33Z</time>
      </trkpt>
      <trkpt lat="43.5972" lon="6.91361">
        <ele>18.331837</ele>
        <time>2013-09-14T14:16:37Z</time>
      </trkpt>
      <trkpt lat="43.59725" lon="6.91356">
        <ele>18.209452</ele>
        <time>2013-09-14T14:16:40Z</time>
      </trkpt>
      <trkpt lat="43.59732" lon="6.91355">
        <ele>18.132572</ele>
        <time>2013-09-14T14:16:43Z</time>
      </trkpt>
      <trkpt lat="43.59744" lon="6.91357">
        <ele>18.146997</ele>
        <time>2013-09-14T14:16:47Z</time>
      </trkpt>
      <trkpt lat="43.59756" lon="6.9136">
        <ele>18.773701</ele>
        <time>2013-09-14T14:16:50Z</time>
      </trkpt>
      <trkpt lat="43.59765" lon="6.91359">
        <ele>19.45952</ele>
        <time>2013-09-14T14:16:54Z</time>
      </trkpt>
      <trkpt lat="43.59774" lon="6.91357">
        <ele>20.067472</ele>
        <time>2013-09-14T14:16:57Z</time>
      </trkpt>
      <trkpt lat="43.59784" lon="6.91355">
        <ele>20.589806</ele>
        <time>2013-09-14T14:17:00Z</time>
      </trkpt>
      <trkpt lat="43.59797" lon="6.91355">
        <ele>21.499352</ele>
        <time>2013-09-14T14:17:04Z</time>
      </trkpt>
      <trkpt lat="43.59808" lon="6.91355">
        <ele>22.245752</ele>
        <time>2013-09-14T14:17:08Z</time>
      </trkpt>
      <trkpt lat="43.59817" lon="6.91353">
        <ele>22.642141</ele>
        <time>2013-09-14T14:17:11Z</time>
      </trkpt>
      <trkpt lat="43.5983" lon="6.91351">
        <ele>23.045849</ele>
        <time>2013-09-14T14:17:15Z</time>
      </trkpt>
      <trkpt lat="43.59838" lon="6.91349">
        <ele>22.895746</ele>
        <time>2013-09-14T14:17:18Z</time>
      </trkpt>
      <trkpt lat="43.59849" lon="6.91345">
        <ele>22.400555</ele>
        <time>2013-09-14T14:17:22Z</time>
      </trkpt>
      <trkpt lat="43.59859" lon="6.91337">
        <ele>20.352173</ele>
        <time>2013-09-14T14:17:26Z</time>
      </trkpt>
      <trkpt lat="43.59864" lon="6.91328">
        <ele>19.330072</ele>
        <time>2013-09-14T14:17:29Z</time>
      </trkpt>
      <trkpt lat="43.59868" lon="6.9132">
        <ele>19.323406</ele>
        <time>2013-09-14T14:17:32Z</time>
      </trkpt>
      <trkpt lat="43.59871" lon="6.91308">
        <ele>19.280163</ele>
        <time>2013-09-14T14:17:35Z</time>
      </trkpt>
      <trkpt lat="43.59872" lon="6.91295">
        <ele>19.220493</ele>
        <time>2013-09-14T14:17:38Z</time>
      </trkpt>
      <trkpt lat="43.59872" lon="6.91276">
        <ele>19.094616</ele>
        <time>2013-09-14T14:17:42Z</time>
      </trkpt>
      <trkpt lat="43.5987" lon="6.91267">
        <ele>18.992302</ele>
        <time>2013-09-14T14:17:45Z</time>
      </trkpt>
      <trkpt lat="43.59869" lon="6.91261">
        <ele>18.919815</ele>
        <time>2013-09-14T14:17:59Z</time>
      </trkpt>
      <trkpt lat="43.59873" lon="6.91258">
        <ele>19.008194</ele>
        <time>2013-09-14T14:18:05Z</time>
      </trkpt>
      <trkpt lat="43.59879" lon="6.91256">
        <ele>19.120092</ele>
        <time>2013-09-14T14:18:10Z</time>
      </trkpt>
      <trkpt lat="43.59885" lon="6.91253">
        <ele>19.245163</ele>
        <time>2013-09-14T14:18:30Z</time>
      </trkpt>
      <trkpt lat="43.59892" lon="6.91253">
        <ele>19.420563</ele>
        <time>2013-09-14T14:18:33Z</time>
      </trkpt>
      <trkpt lat="43.599" lon="6.91249">
        <ele>19.646622</ele>
        <time>2013-09-14T14:18:36Z</time>
      </trkpt>
      <trkpt lat="43.59905" lon="6.91237">
        <ele>20.242228</ele>
        <time>2013-09-14T14:18:40Z</time>
      </trkpt>
      <trkpt lat="43.59911" lon="6.91232">
        <ele>20.668276</ele>
        <time>2013-09-14T14:18:44Z</time>
      </trkpt>
      <trkpt lat="43.59915" lon="6.91235">
        <ele>20.657511</ele>
        <time>2013-09-14T14:19:06Z</time>
      </trkpt>
      <trkpt lat="43.5992" lon="6.91233">
        <ele>20.867514</ele>
        <time>2013-09-14T14:19:12Z</time>
      </trkpt>
      <trkpt lat="43.59919" lon="6.91226">
        <ele>21.203405</ele>
        <time>2013-09-14T14:19:20Z</time>
      </trkpt>
      <trkpt lat="43.59919" lon="6.91219">
        <ele>21.567841</ele>
        <time>2013-09-14T14:19:26Z</time>
      </trkpt>
      <trkpt lat="43.59919" lon="6.91213">
        <ele>21.890669</ele>
        <time>2013-09-14T14:19:31Z</time>
      </trkpt>
      <trkpt lat="43.59918" lon="6.91206">
        <ele>22.161345</ele>
        <time>2013-09-14T14:19:37Z</time>
      </trkpt>
      <trkpt lat="43.59916" lon="6.912">
        <ele>22.362288</ele>
        <time>2013-09-14T14:19:43Z</time>
      </trkpt>
      <trkpt lat="43.59915" lon="6.91193">
        <ele>22.611919</ele>
        <time>2013-09-14T14:19:54Z</time>
      </trkpt>
      <trkpt lat="43.5991" lon="6.9119">
        <ele>22.492235</ele>
        <time>2013-09-14T14:20:02Z</time>
      </trkpt>
      <trkpt lat="43.59911" lon="6.91183">
        <ele>22.827246</ele>
        <time>2013-09-14T14:20:10Z</time>
      </trkpt>
      <trkpt lat="43.59915" lon="6.9118">
        <ele>23.213005</ele>
        <time>2013-09-14T14:20:16Z</time>
      </trkpt>
      <trkpt lat="43.59915" lon="6.91187">
        <ele>22.897179</ele>
        <time>2013-09-14T14:20:29Z</time>
      </trkpt>
      <trkpt lat="43.59919" lon="6.91191">
        <ele>22.94586</ele>
        <time>2013-09-14T14:20:36Z</time>
      </trkpt>
      <trkpt lat="43.59923" lon="6.91194">
        <ele>23.062149</ele>
        <time>2013-09-14T14:20:41Z</time>
      </trkpt>
      <trkpt lat="43.59927" lon="6.91197">
        <ele>23.092855</ele>
        <time>2013-09-14T14:20:46Z</time>
      </trkpt>
      <trkpt lat="43.59932" lon="6.91199">
        <ele>23.260902</ele>
        <time>2013-09-14T14:20:52Z</time>
      </trkpt>
      <trkpt lat="43.59937" lon="6.91199">
        <ele>23.457912</ele>
        <time>2013-09-14T14:20:56Z</time>
      </trkpt>
      <trkpt lat="43.59942" lon="6.91201">
        <ele>23.63291</ele>
        <time>2013-09-14T14:21:00Z</time>
      </trkpt>
      <trkpt lat="43.59947" lon="6.91201">
        <ele>23.843624</ele>
        <time>2013-09-14T14:21:10Z</time>
      </trkpt>
      <trkpt lat="43.59953" lon="6.91201">
        <ele>24.109144</ele>
        <time>2013-09-14T14:21:16Z</time>
      </trkpt>
      <trkpt lat="43.59957" lon="6.91199">
        <ele>24.501476</ele>
        <time>2013-09-14T14:21:22Z</time>
      </trkpt>
      <trkpt lat="43.59962" lon="6.91197">
        <ele>24.911366</ele>
        <time>2013-09-14T14:21:29Z</time>
      </trkpt>
      <trkpt lat="43.59967" lon="6.91197">
        <ele>25.217352</ele>
        <time>2013-09-14T14:21:40Z</time>
      </trkpt>
      <trkpt lat="43.59972" lon="6.91197">
        <ele>25.457642</ele>
        <time>2013-09-14T14:21:47Z</time>
      </trkpt>
      <trkpt lat="43.59976" lon="6.91195">
        <ele>25.9039</ele>
        <time>2013-09-14T14:21:52Z</time>
      </trkpt>
      <trkpt lat="43.59981" lon="6.91195">
        <ele>26.216181</ele>
        <time>2013-09-14T14:21:56Z</time>
      </trkpt>
      <trkpt lat="43.59986" lon="6.91193">
        <ele>26.672873</ele>
        <time>2013-09-14T14:22:00Z</time>
      </trkpt>
      <trkpt lat="43.59991" lon="6.91192">
        <ele>27.134163</ele>
        <time>2013-09-14T14:22:04Z</time>
      </trkpt>
      <trkpt lat="43.59996" lon="6.91192">
        <ele>27.354498</ele>
        <time>2013-09-14T14:22:08Z</time>
      </trkpt>
      <trkpt lat="43.6" lon="6.91195">
        <ele>27.220732</ele>
        <time>2013-09-14T14:22:12Z</time>
      </trkpt>
      <trkpt lat="43.60005" lon="6.91198">
        <ele>26.514374</ele>
        <time>2013-09-14T14:22:16Z</time>
      </trkpt>
      <trkpt lat="43.6001" lon="6.912">
        <ele>26.005421</ele>
        <time>2013-09-14T14:22:20Z</time>
      </trkpt>
      <trkpt lat="43.60015" lon="6.91201">
        <ele>25.615353</ele>
        <time>2013-09-14T14:22:24Z</time>
      </trkpt>
      <trkpt lat="43.60019" lon="6.91198">
        <ele>25.689049</ele>
        <time>2013-09-14T14:23:07Z</time>
      </trkpt>
      <trkpt lat="43.60038" lon="6.91201">
        <ele>24.343</ele>
        <time>2013-09-14T14:23:10Z</time>
      </trkpt>
      <trkpt lat="43.60058" lon="6.91207">
        <ele>22.771317</ele>
        <time>2013-09-14T14:23:14Z</time>
      </trkpt>
      <trkpt lat="43.6007" lon="6.91196">
        <ele>22.767643</ele>
        <time>2013-09-14T14:23:17Z</time>
      </trkpt>
      <trkpt lat="43.60092" lon="6.9118">
        <ele>22.261929</ele>
        <time>2013-09-14T14:23:21Z</time>
      </trkpt>
      <trkpt lat="43.60109" lon="6.91158">
        <ele>23.219027</ele>
        <time>2013-09-14T14:23:24Z</time>
      </trkpt>
      <trkpt lat="43.60132" lon="6.91143">
        <ele>23.962276</ele>
        <time>2013-09-14T14:23:28Z</time>
      </trkpt>
      <trkpt lat="43.60155" lon="6.91149">
        <ele>21.960974</ele>
        <time>2013-09-14T14:23:31Z</time>
      </trkpt>
      <trkpt lat="43.60167" lon="6.91154">
        <ele>20.889828</ele>
        <time>2013-09-14T14:23:35Z</time>
      </trkpt>
      <trkpt lat="43.60173" lon="6.91149">
        <ele>21.308187</ele>
        <time>2013-09-14T14:23:39Z</time>
      </trkpt>
      <trkpt lat="43.60177" lon="6.91144">
        <ele>21.651796</ele>
        <time>2013-09-14T14:23:42Z</time>
      </trkpt>
      <trkpt lat="43.60182" lon="6.91138">
        <ele>22.004601</ele>
        <time>2013-09-14T14:23:45Z</time>
      </trkpt>
      <trkpt lat="43.60188" lon="6.91131">
        <ele>22.335957</ele>
        <time>2013-09-14T14:23:49Z</time>
      </trkpt>
      <trkpt lat="43.60194" lon="6.91127">
        <ele>22.415497</ele>
        <time>2013-09-14T14:23:52Z</time>
      </trkpt>
      <trkpt lat="43.60199" lon="6.91124">
        <ele>22.467648</ele>
        <time>2013-09-14T14:23:55Z</time>
      </trkpt>
      <trkpt lat="43.60206" lon="6.91118">
        <ele>22.530453</ele>
        <time>2013-09-14T14:23:59Z</time>
      </trkpt>
      <trkpt lat="43.60211" lon="6.91112">
        <ele>22.565306</ele>
        <time>2013-09-14T14:24:02Z</time>
      </trkpt>
      <trkpt lat="43.60218" lon="6.91106">
        <ele>22.459139</ele>
        <time>2013-09-14T14:24:06Z</time>
      </trkpt>
      <trkpt lat="43.60224" lon="6.91101">
        <ele>22.312603</ele>
        <time>2013-09-14T14:24:09Z</time>
      </trkpt>
      <trkpt lat="43.60231" lon="6.91093">
        <ele>22.080427</ele>
        <time>2013-09-14T14:24:13Z</time>
      </trkpt>
      <trkpt lat="43.60237" lon="6.91089">
        <ele>21.786116</ele>
        <time>2013-09-14T14:24:16Z</time>
      </trkpt>
      <trkpt lat="43.60245" lon="6.91088">
        <ele>21.354862</ele>
        <time>2013-09-14T14:24:20Z</time>
      </trkpt>
      <trkpt lat="43.6025" lon="6.91085">
        <ele>21.042698</ele>
        <time>2013-09-14T14:24:24Z</time>
      </trkpt>
      <trkpt lat="43.60256" lon="6.9108">
        <ele>22.103992</ele>
        <time>2013-09-14T14:24:28Z</time>
      </trkpt>
      <trkpt lat="43.60259" lon="6.91073">
        <ele>22.895638</ele>
        <time>2013-09-14T14:24:31Z</time>
      </trkpt>
      <trkpt lat="43.60263" lon="6.91065">
        <ele>23.797855</ele>
        <time>2013-09-14T14:24:35Z</time>
      </trkpt>
      <trkpt lat="43.60266" lon="6.91059">
        <ele>24.4524</ele>
        <time>2013-09-14T14:24:39Z</time>
      </trkpt>
      <trkpt lat="43.60268" lon="6.91051">
        <ele>24.911854</ele>
        <time>2013-09-14T14:24:43Z</time>
      </trkpt>
      <trkpt lat="43.60268" lon="6.91042">
        <ele>25.233105</ele>
        <time>2013-09-14T14:24:47Z</time>
      </trkpt>
      <trkpt lat="43.60264" lon="6.91037">
        <ele>25.010807</ele>
        <time>2013-09-14T14:24:52Z</time>
      </trkpt>
      <trkpt lat="43.60262" lon="6.91044">
        <ele>24.495846</ele>
        <time>2013-09-14T14:24:56Z</time>
      </trkpt>
      <trkpt lat="43.60267" lon="6.91039">
        <ele>25.225498</ele>
        <time>2013-09-14T14:25:01Z</time>
      </trkpt>
      <trkpt lat="43.60274" lon="6.91028">
        <ele>26.177391</ele>
        <time>2013-09-14T14:25:05Z</time>
      </trkpt>
      <trkpt lat="43.60282" lon="6.9102">
        <ele>26.865694</ele>
        <time>2013-09-14T14:25:09Z</time>
      </trkpt>
      <trkpt lat="43.6029" lon="6.91015">
        <ele>27.392696</ele>
        <time>2013-09-14T14:25:13Z</time>
      </trkpt>
      <trkpt lat="43.60297" lon="6.91014">
        <ele>27.806538</ele>
        <time>2013-09-14T14:25:17Z</time>
      </trkpt>
      <trkpt lat="43.60306" lon="6.91013">
        <ele>28.286587</ele>
        <time>2013-09-14T14:25:21Z</time>
      </trkpt>
      <trkpt lat="43.60315" lon="6.91011">
        <ele>28.69939</ele>
        <time>2013-09-14T14:25:24Z</time>
      </trkpt>
      <trkpt lat="43.60329" lon="6.91007">
        <ele>29.227493</ele>
        <time>2013-09-14T14:25:27Z</time>
      </trkpt>
      <trkpt lat="43.6035" lon="6.91016">
        <ele>33.567535</ele>
        <time>2013-09-14T14:25:31Z</time>
      </trkpt>
      <trkpt lat="43.6036" lon="6.91032">
        <ele>36.359985</ele>
        <time>2013-09-14T14:25:35Z</time>
      </trkpt>
      <trkpt lat="43.6037" lon="6.91042">
        <ele>38.695511</ele>
        <time>2013-09-14T14:25:39Z</time>
      </trkpt>
      <trkpt lat="43.60378" lon="6.91047">
        <ele>40.575623</ele>
        <time>2013-09-14T14:25:42Z</time>
      </trkpt>
      <trkpt lat="43.60386" lon="6.91046">
        <ele>42.063206</ele>
        <time>2013-09-14T14:25:45Z</time>
      </trkpt>
      <trkpt lat="43.60392" lon="6.91034">
        <ele>42.919701</ele>
        <time>2013-09-14T14:25:49Z</time>
      </trkpt>
      <trkpt lat="43.60395" lon="6.91025">
        <ele>43.501945</ele>
        <time>2013-09-14T14:25:52Z</time>
      </trkpt>
      <trkpt lat="43.60401" lon="6.91016">
        <ele>44.665073</ele>
        <time>2013-09-14T14:25:56Z</time>
      </trkpt>
      <trkpt lat="43.60404" lon="6.91008">
        <ele>45.087029</ele>
        <time>2013-09-14T14:25:59Z</time>
      </trkpt>
      <trkpt lat="43.60406" lon="6.91001">
        <ele>45.627472</ele>
        <time>2013-09-14T14:26:02Z</time>
      </trkpt>
      <trkpt lat="43.60408" lon="6.90992">
        <ele>45.966217</ele>
        <time>2013-09-14T14:26:06Z</time>
      </trkpt>
      <trkpt lat="43.60412" lon="6.90987">
        <ele>46.844994</ele>
        <time>2013-09-14T14:26:10Z</time>
      </trkpt>
      <trkpt lat="43.60419" lon="6.90991">
        <ele>48.340763</ele>
        <time>2013-09-14T14:26:14Z</time>
      </trkpt>
      <trkpt lat="43.60427" lon="6.90994">
        <ele>49.570427</ele>
        <time>2013-09-14T14:26:18Z</time>
      </trkpt>
      <trkpt lat="43.60435" lon="6.90995">
        <ele>50.620888</ele>
        <time>2013-09-14T14:26:22Z</time>
      </trkpt>
      <trkpt lat="43.6044" lon="6.90995">
        <ele>51.426083</ele>
        <time>2013-09-14T14:26:26Z</time>
      </trkpt>
      <trkpt lat="43.60446" lon="6.90995">
        <ele>52.252983</ele>
        <time>2013-09-14T14:26:30Z</time>
      </trkpt>
      <trkpt lat="43.60451" lon="6.90995">
        <ele>53.051689</ele>
        <time>2013-09-14T14:26:34Z</time>
      </trkpt>
      <trkpt lat="43.60457" lon="6.90994">
        <ele>53.894547</ele>
        <time>2013-09-14T14:26:38Z</time>
      </trkpt>
      <trkpt lat="43.60463" lon="6.90995">
        <ele>54.725304</ele>
        <time>2013-09-14T14:26:42Z</time>
      </trkpt>
      <trkpt lat="43.60469" lon="6.90996">
        <ele>55.599876</ele>
        <time>2013-09-14T14:26:46Z</time>
      </trkpt>
      <trkpt lat="43.60474" lon="6.90995">
        <ele>56.353619</ele>
        <time>2013-09-14T14:26:49Z</time>
      </trkpt>
      <trkpt lat="43.60481" lon="6.90995">
        <ele>57.349579</ele>
        <time>2013-09-14T14:26:53Z</time>
      </trkpt>
      <trkpt lat="43.60488" lon="6.90995">
        <ele>58.314213</ele>
        <time>2013-09-14T14:26:57Z</time>
      </trkpt>
      <trkpt lat="43.60492" lon="6.90995">
        <ele>58.999756</ele>
        <time>2013-09-14T14:27:00Z</time>
      </trkpt>
      <trkpt lat="43.60497" lon="6.90995">
        <ele>59.664898</ele>
        <time>2013-09-14T14:27:03Z</time>
      </trkpt>
      <trkpt lat="43.60503" lon="6.90995">
        <ele>60.180511</ele>
        <time>2013-09-14T14:27:07Z</time>
      </trkpt>
      <trkpt lat="43.60508" lon="6.90994">
        <ele>60.31382</ele>
        <time>2013-09-14T14:27:11Z</time>
      </trkpt>
      <trkpt lat="43.60513" lon="6.90994">
        <ele>60.433498</ele>
        <time>2013-09-14T14:27:15Z</time>
      </trkpt>
      <trkpt lat="43.60518" lon="6.90994">
        <ele>60.562347</ele>
        <time>2013-09-14T14:27:19Z</time>
      </trkpt>
      <trkpt lat="43.60523" lon="6.90993">
        <ele>60.691238</ele>
        <time>2013-09-14T14:27:23Z</time>
      </trkpt>
      <trkpt lat="43.60528" lon="6.90994">
        <ele>60.779778</ele>
        <time>2013-09-14T14:27:27Z</time>
      </trkpt>
      <trkpt lat="43.60533" lon="6.90995">
        <ele>60.885017</ele>
        <time>2013-09-14T14:27:31Z</time>
      </trkpt>
      <trkpt lat="43.60537" lon="6.90994">
        <ele>61.008804</ele>
        <time>2013-09-14T14:27:35Z</time>
      </trkpt>
      <trkpt lat="43.60542" lon="6.90994">
        <ele>61.124603</ele>
        <time>2013-09-14T14:27:39Z</time>
      </trkpt>
      <trkpt lat="43.60547" lon="6.90994">
        <ele>61.242271</ele>
        <time>2013-09-14T14:27:43Z</time>
      </trkpt>
      <trkpt lat="43.60553" lon="6.90995">
        <ele>61.347847</ele>
        <time>2013-09-14T14:27:47Z</time>
      </trkpt>
      <trkpt lat="43.60558" lon="6.90995">
        <ele>61.473465</ele>
        <time>2013-09-14T14:27:51Z</time>
      </trkpt>
      <trkpt lat="43.60564" lon="6.90994">
        <ele>61.618626</ele>
        <time>2013-09-14T14:27:55Z</time>
      </trkpt>
      <trkpt lat="43.60569" lon="6.90994">
        <ele>61.75441</ele>
        <time>2013-09-14T14:27:59Z</time>
      </trkpt>
      <trkpt lat="43.60575" lon="6.90992">
        <ele>61.899963</ele>
        <time>2013-09-14T14:28:03Z</time>
      </trkpt>
      <trkpt lat="43.60581" lon="6.9099">
        <ele>62.055897</ele>
        <time>2013-09-14T14:28:07Z</time>
      </trkpt>
      <trkpt lat="43.60586" lon="6.90989">
        <ele>62.202991</ele>
        <time>2013-09-14T14:28:11Z</time>
      </trkpt>
      <trkpt lat="43.60592" lon="6.90989">
        <ele>62.346603</ele>
        <time>2013-09-14T14:28:15Z</time>
      </trkpt>
      <trkpt lat="43.60597" lon="6.90989">
        <ele>62.483742</ele>
        <time>2013-09-14T14:28:19Z</time>
      </trkpt>
      <trkpt lat="43.60602" lon="6.90988">
        <ele>62.614525</ele>
        <time>2013-09-14T14:28:23Z</time>
      </trkpt>
      <trkpt lat="43.60607" lon="6.90987">
        <ele>62.751575</ele>
        <time>2013-09-14T14:28:27Z</time>
      </trkpt>
      <trkpt lat="43.60612" lon="6.90988">
        <ele>62.889454</ele>
        <time>2013-09-14T14:28:31Z</time>
      </trkpt>
      <trkpt lat="43.60617" lon="6.90988">
        <ele>62.994827</ele>
        <time>2013-09-14T14:28:34Z</time>
      </trkpt>
      <trkpt lat="43.60623" lon="6.9099">
        <ele>63.125633</ele>
        <time>2013-09-14T14:28:38Z</time>
      </trkpt>
      <trkpt lat="43.60629" lon="6.90993">
        <ele>63.24548</ele>
        <time>2013-09-14T14:28:42Z</time>
      </trkpt>
      <trkpt lat="43.60635" lon="6.90994">
        <ele>63.358753</ele>
        <time>2013-09-14T14:28:46Z</time>
      </trkpt>
      <trkpt lat="43.60641" lon="6.90995">
        <ele>63.470757</ele>
        <time>2013-09-14T14:28:50Z</time>
      </trkpt>
      <trkpt lat="43.60645" lon="6.90996">
        <ele>63.56805</ele>
        <time>2013-09-14T14:28:53Z</time>
      </trkpt>
      <trkpt lat="43.60651" lon="6.90998">
        <ele>63.682278</ele>
        <time>2013-09-14T14:28:56Z</time>
      </trkpt>
      <trkpt lat="43.60664" lon="6.91">
        <ele>63.9366</ele>
        <time>2013-09-14T14:29:00Z</time>
      </trkpt>
      <trkpt lat="43.60677" lon="6.91">
        <ele>65.54763</ele>
        <time>2013-09-14T14:29:03Z</time>
      </trkpt>
      <trkpt lat="43.6069" lon="6.90998">
        <ele>67.644455</ele>
        <time>2013-09-14T14:29:06Z</time>
      </trkpt>
      <trkpt lat="43.60709" lon="6.91002">
        <ele>70.464775</ele>
        <time>2013-09-14T14:29:10Z</time>
      </trkpt>
      <trkpt lat="43.60724" lon="6.90999">
        <ele>73.007858</ele>
        <time>2013-09-14T14:29:14Z</time>
      </trkpt>
      <trkpt lat="43.60733" lon="6.90996">
        <ele>74.514481</ele>
        <time>2013-09-14T14:29:17Z</time>
      </trkpt>
      <trkpt lat="43.60739" lon="6.90994">
        <ele>75.482407</ele>
        <time>2013-09-14T14:29:20Z</time>
      </trkpt>
      <trkpt lat="43.60747" lon="6.90993">
        <ele>76.856773</ele>
        <time>2013-09-14T14:29:23Z</time>
      </trkpt>
      <trkpt lat="43.60758" lon="6.90989">
        <ele>77.99897</ele>
        <time>2013-09-14T14:29:27Z</time>
      </trkpt>
      <trkpt lat="43.60765" lon="6.90986">
        <ele>78.633453</ele>
        <time>2013-09-14T14:29:30Z</time>
      </trkpt>
      <trkpt lat="43.6077" lon="6.90982">
        <ele>79.186821</ele>
        <time>2013-09-14T14:29:33Z</time>
      </trkpt>
      <trkpt lat="43.60777" lon="6.90978">
        <ele>79.9133</ele>
        <time>2013-09-14T14:29:37Z</time>
      </trkpt>
      <trkpt lat="43.60782" lon="6.90973">
        <ele>80.474014</ele>
        <time>2013-09-14T14:29:40Z</time>
      </trkpt>
      <trkpt lat="43.60788" lon="6.90968">
        <ele>81.223953</ele>
        <time>2013-09-14T14:29:44Z</time>
      </trkpt>
      <trkpt lat="43.60793" lon="6.90962">
        <ele>81.920052</ele>
        <time>2013-09-14T14:29:48Z</time>
      </trkpt>
      <trkpt lat="43.608" lon="6.90962">
        <ele>82.498657</ele>
        <time>2013-09-14T14:29:52Z</time>
      </trkpt>
      <trkpt lat="43.60807" lon="6.90962">
        <ele>83.125366</ele>
        <time>2013-09-14T14:29:56Z</time>
      </trkpt>
      <trkpt lat="43.60814" lon="6.90962">
        <ele>83.737541</ele>
        <time>2013-09-14T14:30:00Z</time>
      </trkpt>
      <trkpt lat="43.6082" lon="6.90962">
        <ele>84.203804</ele>
        <time>2013-09-14T14:30:03Z</time>
      </trkpt>
      <trkpt lat="43.60825" lon="6.90961">
        <ele>84.66082</ele>
        <time>2013-09-14T14:30:06Z</time>
      </trkpt>
      <trkpt lat="43.60832" lon="6.9096">
        <ele>85.236816</ele>
        <time>2013-09-14T14:30:10Z</time>
      </trkpt>
      <trkpt lat="43.60837" lon="6.9096">
        <ele>85.579903</ele>
        <time>2013-09-14T14:30:13Z</time>
      </trkpt>
      <trkpt lat="43.60842" lon="6.9096">
        <ele>85.862251</ele>
        <time>2013-09-14T14:30:17Z</time>
      </trkpt>
      <trkpt lat="43.60847" lon="6.90958">
        <ele>86.244446</ele>
        <time>2013-09-14T14:30:21Z</time>
      </trkpt>
      <trkpt lat="43.60853" lon="6.90957">
        <ele>86.630371</ele>
        <time>2013-09-14T14:30:25Z</time>
      </trkpt>
      <trkpt lat="43.60859" lon="6.90956">
        <ele>87.030777</ele>
        <time>2013-09-14T14:30:29Z</time>
      </trkpt>
      <trkpt lat="43.60865" lon="6.90954">
        <ele>87.583984</ele>
        <time>2013-09-14T14:30:33Z</time>
      </trkpt>
      <trkpt lat="43.60869" lon="6.9095">
        <ele>88.127518</ele>
        <time>2013-09-14T14:30:36Z</time>
      </trkpt>
      <trkpt lat="43.60875" lon="6.90942">
        <ele>89.18502</ele>
        <time>2013-09-14T14:30:40Z</time>
      </trkpt>
      <trkpt lat="43.60884" lon="6.90934">
        <ele>90.519836</ele>
        <time>2013-09-14T14:30:43Z</time>
      </trkpt>
      <trkpt lat="43.60899" lon="6.90924">
        <ele>92.715225</ele>
        <time>2013-09-14T14:30:47Z</time>
      </trkpt>
      <trkpt lat="43.60915" lon="6.90915">
        <ele>94.739639</ele>
        <time>2013-09-14T14:30:51Z</time>
      </trkpt>
      <trkpt lat="43.60926" lon="6.90905">
        <ele>96.322876</ele>
        <time>2013-09-14T14:30:55Z</time>
      </trkpt>
      <trkpt lat="43.60932" lon="6.90895">
        <ele>97.004745</ele>
        <time>2013-09-14T14:30:58Z</time>
      </trkpt>
      <trkpt lat="43.60937" lon="6.90886">
        <ele>97.423233</ele>
        <time>2013-09-14T14:31:01Z</time>
      </trkpt>
      <trkpt lat="43.60941" lon="6.90878">
        <ele>97.858559</ele>
        <time>2013-09-14T14:31:04Z</time>
      </trkpt>
      <trkpt lat="43.60947" lon="6.90866">
        <ele>98.610809</ele>
        <time>2013-09-14T14:31:08Z</time>
      </trkpt>
      <trkpt lat="43.60953" lon="6.90857">
        <ele>99.503418</ele>
        <time>2013-09-14T14:31:11Z</time>
      </trkpt>
      <trkpt lat="43.60961" lon="6.90846">
        <ele>100.62117</ele>
        <time>2013-09-14T14:31:15Z</time>
      </trkpt>
      <trkpt lat="43.60966" lon="6.90832">
        <ele>100.772003</ele>
        <time>2013-09-14T14:31:19Z</time>
      </trkpt>
      <trkpt lat="43.60969" lon="6.90822">
        <ele>100.18985</ele>
        <time>2013-09-14T14:31:22Z</time>
      </trkpt>
      <trkpt lat="43.60975" lon="6.90811">
        <ele>100.098022</ele>
        <time>2013-09-14T14:31:26Z</time>
      </trkpt>
      <trkpt lat="43.60983" lon="6.90805">
        <ele>100.8573</ele>
        <time>2013-09-14T14:31:29Z</time>
      </trkpt>
      <trkpt lat="43.60991" lon="6.90798">
        <ele>101.517311</ele>
        <time>2013-09-14T14:31:33Z</time>
      </trkpt>
      <trkpt lat="43.60998" lon="6.9079">
        <ele>101.818237</ele>
        <time>2013-09-14T14:31:37Z</time>
      </trkpt>
      <trkpt lat="43.61003" lon="6.90785">
        <ele>102.08136</ele>
        <time>2013-09-14T14:31:40Z</time>
      </trkpt>
      <trkpt lat="43.61009" lon="6.9078">
        <ele>102.552933</ele>
        <time>2013-09-14T14:31:44Z</time>
      </trkpt>
      <trkpt lat="43.61013" lon="6.90775">
        <ele>102.566536</ele>
        <time>2013-09-14T14:31:47Z</time>
      </trkpt>
      <trkpt lat="43.61019" lon="6.90769">
        <ele>102.889236</ele>
        <time>2013-09-14T14:31:51Z</time>
      </trkpt>
      <trkpt lat="43.61023" lon="6.90766">
        <ele>103.366379</ele>
        <time>2013-09-14T14:31:54Z</time>
      </trkpt>
      <trkpt lat="43.61029" lon="6.90763">
        <ele>103.980408</ele>
        <time>2013-09-14T14:31:58Z</time>
      </trkpt>
      <trkpt lat="43.61033" lon="6.90759">
        <ele>104.415787</ele>
        <time>2013-09-14T14:32:01Z</time>
      </trkpt>
      <trkpt lat="43.6104" lon="6.90754">
        <ele>104.99855</ele>
        <time>2013-09-14T14:32:05Z</time>
      </trkpt>
      <trkpt lat="43.61045" lon="6.9075">
        <ele>105.551071</ele>
        <time>2013-09-14T14:32:08Z</time>
      </trkpt>
      <trkpt lat="43.61051" lon="6.90746">
        <ele>106.626366</ele>
        <time>2013-09-14T14:32:12Z</time>
      </trkpt>
      <trkpt lat="43.61056" lon="6.90744">
        <ele>107.428726</ele>
        <time>2013-09-14T14:32:15Z</time>
      </trkpt>
      <trkpt lat="43.61061" lon="6.90743">
        <ele>108.447113</ele>
        <time>2013-09-14T14:32:18Z</time>
      </trkpt>
      <trkpt lat="43.61066" lon="6.90741">
        <ele>109.397263</ele>
        <time>2013-09-14T14:32:21Z</time>
      </trkpt>
      <trkpt lat="43.61072" lon="6.90738">
        <ele>110.481689</ele>
        <time>2013-09-14T14:32:25Z</time>
      </trkpt>
      <trkpt lat="43.61077" lon="6.90738">
        <ele>111.398254</ele>
        <time>2013-09-14T14:32:28Z</time>
      </trkpt>
      <trkpt lat="43.61081" lon="6.90738">
        <ele>112.324539</ele>
        <time>2013-09-14T14:32:31Z</time>
      </trkpt>
      <trkpt lat="43.61086" lon="6.9074">
        <ele>113.374626</ele>
        <time>2013-09-14T14:32:34Z</time>
      </trkpt>
      <trkpt lat="43.61092" lon="6.90744">
        <ele>114.753685</ele>
        <time>2013-09-14T14:32:38Z</time>
      </trkpt>
      <trkpt lat="43.61098" lon="6.90749">
        <ele>116.091232</ele>
        <time>2013-09-14T14:32:42Z</time>
      </trkpt>
      <trkpt lat="43.61103" lon="6.90753">
        <ele>117.477203</ele>
        <time>2013-09-14T14:32:46Z</time>
      </trkpt>
      <trkpt lat="43.61109" lon="6.90756">
        <ele>118.723289</ele>
        <time>2013-09-14T14:32:50Z</time>
      </trkpt>
      <trkpt lat="43.61114" lon="6.9076">
        <ele>119.856575</ele>
        <time>2013-09-14T14:32:54Z</time>
      </trkpt>
      <trkpt lat="43.61119" lon="6.90763">
        <ele>120.969131</ele>
        <time>2013-09-14T14:32:58Z</time>
      </trkpt>
      <trkpt lat="43.61124" lon="6.90766">
        <ele>121.936867</ele>
        <time>2013-09-14T14:33:02Z</time>
      </trkpt>
      <trkpt lat="43.6113" lon="6.90769">
        <ele>122.929222</ele>
        <time>2013-09-14T14:33:06Z</time>
      </trkpt>
      <trkpt lat="43.61135" lon="6.90773">
        <ele>123.814476</ele>
        <time>2013-09-14T14:33:10Z</time>
      </trkpt>
      <trkpt lat="43.6114" lon="6.90775">
        <ele>124.59037</ele>
        <time>2013-09-14T14:33:14Z</time>
      </trkpt>
      <trkpt lat="43.61145" lon="6.90778">
        <ele>125.416397</ele>
        <time>2013-09-14T14:33:18Z</time>
      </trkpt>
      <trkpt lat="43.6115" lon="6.90781">
        <ele>126.158257</ele>
        <time>2013-09-14T14:33:22Z</time>
      </trkpt>
      <trkpt lat="43.61155" lon="6.90784">
        <ele>126.763382</ele>
        <time>2013-09-14T14:33:27Z</time>
      </trkpt>
      <trkpt lat="43.6116" lon="6.90785">
        <ele>127.53038</ele>
        <time>2013-09-14T14:33:32Z</time>
      </trkpt>
      <trkpt lat="43.61166" lon="6.90786">
        <ele>128.272369</ele>
        <time>2013-09-14T14:33:36Z</time>
      </trkpt>
      <trkpt lat="43.61171" lon="6.90785">
        <ele>129.369476</ele>
        <time>2013-09-14T14:33:40Z</time>
      </trkpt>
      <trkpt lat="43.61177" lon="6.90783">
        <ele>130.608643</ele>
        <time>2013-09-14T14:33:44Z</time>
      </trkpt>
      <trkpt lat="43.61182" lon="6.90783">
        <ele>131.682129</ele>
        <time>2013-09-14T14:33:48Z</time>
      </trkpt>
      <trkpt lat="43.61187" lon="6.90788">
        <ele>132.220306</ele>
        <time>2013-09-14T14:33:52Z</time>
      </trkpt>
      <trkpt lat="43.61188" lon="6.90797">
        <ele>131.429764</ele>
        <time>2013-09-14T14:33:56Z</time>
      </trkpt>
      <trkpt lat="43.61183" lon="6.90804">
        <ele>129.837372</ele>
        <time>2013-09-14T14:34:00Z</time>
      </trkpt>
      <trkpt lat="43.61174" lon="6.90807">
        <ele>128.203827</ele>
        <time>2013-09-14T14:34:04Z</time>
      </trkpt>
      <trkpt lat="43.61168" lon="6.9081">
        <ele>126.82988</ele>
        <time>2013-09-14T14:34:08Z</time>
      </trkpt>
      <trkpt lat="43.61166" lon="6.90816">
        <ele>126.174141</ele>
        <time>2013-09-14T14:34:11Z</time>
      </trkpt>
      <trkpt lat="43.61169" lon="6.90823">
        <ele>126.037521</ele>
        <time>2013-09-14T14:34:14Z</time>
      </trkpt>
      <trkpt lat="43.61174" lon="6.90829">
        <ele>126.457687</ele>
        <time>2013-09-14T14:34:18Z</time>
      </trkpt>
      <trkpt lat="43.61179" lon="6.9083">
        <ele>127.037498</ele>
        <time>2013-09-14T14:34:21Z</time>
      </trkpt>
      <trkpt lat="43.61185" lon="6.90834">
        <ele>127.51619</ele>
        <time>2013-09-14T14:34:25Z</time>
      </trkpt>
      <trkpt lat="43.6119" lon="6.90837">
        <ele>127.711792</ele>
        <time>2013-09-14T14:34:28Z</time>
      </trkpt>
      <trkpt lat="43.61196" lon="6.90838">
        <ele>128.363083</ele>
        <time>2013-09-14T14:34:32Z</time>
      </trkpt>
      <trkpt lat="43.61201" lon="6.90839">
        <ele>128.717926</ele>
        <time>2013-09-14T14:34:35Z</time>
      </trkpt>
      <trkpt lat="43.61205" lon="6.9084">
        <ele>129.085037</ele>
        <time>2013-09-14T14:34:38Z</time>
      </trkpt>
      <trkpt lat="43.61211" lon="6.90841">
        <ele>129.729553</ele>
        <time>2013-09-14T14:34:42Z</time>
      </trkpt>
      <trkpt lat="43.61217" lon="6.90841">
        <ele>130.354767</ele>
        <time>2013-09-14T14:34:46Z</time>
      </trkpt>
      <trkpt lat="43.61224" lon="6.90841">
        <ele>131.402939</ele>
        <time>2013-09-14T14:34:50Z</time>
      </trkpt>
      <trkpt lat="43.61229" lon="6.90838">
        <ele>132.855133</ele>
        <time>2013-09-14T14:34:54Z</time>
      </trkpt>
      <trkpt lat="43.61234" lon="6.90834">
        <ele>134.497849</ele>
        <time>2013-09-14T14:34:58Z</time>
      </trkpt>
      <trkpt lat="43.61238" lon="6.9083">
        <ele>135.855515</ele>
        <time>2013-09-14T14:35:02Z</time>
      </trkpt>
      <trkpt lat="43.61243" lon="6.90825">
        <ele>137.198288</ele>
        <time>2013-09-14T14:35:06Z</time>
      </trkpt>
      <trkpt lat="43.61248" lon="6.90822">
        <ele>138.5634</ele>
        <time>2013-09-14T14:35:10Z</time>
      </trkpt>
      <trkpt lat="43.61253" lon="6.90818">
        <ele>139.508743</ele>
        <time>2013-09-14T14:35:14Z</time>
      </trkpt>
      <trkpt lat="43.61258" lon="6.90816">
        <ele>140.197266</ele>
        <time>2013-09-14T14:35:18Z</time>
      </trkpt>
      <trkpt lat="43.61263" lon="6.90813">
        <ele>140.898224</ele>
        <time>2013-09-14T14:35:22Z</time>
      </trkpt>
      <trkpt lat="43.61268" lon="6.90812">
        <ele>141.390854</ele>
        <time>2013-09-14T14:35:26Z</time>
      </trkpt>
      <trkpt lat="43.61273" lon="6.90812">
        <ele>141.70462</ele>
        <time>2013-09-14T14:35:30Z</time>
      </trkpt>
      <trkpt lat="43.61278" lon="6.90813">
        <ele>141.73439</ele>
        <time>2013-09-14T14:35:34Z</time>
      </trkpt>
      <trkpt lat="43.61282" lon="6.90818">
        <ele>141.200317</ele>
        <time>2013-09-14T14:35:38Z</time>
      </trkpt>
      <trkpt lat="43.61286" lon="6.90823">
        <ele>140.305542</ele>
        <time>2013-09-14T14:35:42Z</time>
      </trkpt>
      <trkpt lat="43.6129" lon="6.90828">
        <ele>139.453644</ele>
        <time>2013-09-14T14:35:46Z</time>
      </trkpt>
      <trkpt lat="43.61295" lon="6.90829">
        <ele>139.458572</ele>
        <time>2013-09-14T14:35:50Z</time>
      </trkpt>
      <trkpt lat="43.61301" lon="6.90829">
        <ele>139.683228</ele>
        <time>2013-09-14T14:35:54Z</time>
      </trkpt>
      <trkpt lat="43.61306" lon="6.90829">
        <ele>139.866852</ele>
        <time>2013-09-14T14:35:58Z</time>
      </trkpt>
      <trkpt lat="43.61311" lon="6.90829">
        <ele>140.189224</ele>
        <time>2013-09-14T14:36:02Z</time>
      </trkpt>
      <trkpt lat="43.61317" lon="6.90826">
        <ele>141.045822</ele>
        <time>2013-09-14T14:36:06Z</time>
      </trkpt>
      <trkpt lat="43.6132" lon="6.9082">
        <ele>142.615921</ele>
        <time>2013-09-14T14:36:10Z</time>
      </trkpt>
      <trkpt lat="43.61322" lon="6.90814">
        <ele>144.123566</ele>
        <time>2013-09-14T14:36:13Z</time>
      </trkpt>
      <trkpt lat="43.61325" lon="6.90809">
        <ele>145.592178</ele>
        <time>2013-09-14T14:36:17Z</time>
      </trkpt>
      <trkpt lat="43.61329" lon="6.90805">
        <ele>146.905762</ele>
        <time>2013-09-14T14:36:21Z</time>
      </trkpt>
      <trkpt lat="43.61332" lon="6.908">
        <ele>148.305771</ele>
        <time>2013-09-14T14:36:25Z</time>
      </trkpt>
      <trkpt lat="43.61336" lon="6.90796">
        <ele>149.556351</ele>
        <time>2013-09-14T14:36:29Z</time>
      </trkpt>
      <trkpt lat="43.6134" lon="6.90795">
        <ele>150.138412</ele>
        <time>2013-09-14T14:36:32Z</time>
      </trkpt>
      <trkpt lat="43.61347" lon="6.90795">
        <ele>150.522095</ele>
        <time>2013-09-14T14:36:36Z</time>
      </trkpt>
      <trkpt lat="43.61351" lon="6.90796">
        <ele>150.359772</ele>
        <time>2013-09-14T14:36:39Z</time>
      </trkpt>
      <trkpt lat="43.61357" lon="6.90797">
        <ele>150.574081</ele>
        <time>2013-09-14T14:36:42Z</time>
      </trkpt>
      <trkpt lat="43.61366" lon="6.9079">
        <ele>152.904617</ele>
        <time>2013-09-14T14:36:46Z</time>
      </trkpt>
      <trkpt lat="43.6138" lon="6.90778">
        <ele>157.005508</ele>
        <time>2013-09-14T14:36:50Z</time>
      </trkpt>
      <trkpt lat="43.61387" lon="6.90778">
        <ele>157.655701</ele>
        <time>2013-09-14T14:36:53Z</time>
      </trkpt>
      <trkpt lat="43.61393" lon="6.90778">
        <ele>158.071167</ele>
        <time>2013-09-14T14:36:57Z</time>
      </trkpt>
      <trkpt lat="43.61402" lon="6.90773">
        <ele>159.910858</ele>
        <time>2013-09-14T14:37:01Z</time>
      </trkpt>
      <trkpt lat="43.61411" lon="6.90766">
        <ele>162.67601</ele>
        <time>2013-09-14T14:37:05Z</time>
      </trkpt>
      <trkpt lat="43.61418" lon="6.90759">
        <ele>165.387268</ele>
        <time>2013-09-14T14:37:08Z</time>
      </trkpt>
      <trkpt lat="43.61428" lon="6.90755">
        <ele>168.786621</ele>
        <time>2013-09-14T14:37:12Z</time>
      </trkpt>
      <trkpt lat="43.61435" lon="6.9076">
        <ele>168.816467</ele>
        <time>2013-09-14T14:37:15Z</time>
      </trkpt>
      <trkpt lat="43.6144" lon="6.90772">
        <ele>166.128418</ele>
        <time>2013-09-14T14:37:19Z</time>
      </trkpt>
      <trkpt lat="43.61443" lon="6.90783">
        <ele>163.407837</ele>
        <time>2013-09-14T14:37:23Z</time>
      </trkpt>
      <trkpt lat="43.61447" lon="6.9079">
        <ele>162.161133</ele>
        <time>2013-09-14T14:37:26Z</time>
      </trkpt>
      <trkpt lat="43.61452" lon="6.908">
        <ele>160.249756</ele>
        <time>2013-09-14T14:37:30Z</time>
      </trkpt>
      <trkpt lat="43.61458" lon="6.9081">
        <ele>158.401794</ele>
        <time>2013-09-14T14:37:34Z</time>
      </trkpt>
      <trkpt lat="43.61461" lon="6.90816">
        <ele>157.340027</ele>
        <time>2013-09-14T14:37:37Z</time>
      </trkpt>
      <trkpt lat="43.61467" lon="6.90821">
        <ele>157.14801</ele>
        <time>2013-09-14T14:37:41Z</time>
      </trkpt>
      <trkpt lat="43.61475" lon="6.9082">
        <ele>158.912109</ele>
        <time>2013-09-14T14:37:45Z</time>
      </trkpt>
      <trkpt lat="43.61481" lon="6.9082">
        <ele>160.359131</ele>
        <time>2013-09-14T14:37:49Z</time>
      </trkpt>
      <trkpt lat="43.61487" lon="6.9082">
        <ele>161.373169</ele>
        <time>2013-09-14T14:37:52Z</time>
      </trkpt>
      <trkpt lat="43.61493" lon="6.90818">
        <ele>163.1297</ele>
        <time>2013-09-14T14:37:56Z</time>
      </trkpt>
      <trkpt lat="43.61497" lon="6.90817">
        <ele>164.489502</ele>
        <time>2013-09-14T14:37:59Z</time>
      </trkpt>
      <trkpt lat="43.61503" lon="6.90814">
        <ele>166.692139</ele>
        <time>2013-09-14T14:38:03Z</time>
      </trkpt>
      <trkpt lat="43.61507" lon="6.90811">
        <ele>168.593872</ele>
        <time>2013-09-14T14:38:06Z</time>
      </trkpt>
      <trkpt lat="43.61512" lon="6.90808">
        <ele>170.692017</ele>
        <time>2013-09-14T14:38:09Z</time>
      </trkpt>
      <trkpt lat="43.61517" lon="6.90805">
        <ele>173.160889</ele>
        <time>2013-09-14T14:38:13Z</time>
      </trkpt>
      <trkpt lat="43.61522" lon="6.90801">
        <ele>175.525146</ele>
        <time>2013-09-14T14:38:17Z</time>
      </trkpt>
      <trkpt lat="43.61527" lon="6.90804">
        <ele>176.053711</ele>
        <time>2013-09-14T14:38:21Z</time>
      </trkpt>
      <trkpt lat="43.61532" lon="6.90813">
        <ele>174.679443</ele>
        <time>2013-09-14T14:38:25Z</time>
      </trkpt>
      <trkpt lat="43.61535" lon="6.9082">
        <ele>173.178833</ele>
        <time>2013-09-14T14:38:28Z</time>
      </trkpt>
      <trkpt lat="43.61537" lon="6.90829">
        <ele>170.870117</ele>
        <time>2013-09-14T14:38:32Z</time>
      </trkpt>
      <trkpt lat="43.61539" lon="6.90836">
        <ele>169.298203</ele>
        <time>2013-09-14T14:38:35Z</time>
      </trkpt>
      <trkpt lat="43.61543" lon="6.90844">
        <ele>167.81546</ele>
        <time>2013-09-14T14:38:39Z</time>
      </trkpt>
      <trkpt lat="43.61547" lon="6.9085">
        <ele>166.966599</ele>
        <time>2013-09-14T14:38:42Z</time>
      </trkpt>
      <trkpt lat="43.61553" lon="6.90856">
        <ele>166.483139</ele>
        <time>2013-09-14T14:38:46Z</time>
      </trkpt>
      <trkpt lat="43.61558" lon="6.90862">
        <ele>165.771332</ele>
        <time>2013-09-14T14:38:50Z</time>
      </trkpt>
      <trkpt lat="43.61563" lon="6.90866">
        <ele>165.575424</ele>
        <time>2013-09-14T14:38:53Z</time>
      </trkpt>
      <trkpt lat="43.61569" lon="6.90869">
        <ele>165.906601</ele>
        <time>2013-09-14T14:38:57Z</time>
      </trkpt>
      <trkpt lat="43.61576" lon="6.9087">
        <ele>167.228271</ele>
        <time>2013-09-14T14:39:01Z</time>
      </trkpt>
      <trkpt lat="43.61581" lon="6.9087">
        <ele>168.839478</ele>
        <time>2013-09-14T14:39:04Z</time>
      </trkpt>
      <trkpt lat="43.61595" lon="6.90869">
        <ele>171.217636</ele>
        <time>2013-09-14T14:39:08Z</time>
      </trkpt>
      <trkpt lat="43.61605" lon="6.90876">
        <ele>170.487854</ele>
        <time>2013-09-14T14:39:12Z</time>
      </trkpt>
      <trkpt lat="43.6161" lon="6.90885">
        <ele>168.071442</ele>
        <time>2013-09-14T14:39:16Z</time>
      </trkpt>
      <trkpt lat="43.61616" lon="6.90894">
        <ele>165.826126</ele>
        <time>2013-09-14T14:39:20Z</time>
      </trkpt>
      <trkpt lat="43.6162" lon="6.90901">
        <ele>164.245514</ele>
        <time>2013-09-14T14:39:23Z</time>
      </trkpt>
      <trkpt lat="43.61625" lon="6.90909">
        <ele>161.963684</ele>
        <time>2013-09-14T14:39:27Z</time>
      </trkpt>
      <trkpt lat="43.61628" lon="6.90915">
        <ele>160.458191</ele>
        <time>2013-09-14T14:39:30Z</time>
      </trkpt>
      <trkpt lat="43.61632" lon="6.9092">
        <ele>159.4328</ele>
        <time>2013-09-14T14:39:33Z</time>
      </trkpt>
      <trkpt lat="43.61638" lon="6.90923">
        <ele>159.37326</ele>
        <time>2013-09-14T14:39:37Z</time>
      </trkpt>
      <trkpt lat="43.61642" lon="6.90926">
        <ele>159.06308</ele>
        <time>2013-09-14T14:39:40Z</time>
      </trkpt>
      <trkpt lat="43.61651" lon="6.9093">
        <ele>159.113831</ele>
        <time>2013-09-14T14:39:44Z</time>
      </trkpt>
      <trkpt lat="43.61663" lon="6.90932">
        <ele>160.136276</ele>
        <time>2013-09-14T14:39:47Z</time>
      </trkpt>
      <trkpt lat="43.61675" lon="6.90928">
        <ele>163.191422</ele>
        <time>2013-09-14T14:39:50Z</time>
      </trkpt>
      <trkpt lat="43.61685" lon="6.90923">
        <ele>166.354904</ele>
        <time>2013-09-14T14:39:53Z</time>
      </trkpt>
      <trkpt lat="43.61692" lon="6.9092">
        <ele>168.328461</ele>
        <time>2013-09-14T14:39:57Z</time>
      </trkpt>
      <trkpt lat="43.61697" lon="6.9092">
        <ele>168.974213</ele>
        <time>2013-09-14T14:40:01Z</time>
      </trkpt>
      <trkpt lat="43.61703" lon="6.90923">
        <ele>168.644196</ele>
        <time>2013-09-14T14:40:05Z</time>
      </trkpt>
      <trkpt lat="43.61708" lon="6.90926">
        <ele>168.198502</ele>
        <time>2013-09-14T14:40:09Z</time>
      </trkpt>
      <trkpt lat="43.61713" lon="6.90929">
        <ele>167.894989</ele>
        <time>2013-09-14T14:40:13Z</time>
      </trkpt>
      <trkpt lat="43.61719" lon="6.90931">
        <ele>167.720993</ele>
        <time>2013-09-14T14:40:17Z</time>
      </trkpt>
      <trkpt lat="43.61725" lon="6.90933">
        <ele>167.54129</ele>
        <time>2013-09-14T14:40:21Z</time>
      </trkpt>
      <trkpt lat="43.61729" lon="6.90936">
        <ele>166.88649</ele>
        <time>2013-09-14T14:40:24Z</time>
      </trkpt>
      <trkpt lat="43.61734" lon="6.9094">
        <ele>165.654694</ele>
        <time>2013-09-14T14:40:28Z</time>
      </trkpt>
      <trkpt lat="43.61738" lon="6.90943">
        <ele>164.836151</ele>
        <time>2013-09-14T14:40:31Z</time>
      </trkpt>
      <trkpt lat="43.61744" lon="6.90947">
        <ele>163.819214</ele>
        <time>2013-09-14T14:40:35Z</time>
      </trkpt>
      <trkpt lat="43.61748" lon="6.90953">
        <ele>161.678574</ele>
        <time>2013-09-14T14:40:39Z</time>
      </trkpt>
      <trkpt lat="43.61752" lon="6.90958">
        <ele>159.380981</ele>
        <time>2013-09-14T14:40:43Z</time>
      </trkpt>
      <trkpt lat="43.61757" lon="6.90961">
        <ele>157.227097</ele>
        <time>2013-09-14T14:40:47Z</time>
      </trkpt>
      <trkpt lat="43.61762" lon="6.90963">
        <ele>155.172516</ele>
        <time>2013-09-14T14:40:51Z</time>
      </trkpt>
      <trkpt lat="43.61768" lon="6.90963">
        <ele>154.504807</ele>
        <time>2013-09-14T14:40:55Z</time>
      </trkpt>
      <trkpt lat="43.61774" lon="6.90963">
        <ele>153.146896</ele>
        <time>2013-09-14T14:40:59Z</time>
      </trkpt>
      <trkpt lat="43.61779" lon="6.90966">
        <ele>151.305542</ele>
        <time>2013-09-14T14:41:03Z</time>
      </trkpt>
      <trkpt lat="43.61782" lon="6.9097">
        <ele>148.708649</ele>
        <time>2013-09-14T14:41:07Z</time>
      </trkpt>
      <trkpt lat="43.61786" lon="6.90973">
        <ele>146.491821</ele>
        <time>2013-09-14T14:41:11Z</time>
      </trkpt>
      <trkpt lat="43.6179" lon="6.90976">
        <ele>143.89389</ele>
        <time>2013-09-14T14:41:16Z</time>
      </trkpt>
      <trkpt lat="43.61795" lon="6.9098">
        <ele>141.30957</ele>
        <time>2013-09-14T14:41:21Z</time>
      </trkpt>
      <trkpt lat="43.618" lon="6.90982">
        <ele>139.157913</ele>
        <time>2013-09-14T14:41:26Z</time>
      </trkpt>
      <trkpt lat="43.61806" lon="6.90981">
        <ele>138.742111</ele>
        <time>2013-09-14T14:41:30Z</time>
      </trkpt>
      <trkpt lat="43.61811" lon="6.90979">
        <ele>138.750641</ele>
        <time>2013-09-14T14:41:34Z</time>
      </trkpt>
      <trkpt lat="43.61817" lon="6.90978">
        <ele>138.216614</ele>
        <time>2013-09-14T14:41:38Z</time>
      </trkpt>
      <trkpt lat="43.61823" lon="6.90977">
        <ele>137.343094</ele>
        <time>2013-09-14T14:41:42Z</time>
      </trkpt>
      <trkpt lat="43.61828" lon="6.90976">
        <ele>137.113068</ele>
        <time>2013-09-14T14:41:45Z</time>
      </trkpt>
      <trkpt lat="43.61832" lon="6.90971">
        <ele>139.04921</ele>
        <time>2013-09-14T14:41:49Z</time>
      </trkpt>
      <trkpt lat="43.61835" lon="6.90966">
        <ele>141.141754</ele>
        <time>2013-09-14T14:41:53Z</time>
      </trkpt>
      <trkpt lat="43.61837" lon="6.9096">
        <ele>143.050873</ele>
        <time>2013-09-14T14:41:59Z</time>
      </trkpt>
      <trkpt lat="43.6184" lon="6.90955">
        <ele>144.531128</ele>
        <time>2013-09-14T14:42:05Z</time>
      </trkpt>
      <trkpt lat="43.61844" lon="6.90951">
        <ele>144.652908</ele>
        <time>2013-09-14T14:42:12Z</time>
      </trkpt>
      <trkpt lat="43.61849" lon="6.90948">
        <ele>143.682846</ele>
        <time>2013-09-14T14:42:17Z</time>
      </trkpt>
      <trkpt lat="43.61852" lon="6.90943">
        <ele>145.023499</ele>
        <time>2013-09-14T14:42:22Z</time>
      </trkpt>
      <trkpt lat="43.61852" lon="6.90937">
        <ele>147.946167</ele>
        <time>2013-09-14T14:42:27Z</time>
      </trkpt>
      <trkpt lat="43.61854" lon="6.90931">
        <ele>149.355911</ele>
        <time>2013-09-14T14:42:34Z</time>
      </trkpt>
      <trkpt lat="43.61854" lon="6.90925">
        <ele>152.639343</ele>
        <time>2013-09-14T14:42:44Z</time>
      </trkpt>
      <trkpt lat="43.61857" lon="6.90919">
        <ele>153.981888</ele>
        <time>2013-09-14T14:42:52Z</time>
      </trkpt>
      <trkpt lat="43.61856" lon="6.90911">
        <ele>157.45961</ele>
        <time>2013-09-14T14:42:58Z</time>
      </trkpt>
      <trkpt lat="43.61855" lon="6.90905">
        <ele>160.359558</ele>
        <time>2013-09-14T14:43:03Z</time>
      </trkpt>
      <trkpt lat="43.61856" lon="6.90899">
        <ele>161.922974</ele>
        <time>2013-09-14T14:43:08Z</time>
      </trkpt>
      <trkpt lat="43.61858" lon="6.90893">
        <ele>162.956177</ele>
        <time>2013-09-14T14:43:13Z</time>
      </trkpt>
      <trkpt lat="43.61859" lon="6.90887">
        <ele>164.782654</ele>
        <time>2013-09-14T14:43:19Z</time>
      </trkpt>
      <trkpt lat="43.6186" lon="6.90881">
        <ele>166.428345</ele>
        <time>2013-09-14T14:43:27Z</time>
      </trkpt>
      <trkpt lat="43.61862" lon="6.90873">
        <ele>167.642273</ele>
        <time>2013-09-14T14:43:32Z</time>
      </trkpt>
      <trkpt lat="43.61865" lon="6.90867">
        <ele>168.72348</ele>
        <time>2013-09-14T14:43:36Z</time>
      </trkpt>
      <trkpt lat="43.61867" lon="6.90861">
        <ele>169.627197</ele>
        <time>2013-09-14T14:43:40Z</time>
      </trkpt>
      <trkpt lat="43.61868" lon="6.90854">
        <ele>171.292084</ele>
        <time>2013-09-14T14:43:44Z</time>
      </trkpt>
      <trkpt lat="43.6187" lon="6.90846">
        <ele>173.420258</ele>
        <time>2013-09-14T14:48:41Z</time>
      </trkpt>
      <trkpt lat="43.61871" lon="6.90838">
        <ele>175.589355</ele>
        <time>2013-09-14T14:48:45Z</time>
      </trkpt>
      <trkpt lat="43.61871" lon="6.90829">
        <ele>178.164001</ele>
        <time>2013-09-14T14:48:49Z</time>
      </trkpt>
      <trkpt lat="43.61871" lon="6.90819">
        <ele>180.790146</ele>
        <time>2013-09-14T14:48:53Z</time>
      </trkpt>
      <trkpt lat="43.61872" lon="6.90809">
        <ele>183.050659</ele>
        <time>2013-09-14T14:48:57Z</time>
      </trkpt>
      <trkpt lat="43.61875" lon="6.90803">
        <ele>183.47937</ele>
        <time>2013-09-14T14:49:00Z</time>
      </trkpt>
      <trkpt lat="43.6188" lon="6.90796">
        <ele>183.347992</ele>
        <time>2013-09-14T14:49:04Z</time>
      </trkpt>
      <trkpt lat="43.61882" lon="6.90788">
        <ele>184.512878</ele>
        <time>2013-09-14T14:49:08Z</time>
      </trkpt>
      <trkpt lat="43.61884" lon="6.90781">
        <ele>185.992554</ele>
        <time>2013-09-14T14:49:11Z</time>
      </trkpt>
      <trkpt lat="43.61885" lon="6.90774">
        <ele>187.780365</ele>
        <time>2013-09-14T14:49:15Z</time>
      </trkpt>
      <trkpt lat="43.61886" lon="6.90766">
        <ele>189.895676</ele>
        <time>2013-09-14T14:49:19Z</time>
      </trkpt>
      <trkpt lat="43.61886" lon="6.90757">
        <ele>192.474136</ele>
        <time>2013-09-14T14:49:23Z</time>
      </trkpt>
      <trkpt lat="43.61885" lon="6.9075">
        <ele>195.016052</ele>
        <time>2013-09-14T14:49:26Z</time>
      </trkpt>
      <trkpt lat="43.61883" lon="6.90744">
        <ele>196.84848</ele>
        <time>2013-09-14T14:49:29Z</time>
      </trkpt>
      <trkpt lat="43.61881" lon="6.90736">
        <ele>198.839264</ele>
        <time>2013-09-14T14:49:33Z</time>
      </trkpt>
      <trkpt lat="43.61879" lon="6.90728">
        <ele>200.632111</ele>
        <time>2013-09-14T14:49:37Z</time>
      </trkpt>
      <trkpt lat="43.61878" lon="6.9072">
        <ele>202.364807</ele>
        <time>2013-09-14T14:49:41Z</time>
      </trkpt>
      <trkpt lat="43.61876" lon="6.90712">
        <ele>203.995239</ele>
        <time>2013-09-14T14:49:45Z</time>
      </trkpt>
      <trkpt lat="43.61872" lon="6.90707">
        <ele>205.82312</ele>
        <time>2013-09-14T14:49:49Z</time>
      </trkpt>
      <trkpt lat="43.61867" lon="6.90708">
        <ele>206.753723</ele>
        <time>2013-09-14T14:49:52Z</time>
      </trkpt>
      <trkpt lat="43.61864" lon="6.90712">
        <ele>206.853302</ele>
        <time>2013-09-14T14:49:55Z</time>
      </trkpt>
      <trkpt lat="43.61859" lon="6.90716">
        <ele>207.373093</ele>
        <time>2013-09-14T14:49:59Z</time>
      </trkpt>
      <trkpt lat="43.61854" lon="6.90719">
        <ele>208.296371</ele>
        <time>2013-09-14T14:50:03Z</time>
      </trkpt>
      <trkpt lat="43.61848" lon="6.90721">
        <ele>209.290192</ele>
        <time>2013-09-14T14:50:07Z</time>
      </trkpt>
      <trkpt lat="43.61843" lon="6.90721">
        <ele>210.36525</ele>
        <time>2013-09-14T14:50:10Z</time>
      </trkpt>
      <trkpt lat="43.61837" lon="6.90722">
        <ele>211.836517</ele>
        <time>2013-09-14T14:50:14Z</time>
      </trkpt>
      <trkpt lat="43.61831" lon="6.90724">
        <ele>212.857559</ele>
        <time>2013-09-14T14:50:18Z</time>
      </trkpt>
      <trkpt lat="43.61826" lon="6.90723">
        <ele>213.792358</ele>
        <time>2013-09-14T14:50:22Z</time>
      </trkpt>
      <trkpt lat="43.61821" lon="6.90722">
        <ele>214.683655</ele>
        <time>2013-09-14T14:50:26Z</time>
      </trkpt>
      <trkpt lat="43.61817" lon="6.9072">
        <ele>215.729095</ele>
        <time>2013-09-14T14:50:30Z</time>
      </trkpt>
      <trkpt lat="43.61813" lon="6.90714">
        <ele>216.907242</ele>
        <time>2013-09-14T14:50:34Z</time>
      </trkpt>
      <trkpt lat="43.61813" lon="6.90706">
        <ele>217.68367</ele>
        <time>2013-09-14T14:50:38Z</time>
      </trkpt>
      <trkpt lat="43.61815" lon="6.90699">
        <ele>218.237503</ele>
        <time>2013-09-14T14:50:42Z</time>
      </trkpt>
      <trkpt lat="43.61817" lon="6.90692">
        <ele>218.621475</ele>
        <time>2013-09-14T14:50:46Z</time>
      </trkpt>
      <trkpt lat="43.61819" lon="6.90686">
        <ele>218.760406</ele>
        <time>2013-09-14T14:50:50Z</time>
      </trkpt>
      <trkpt lat="43.61821" lon="6.90679">
        <ele>219.15213</ele>
        <time>2013-09-14T14:50:54Z</time>
      </trkpt>
      <trkpt lat="43.61822" lon="6.90672">
        <ele>219.591125</ele>
        <time>2013-09-14T14:50:58Z</time>
      </trkpt>
      <trkpt lat="43.61823" lon="6.90666">
        <ele>220.143295</ele>
        <time>2013-09-14T14:51:02Z</time>
      </trkpt>
      <trkpt lat="43.61823" lon="6.90659">
        <ele>220.884048</ele>
        <time>2013-09-14T14:51:06Z</time>
      </trkpt>
      <trkpt lat="43.61824" lon="6.90653">
        <ele>221.682449</ele>
        <time>2013-09-14T14:51:10Z</time>
      </trkpt>
      <trkpt lat="43.61824" lon="6.90646">
        <ele>222.455856</ele>
        <time>2013-09-14T14:51:14Z</time>
      </trkpt>
      <trkpt lat="43.61824" lon="6.90639">
        <ele>223.529877</ele>
        <time>2013-09-14T14:51:18Z</time>
      </trkpt>
      <trkpt lat="43.61823" lon="6.90631">
        <ele>224.597885</ele>
        <time>2013-09-14T14:51:22Z</time>
      </trkpt>
      <trkpt lat="43.61823" lon="6.90624">
        <ele>225.543289</ele>
        <time>2013-09-14T14:51:26Z</time>
      </trkpt>
      <trkpt lat="43.61824" lon="6.90617">
        <ele>226.296051</ele>
        <time>2013-09-14T14:51:30Z</time>
      </trkpt>
      <trkpt lat="43.61826" lon="6.9061">
        <ele>226.789825</ele>
        <time>2013-09-14T14:51:34Z</time>
      </trkpt>
      <trkpt lat="43.61828" lon="6.90603">
        <ele>227.274185</ele>
        <time>2013-09-14T14:51:38Z</time>
      </trkpt>
      <trkpt lat="43.61828" lon="6.90597">
        <ele>228.17662</ele>
        <time>2013-09-14T14:51:42Z</time>
      </trkpt>
      <trkpt lat="43.61828" lon="6.90589">
        <ele>229.223846</ele>
        <time>2013-09-14T14:51:46Z</time>
      </trkpt>
      <trkpt lat="43.61829" lon="6.90582">
        <ele>230.128098</ele>
        <time>2013-09-14T14:51:50Z</time>
      </trkpt>
      <trkpt lat="43.61829" lon="6.90575">
        <ele>231.063431</ele>
        <time>2013-09-14T14:51:54Z</time>
      </trkpt>
      <trkpt lat="43.6183" lon="6.90567">
        <ele>232.311325</ele>
        <time>2013-09-14T14:51:58Z</time>
      </trkpt>
      <trkpt lat="43.6183" lon="6.90559">
        <ele>233.638809</ele>
        <time>2013-09-14T14:52:02Z</time>
      </trkpt>
      <trkpt lat="43.61834" lon="6.90553">
        <ele>234.127335</ele>
        <time>2013-09-14T14:52:06Z</time>
      </trkpt>
      <trkpt lat="43.61837" lon="6.90547">
        <ele>234.991714</ele>
        <time>2013-09-14T14:52:10Z</time>
      </trkpt>
      <trkpt lat="43.6184" lon="6.9054">
        <ele>235.937347</ele>
        <time>2013-09-14T14:52:14Z</time>
      </trkpt>
      <trkpt lat="43.61843" lon="6.90534">
        <ele>236.8871</ele>
        <time>2013-09-14T14:52:18Z</time>
      </trkpt>
      <trkpt lat="43.61845" lon="6.90527">
        <ele>238.026886</ele>
        <time>2013-09-14T14:52:22Z</time>
      </trkpt>
      <trkpt lat="43.61847" lon="6.9052">
        <ele>239.197617</ele>
        <time>2013-09-14T14:52:26Z</time>
      </trkpt>
      <trkpt lat="43.6185" lon="6.90513">
        <ele>240.378052</ele>
        <time>2013-09-14T14:52:30Z</time>
      </trkpt>
      <trkpt lat="43.61852" lon="6.90505">
        <ele>241.71463</ele>
        <time>2013-09-14T14:52:34Z</time>
      </trkpt>
      <trkpt lat="43.61853" lon="6.90497">
        <ele>242.882202</ele>
        <time>2013-09-14T14:52:38Z</time>
      </trkpt>
      <trkpt lat="43.61854" lon="6.90489">
        <ele>243.912949</ele>
        <time>2013-09-14T14:52:42Z</time>
      </trkpt>
      <trkpt lat="43.61853" lon="6.90482">
        <ele>244.994858</ele>
        <time>2013-09-14T14:52:46Z</time>
      </trkpt>
      <trkpt lat="43.61852" lon="6.90474">
        <ele>246.042862</ele>
        <time>2013-09-14T14:52:50Z</time>
      </trkpt>
      <trkpt lat="43.61851" lon="6.90466">
        <ele>247.130463</ele>
        <time>2013-09-14T14:52:54Z</time>
      </trkpt>
      <trkpt lat="43.6185" lon="6.90458">
        <ele>248.240585</ele>
        <time>2013-09-14T14:52:58Z</time>
      </trkpt>
      <trkpt lat="43.61851" lon="6.9045">
        <ele>249.322708</ele>
        <time>2013-09-14T14:53:02Z</time>
      </trkpt>
      <trkpt lat="43.61854" lon="6.90444">
        <ele>249.867004</ele>
        <time>2013-09-14T14:53:05Z</time>
      </trkpt>
      <trkpt lat="43.61859" lon="6.90439">
        <ele>250.218063</ele>
        <time>2013-09-14T14:53:09Z</time>
      </trkpt>
      <trkpt lat="43.61864" lon="6.90438">
        <ele>250.071701</ele>
        <time>2013-09-14T14:53:13Z</time>
      </trkpt>
      <trkpt lat="43.61869" lon="6.90437">
        <ele>249.896591</ele>
        <time>2013-09-14T14:53:17Z</time>
      </trkpt>
      <trkpt lat="43.61874" lon="6.90435">
        <ele>249.896652</ele>
        <time>2013-09-14T14:53:21Z</time>
      </trkpt>
      <trkpt lat="43.61879" lon="6.90429">
        <ele>250.344543</ele>
        <time>2013-09-14T14:53:25Z</time>
      </trkpt>
      <trkpt lat="43.61881" lon="6.90423">
        <ele>250.873276</ele>
        <time>2013-09-14T14:53:28Z</time>
      </trkpt>
      <trkpt lat="43.61884" lon="6.90417">
        <ele>251.302231</ele>
        <time>2013-09-14T14:53:31Z</time>
      </trkpt>
      <trkpt lat="43.6189" lon="6.90413">
        <ele>251.117371</ele>
        <time>2013-09-14T14:53:35Z</time>
      </trkpt>
      <trkpt lat="43.61895" lon="6.90412">
        <ele>250.835907</ele>
        <time>2013-09-14T14:53:38Z</time>
      </trkpt>
      <trkpt lat="43.619" lon="6.90407">
        <ele>250.709366</ele>
        <time>2013-09-14T14:53:42Z</time>
      </trkpt>
      <trkpt lat="43.61902" lon="6.90401">
        <ele>250.867477</ele>
        <time>2013-09-14T14:53:46Z</time>
      </trkpt>
      <trkpt lat="43.61903" lon="6.90393">
        <ele>251.123367</ele>
        <time>2013-09-14T14:53:51Z</time>
      </trkpt>
      <trkpt lat="43.61908" lon="6.90392">
        <ele>250.676437</ele>
        <time>2013-09-14T14:53:56Z</time>
      </trkpt>
      <trkpt lat="43.61903" lon="6.90393">
        <ele>251.123352</ele>
        <time>2013-09-14T14:54:05Z</time>
      </trkpt>
      <trkpt lat="43.61898" lon="6.90395">
        <ele>251.476181</ele>
        <time>2013-09-14T14:54:08Z</time>
      </trkpt>
      <trkpt lat="43.61892" lon="6.90393">
        <ele>252.119873</ele>
        <time>2013-09-14T14:54:12Z</time>
      </trkpt>
      <trkpt lat="43.61888" lon="6.90386">
        <ele>252.872406</ele>
        <time>2013-09-14T14:54:16Z</time>
      </trkpt>
      <trkpt lat="43.61885" lon="6.9038">
        <ele>253.622269</ele>
        <time>2013-09-14T14:54:20Z</time>
      </trkpt>
      <trkpt lat="43.61881" lon="6.90373">
        <ele>254.44931</ele>
        <time>2013-09-14T14:54:24Z</time>
      </trkpt>
      <trkpt lat="43.61879" lon="6.90366">
        <ele>255.20694</ele>
        <time>2013-09-14T14:54:28Z</time>
      </trkpt>
      <trkpt lat="43.61875" lon="6.9036">
        <ele>256.098633</ele>
        <time>2013-09-14T14:54:32Z</time>
      </trkpt>
      <trkpt lat="43.6187" lon="6.90356">
        <ele>256.918671</ele>
        <time>2013-09-14T14:54:36Z</time>
      </trkpt>
      <trkpt lat="43.61867" lon="6.90352">
        <ele>257.727264</ele>
        <time>2013-09-14T14:54:40Z</time>
      </trkpt>
      <trkpt lat="43.61863" lon="6.90347">
        <ele>258.585083</ele>
        <time>2013-09-14T14:54:44Z</time>
      </trkpt>
      <trkpt lat="43.6186" lon="6.90341">
        <ele>259.546204</ele>
        <time>2013-09-14T14:54:48Z</time>
      </trkpt>
      <trkpt lat="43.61856" lon="6.90338">
        <ele>260.4039</ele>
        <time>2013-09-14T14:54:53Z</time>
      </trkpt>
      <trkpt lat="43.61853" lon="6.90331">
        <ele>261.094849</ele>
        <time>2013-09-14T14:55:16Z</time>
      </trkpt>
      <trkpt lat="43.61849" lon="6.90328">
        <ele>261.681183</ele>
        <time>2013-09-14T14:55:22Z</time>
      </trkpt>
      <trkpt lat="43.61845" lon="6.90325">
        <ele>262.320831</ele>
        <time>2013-09-14T14:55:29Z</time>
      </trkpt>
      <trkpt lat="43.61841" lon="6.90322">
        <ele>262.91983</ele>
        <time>2013-09-14T14:55:39Z</time>
      </trkpt>
      <trkpt lat="43.61837" lon="6.90317">
        <ele>263.435394</ele>
        <time>2013-09-14T14:55:47Z</time>
      </trkpt>
      <trkpt lat="43.61834" lon="6.90312">
        <ele>263.885529</ele>
        <time>2013-09-14T14:55:56Z</time>
      </trkpt>
      <trkpt lat="43.6183" lon="6.9031">
        <ele>264.350861</ele>
        <time>2013-09-14T14:56:06Z</time>
      </trkpt>
      <trkpt lat="43.61826" lon="6.90305">
        <ele>264.732574</ele>
        <time>2013-09-14T14:56:15Z</time>
      </trkpt>
      <trkpt lat="43.61822" lon="6.90302">
        <ele>265.128754</ele>
        <time>2013-09-14T14:56:21Z</time>
      </trkpt>
      <trkpt lat="43.61819" lon="6.90296">
        <ele>265.529205</ele>
        <time>2013-09-14T14:56:26Z</time>
      </trkpt>
      <trkpt lat="43.61814" lon="6.90295">
        <ele>266.037567</ele>
        <time>2013-09-14T14:56:32Z</time>
      </trkpt>
      <trkpt lat="43.61809" lon="6.90293">
        <ele>266.628082</ele>
        <time>2013-09-14T14:56:38Z</time>
      </trkpt>
      <trkpt lat="43.61805" lon="6.90289">
        <ele>267.110565</ele>
        <time>2013-09-14T14:56:43Z</time>
      </trkpt>
      <trkpt lat="43.61801" lon="6.90285">
        <ele>267.669189</ele>
        <time>2013-09-14T14:56:49Z</time>
      </trkpt>
      <trkpt lat="43.61796" lon="6.90283">
        <ele>268.255829</ele>
        <time>2013-09-14T14:56:55Z</time>
      </trkpt>
      <trkpt lat="43.61793" lon="6.90277">
        <ele>268.736633</ele>
        <time>2013-09-14T14:57:00Z</time>
      </trkpt>
      <trkpt lat="43.61788" lon="6.90274">
        <ele>269.312805</ele>
        <time>2013-09-14T14:57:06Z</time>
      </trkpt>
      <trkpt lat="43.61784" lon="6.9027">
        <ele>269.949829</ele>
        <time>2013-09-14T14:57:12Z</time>
      </trkpt>
      <trkpt lat="43.6178" lon="6.90267">
        <ele>270.549805</ele>
        <time>2013-09-14T14:57:17Z</time>
      </trkpt>
      <trkpt lat="43.61776" lon="6.90263">
        <ele>271.129578</ele>
        <time>2013-09-14T14:57:23Z</time>
      </trkpt>
      <trkpt lat="43.61775" lon="6.90257">
        <ele>271.504822</ele>
        <time>2013-09-14T14:57:28Z</time>
      </trkpt>
      <trkpt lat="43.61771" lon="6.90252">
        <ele>272.10022</ele>
        <time>2013-09-14T14:57:37Z</time>
      </trkpt>
      <trkpt lat="43.61768" lon="6.90248">
        <ele>272.479401</ele>
        <time>2013-09-14T14:57:41Z</time>
      </trkpt>
      <trkpt lat="43.61765" lon="6.90243">
        <ele>272.60733</ele>
        <time>2013-09-14T14:57:45Z</time>
      </trkpt>
      <trkpt lat="43.61761" lon="6.90237">
        <ele>272.702271</ele>
        <time>2013-09-14T14:57:49Z</time>
      </trkpt>
      <trkpt lat="43.61757" lon="6.90232">
        <ele>272.831085</ele>
        <time>2013-09-14T14:57:53Z</time>
      </trkpt>
      <trkpt lat="43.61753" lon="6.90228">
        <ele>273.017609</ele>
        <time>2013-09-14T14:57:57Z</time>
      </trkpt>
      <trkpt lat="43.61749" lon="6.90224">
        <ele>273.243713</ele>
        <time>2013-09-14T14:58:01Z</time>
      </trkpt>
      <trkpt lat="43.61744" lon="6.90219">
        <ele>273.545563</ele>
        <time>2013-09-14T14:58:05Z</time>
      </trkpt>
      <trkpt lat="43.61739" lon="6.90214">
        <ele>273.820282</ele>
        <time>2013-09-14T14:58:09Z</time>
      </trkpt>
      <trkpt lat="43.61736" lon="6.90211">
        <ele>274.085205</ele>
        <time>2013-09-14T14:58:12Z</time>
      </trkpt>
      <trkpt lat="43.61732" lon="6.90208">
        <ele>274.389587</ele>
        <time>2013-09-14T14:58:15Z</time>
      </trkpt>
      <trkpt lat="43.61726" lon="6.90205">
        <ele>274.870819</ele>
        <time>2013-09-14T14:58:19Z</time>
      </trkpt>
      <trkpt lat="43.61722" lon="6.90205">
        <ele>275.444519</ele>
        <time>2013-09-14T14:58:23Z</time>
      </trkpt>
      <trkpt lat="43.61726" lon="6.90206">
        <ele>274.984192</ele>
        <time>2013-09-14T14:58:40Z</time>
      </trkpt>
      <trkpt lat="43.61721" lon="6.90201">
        <ele>275.292847</ele>
        <time>2013-09-14T15:00:17Z</time>
      </trkpt>
      <trkpt lat="43.61726" lon="6.90205">
        <ele>274.910645</ele>
        <time>2013-09-14T15:04:07Z</time>
      </trkpt>
      <trkpt lat="43.61722" lon="6.90201">
        <ele>275.058472</ele>
        <time>2013-09-14T15:04:36Z</time>
      </trkpt>
      <trkpt lat="43.61727" lon="6.90195">
        <ele>274.014099</ele>
        <time>2013-09-14T15:05:06Z</time>
      </trkpt>
      <trkpt lat="43.61731" lon="6.90181">
        <ele>272.438965</ele>
        <time>2013-09-14T15:05:09Z</time>
      </trkpt>
      <trkpt lat="43.61725" lon="6.90169">
        <ele>272.231995</ele>
        <time>2013-09-14T15:05:13Z</time>
      </trkpt>
      <trkpt lat="43.61715" lon="6.90166">
        <ele>273.079285</ele>
        <time>2013-09-14T15:05:16Z</time>
      </trkpt>
      <trkpt lat="43.61702" lon="6.9016">
        <ele>273.614746</ele>
        <time>2013-09-14T15:05:20Z</time>
      </trkpt>
      <trkpt lat="43.61692" lon="6.90152">
        <ele>273.029907</ele>
        <time>2013-09-14T15:05:23Z</time>
      </trkpt>
      <trkpt lat="43.61682" lon="6.90141">
        <ele>271.832397</ele>
        <time>2013-09-14T15:05:26Z</time>
      </trkpt>
      <trkpt lat="43.6167" lon="6.90128">
        <ele>269.479675</ele>
        <time>2013-09-14T15:05:30Z</time>
      </trkpt>
      <trkpt lat="43.61661" lon="6.90113">
        <ele>266.65683</ele>
        <time>2013-09-14T15:05:34Z</time>
      </trkpt>
      <trkpt lat="43.61654" lon="6.90102">
        <ele>264.566742</ele>
        <time>2013-09-14T15:05:37Z</time>
      </trkpt>
      <trkpt lat="43.61643" lon="6.9009">
        <ele>262.15033</ele>
        <time>2013-09-14T15:05:40Z</time>
      </trkpt>
      <trkpt lat="43.61626" lon="6.90076">
        <ele>259.388763</ele>
        <time>2013-09-14T15:05:44Z</time>
      </trkpt>
      <trkpt lat="43.61613" lon="6.90062">
        <ele>256.666931</ele>
        <time>2013-09-14T15:05:48Z</time>
      </trkpt>
      <trkpt lat="43.61596" lon="6.90051">
        <ele>255.025513</ele>
        <time>2013-09-14T15:05:52Z</time>
      </trkpt>
      <trkpt lat="43.61581" lon="6.90042">
        <ele>253.583374</ele>
        <time>2013-09-14T15:05:55Z</time>
      </trkpt>
      <trkpt lat="43.61567" lon="6.90044">
        <ele>253.581909</ele>
        <time>2013-09-14T15:05:59Z</time>
      </trkpt>
      <trkpt lat="43.61562" lon="6.90043">
        <ele>253.239868</ele>
        <time>2013-09-14T15:07:01Z</time>
      </trkpt>
      <trkpt lat="43.61564" lon="6.90037">
        <ele>251.914673</ele>
        <time>2013-09-14T15:07:10Z</time>
      </trkpt>
      <trkpt lat="43.61567" lon="6.90032">
        <ele>250.712891</ele>
        <time>2013-09-14T15:07:14Z</time>
      </trkpt>
      <trkpt lat="43.61571" lon="6.90026">
        <ele>249.194336</ele>
        <time>2013-09-14T15:07:42Z</time>
      </trkpt>
      <trkpt lat="43.61566" lon="6.90023">
        <ele>248.444458</ele>
        <time>2013-09-14T15:07:55Z</time>
      </trkpt>
      <trkpt lat="43.61561" lon="6.90018">
        <ele>246.970703</ele>
        <time>2013-09-14T15:07:59Z</time>
      </trkpt>
      <trkpt lat="43.61554" lon="6.90017">
        <ele>246.600342</ele>
        <time>2013-09-14T15:08:02Z</time>
      </trkpt>
      <trkpt lat="43.61546" lon="6.90019">
        <ele>246.803467</ele>
        <time>2013-09-14T15:08:05Z</time>
      </trkpt>
      <trkpt lat="43.61535" lon="6.90021">
        <ele>247.038696</ele>
        <time>2013-09-14T15:08:09Z</time>
      </trkpt>
      <trkpt lat="43.61528" lon="6.90024">
        <ele>247.653809</ele>
        <time>2013-09-14T15:08:13Z</time>
      </trkpt>
      <trkpt lat="43.61526" lon="6.90018">
        <ele>246.085815</ele>
        <time>2013-09-14T15:08:57Z</time>
      </trkpt>
      <trkpt lat="43.61527" lon="6.90011">
        <ele>244.524414</ele>
        <time>2013-09-14T15:09:05Z</time>
      </trkpt>
      <trkpt lat="43.61529" lon="6.90006">
        <ele>243.123169</ele>
        <time>2013-09-14T15:09:13Z</time>
      </trkpt>
      <trkpt lat="43.61533" lon="6.90002">
        <ele>242.180054</ele>
        <time>2013-09-14T15:09:18Z</time>
      </trkpt>
      <trkpt lat="43.61537" lon="6.89999">
        <ele>241.642029</ele>
        <time>2013-09-14T15:09:22Z</time>
      </trkpt>
      <trkpt lat="43.6154" lon="6.89992">
        <ele>239.633972</ele>
        <time>2013-09-14T15:09:28Z</time>
      </trkpt>
      <trkpt lat="43.61545" lon="6.89989">
        <ele>238.621735</ele>
        <time>2013-09-14T15:09:31Z</time>
      </trkpt>
      <trkpt lat="43.61556" lon="6.89987">
        <ele>238.059967</ele>
        <time>2013-09-14T15:09:35Z</time>
      </trkpt>
      <trkpt lat="43.61567" lon="6.89981">
        <ele>236.417664</ele>
        <time>2013-09-14T15:09:39Z</time>
      </trkpt>
      <trkpt lat="43.61574" lon="6.89971">
        <ele>233.196609</ele>
        <time>2013-09-14T15:09:43Z</time>
      </trkpt>
      <trkpt lat="43.61581" lon="6.89966">
        <ele>231.578506</ele>
        <time>2013-09-14T15:09:46Z</time>
      </trkpt>
      <trkpt lat="43.61585" lon="6.89961">
        <ele>229.585693</ele>
        <time>2013-09-14T15:09:49Z</time>
      </trkpt>
      <trkpt lat="43.61593" lon="6.89957">
        <ele>227.840805</ele>
        <time>2013-09-14T15:09:53Z</time>
      </trkpt>
      <trkpt lat="43.61599" lon="6.89956">
        <ele>226.916595</ele>
        <time>2013-09-14T15:09:56Z</time>
      </trkpt>
      <trkpt lat="43.61608" lon="6.89958">
        <ele>227.022736</ele>
        <time>2013-09-14T15:10:00Z</time>
      </trkpt>
      <trkpt lat="43.61616" lon="6.89956">
        <ele>225.626373</ele>
        <time>2013-09-14T15:10:04Z</time>
      </trkpt>
      <trkpt lat="43.61621" lon="6.89951">
        <ele>223.842743</ele>
        <time>2013-09-14T15:10:07Z</time>
      </trkpt>
      <trkpt lat="43.61629" lon="6.8995">
        <ele>222.877975</ele>
        <time>2013-09-14T15:10:11Z</time>
      </trkpt>
      <trkpt lat="43.61635" lon="6.89952">
        <ele>223.033997</ele>
        <time>2013-09-14T15:10:15Z</time>
      </trkpt>
      <trkpt lat="43.61644" lon="6.89956">
        <ele>223.485809</ele>
        <time>2013-09-14T15:10:19Z</time>
      </trkpt>
      <trkpt lat="43.6165" lon="6.89956">
        <ele>223.094604</ele>
        <time>2013-09-14T15:10:22Z</time>
      </trkpt>
      <trkpt lat="43.61658" lon="6.89952">
        <ele>221.279099</ele>
        <time>2013-09-14T15:10:26Z</time>
      </trkpt>
      <trkpt lat="43.61665" lon="6.8995">
        <ele>220.229233</ele>
        <time>2013-09-14T15:10:29Z</time>
      </trkpt>
      <trkpt lat="43.61665" lon="6.89944">
        <ele>218.273407</ele>
        <time>2013-09-14T15:10:40Z</time>
      </trkpt>
      <trkpt lat="43.61664" lon="6.89938">
        <ele>216.514252</ele>
        <time>2013-09-14T15:10:48Z</time>
      </trkpt>
      <trkpt lat="43.61669" lon="6.89936">
        <ele>216.090103</ele>
        <time>2013-09-14T15:10:54Z</time>
      </trkpt>
      <trkpt lat="43.61673" lon="6.89939">
        <ele>217.359375</ele>
        <time>2013-09-14T15:11:02Z</time>
      </trkpt>
      <trkpt lat="43.61678" lon="6.89938">
        <ele>217.749802</ele>
        <time>2013-09-14T15:11:06Z</time>
      </trkpt>
      <trkpt lat="43.61682" lon="6.89943">
        <ele>219.479126</ele>
        <time>2013-09-14T15:11:13Z</time>
      </trkpt>
      <trkpt lat="43.61685" lon="6.89939">
        <ele>218.745392</ele>
        <time>2013-09-14T15:11:22Z</time>
      </trkpt>
      <trkpt lat="43.61687" lon="6.89932">
        <ele>217.14267</ele>
        <time>2013-09-14T15:11:32Z</time>
      </trkpt>
      <trkpt lat="43.61683" lon="6.89927">
        <ele>215.148026</ele>
        <time>2013-09-14T15:11:36Z</time>
      </trkpt>
      <trkpt lat="43.6168" lon="6.89923">
        <ele>213.489563</ele>
        <time>2013-09-14T15:11:40Z</time>
      </trkpt>
      <trkpt lat="43.61683" lon="6.89919">
        <ele>212.840164</ele>
        <time>2013-09-14T15:11:48Z</time>
      </trkpt>
      <trkpt lat="43.61682" lon="6.89912">
        <ele>210.487122</ele>
        <time>2013-09-14T15:12:02Z</time>
      </trkpt>
      <trkpt lat="43.61677" lon="6.89908">
        <ele>208.853363</ele>
        <time>2013-09-14T15:12:06Z</time>
      </trkpt>
      <trkpt lat="43.61675" lon="6.89902">
        <ele>206.973663</ele>
        <time>2013-09-14T15:12:11Z</time>
      </trkpt>
      <trkpt lat="43.61674" lon="6.89896">
        <ele>205.0784</ele>
        <time>2013-09-14T15:12:18Z</time>
      </trkpt>
      <trkpt lat="43.61672" lon="6.8989">
        <ele>203.066711</ele>
        <time>2013-09-14T15:12:25Z</time>
      </trkpt>
      <trkpt lat="43.61669" lon="6.89886">
        <ele>201.316559</ele>
        <time>2013-09-14T15:12:39Z</time>
      </trkpt>
      <trkpt lat="43.61667" lon="6.89877">
        <ele>198.571213</ele>
        <time>2013-09-14T15:13:05Z</time>
      </trkpt>
      <trkpt lat="43.61672" lon="6.89877">
        <ele>199.21286</ele>
        <time>2013-09-14T15:14:29Z</time>
      </trkpt>
      <trkpt lat="43.61678" lon="6.8988">
        <ele>200.759766</ele>
        <time>2013-09-14T15:14:33Z</time>
      </trkpt>
      <trkpt lat="43.61684" lon="6.89883">
        <ele>202.470123</ele>
        <time>2013-09-14T15:14:37Z</time>
      </trkpt>
      <trkpt lat="43.6169" lon="6.89886">
        <ele>204.063034</ele>
        <time>2013-09-14T15:14:41Z</time>
      </trkpt>
      <trkpt lat="43.61697" lon="6.89888">
        <ele>205.466858</ele>
        <time>2013-09-14T15:14:45Z</time>
      </trkpt>
      <trkpt lat="43.61705" lon="6.89886">
        <ele>206.056503</ele>
        <time>2013-09-14T15:14:48Z</time>
      </trkpt>
      <trkpt lat="43.61721" lon="6.89869">
        <ele>203.064102</ele>
        <time>2013-09-14T15:14:52Z</time>
      </trkpt>
      <trkpt lat="43.61736" lon="6.89845">
        <ele>197.890335</ele>
        <time>2013-09-14T15:14:56Z</time>
      </trkpt>
      <trkpt lat="43.61738" lon="6.89825">
        <ele>192.758179</ele>
        <time>2013-09-14T15:14:59Z</time>
      </trkpt>
      <trkpt lat="43.61739" lon="6.89803">
        <ele>188.21701</ele>
        <time>2013-09-14T15:15:03Z</time>
      </trkpt>
      <trkpt lat="43.61739" lon="6.89781">
        <ele>183.787018</ele>
        <time>2013-09-14T15:15:07Z</time>
      </trkpt>
      <trkpt lat="43.61746" lon="6.89767">
        <ele>181.710098</ele>
        <time>2013-09-14T15:15:11Z</time>
      </trkpt>
      <trkpt lat="43.61752" lon="6.89759">
        <ele>181.29689</ele>
        <time>2013-09-14T15:15:14Z</time>
      </trkpt>
      <trkpt lat="43.61765" lon="6.89756">
        <ele>183.082123</ele>
        <time>2013-09-14T15:15:18Z</time>
      </trkpt>
      <trkpt lat="43.61776" lon="6.89754">
        <ele>184.835007</ele>
        <time>2013-09-14T15:15:22Z</time>
      </trkpt>
      <trkpt lat="43.61787" lon="6.89751">
        <ele>186.240967</ele>
        <time>2013-09-14T15:15:26Z</time>
      </trkpt>
      <trkpt lat="43.61798" lon="6.89752">
        <ele>188.801895</ele>
        <time>2013-09-14T15:15:30Z</time>
      </trkpt>
      <trkpt lat="43.61807" lon="6.89754">
        <ele>191.090179</ele>
        <time>2013-09-14T15:15:33Z</time>
      </trkpt>
      <trkpt lat="43.6182" lon="6.89755">
        <ele>193.626328</ele>
        <time>2013-09-14T15:15:37Z</time>
      </trkpt>
      <trkpt lat="43.61829" lon="6.89752">
        <ele>194.504837</ele>
        <time>2013-09-14T15:15:40Z</time>
      </trkpt>
      <trkpt lat="43.61839" lon="6.89744">
        <ele>194.565811</ele>
        <time>2013-09-14T15:15:44Z</time>
      </trkpt>
      <trkpt lat="43.61849" lon="6.89737">
        <ele>194.74971</ele>
        <time>2013-09-14T15:15:48Z</time>
      </trkpt>
      <trkpt lat="43.61858" lon="6.89735">
        <ele>195.628067</ele>
        <time>2013-09-14T15:15:51Z</time>
      </trkpt>
      <trkpt lat="43.6187" lon="6.89737">
        <ele>198.127563</ele>
        <time>2013-09-14T15:15:55Z</time>
      </trkpt>
      <trkpt lat="43.61878" lon="6.89737">
        <ele>199.809998</ele>
        <time>2013-09-14T15:15:58Z</time>
      </trkpt>
      <trkpt lat="43.61887" lon="6.89737">
        <ele>201.180191</ele>
        <time>2013-09-14T15:16:01Z</time>
      </trkpt>
      <trkpt lat="43.61894" lon="6.89735">
        <ele>201.728394</ele>
        <time>2013-09-14T15:16:04Z</time>
      </trkpt>
      <trkpt lat="43.61903" lon="6.89731">
        <ele>202.211823</ele>
        <time>2013-09-14T15:16:08Z</time>
      </trkpt>
      <trkpt lat="43.6191" lon="6.89728">
        <ele>202.529694</ele>
        <time>2013-09-14T15:16:11Z</time>
      </trkpt>
      <trkpt lat="43.61917" lon="6.89725">
        <ele>202.873383</ele>
        <time>2013-09-14T15:16:14Z</time>
      </trkpt>
      <trkpt lat="43.61926" lon="6.89724">
        <ele>203.599884</ele>
        <time>2013-09-14T15:16:18Z</time>
      </trkpt>
      <trkpt lat="43.61933" lon="6.89724">
        <ele>204.54834</ele>
        <time>2013-09-14T15:16:21Z</time>
      </trkpt>
      <trkpt lat="43.61943" lon="6.89724">
        <ele>205.559235</ele>
        <time>2013-09-14T15:16:25Z</time>
      </trkpt>
      <trkpt lat="43.61953" lon="6.89721">
        <ele>205.694458</ele>
        <time>2013-09-14T15:16:29Z</time>
      </trkpt>
      <trkpt lat="43.61963" lon="6.89714">
        <ele>205.154449</ele>
        <time>2013-09-14T15:16:33Z</time>
      </trkpt>
      <trkpt lat="43.61972" lon="6.89706">
        <ele>203.964722</ele>
        <time>2013-09-14T15:16:37Z</time>
      </trkpt>
      <trkpt lat="43.61979" lon="6.897">
        <ele>203.302139</ele>
        <time>2013-09-14T15:16:40Z</time>
      </trkpt>
      <trkpt lat="43.61987" lon="6.89695">
        <ele>202.920349</ele>
        <time>2013-09-14T15:16:43Z</time>
      </trkpt>
      <trkpt lat="43.61997" lon="6.8969">
        <ele>202.769638</ele>
        <time>2013-09-14T15:16:47Z</time>
      </trkpt>
      <trkpt lat="43.62004" lon="6.89688">
        <ele>202.813614</ele>
        <time>2013-09-14T15:16:50Z</time>
      </trkpt>
      <trkpt lat="43.62014" lon="6.89684">
        <ele>202.429749</ele>
        <time>2013-09-14T15:16:54Z</time>
      </trkpt>
      <trkpt lat="43.62023" lon="6.8968">
        <ele>202.199417</ele>
        <time>2013-09-14T15:16:58Z</time>
      </trkpt>
      <trkpt lat="43.62031" lon="6.89679">
        <ele>202.542023</ele>
        <time>2013-09-14T15:17:01Z</time>
      </trkpt>
      <trkpt lat="43.62041" lon="6.89678">
        <ele>203.040466</ele>
        <time>2013-09-14T15:17:05Z</time>
      </trkpt>
      <trkpt lat="43.62048" lon="6.89677">
        <ele>203.516785</ele>
        <time>2013-09-14T15:17:08Z</time>
      </trkpt>
      <trkpt lat="43.62059" lon="6.89677">
        <ele>204.32074</ele>
        <time>2013-09-14T15:17:12Z</time>
      </trkpt>
      <trkpt lat="43.62069" lon="6.89674">
        <ele>204.745575</ele>
        <time>2013-09-14T15:17:16Z</time>
      </trkpt>
      <trkpt lat="43.62077" lon="6.89672">
        <ele>205.024475</ele>
        <time>2013-09-14T15:17:19Z</time>
      </trkpt>
      <trkpt lat="43.62086" lon="6.89668">
        <ele>205.10022</ele>
        <time>2013-09-14T15:17:23Z</time>
      </trkpt>
      <trkpt lat="43.62096" lon="6.89666">
        <ele>204.487228</ele>
        <time>2013-09-14T15:17:27Z</time>
      </trkpt>
      <trkpt lat="43.62103" lon="6.89664">
        <ele>204.071152</ele>
        <time>2013-09-14T15:17:30Z</time>
      </trkpt>
      <trkpt lat="43.6211" lon="6.89663">
        <ele>203.741226</ele>
        <time>2013-09-14T15:17:33Z</time>
      </trkpt>
      <trkpt lat="43.62119" lon="6.8966">
        <ele>203.32608</ele>
        <time>2013-09-14T15:17:37Z</time>
      </trkpt>
      <trkpt lat="43.62128" lon="6.89658">
        <ele>203.016449</ele>
        <time>2013-09-14T15:17:41Z</time>
      </trkpt>
      <trkpt lat="43.62136" lon="6.89655">
        <ele>202.763748</ele>
        <time>2013-09-14T15:17:45Z</time>
      </trkpt>
      <trkpt lat="43.6214" lon="6.89651">
        <ele>202.605682</ele>
        <time>2013-09-14T15:17:50Z</time>
      </trkpt>
      <trkpt lat="43.62144" lon="6.89644">
        <ele>202.471527</ele>
        <time>2013-09-14T15:17:55Z</time>
      </trkpt>
      <trkpt lat="43.62147" lon="6.89634">
        <ele>202.369308</ele>
        <time>2013-09-14T15:17:59Z</time>
      </trkpt>
      <trkpt lat="43.62159" lon="6.89622">
        <ele>202.748779</ele>
        <time>2013-09-14T15:18:03Z</time>
      </trkpt>
      <trkpt lat="43.62166" lon="6.89608">
        <ele>203.350571</ele>
        <time>2013-09-14T15:18:06Z</time>
      </trkpt>
      <trkpt lat="43.62148" lon="6.89593">
        <ele>202.047104</ele>
        <time>2013-09-14T15:18:10Z</time>
      </trkpt>
      <trkpt lat="43.62129" lon="6.89585">
        <ele>200.009094</ele>
        <time>2013-09-14T15:18:14Z</time>
      </trkpt>
      <trkpt lat="43.6212" lon="6.89581">
        <ele>199.013367</ele>
        <time>2013-09-14T15:18:17Z</time>
      </trkpt>
      <trkpt lat="43.62109" lon="6.89573">
        <ele>198.044922</ele>
        <time>2013-09-14T15:18:20Z</time>
      </trkpt>
      <trkpt lat="43.62096" lon="6.8957">
        <ele>196.641907</ele>
        <time>2013-09-14T15:18:24Z</time>
      </trkpt>
      <trkpt lat="43.62084" lon="6.89565">
        <ele>195.530029</ele>
        <time>2013-09-14T15:18:27Z</time>
      </trkpt>
      <trkpt lat="43.62073" lon="6.89549">
        <ele>194.424606</ele>
        <time>2013-09-14T15:18:31Z</time>
      </trkpt>
      <trkpt lat="43.62064" lon="6.89534">
        <ele>193.963074</ele>
        <time>2013-09-14T15:18:35Z</time>
      </trkpt>
      <trkpt lat="43.62059" lon="6.89527">
        <ele>193.611725</ele>
        <time>2013-09-14T15:18:38Z</time>
      </trkpt>
      <trkpt lat="43.62053" lon="6.8952">
        <ele>193.352249</ele>
        <time>2013-09-14T15:18:41Z</time>
      </trkpt>
      <trkpt lat="43.62044" lon="6.89516">
        <ele>192.702866</ele>
        <time>2013-09-14T15:18:45Z</time>
      </trkpt>
      <trkpt lat="43.62038" lon="6.89513">
        <ele>192.271088</ele>
        <time>2013-09-14T15:18:48Z</time>
      </trkpt>
      <trkpt lat="43.6203" lon="6.89513">
        <ele>191.521912</ele>
        <time>2013-09-14T15:18:52Z</time>
      </trkpt>
      <trkpt lat="43.62022" lon="6.89514">
        <ele>190.73732</ele>
        <time>2013-09-14T15:18:56Z</time>
      </trkpt>
      <trkpt lat="43.62018" lon="6.89512">
        <ele>190.420135</ele>
        <time>2013-09-14T15:18:59Z</time>
      </trkpt>
      <trkpt lat="43.62012" lon="6.89509">
        <ele>190.119141</ele>
        <time>2013-09-14T15:19:03Z</time>
      </trkpt>
      <trkpt lat="43.62006" lon="6.89507">
        <ele>189.812424</ele>
        <time>2013-09-14T15:19:23Z</time>
      </trkpt>
      <trkpt lat="43.62001" lon="6.89507">
        <ele>189.365799</ele>
        <time>2013-09-14T15:19:29Z</time>
      </trkpt>
      <trkpt lat="43.61996" lon="6.89505">
        <ele>189.395828</ele>
        <time>2013-09-14T15:19:35Z</time>
      </trkpt>
      <trkpt lat="43.61992" lon="6.89503">
        <ele>189.624374</ele>
        <time>2013-09-14T15:19:41Z</time>
      </trkpt>
      <trkpt lat="43.61987" lon="6.895">
        <ele>189.930878</ele>
        <time>2013-09-14T15:19:47Z</time>
      </trkpt>
      <trkpt lat="43.61983" lon="6.89495">
        <ele>190.863831</ele>
        <time>2013-09-14T15:19:53Z</time>
      </trkpt>
      <trkpt lat="43.61978" lon="6.89492">
        <ele>191.465179</ele>
        <time>2013-09-14T15:19:59Z</time>
      </trkpt>
      <trkpt lat="43.61975" lon="6.89487">
        <ele>192.346481</ele>
        <time>2013-09-14T15:20:04Z</time>
      </trkpt>
      <trkpt lat="43.6197" lon="6.89485">
        <ele>192.794739</ele>
        <time>2013-09-14T15:20:11Z</time>
      </trkpt>
      <trkpt lat="43.61966" lon="6.89482">
        <ele>193.191574</ele>
        <time>2013-09-14T15:20:20Z</time>
      </trkpt>
      <trkpt lat="43.61961" lon="6.89484">
        <ele>192.761597</ele>
        <time>2013-09-14T15:20:33Z</time>
      </trkpt>
      <trkpt lat="43.61956" lon="6.89484">
        <ele>192.730576</ele>
        <time>2013-09-14T15:20:39Z</time>
      </trkpt>
      <trkpt lat="43.61951" lon="6.89483">
        <ele>192.638519</ele>
        <time>2013-09-14T15:20:44Z</time>
      </trkpt>
      <trkpt lat="43.61946" lon="6.89482">
        <ele>192.764435</ele>
        <time>2013-09-14T15:20:48Z</time>
      </trkpt>
      <trkpt lat="43.61941" lon="6.89478">
        <ele>193.439362</ele>
        <time>2013-09-14T15:20:54Z</time>
      </trkpt>
      <trkpt lat="43.61937" lon="6.89475">
        <ele>193.898193</ele>
        <time>2013-09-14T15:20:59Z</time>
      </trkpt>
      <trkpt lat="43.61932" lon="6.89474">
        <ele>194.058258</ele>
        <time>2013-09-14T15:21:05Z</time>
      </trkpt>
      <trkpt lat="43.61928" lon="6.89471">
        <ele>194.473083</ele>
        <time>2013-09-14T15:21:11Z</time>
      </trkpt>
      <trkpt lat="43.61924" lon="6.89467">
        <ele>195.181915</ele>
        <time>2013-09-14T15:21:17Z</time>
      </trkpt>
      <trkpt lat="43.6192" lon="6.89463">
        <ele>195.70578</ele>
        <time>2013-09-14T15:21:22Z</time>
      </trkpt>
      <trkpt lat="43.61916" lon="6.89461">
        <ele>195.973969</ele>
        <time>2013-09-14T15:21:27Z</time>
      </trkpt>
      <trkpt lat="43.61912" lon="6.89456">
        <ele>196.583603</ele>
        <time>2013-09-14T15:21:33Z</time>
      </trkpt>
      <trkpt lat="43.61911" lon="6.89449">
        <ele>197.61113</ele>
        <time>2013-09-14T15:21:39Z</time>
      </trkpt>
      <trkpt lat="43.61912" lon="6.89443">
        <ele>198.911438</ele>
        <time>2013-09-14T15:21:45Z</time>
      </trkpt>
      <trkpt lat="43.61915" lon="6.89437">
        <ele>200.097733</ele>
        <time>2013-09-14T15:21:52Z</time>
      </trkpt>
      <trkpt lat="43.61917" lon="6.89432">
        <ele>201.302383</ele>
        <time>2013-09-14T15:22:01Z</time>
      </trkpt>
      <trkpt lat="43.61912" lon="6.89427">
        <ele>201.742249</ele>
        <time>2013-09-14T15:22:49Z</time>
      </trkpt>
      <trkpt lat="43.61909" lon="6.89432">
        <ele>200.542252</ele>
        <time>2013-09-14T15:22:53Z</time>
      </trkpt>
      <trkpt lat="43.61907" lon="6.89438">
        <ele>199.261627</ele>
        <time>2013-09-14T15:22:56Z</time>
      </trkpt>
      <trkpt lat="43.61902" lon="6.8944">
        <ele>198.385742</ele>
        <time>2013-09-14T15:22:59Z</time>
      </trkpt>
      <trkpt lat="43.61895" lon="6.89439">
        <ele>198.088531</ele>
        <time>2013-09-14T15:23:03Z</time>
      </trkpt>
      <trkpt lat="43.61893" lon="6.89444">
        <ele>196.918915</ele>
        <time>2013-09-14T15:23:14Z</time>
      </trkpt>
      <trkpt lat="43.6189" lon="6.89449">
        <ele>195.729309</ele>
        <time>2013-09-14T15:23:17Z</time>
      </trkpt>
      <trkpt lat="43.61882" lon="6.89454">
        <ele>194.144867</ele>
        <time>2013-09-14T15:23:21Z</time>
      </trkpt>
      <trkpt lat="43.61877" lon="6.89456">
        <ele>193.366302</ele>
        <time>2013-09-14T15:23:24Z</time>
      </trkpt>
      <trkpt lat="43.61871" lon="6.89457">
        <ele>192.582352</ele>
        <time>2013-09-14T15:23:28Z</time>
      </trkpt>
      <trkpt lat="43.61866" lon="6.89456">
        <ele>192.464783</ele>
        <time>2013-09-14T15:23:31Z</time>
      </trkpt>
      <trkpt lat="43.6186" lon="6.89454">
        <ele>192.172302</ele>
        <time>2013-09-14T15:23:35Z</time>
      </trkpt>
      <trkpt lat="43.61851" lon="6.8946">
        <ele>190.238297</ele>
        <time>2013-09-14T15:23:39Z</time>
      </trkpt>
      <trkpt lat="43.61836" lon="6.89463">
        <ele>188.431564</ele>
        <time>2013-09-14T15:23:42Z</time>
      </trkpt>
      <trkpt lat="43.6182" lon="6.89462">
        <ele>184.922577</ele>
        <time>2013-09-14T15:23:45Z</time>
      </trkpt>
      <trkpt lat="43.61807" lon="6.89467">
        <ele>180.785507</ele>
        <time>2013-09-14T15:23:48Z</time>
      </trkpt>
      <trkpt lat="43.61794" lon="6.8947">
        <ele>177.125183</ele>
        <time>2013-09-14T15:23:52Z</time>
      </trkpt>
      <trkpt lat="43.61789" lon="6.89468">
        <ele>175.940308</ele>
        <time>2013-09-14T15:23:55Z</time>
      </trkpt>
      <trkpt lat="43.61785" lon="6.89454">
        <ele>177.066833</ele>
        <time>2013-09-14T15:23:59Z</time>
      </trkpt>
      <trkpt lat="43.61774" lon="6.89447">
        <ele>175.503143</ele>
        <time>2013-09-14T15:24:03Z</time>
      </trkpt>
      <trkpt lat="43.61762" lon="6.8944">
        <ele>173.499802</ele>
        <time>2013-09-14T15:24:07Z</time>
      </trkpt>
      <trkpt lat="43.61746" lon="6.89432">
        <ele>170.540054</ele>
        <time>2013-09-14T15:24:11Z</time>
      </trkpt>
      <trkpt lat="43.61734" lon="6.89432">
        <ele>167.561218</ele>
        <time>2013-09-14T15:24:14Z</time>
      </trkpt>
      <trkpt lat="43.61721" lon="6.89432">
        <ele>164.255829</ele>
        <time>2013-09-14T15:24:18Z</time>
      </trkpt>
      <trkpt lat="43.61717" lon="6.89435">
        <ele>162.693619</ele>
        <time>2013-09-14T15:24:33Z</time>
      </trkpt>
      <trkpt lat="43.61714" lon="6.89441">
        <ele>160.731003</ele>
        <time>2013-09-14T15:24:38Z</time>
      </trkpt>
      <trkpt lat="43.61712" lon="6.8945">
        <ele>158.677017</ele>
        <time>2013-09-14T15:24:42Z</time>
      </trkpt>
      <trkpt lat="43.61709" lon="6.89457">
        <ele>156.941605</ele>
        <time>2013-09-14T15:24:54Z</time>
      </trkpt>
      <trkpt lat="43.61704" lon="6.89452">
        <ele>156.488434</ele>
        <time>2013-09-14T15:24:57Z</time>
      </trkpt>
      <trkpt lat="43.617" lon="6.8944">
        <ele>157.473358</ele>
        <time>2013-09-14T15:25:00Z</time>
      </trkpt>
      <trkpt lat="43.61698" lon="6.89419">
        <ele>160.584534</ele>
        <time>2013-09-14T15:25:04Z</time>
      </trkpt>
      <trkpt lat="43.6169" lon="6.89415">
        <ele>159.337402</ele>
        <time>2013-09-14T15:25:08Z</time>
      </trkpt>
      <trkpt lat="43.61689" lon="6.89409">
        <ele>160.752014</ele>
        <time>2013-09-14T15:25:20Z</time>
      </trkpt>
      <trkpt lat="43.61683" lon="6.89409">
        <ele>159.154068</ele>
        <time>2013-09-14T15:25:23Z</time>
      </trkpt>
      <trkpt lat="43.61678" lon="6.89416">
        <ele>155.926834</ele>
        <time>2013-09-14T15:25:26Z</time>
      </trkpt>
      <trkpt lat="43.61672" lon="6.89424">
        <ele>153.054459</ele>
        <time>2013-09-14T15:25:30Z</time>
      </trkpt>
      <trkpt lat="43.61669" lon="6.89415">
        <ele>154.077377</ele>
        <time>2013-09-14T15:25:34Z</time>
      </trkpt>
      <trkpt lat="43.61671" lon="6.894">
        <ele>158.643234</ele>
        <time>2013-09-14T15:25:37Z</time>
      </trkpt>
      <trkpt lat="43.61673" lon="6.89392">
        <ele>161.560501</ele>
        <time>2013-09-14T15:25:40Z</time>
      </trkpt>
      <trkpt lat="43.61676" lon="6.89386">
        <ele>163.714066</ele>
        <time>2013-09-14T15:25:50Z</time>
      </trkpt>
      <trkpt lat="43.61676" lon="6.8938">
        <ele>165.583405</ele>
        <time>2013-09-14T15:25:56Z</time>
      </trkpt>
      <trkpt lat="43.61674" lon="6.89374">
        <ele>166.823547</ele>
        <time>2013-09-14T15:26:39Z</time>
      </trkpt>
      <trkpt lat="43.61668" lon="6.89371">
        <ele>166.230011</ele>
        <time>2013-09-14T15:26:42Z</time>
      </trkpt>
      <trkpt lat="43.61658" lon="6.89368">
        <ele>165.462814</ele>
        <time>2013-09-14T15:26:45Z</time>
      </trkpt>
      <trkpt lat="43.61648" lon="6.89364">
        <ele>164.69545</ele>
        <time>2013-09-14T15:26:49Z</time>
      </trkpt>
      <trkpt lat="43.6164" lon="6.89365">
        <ele>162.491516</ele>
        <time>2013-09-14T15:26:52Z</time>
      </trkpt>
      <trkpt lat="43.61626" lon="6.89365">
        <ele>160.142624</ele>
        <time>2013-09-14T15:26:56Z</time>
      </trkpt>
      <trkpt lat="43.6161" lon="6.89371">
        <ele>155.032013</ele>
        <time>2013-09-14T15:27:00Z</time>
      </trkpt>
      <trkpt lat="43.61598" lon="6.89388">
        <ele>148.35817</ele>
        <time>2013-09-14T15:27:04Z</time>
      </trkpt>
      <trkpt lat="43.61581" lon="6.894">
        <ele>142.130981</ele>
        <time>2013-09-14T15:27:08Z</time>
      </trkpt>
      <trkpt lat="43.61564" lon="6.89414">
        <ele>135.473923</ele>
        <time>2013-09-14T15:27:12Z</time>
      </trkpt>
      <trkpt lat="43.61543" lon="6.89416">
        <ele>131.275665</ele>
        <time>2013-09-14T15:27:16Z</time>
      </trkpt>
      <trkpt lat="43.61523" lon="6.8942">
        <ele>126.995407</ele>
        <time>2013-09-14T15:27:20Z</time>
      </trkpt>
      <trkpt lat="43.61511" lon="6.89427">
        <ele>123.227386</ele>
        <time>2013-09-14T15:27:23Z</time>
      </trkpt>
      <trkpt lat="43.61496" lon="6.89423">
        <ele>121.867348</ele>
        <time>2013-09-14T15:27:27Z</time>
      </trkpt>
      <trkpt lat="43.61486" lon="6.89426">
        <ele>119.412994</ele>
        <time>2013-09-14T15:27:30Z</time>
      </trkpt>
      <trkpt lat="43.61475" lon="6.89432">
        <ele>116.360184</ele>
        <time>2013-09-14T15:27:33Z</time>
      </trkpt>
      <trkpt lat="43.61466" lon="6.89444">
        <ele>112.161484</ele>
        <time>2013-09-14T15:27:37Z</time>
      </trkpt>
      <trkpt lat="43.61459" lon="6.89446">
        <ele>110.68898</ele>
        <time>2013-09-14T15:27:40Z</time>
      </trkpt>
      <trkpt lat="43.61459" lon="6.89456">
        <ele>108.432617</ele>
        <time>2013-09-14T15:27:44Z</time>
      </trkpt>
      <trkpt lat="43.61454" lon="6.89459">
        <ele>107.02771</ele>
        <time>2013-09-14T15:27:53Z</time>
      </trkpt>
      <trkpt lat="43.61447" lon="6.89455">
        <ele>107.197418</ele>
        <time>2013-09-14T15:27:56Z</time>
      </trkpt>
      <trkpt lat="43.61438" lon="6.89449">
        <ele>107.295753</ele>
        <time>2013-09-14T15:28:00Z</time>
      </trkpt>
      <trkpt lat="43.61432" lon="6.89445">
        <ele>107.18866</ele>
        <time>2013-09-14T15:28:03Z</time>
      </trkpt>
      <trkpt lat="43.61421" lon="6.89446">
        <ele>105.723679</ele>
        <time>2013-09-14T15:28:07Z</time>
      </trkpt>
      <trkpt lat="43.61412" lon="6.89442">
        <ele>104.688385</ele>
        <time>2013-09-14T15:28:10Z</time>
      </trkpt>
      <trkpt lat="43.61401" lon="6.89435">
        <ele>103.689674</ele>
        <time>2013-09-14T15:28:14Z</time>
      </trkpt>
      <trkpt lat="43.61395" lon="6.89435">
        <ele>102.07988</ele>
        <time>2013-09-14T15:28:17Z</time>
      </trkpt>
      <trkpt lat="43.61388" lon="6.89433">
        <ele>100.900269</ele>
        <time>2013-09-14T15:28:20Z</time>
      </trkpt>
      <trkpt lat="43.61378" lon="6.8943">
        <ele>99.104042</ele>
        <time>2013-09-14T15:28:24Z</time>
      </trkpt>
      <trkpt lat="43.61369" lon="6.8943">
        <ele>96.979523</ele>
        <time>2013-09-14T15:28:27Z</time>
      </trkpt>
      <trkpt lat="43.61353" lon="6.89427">
        <ele>93.76976</ele>
        <time>2013-09-14T15:28:31Z</time>
      </trkpt>
      <trkpt lat="43.61339" lon="6.89423">
        <ele>91.06501</ele>
        <time>2013-09-14T15:28:35Z</time>
      </trkpt>
      <trkpt lat="43.61326" lon="6.89417">
        <ele>88.342445</ele>
        <time>2013-09-14T15:28:39Z</time>
      </trkpt>
      <trkpt lat="43.61313" lon="6.89413">
        <ele>83.62719</ele>
        <time>2013-09-14T15:28:43Z</time>
      </trkpt>
      <trkpt lat="43.61301" lon="6.8941">
        <ele>79.405113</ele>
        <time>2013-09-14T15:28:47Z</time>
      </trkpt>
      <trkpt lat="43.61292" lon="6.89406">
        <ele>76.677353</ele>
        <time>2013-09-14T15:28:50Z</time>
      </trkpt>
      <trkpt lat="43.61286" lon="6.89399">
        <ele>75.073112</ele>
        <time>2013-09-14T15:28:53Z</time>
      </trkpt>
      <trkpt lat="43.61282" lon="6.89402">
        <ele>73.205475</ele>
        <time>2013-09-14T15:28:58Z</time>
      </trkpt>
      <trkpt lat="43.61283" lon="6.89408">
        <ele>73.067993</ele>
        <time>2013-09-14T15:29:03Z</time>
      </trkpt>
      <trkpt lat="43.61281" lon="6.89401">
        <ele>72.972992</ele>
        <time>2013-09-14T15:29:46Z</time>
      </trkpt>
      <trkpt lat="43.61275" lon="6.89396">
        <ele>71.219475</ele>
        <time>2013-09-14T15:29:49Z</time>
      </trkpt>
      <trkpt lat="43.61268" lon="6.89403">
        <ele>67.984055</ele>
        <time>2013-09-14T15:29:53Z</time>
      </trkpt>
      <trkpt lat="43.61261" lon="6.894">
        <ele>66.003334</ele>
        <time>2013-09-14T15:29:57Z</time>
      </trkpt>
      <trkpt lat="43.61263" lon="6.89381">
        <ele>68.338371</ele>
        <time>2013-09-14T15:30:01Z</time>
      </trkpt>
      <trkpt lat="43.61266" lon="6.89364">
        <ele>71.331062</ele>
        <time>2013-09-14T15:30:05Z</time>
      </trkpt>
      <trkpt lat="43.6127" lon="6.8935">
        <ele>74.152214</ele>
        <time>2013-09-14T15:30:08Z</time>
      </trkpt>
      <trkpt lat="43.61273" lon="6.89331">
        <ele>76.572464</ele>
        <time>2013-09-14T15:30:12Z</time>
      </trkpt>
      <trkpt lat="43.61274" lon="6.89316">
        <ele>76.202759</ele>
        <time>2013-09-14T15:30:16Z</time>
      </trkpt>
      <trkpt lat="43.61275" lon="6.89307">
        <ele>76.235703</ele>
        <time>2013-09-14T15:30:19Z</time>
      </trkpt>
      <trkpt lat="43.61276" lon="6.89301">
        <ele>76.302856</ele>
        <time>2013-09-14T15:30:29Z</time>
      </trkpt>
      <trkpt lat="43.61272" lon="6.89302">
        <ele>74.895004</ele>
        <time>2013-09-14T15:30:46Z</time>
      </trkpt>
      <trkpt lat="43.61267" lon="6.89307">
        <ele>73.70916</ele>
        <time>2013-09-14T15:31:26Z</time>
      </trkpt>
      <trkpt lat="43.61262" lon="6.89309">
        <ele>72.047112</ele>
        <time>2013-09-14T15:31:29Z</time>
      </trkpt>
      <trkpt lat="43.61256" lon="6.89312">
        <ele>70.310005</ele>
        <time>2013-09-14T15:31:33Z</time>
      </trkpt>
      <trkpt lat="43.61253" lon="6.89305">
        <ele>69.167786</ele>
        <time>2013-09-14T15:31:38Z</time>
      </trkpt>
      <trkpt lat="43.61259" lon="6.89291">
        <ele>70.526741</ele>
        <time>2013-09-14T15:31:42Z</time>
      </trkpt>
      <trkpt lat="43.61261" lon="6.8928">
        <ele>70.785904</ele>
        <time>2013-09-14T15:31:45Z</time>
      </trkpt>
      <trkpt lat="43.61268" lon="6.89267">
        <ele>72.355286</ele>
        <time>2013-09-14T15:31:49Z</time>
      </trkpt>
      <trkpt lat="43.61277" lon="6.89261">
        <ele>74.756729</ele>
        <time>2013-09-14T15:31:53Z</time>
      </trkpt>
      <trkpt lat="43.61273" lon="6.89261">
        <ele>73.46386</ele>
        <time>2013-09-14T15:32:09Z</time>
      </trkpt>
      <trkpt lat="43.61265" lon="6.89261">
        <ele>71.287506</ele>
        <time>2013-09-14T15:32:12Z</time>
      </trkpt>
      <trkpt lat="43.61249" lon="6.89261">
        <ele>67.058708</ele>
        <time>2013-09-14T15:32:16Z</time>
      </trkpt>
      <trkpt lat="43.61238" lon="6.89263">
        <ele>63.473591</ele>
        <time>2013-09-14T15:32:20Z</time>
      </trkpt>
      <trkpt lat="43.61231" lon="6.89266">
        <ele>61.179016</ele>
        <time>2013-09-14T15:32:24Z</time>
      </trkpt>
      <trkpt lat="43.61226" lon="6.8927">
        <ele>59.404278</ele>
        <time>2013-09-14T15:32:42Z</time>
      </trkpt>
      <trkpt lat="43.61221" lon="6.89268">
        <ele>57.838001</ele>
        <time>2013-09-14T15:32:49Z</time>
      </trkpt>
      <trkpt lat="43.61216" lon="6.89271">
        <ele>56.196804</ele>
        <time>2013-09-14T15:32:55Z</time>
      </trkpt>
      <trkpt lat="43.61215" lon="6.89262">
        <ele>55.999397</ele>
        <time>2013-09-14T15:32:59Z</time>
      </trkpt>
      <trkpt lat="43.61212" lon="6.89253">
        <ele>55.502647</ele>
        <time>2013-09-14T15:33:03Z</time>
      </trkpt>
      <trkpt lat="43.61207" lon="6.89256">
        <ele>53.731598</ele>
        <time>2013-09-14T15:33:07Z</time>
      </trkpt>
      <trkpt lat="43.61204" lon="6.89262">
        <ele>52.686096</ele>
        <time>2013-09-14T15:34:13Z</time>
      </trkpt>
      <trkpt lat="43.61209" lon="6.89264">
        <ele>54.131088</ele>
        <time>2013-09-14T15:37:27Z</time>
      </trkpt>
      <trkpt lat="43.61207" lon="6.89271">
        <ele>53.190018</ele>
        <time>2013-09-14T15:39:07Z</time>
      </trkpt>
      <trkpt lat="43.61209" lon="6.89279">
        <ele>53.27256</ele>
        <time>2013-09-14T15:39:11Z</time>
      </trkpt>
      <trkpt lat="43.6121" lon="6.89288">
        <ele>53.443016</ele>
        <time>2013-09-14T15:39:15Z</time>
      </trkpt>
      <trkpt lat="43.61212" lon="6.89294">
        <ele>53.626968</ele>
        <time>2013-09-14T15:39:18Z</time>
      </trkpt>
      <trkpt lat="43.61213" lon="6.89303">
        <ele>53.94458</ele>
        <time>2013-09-14T15:39:22Z</time>
      </trkpt>
      <trkpt lat="43.61214" lon="6.8931">
        <ele>53.922058</ele>
        <time>2013-09-14T15:39:25Z</time>
      </trkpt>
      <trkpt lat="43.61216" lon="6.89321">
        <ele>54.286625</ele>
        <time>2013-09-14T15:39:29Z</time>
      </trkpt>
      <trkpt lat="43.61217" lon="6.89333">
        <ele>54.202366</ele>
        <time>2013-09-14T15:39:33Z</time>
      </trkpt>
      <trkpt lat="43.61216" lon="6.89342">
        <ele>53.484287</ele>
        <time>2013-09-14T15:39:36Z</time>
      </trkpt>
      <trkpt lat="43.61215" lon="6.89355">
        <ele>51.989033</ele>
        <time>2013-09-14T15:39:40Z</time>
      </trkpt>
      <trkpt lat="43.61213" lon="6.89366">
        <ele>50.576321</ele>
        <time>2013-09-14T15:39:44Z</time>
      </trkpt>
      <trkpt lat="43.61209" lon="6.89377">
        <ele>48.58065</ele>
        <time>2013-09-14T15:39:48Z</time>
      </trkpt>
      <trkpt lat="43.61205" lon="6.89387">
        <ele>46.339111</ele>
        <time>2013-09-14T15:39:52Z</time>
      </trkpt>
      <trkpt lat="43.61204" lon="6.89395">
        <ele>45.483734</ele>
        <time>2013-09-14T15:39:55Z</time>
      </trkpt>
      <trkpt lat="43.612" lon="6.89405">
        <ele>43.781181</ele>
        <time>2013-09-14T15:39:59Z</time>
      </trkpt>
      <trkpt lat="43.61197" lon="6.89413">
        <ele>42.22142</ele>
        <time>2013-09-14T15:40:02Z</time>
      </trkpt>
      <trkpt lat="43.61192" lon="6.89421">
        <ele>40.918777</ele>
        <time>2013-09-14T15:40:05Z</time>
      </trkpt>
      <trkpt lat="43.61184" lon="6.89434">
        <ele>39.344574</ele>
        <time>2013-09-14T15:40:09Z</time>
      </trkpt>
      <trkpt lat="43.61178" lon="6.89442">
        <ele>38.28727</ele>
        <time>2013-09-14T15:40:12Z</time>
      </trkpt>
      <trkpt lat="43.61172" lon="6.8945">
        <ele>37.4786</ele>
        <time>2013-09-14T15:40:15Z</time>
      </trkpt>
      <trkpt lat="43.61163" lon="6.8946">
        <ele>36.826927</ele>
        <time>2013-09-14T15:40:19Z</time>
      </trkpt>
      <trkpt lat="43.61154" lon="6.89469">
        <ele>36.640949</ele>
        <time>2013-09-14T15:40:22Z</time>
      </trkpt>
      <trkpt lat="43.61139" lon="6.89481">
        <ele>36.042397</ele>
        <time>2013-09-14T15:40:26Z</time>
      </trkpt>
      <trkpt lat="43.61127" lon="6.89489">
        <ele>35.210556</ele>
        <time>2013-09-14T15:40:29Z</time>
      </trkpt>
      <trkpt lat="43.61113" lon="6.89499">
        <ele>34.11264</ele>
        <time>2013-09-14T15:40:33Z</time>
      </trkpt>
      <trkpt lat="43.61104" lon="6.89505">
        <ele>34.31472</ele>
        <time>2013-09-14T15:40:36Z</time>
      </trkpt>
      <trkpt lat="43.61093" lon="6.89512">
        <ele>34.435753</ele>
        <time>2013-09-14T15:40:40Z</time>
      </trkpt>
      <trkpt lat="43.61085" lon="6.89516">
        <ele>34.331337</ele>
        <time>2013-09-14T15:40:43Z</time>
      </trkpt>
      <trkpt lat="43.61073" lon="6.89524">
        <ele>35.302689</ele>
        <time>2013-09-14T15:40:47Z</time>
      </trkpt>
      <trkpt lat="43.61063" lon="6.89529">
        <ele>35.714863</ele>
        <time>2013-09-14T15:40:50Z</time>
      </trkpt>
      <trkpt lat="43.61052" lon="6.89537">
        <ele>36.666451</ele>
        <time>2013-09-14T15:40:54Z</time>
      </trkpt>
      <trkpt lat="43.6104" lon="6.89546">
        <ele>37.475407</ele>
        <time>2013-09-14T15:40:58Z</time>
      </trkpt>
      <trkpt lat="43.61029" lon="6.89554">
        <ele>38.141956</ele>
        <time>2013-09-14T15:41:02Z</time>
      </trkpt>
      <trkpt lat="43.61018" lon="6.89562">
        <ele>38.76083</ele>
        <time>2013-09-14T15:41:06Z</time>
      </trkpt>
      <trkpt lat="43.61009" lon="6.89568">
        <ele>38.971165</ele>
        <time>2013-09-14T15:41:09Z</time>
      </trkpt>
      <trkpt lat="43.60998" lon="6.89574">
        <ele>38.94672</ele>
        <time>2013-09-14T15:41:12Z</time>
      </trkpt>
      <trkpt lat="43.60992" lon="6.8958">
        <ele>38.660759</ele>
        <time>2013-09-14T15:41:15Z</time>
      </trkpt>
      <trkpt lat="43.60982" lon="6.89588">
        <ele>38.605515</ele>
        <time>2013-09-14T15:41:19Z</time>
      </trkpt>
      <trkpt lat="43.60974" lon="6.89595">
        <ele>38.948669</ele>
        <time>2013-09-14T15:41:22Z</time>
      </trkpt>
      <trkpt lat="43.60968" lon="6.89604">
        <ele>39.502106</ele>
        <time>2013-09-14T15:41:25Z</time>
      </trkpt>
      <trkpt lat="43.6096" lon="6.89613">
        <ele>39.792904</ele>
        <time>2013-09-14T15:41:28Z</time>
      </trkpt>
      <trkpt lat="43.60952" lon="6.89626">
        <ele>40.231529</ele>
        <time>2013-09-14T15:41:32Z</time>
      </trkpt>
      <trkpt lat="43.60944" lon="6.89639">
        <ele>40.363522</ele>
        <time>2013-09-14T15:41:36Z</time>
      </trkpt>
      <trkpt lat="43.60939" lon="6.89652">
        <ele>40.994987</ele>
        <time>2013-09-14T15:41:40Z</time>
      </trkpt>
      <trkpt lat="43.60936" lon="6.89663">
        <ele>41.703918</ele>
        <time>2013-09-14T15:41:43Z</time>
      </trkpt>
      <trkpt lat="43.60931" lon="6.89678">
        <ele>42.537739</ele>
        <time>2013-09-14T15:41:47Z</time>
      </trkpt>
      <trkpt lat="43.60927" lon="6.89688">
        <ele>43.094936</ele>
        <time>2013-09-14T15:41:50Z</time>
      </trkpt>
      <trkpt lat="43.6092" lon="6.89703">
        <ele>43.370018</ele>
        <time>2013-09-14T15:41:54Z</time>
      </trkpt>
      <trkpt lat="43.60915" lon="6.89714">
        <ele>43.861897</ele>
        <time>2013-09-14T15:41:57Z</time>
      </trkpt>
      <trkpt lat="43.60909" lon="6.89729">
        <ele>45.170769</ele>
        <time>2013-09-14T15:42:01Z</time>
      </trkpt>
      <trkpt lat="43.60904" lon="6.8974">
        <ele>45.756351</ele>
        <time>2013-09-14T15:42:04Z</time>
      </trkpt>
      <trkpt lat="43.60899" lon="6.89754">
        <ele>46.683079</ele>
        <time>2013-09-14T15:42:08Z</time>
      </trkpt>
      <trkpt lat="43.60893" lon="6.89768">
        <ele>47.337868</ele>
        <time>2013-09-14T15:42:12Z</time>
      </trkpt>
      <trkpt lat="43.60888" lon="6.89778">
        <ele>47.290897</ele>
        <time>2013-09-14T15:42:15Z</time>
      </trkpt>
      <trkpt lat="43.60879" lon="6.89789">
        <ele>46.114639</ele>
        <time>2013-09-14T15:42:19Z</time>
      </trkpt>
      <trkpt lat="43.60873" lon="6.89798">
        <ele>44.843353</ele>
        <time>2013-09-14T15:42:22Z</time>
      </trkpt>
      <trkpt lat="43.60863" lon="6.89809">
        <ele>42.314537</ele>
        <time>2013-09-14T15:42:26Z</time>
      </trkpt>
      <trkpt lat="43.60855" lon="6.89816">
        <ele>39.641922</ele>
        <time>2013-09-14T15:42:29Z</time>
      </trkpt>
      <trkpt lat="43.60843" lon="6.89825">
        <ele>35.741608</ele>
        <time>2013-09-14T15:42:33Z</time>
      </trkpt>
      <trkpt lat="43.60832" lon="6.89831">
        <ele>31.57567</ele>
        <time>2013-09-14T15:42:37Z</time>
      </trkpt>
      <trkpt lat="43.60825" lon="6.89834">
        <ele>30.952242</ele>
        <time>2013-09-14T15:42:40Z</time>
      </trkpt>
      <trkpt lat="43.60818" lon="6.89838">
        <ele>30.313852</ele>
        <time>2013-09-14T15:42:43Z</time>
      </trkpt>
      <trkpt lat="43.60812" lon="6.89844">
        <ele>29.97027</ele>
        <time>2013-09-14T15:42:46Z</time>
      </trkpt>
      <trkpt lat="43.60805" lon="6.89853">
        <ele>29.603102</ele>
        <time>2013-09-14T15:42:50Z</time>
      </trkpt>
      <trkpt lat="43.60799" lon="6.89865">
        <ele>29.62426</ele>
        <time>2013-09-14T15:42:54Z</time>
      </trkpt>
      <trkpt lat="43.60796" lon="6.89875">
        <ele>29.695602</ele>
        <time>2013-09-14T15:42:57Z</time>
      </trkpt>
      <trkpt lat="43.60792" lon="6.89889">
        <ele>29.841066</ele>
        <time>2013-09-14T15:43:01Z</time>
      </trkpt>
      <trkpt lat="43.60788" lon="6.899">
        <ele>29.796829</ele>
        <time>2013-09-14T15:43:04Z</time>
      </trkpt>
      <trkpt lat="43.60783" lon="6.89915">
        <ele>29.698586</ele>
        <time>2013-09-14T15:43:08Z</time>
      </trkpt>
      <trkpt lat="43.60777" lon="6.89929">
        <ele>28.821438</ele>
        <time>2013-09-14T15:43:12Z</time>
      </trkpt>
      <trkpt lat="43.6077" lon="6.89943">
        <ele>27.693256</ele>
        <time>2013-09-14T15:43:16Z</time>
      </trkpt>
      <trkpt lat="43.60762" lon="6.89956">
        <ele>26.586889</ele>
        <time>2013-09-14T15:43:20Z</time>
      </trkpt>
      <trkpt lat="43.60755" lon="6.8997">
        <ele>25.806677</ele>
        <time>2013-09-14T15:43:24Z</time>
      </trkpt>
      <trkpt lat="43.60748" lon="6.89983">
        <ele>25.282593</ele>
        <time>2013-09-14T15:43:28Z</time>
      </trkpt>
      <trkpt lat="43.60742" lon="6.89992">
        <ele>25.422485</ele>
        <time>2013-09-14T15:43:31Z</time>
      </trkpt>
      <trkpt lat="43.60736" lon="6.90001">
        <ele>25.543276</ele>
        <time>2013-09-14T15:43:34Z</time>
      </trkpt>
      <trkpt lat="43.60731" lon="6.90011">
        <ele>25.601349</ele>
        <time>2013-09-14T15:43:37Z</time>
      </trkpt>
      <trkpt lat="43.60724" lon="6.90024">
        <ele>25.717363</ele>
        <time>2013-09-14T15:43:41Z</time>
      </trkpt>
      <trkpt lat="43.60719" lon="6.90034">
        <ele>25.845905</ele>
        <time>2013-09-14T15:43:44Z</time>
      </trkpt>
      <trkpt lat="43.60713" lon="6.90048">
        <ele>26.050224</ele>
        <time>2013-09-14T15:43:48Z</time>
      </trkpt>
      <trkpt lat="43.60706" lon="6.90061">
        <ele>26.276833</ele>
        <time>2013-09-14T15:43:52Z</time>
      </trkpt>
      <trkpt lat="43.60702" lon="6.90071">
        <ele>26.445446</ele>
        <time>2013-09-14T15:43:55Z</time>
      </trkpt>
      <trkpt lat="43.60695" lon="6.90082">
        <ele>26.627377</ele>
        <time>2013-09-14T15:43:59Z</time>
      </trkpt>
      <trkpt lat="43.60689" lon="6.9009">
        <ele>26.77124</ele>
        <time>2013-09-14T15:44:02Z</time>
      </trkpt>
      <trkpt lat="43.60681" lon="6.90101">
        <ele>26.973389</ele>
        <time>2013-09-14T15:44:06Z</time>
      </trkpt>
      <trkpt lat="43.60675" lon="6.90109">
        <ele>27.122192</ele>
        <time>2013-09-14T15:44:09Z</time>
      </trkpt>
      <trkpt lat="43.60668" lon="6.90121">
        <ele>27.382324</ele>
        <time>2013-09-14T15:44:13Z</time>
      </trkpt>
      <trkpt lat="43.60663" lon="6.90134">
        <ele>27.613464</ele>
        <time>2013-09-14T15:44:17Z</time>
      </trkpt>
      <trkpt lat="43.60662" lon="6.90144">
        <ele>27.873962</ele>
        <time>2013-09-14T15:44:20Z</time>
      </trkpt>
      <trkpt lat="43.60661" lon="6.90158">
        <ele>28.353821</ele>
        <time>2013-09-14T15:44:24Z</time>
      </trkpt>
      <trkpt lat="43.60662" lon="6.90169">
        <ele>28.779552</ele>
        <time>2013-09-14T15:44:27Z</time>
      </trkpt>
      <trkpt lat="43.6066" lon="6.90181">
        <ele>29.142223</ele>
        <time>2013-09-14T15:44:30Z</time>
      </trkpt>
      <trkpt lat="43.60658" lon="6.90196">
        <ele>29.587132</ele>
        <time>2013-09-14T15:44:34Z</time>
      </trkpt>
      <trkpt lat="43.60659" lon="6.90208">
        <ele>30.081984</ele>
        <time>2013-09-14T15:44:37Z</time>
      </trkpt>
      <trkpt lat="43.6066" lon="6.90219">
        <ele>30.532478</ele>
        <time>2013-09-14T15:44:40Z</time>
      </trkpt>
      <trkpt lat="43.60661" lon="6.90234">
        <ele>31.125551</ele>
        <time>2013-09-14T15:44:44Z</time>
      </trkpt>
      <trkpt lat="43.60663" lon="6.90244">
        <ele>31.619394</ele>
        <time>2013-09-14T15:44:47Z</time>
      </trkpt>
      <trkpt lat="43.60667" lon="6.90258">
        <ele>32.287415</ele>
        <time>2013-09-14T15:44:51Z</time>
      </trkpt>
      <trkpt lat="43.60671" lon="6.90273">
        <ele>32.86261</ele>
        <time>2013-09-14T15:44:55Z</time>
      </trkpt>
      <trkpt lat="43.60668" lon="6.90284">
        <ele>33.240234</ele>
        <time>2013-09-14T15:44:58Z</time>
      </trkpt>
      <trkpt lat="43.60661" lon="6.90298">
        <ele>33.434937</ele>
        <time>2013-09-14T15:45:02Z</time>
      </trkpt>
      <trkpt lat="43.60654" lon="6.90311">
        <ele>33.575562</ele>
        <time>2013-09-14T15:45:06Z</time>
      </trkpt>
      <trkpt lat="43.60646" lon="6.90322">
        <ele>33.574463</ele>
        <time>2013-09-14T15:45:10Z</time>
      </trkpt>
      <trkpt lat="43.6064" lon="6.9033">
        <ele>33.584961</ele>
        <time>2013-09-14T15:45:13Z</time>
      </trkpt>
      <trkpt lat="43.60633" lon="6.90339">
        <ele>33.676514</ele>
        <time>2013-09-14T15:45:17Z</time>
      </trkpt>
      <trkpt lat="43.60628" lon="6.90349">
        <ele>33.897949</ele>
        <time>2013-09-14T15:45:21Z</time>
      </trkpt>
      <trkpt lat="43.60625" lon="6.90355">
        <ele>34.025146</ele>
        <time>2013-09-14T15:45:24Z</time>
      </trkpt>
      <trkpt lat="43.60622" lon="6.90361">
        <ele>34.176025</ele>
        <time>2013-09-14T15:45:28Z</time>
      </trkpt>
      <trkpt lat="43.60621" lon="6.90369">
        <ele>34.508057</ele>
        <time>2013-09-14T15:45:31Z</time>
      </trkpt>
      <trkpt lat="43.60619" lon="6.90376">
        <ele>34.731201</ele>
        <time>2013-09-14T15:45:34Z</time>
      </trkpt>
      <trkpt lat="43.60617" lon="6.90386">
        <ele>35.113037</ele>
        <time>2013-09-14T15:45:38Z</time>
      </trkpt>
      <trkpt lat="43.60614" lon="6.90391">
        <ele>35.252686</ele>
        <time>2013-09-14T15:45:41Z</time>
      </trkpt>
      <trkpt lat="43.60609" lon="6.90389">
        <ele>34.903076</ele>
        <time>2013-09-14T15:45:45Z</time>
      </trkpt>
      <trkpt lat="43.6061" lon="6.90381">
        <ele>34.598389</ele>
        <time>2013-09-14T15:45:49Z</time>
      </trkpt>
      <trkpt lat="43.60615" lon="6.90373">
        <ele>34.423096</ele>
        <time>2013-09-14T15:45:53Z</time>
      </trkpt>
      <trkpt lat="43.60617" lon="6.90368">
        <ele>34.246582</ele>
        <time>2013-09-14T15:45:56Z</time>
      </trkpt>
      <trkpt lat="43.60618" lon="6.90359">
        <ele>33.919922</ele>
        <time>2013-09-14T15:46:00Z</time>
      </trkpt>
      <trkpt lat="43.60619" lon="6.90352">
        <ele>33.595947</ele>
        <time>2013-09-14T15:46:03Z</time>
      </trkpt>
      <trkpt lat="43.60619" lon="6.90344">
        <ele>33.223145</ele>
        <time>2013-09-14T15:46:06Z</time>
      </trkpt>
      <trkpt lat="43.60617" lon="6.90334">
        <ele>32.614746</ele>
        <time>2013-09-14T15:46:10Z</time>
      </trkpt>
      <trkpt lat="43.60613" lon="6.90327">
        <ele>32.179443</ele>
        <time>2013-09-14T15:46:13Z</time>
      </trkpt>
      <trkpt lat="43.60606" lon="6.90318">
        <ele>31.532959</ele>
        <time>2013-09-14T15:46:17Z</time>
      </trkpt>
      <trkpt lat="43.60601" lon="6.90311">
        <ele>31.012817</ele>
        <time>2013-09-14T15:46:20Z</time>
      </trkpt>
      <trkpt lat="43.60595" lon="6.90301">
        <ele>30.406616</ele>
        <time>2013-09-14T15:46:23Z</time>
      </trkpt>
      <trkpt lat="43.60589" lon="6.90288">
        <ele>29.620972</ele>
        <time>2013-09-14T15:46:26Z</time>
      </trkpt>
      <trkpt lat="43.6058" lon="6.9027">
        <ele>28.818073</ele>
        <time>2013-09-14T15:46:30Z</time>
      </trkpt>
      <trkpt lat="43.60575" lon="6.90258">
        <ele>28.456383</ele>
        <time>2013-09-14T15:46:33Z</time>
      </trkpt>
      <trkpt lat="43.60571" lon="6.90246">
        <ele>27.919004</ele>
        <time>2013-09-14T15:46:36Z</time>
      </trkpt>
      <trkpt lat="43.60565" lon="6.90235">
        <ele>27.32515</ele>
        <time>2013-09-14T15:46:39Z</time>
      </trkpt>
      <trkpt lat="43.60556" lon="6.90219">
        <ele>26.344002</ele>
        <time>2013-09-14T15:46:43Z</time>
      </trkpt>
      <trkpt lat="43.60547" lon="6.90209">
        <ele>25.584652</ele>
        <time>2013-09-14T15:46:46Z</time>
      </trkpt>
      <trkpt lat="43.60533" lon="6.90198">
        <ele>24.570177</ele>
        <time>2013-09-14T15:46:50Z</time>
      </trkpt>
      <trkpt lat="43.60518" lon="6.90187">
        <ele>23.399036</ele>
        <time>2013-09-14T15:46:54Z</time>
      </trkpt>
      <trkpt lat="43.60499" lon="6.90183">
        <ele>22.532196</ele>
        <time>2013-09-14T15:46:58Z</time>
      </trkpt>
      <trkpt lat="43.60485" lon="6.90186">
        <ele>22.476013</ele>
        <time>2013-09-14T15:47:01Z</time>
      </trkpt>
      <trkpt lat="43.60468" lon="6.9019">
        <ele>22.323193</ele>
        <time>2013-09-14T15:47:05Z</time>
      </trkpt>
      <trkpt lat="43.60452" lon="6.90198">
        <ele>22.330261</ele>
        <time>2013-09-14T15:47:09Z</time>
      </trkpt>
      <trkpt lat="43.60442" lon="6.90209">
        <ele>22.57432</ele>
        <time>2013-09-14T15:47:12Z</time>
      </trkpt>
      <trkpt lat="43.60426" lon="6.90218">
        <ele>22.290787</ele>
        <time>2013-09-14T15:47:16Z</time>
      </trkpt>
      <trkpt lat="43.60408" lon="6.90222">
        <ele>21.782209</ele>
        <time>2013-09-14T15:47:20Z</time>
      </trkpt>
      <trkpt lat="43.60391" lon="6.90226">
        <ele>21.453243</ele>
        <time>2013-09-14T15:47:24Z</time>
      </trkpt>
      <trkpt lat="43.60378" lon="6.90231">
        <ele>21.249218</ele>
        <time>2013-09-14T15:47:27Z</time>
      </trkpt>
      <trkpt lat="43.60364" lon="6.90241">
        <ele>20.979006</ele>
        <time>2013-09-14T15:47:31Z</time>
      </trkpt>
      <trkpt lat="43.60348" lon="6.90244">
        <ele>20.501591</ele>
        <time>2013-09-14T15:47:35Z</time>
      </trkpt>
      <trkpt lat="43.60334" lon="6.90244">
        <ele>20.012177</ele>
        <time>2013-09-14T15:47:39Z</time>
      </trkpt>
      <trkpt lat="43.60325" lon="6.90238">
        <ele>20.103952</ele>
        <time>2013-09-14T15:47:42Z</time>
      </trkpt>
      <trkpt lat="43.60319" lon="6.90227">
        <ele>20.330446</ele>
        <time>2013-09-14T15:47:45Z</time>
      </trkpt>
      <trkpt lat="43.60315" lon="6.90215">
        <ele>20.643665</ele>
        <time>2013-09-14T15:47:49Z</time>
      </trkpt>
      <trkpt lat="43.60309" lon="6.90206">
        <ele>21.088406</ele>
        <time>2013-09-14T15:47:53Z</time>
      </trkpt>
      <trkpt lat="43.60303" lon="6.90196">
        <ele>21.686943</ele>
        <time>2013-09-14T15:47:57Z</time>
      </trkpt>
      <trkpt lat="43.60297" lon="6.90183">
        <ele>22.477818</ele>
        <time>2013-09-14T15:48:01Z</time>
      </trkpt>
      <trkpt lat="43.60295" lon="6.90173">
        <ele>23.01083</ele>
        <time>2013-09-14T15:48:04Z</time>
      </trkpt>
      <trkpt lat="43.60296" lon="6.90163">
        <ele>23.806755</ele>
        <time>2013-09-14T15:48:07Z</time>
      </trkpt>
      <trkpt lat="43.60303" lon="6.90154">
        <ele>24.297924</ele>
        <time>2013-09-14T15:48:11Z</time>
      </trkpt>
      <trkpt lat="43.6031" lon="6.90151">
        <ele>23.885155</ele>
        <time>2013-09-14T15:48:14Z</time>
      </trkpt>
      <trkpt lat="43.60318" lon="6.90148">
        <ele>23.121288</ele>
        <time>2013-09-14T15:48:18Z</time>
      </trkpt>
      <trkpt lat="43.60324" lon="6.90145">
        <ele>22.671602</ele>
        <time>2013-09-14T15:48:21Z</time>
      </trkpt>
      <trkpt lat="43.60329" lon="6.90143">
        <ele>22.055887</ele>
        <time>2013-09-14T15:48:24Z</time>
      </trkpt>
      <trkpt lat="43.60335" lon="6.90141">
        <ele>21.536121</ele>
        <time>2013-09-14T15:48:27Z</time>
      </trkpt>
      <trkpt lat="43.60342" lon="6.90137">
        <ele>21.589228</ele>
        <time>2013-09-14T15:48:31Z</time>
      </trkpt>
      <trkpt lat="43.60348" lon="6.90135">
        <ele>21.603632</ele>
        <time>2013-09-14T15:48:34Z</time>
      </trkpt>
      <trkpt lat="43.60353" lon="6.90131">
        <ele>21.641836</ele>
        <time>2013-09-14T15:48:37Z</time>
      </trkpt>
      <trkpt lat="43.60357" lon="6.90124">
        <ele>21.832506</ele>
        <time>2013-09-14T15:48:41Z</time>
      </trkpt>
      <trkpt lat="43.6036" lon="6.90118">
        <ele>22.000748</ele>
        <time>2013-09-14T15:48:44Z</time>
      </trkpt>
      <trkpt lat="43.60364" lon="6.90112">
        <ele>22.0784</ele>
        <time>2013-09-14T15:48:47Z</time>
      </trkpt>
      <trkpt lat="43.60368" lon="6.90107">
        <ele>22.125109</ele>
        <time>2013-09-14T15:48:50Z</time>
      </trkpt>
      <trkpt lat="43.60373" lon="6.901">
        <ele>22.077457</ele>
        <time>2013-09-14T15:48:54Z</time>
      </trkpt>
      <trkpt lat="43.60376" lon="6.90092">
        <ele>22.205784</ele>
        <time>2013-09-14T15:48:58Z</time>
      </trkpt>
      <trkpt lat="43.60378" lon="6.90085">
        <ele>22.264324</ele>
        <time>2013-09-14T15:49:02Z</time>
      </trkpt>
      <trkpt lat="43.60381" lon="6.90077">
        <ele>22.85524</ele>
        <time>2013-09-14T15:49:06Z</time>
      </trkpt>
      <trkpt lat="43.6038" lon="6.90069">
        <ele>23.904308</ele>
        <time>2013-09-14T15:49:10Z</time>
      </trkpt>
      <trkpt lat="43.60378" lon="6.90061">
        <ele>25.15773</ele>
        <time>2013-09-14T15:49:14Z</time>
      </trkpt>
      <trkpt lat="43.60374" lon="6.90056">
        <ele>26.338785</ele>
        <time>2013-09-14T15:49:18Z</time>
      </trkpt>
      <trkpt lat="43.60368" lon="6.90053">
        <ele>27.364141</ele>
        <time>2013-09-14T15:49:22Z</time>
      </trkpt>
      <trkpt lat="43.60363" lon="6.90052">
        <ele>28.08349</ele>
        <time>2013-09-14T15:49:25Z</time>
      </trkpt>
      <trkpt lat="43.60358" lon="6.90048">
        <ele>29.383955</ele>
        <time>2013-09-14T15:49:29Z</time>
      </trkpt>
      <trkpt lat="43.60355" lon="6.90044">
        <ele>30.589279</ele>
        <time>2013-09-14T15:49:32Z</time>
      </trkpt>
      <trkpt lat="43.60354" lon="6.90034">
        <ele>32.320904</ele>
        <time>2013-09-14T15:49:36Z</time>
      </trkpt>
      <trkpt lat="43.60357" lon="6.90024">
        <ele>33.596302</ele>
        <time>2013-09-14T15:49:40Z</time>
      </trkpt>
      <trkpt lat="43.60361" lon="6.90015">
        <ele>34.332203</ele>
        <time>2013-09-14T15:49:44Z</time>
      </trkpt>
      <trkpt lat="43.60364" lon="6.9001">
        <ele>34.569736</ele>
        <time>2013-09-14T15:49:47Z</time>
      </trkpt>
      <trkpt lat="43.60369" lon="6.90003">
        <ele>34.497307</ele>
        <time>2013-09-14T15:49:51Z</time>
      </trkpt>
      <trkpt lat="43.60372" lon="6.89997">
        <ele>34.815044</ele>
        <time>2013-09-14T15:49:54Z</time>
      </trkpt>
      <trkpt lat="43.60376" lon="6.89989">
        <ele>35.653957</ele>
        <time>2013-09-14T15:49:58Z</time>
      </trkpt>
      <trkpt lat="43.60378" lon="6.89984">
        <ele>36.34938</ele>
        <time>2013-09-14T15:50:01Z</time>
      </trkpt>
      <trkpt lat="43.60381" lon="6.89976">
        <ele>37.09922</ele>
        <time>2013-09-14T15:50:05Z</time>
      </trkpt>
      <trkpt lat="43.60384" lon="6.89971">
        <ele>37.549694</ele>
        <time>2013-09-14T15:50:08Z</time>
      </trkpt>
      <trkpt lat="43.60387" lon="6.89963">
        <ele>38.227619</ele>
        <time>2013-09-14T15:50:12Z</time>
      </trkpt>
      <trkpt lat="43.60391" lon="6.89955">
        <ele>38.628929</ele>
        <time>2013-09-14T15:50:16Z</time>
      </trkpt>
      <trkpt lat="43.60394" lon="6.89949">
        <ele>39.011223</ele>
        <time>2013-09-14T15:50:19Z</time>
      </trkpt>
      <trkpt lat="43.60397" lon="6.89941">
        <ele>39.585285</ele>
        <time>2013-09-14T15:50:23Z</time>
      </trkpt>
      <trkpt lat="43.60399" lon="6.89935">
        <ele>39.83532</ele>
        <time>2013-09-14T15:50:26Z</time>
      </trkpt>
      <trkpt lat="43.60404" lon="6.89928">
        <ele>39.682014</ele>
        <time>2013-09-14T15:50:30Z</time>
      </trkpt>
      <trkpt lat="43.60406" lon="6.89922">
        <ele>39.873959</ele>
        <time>2013-09-14T15:50:33Z</time>
      </trkpt>
      <trkpt lat="43.6041" lon="6.89915">
        <ele>39.93399</ele>
        <time>2013-09-14T15:50:37Z</time>
      </trkpt>
      <trkpt lat="43.60414" lon="6.89906">
        <ele>40.395176</ele>
        <time>2013-09-14T15:50:41Z</time>
      </trkpt>
      <trkpt lat="43.60419" lon="6.89899">
        <ele>41.060406</ele>
        <time>2013-09-14T15:50:45Z</time>
      </trkpt>
      <trkpt lat="43.60422" lon="6.89893">
        <ele>41.786377</ele>
        <time>2013-09-14T15:50:48Z</time>
      </trkpt>
      <trkpt lat="43.60427" lon="6.89886">
        <ele>42.263294</ele>
        <time>2013-09-14T15:50:52Z</time>
      </trkpt>
      <trkpt lat="43.6043" lon="6.8988">
        <ele>42.965752</ele>
        <time>2013-09-14T15:50:55Z</time>
      </trkpt>
      <trkpt lat="43.60435" lon="6.89874">
        <ele>43.41679</ele>
        <time>2013-09-14T15:50:59Z</time>
      </trkpt>
      <trkpt lat="43.60441" lon="6.89869">
        <ele>42.914967</ele>
        <time>2013-09-14T15:51:03Z</time>
      </trkpt>
      <trkpt lat="43.60446" lon="6.89866">
        <ele>42.290707</ele>
        <time>2013-09-14T15:51:06Z</time>
      </trkpt>
      <trkpt lat="43.60451" lon="6.89861">
        <ele>42.044006</ele>
        <time>2013-09-14T15:51:09Z</time>
      </trkpt>
      <trkpt lat="43.60457" lon="6.89854">
        <ele>41.815903</ele>
        <time>2013-09-14T15:51:13Z</time>
      </trkpt>
      <trkpt lat="43.60461" lon="6.89845">
        <ele>42.522385</ele>
        <time>2013-09-14T15:51:17Z</time>
      </trkpt>
      <trkpt lat="43.60462" lon="6.89837">
        <ele>43.638294</ele>
        <time>2013-09-14T15:51:20Z</time>
      </trkpt>
      <trkpt lat="43.6046" lon="6.89827">
        <ele>46.938343</ele>
        <time>2013-09-14T15:51:24Z</time>
      </trkpt>
      <trkpt lat="43.60456" lon="6.89818">
        <ele>50.889801</ele>
        <time>2013-09-14T15:51:28Z</time>
      </trkpt>
      <trkpt lat="43.60454" lon="6.89811">
        <ele>54.110947</ele>
        <time>2013-09-14T15:51:31Z</time>
      </trkpt>
      <trkpt lat="43.60449" lon="6.89801">
        <ele>58.543411</ele>
        <time>2013-09-14T15:51:35Z</time>
      </trkpt>
      <trkpt lat="43.60446" lon="6.89793">
        <ele>61.939888</ele>
        <time>2013-09-14T15:51:38Z</time>
      </trkpt>
      <trkpt lat="43.60444" lon="6.89785">
        <ele>64.997284</ele>
        <time>2013-09-14T15:51:41Z</time>
      </trkpt>
      <trkpt lat="43.60441" lon="6.89775">
        <ele>69.189384</ele>
        <time>2013-09-14T15:51:45Z</time>
      </trkpt>
      <trkpt lat="43.60438" lon="6.89769">
        <ele>72.166115</ele>
        <time>2013-09-14T15:51:48Z</time>
      </trkpt>
      <trkpt lat="43.60433" lon="6.8976">
        <ele>76.092491</ele>
        <time>2013-09-14T15:51:52Z</time>
      </trkpt>
      <trkpt lat="43.60431" lon="6.89754">
        <ele>78.780296</ele>
        <time>2013-09-14T15:51:55Z</time>
      </trkpt>
      <trkpt lat="43.60426" lon="6.89747">
        <ele>82.32164</ele>
        <time>2013-09-14T15:51:59Z</time>
      </trkpt>
      <trkpt lat="43.60423" lon="6.89741">
        <ele>84.900558</ele>
        <time>2013-09-14T15:52:02Z</time>
      </trkpt>
      <trkpt lat="43.60419" lon="6.89734">
        <ele>88.122711</ele>
        <time>2013-09-14T15:52:06Z</time>
      </trkpt>
      <trkpt lat="43.60417" lon="6.89725">
        <ele>91.07016</ele>
        <time>2013-09-14T15:52:10Z</time>
      </trkpt>
      <trkpt lat="43.60423" lon="6.8972">
        <ele>91.074661</ele>
        <time>2013-09-14T15:52:14Z</time>
      </trkpt>
      <trkpt lat="43.60429" lon="6.89719">
        <ele>89.80661</ele>
        <time>2013-09-14T15:52:17Z</time>
      </trkpt>
      <trkpt lat="43.60436" lon="6.89721">
        <ele>87.330002</ele>
        <time>2013-09-14T15:52:21Z</time>
      </trkpt>
      <trkpt lat="43.60444" lon="6.89725">
        <ele>84.165886</ele>
        <time>2013-09-14T15:52:25Z</time>
      </trkpt>
      <trkpt lat="43.6045" lon="6.89727">
        <ele>81.93959</ele>
        <time>2013-09-14T15:52:28Z</time>
      </trkpt>
      <trkpt lat="43.60457" lon="6.89731">
        <ele>78.876556</ele>
        <time>2013-09-14T15:52:32Z</time>
      </trkpt>
      <trkpt lat="43.60463" lon="6.89735">
        <ele>75.753693</ele>
        <time>2013-09-14T15:52:36Z</time>
      </trkpt>
      <trkpt lat="43.60469" lon="6.89738">
        <ele>73.379059</ele>
        <time>2013-09-14T15:52:39Z</time>
      </trkpt>
      <trkpt lat="43.60476" lon="6.89741">
        <ele>70.079819</ele>
        <time>2013-09-14T15:52:43Z</time>
      </trkpt>
      <trkpt lat="43.60483" lon="6.89745">
        <ele>66.953682</ele>
        <time>2013-09-14T15:52:47Z</time>
      </trkpt>
      <trkpt lat="43.60488" lon="6.89746">
        <ele>64.832596</ele>
        <time>2013-09-14T15:52:50Z</time>
      </trkpt>
      <trkpt lat="43.60493" lon="6.89748">
        <ele>62.855942</ele>
        <time>2013-09-14T15:52:53Z</time>
      </trkpt>
      <trkpt lat="43.605" lon="6.89745">
        <ele>61.929321</ele>
        <time>2013-09-14T15:52:57Z</time>
      </trkpt>
      <trkpt lat="43.60504" lon="6.89742">
        <ele>62.340038</ele>
        <time>2013-09-14T15:53:00Z</time>
      </trkpt>
      <trkpt lat="43.60509" lon="6.89738">
        <ele>62.827568</ele>
        <time>2013-09-14T15:53:03Z</time>
      </trkpt>
      <trkpt lat="43.60515" lon="6.89732">
        <ele>64.043289</ele>
        <time>2013-09-14T15:53:07Z</time>
      </trkpt>
      <trkpt lat="43.6052" lon="6.89725">
        <ele>65.688889</ele>
        <time>2013-09-14T15:53:11Z</time>
      </trkpt>
      <trkpt lat="43.60525" lon="6.89717">
        <ele>67.839317</ele>
        <time>2013-09-14T15:53:15Z</time>
      </trkpt>
      <trkpt lat="43.60529" lon="6.8971">
        <ele>70.028397</ele>
        <time>2013-09-14T15:53:19Z</time>
      </trkpt>
      <trkpt lat="43.60534" lon="6.89704">
        <ele>71.359917</ele>
        <time>2013-09-14T15:53:22Z</time>
      </trkpt>
      <trkpt lat="43.6054" lon="6.897">
        <ele>72.247223</ele>
        <time>2013-09-14T15:53:26Z</time>
      </trkpt>
      <trkpt lat="43.60546" lon="6.897">
        <ele>70.944107</ele>
        <time>2013-09-14T15:53:29Z</time>
      </trkpt>
      <trkpt lat="43.60553" lon="6.89705">
        <ele>67.716736</ele>
        <time>2013-09-14T15:53:33Z</time>
      </trkpt>
      <trkpt lat="43.60559" lon="6.89709">
        <ele>64.72599</ele>
        <time>2013-09-14T15:53:37Z</time>
      </trkpt>
      <trkpt lat="43.60564" lon="6.89711">
        <ele>63.107719</ele>
        <time>2013-09-14T15:53:40Z</time>
      </trkpt>
      <trkpt lat="43.60572" lon="6.8971">
        <ele>62.126793</ele>
        <time>2013-09-14T15:53:44Z</time>
      </trkpt>
      <trkpt lat="43.60577" lon="6.89706">
        <ele>62.819443</ele>
        <time>2013-09-14T15:53:47Z</time>
      </trkpt>
      <trkpt lat="43.60582" lon="6.89702">
        <ele>63.496532</ele>
        <time>2013-09-14T15:53:50Z</time>
      </trkpt>
      <trkpt lat="43.60587" lon="6.89697">
        <ele>64.967834</ele>
        <time>2013-09-14T15:53:54Z</time>
      </trkpt>
      <trkpt lat="43.60592" lon="6.89691">
        <ele>66.579636</ele>
        <time>2013-09-14T15:53:58Z</time>
      </trkpt>
      <trkpt lat="43.60596" lon="6.89686">
        <ele>67.925652</ele>
        <time>2013-09-14T15:54:01Z</time>
      </trkpt>
      <trkpt lat="43.60599" lon="6.8968">
        <ele>69.780853</ele>
        <time>2013-09-14T15:54:04Z</time>
      </trkpt>
      <trkpt lat="43.60603" lon="6.89672">
        <ele>72.319649</ele>
        <time>2013-09-14T15:54:08Z</time>
      </trkpt>
      <trkpt lat="43.60607" lon="6.89663">
        <ele>74.737679</ele>
        <time>2013-09-14T15:54:12Z</time>
      </trkpt>
      <trkpt lat="43.60609" lon="6.89656">
        <ele>76.385742</ele>
        <time>2013-09-14T15:54:15Z</time>
      </trkpt>
      <trkpt lat="43.60612" lon="6.8965">
        <ele>77.911415</ele>
        <time>2013-09-14T15:54:18Z</time>
      </trkpt>
      <trkpt lat="43.60615" lon="6.89641">
        <ele>79.862</ele>
        <time>2013-09-14T15:54:22Z</time>
      </trkpt>
      <trkpt lat="43.60619" lon="6.89632">
        <ele>81.918106</ele>
        <time>2013-09-14T15:54:26Z</time>
      </trkpt>
      <trkpt lat="43.60621" lon="6.89626">
        <ele>83.448898</ele>
        <time>2013-09-14T15:54:29Z</time>
      </trkpt>
      <trkpt lat="43.60625" lon="6.89618">
        <ele>85.44162</ele>
        <time>2013-09-14T15:54:33Z</time>
      </trkpt>
      <trkpt lat="43.60629" lon="6.8961">
        <ele>87.064911</ele>
        <time>2013-09-14T15:54:37Z</time>
      </trkpt>
      <trkpt lat="43.60634" lon="6.89603">
        <ele>88.551277</ele>
        <time>2013-09-14T15:54:41Z</time>
      </trkpt>
      <trkpt lat="43.60637" lon="6.89595">
        <ele>90.34169</ele>
        <time>2013-09-14T15:54:45Z</time>
      </trkpt>
      <trkpt lat="43.6064" lon="6.89587">
        <ele>92.534676</ele>
        <time>2013-09-14T15:54:49Z</time>
      </trkpt>
      <trkpt lat="43.6064" lon="6.89577">
        <ele>94.791847</ele>
        <time>2013-09-14T15:54:53Z</time>
      </trkpt>
      <trkpt lat="43.60635" lon="6.89574">
        <ele>96.239334</ele>
        <time>2013-09-14T15:54:56Z</time>
      </trkpt>
      <trkpt lat="43.60629" lon="6.89578">
        <ele>96.582893</ele>
        <time>2013-09-14T15:54:59Z</time>
      </trkpt>
      <trkpt lat="43.60626" lon="6.8959">
        <ele>94.220306</ele>
        <time>2013-09-14T15:55:03Z</time>
      </trkpt>
      <trkpt lat="43.60623" lon="6.896">
        <ele>91.46003</ele>
        <time>2013-09-14T15:55:07Z</time>
      </trkpt>
      <trkpt lat="43.60619" lon="6.89606">
        <ele>90.197456</ele>
        <time>2013-09-14T15:55:10Z</time>
      </trkpt>
      <trkpt lat="43.60615" lon="6.89614">
        <ele>88.760323</ele>
        <time>2013-09-14T15:55:14Z</time>
      </trkpt>
      <trkpt lat="43.60611" lon="6.89619">
        <ele>87.603333</ele>
        <time>2013-09-14T15:55:17Z</time>
      </trkpt>
      <trkpt lat="43.60607" lon="6.89628">
        <ele>85.875221</ele>
        <time>2013-09-14T15:55:21Z</time>
      </trkpt>
      <trkpt lat="43.60602" lon="6.89635">
        <ele>84.643997</ele>
        <time>2013-09-14T15:55:25Z</time>
      </trkpt>
      <trkpt lat="43.60598" lon="6.8964">
        <ele>83.921303</ele>
        <time>2013-09-14T15:55:28Z</time>
      </trkpt>
      <trkpt lat="43.60595" lon="6.89645">
        <ele>82.899223</ele>
        <time>2013-09-14T15:55:31Z</time>
      </trkpt>
      <trkpt lat="43.60591" lon="6.89652">
        <ele>81.871231</ele>
        <time>2013-09-14T15:55:35Z</time>
      </trkpt>
      <trkpt lat="43.60585" lon="6.89658">
        <ele>81.302559</ele>
        <time>2013-09-14T15:55:39Z</time>
      </trkpt>
      <trkpt lat="43.6058" lon="6.8966">
        <ele>81.369965</ele>
        <time>2013-09-14T15:55:42Z</time>
      </trkpt>
      <trkpt lat="43.60575" lon="6.89662">
        <ele>81.700279</ele>
        <time>2013-09-14T15:55:45Z</time>
      </trkpt>
      <trkpt lat="43.60568" lon="6.89661">
        <ele>83.114517</ele>
        <time>2013-09-14T15:55:49Z</time>
      </trkpt>
      <trkpt lat="43.60563" lon="6.89658">
        <ele>84.683456</ele>
        <time>2013-09-14T15:55:52Z</time>
      </trkpt>
      <trkpt lat="43.60559" lon="6.89654">
        <ele>86.556244</ele>
        <time>2013-09-14T15:55:55Z</time>
      </trkpt>
      <trkpt lat="43.60553" lon="6.89648">
        <ele>89.009766</ele>
        <time>2013-09-14T15:55:59Z</time>
      </trkpt>
      <trkpt lat="43.60549" lon="6.89646">
        <ele>90.336868</ele>
        <time>2013-09-14T15:56:02Z</time>
      </trkpt>
      <trkpt lat="43.60541" lon="6.89646">
        <ele>91.491409</ele>
        <time>2013-09-14T15:56:06Z</time>
      </trkpt>
      <trkpt lat="43.60536" lon="6.89648">
        <ele>91.751801</ele>
        <time>2013-09-14T15:56:09Z</time>
      </trkpt>
      <trkpt lat="43.60531" lon="6.89651">
        <ele>91.706024</ele>
        <time>2013-09-14T15:56:12Z</time>
      </trkpt>
      <trkpt lat="43.60525" lon="6.89656">
        <ele>91.272758</ele>
        <time>2013-09-14T15:56:16Z</time>
      </trkpt>
      <trkpt lat="43.60519" lon="6.8966">
        <ele>90.793869</ele>
        <time>2013-09-14T15:56:20Z</time>
      </trkpt>
      <trkpt lat="43.60515" lon="6.89665">
        <ele>90.188934</ele>
        <time>2013-09-14T15:56:23Z</time>
      </trkpt>
      <trkpt lat="43.60511" lon="6.89668">
        <ele>89.638771</ele>
        <time>2013-09-14T15:56:26Z</time>
      </trkpt>
      <trkpt lat="43.60505" lon="6.89673">
        <ele>88.633026</ele>
        <time>2013-09-14T15:56:30Z</time>
      </trkpt>
      <trkpt lat="43.60499" lon="6.89677">
        <ele>88.274796</ele>
        <time>2013-09-14T15:56:34Z</time>
      </trkpt>
      <trkpt lat="43.60494" lon="6.89678">
        <ele>89.017227</ele>
        <time>2013-09-14T15:56:37Z</time>
      </trkpt>
      <trkpt lat="43.60489" lon="6.89675">
        <ele>90.882027</ele>
        <time>2013-09-14T15:56:40Z</time>
      </trkpt>
      <trkpt lat="43.60485" lon="6.89672">
        <ele>93.132019</ele>
        <time>2013-09-14T15:56:43Z</time>
      </trkpt>
      <trkpt lat="43.60479" lon="6.89666">
        <ele>96.120888</ele>
        <time>2013-09-14T15:56:47Z</time>
      </trkpt>
      <trkpt lat="43.60475" lon="6.89664">
        <ele>97.661819</ele>
        <time>2013-09-14T15:56:50Z</time>
      </trkpt>
      <trkpt lat="43.6047" lon="6.89662">
        <ele>99.127449</ele>
        <time>2013-09-14T15:56:53Z</time>
      </trkpt>
      <trkpt lat="43.60465" lon="6.89659">
        <ele>100.594147</ele>
        <time>2013-09-14T15:56:56Z</time>
      </trkpt>
      <trkpt lat="43.60459" lon="6.89657">
        <ele>102.346695</ele>
        <time>2013-09-14T15:57:00Z</time>
      </trkpt>
      <trkpt lat="43.60452" lon="6.89655">
        <ele>104.13961</ele>
        <time>2013-09-14T15:57:04Z</time>
      </trkpt>
      <trkpt lat="43.60445" lon="6.89653">
        <ele>106.016113</ele>
        <time>2013-09-14T15:57:08Z</time>
      </trkpt>
      <trkpt lat="43.6044" lon="6.89652">
        <ele>107.156219</ele>
        <time>2013-09-14T15:57:11Z</time>
      </trkpt>
      <trkpt lat="43.60435" lon="6.89651">
        <ele>108.528229</ele>
        <time>2013-09-14T15:57:14Z</time>
      </trkpt>
      <trkpt lat="43.60428" lon="6.89648">
        <ele>110.387619</ele>
        <time>2013-09-14T15:57:18Z</time>
      </trkpt>
      <trkpt lat="43.6042" lon="6.89647">
        <ele>112.089592</ele>
        <time>2013-09-14T15:57:22Z</time>
      </trkpt>
      <trkpt lat="43.60413" lon="6.89644">
        <ele>113.949127</ele>
        <time>2013-09-14T15:57:26Z</time>
      </trkpt>
      <trkpt lat="43.60406" lon="6.89641">
        <ele>115.923454</ele>
        <time>2013-09-14T15:57:30Z</time>
      </trkpt>
      <trkpt lat="43.60401" lon="6.89641">
        <ele>116.959106</ele>
        <time>2013-09-14T15:57:33Z</time>
      </trkpt>
      <trkpt lat="43.60394" lon="6.89641">
        <ele>117.964195</ele>
        <time>2013-09-14T15:57:37Z</time>
      </trkpt>
      <trkpt lat="43.60388" lon="6.89643">
        <ele>118.629791</ele>
        <time>2013-09-14T15:57:40Z</time>
      </trkpt>
      <trkpt lat="43.60381" lon="6.89643">
        <ele>119.571815</ele>
        <time>2013-09-14T15:57:44Z</time>
      </trkpt>
      <trkpt lat="43.60377" lon="6.89644">
        <ele>120.190163</ele>
        <time>2013-09-14T15:57:47Z</time>
      </trkpt>
      <trkpt lat="43.60371" lon="6.89646">
        <ele>120.841385</ele>
        <time>2013-09-14T15:57:51Z</time>
      </trkpt>
      <trkpt lat="43.60366" lon="6.89647">
        <ele>121.404678</ele>
        <time>2013-09-14T15:57:54Z</time>
      </trkpt>
      <trkpt lat="43.60359" lon="6.89648">
        <ele>122.243774</ele>
        <time>2013-09-14T15:57:58Z</time>
      </trkpt>
      <trkpt lat="43.60354" lon="6.89649">
        <ele>122.949211</ele>
        <time>2013-09-14T15:58:01Z</time>
      </trkpt>
      <trkpt lat="43.60347" lon="6.89653">
        <ele>123.359406</ele>
        <time>2013-09-14T15:58:05Z</time>
      </trkpt>
      <trkpt lat="43.60344" lon="6.89658">
        <ele>122.881729</ele>
        <time>2013-09-14T15:58:08Z</time>
      </trkpt>
      <trkpt lat="43.60342" lon="6.89668">
        <ele>121.054955</ele>
        <time>2013-09-14T15:58:12Z</time>
      </trkpt>
      <trkpt lat="43.60344" lon="6.89678">
        <ele>118.845963</ele>
        <time>2013-09-14T15:58:16Z</time>
      </trkpt>
      <trkpt lat="43.60345" lon="6.89685">
        <ele>117.038475</ele>
        <time>2013-09-14T15:58:19Z</time>
      </trkpt>
      <trkpt lat="43.60347" lon="6.89692">
        <ele>115.172081</ele>
        <time>2013-09-14T15:58:22Z</time>
      </trkpt>
      <trkpt lat="43.60349" lon="6.89702">
        <ele>112.758743</ele>
        <time>2013-09-14T15:58:26Z</time>
      </trkpt>
      <trkpt lat="43.6035" lon="6.89709">
        <ele>111.047867</ele>
        <time>2013-09-14T15:58:29Z</time>
      </trkpt>
      <trkpt lat="43.60351" lon="6.89715">
        <ele>109.546562</ele>
        <time>2013-09-14T15:58:32Z</time>
      </trkpt>
      <trkpt lat="43.6035" lon="6.89724">
        <ele>107.969475</ele>
        <time>2013-09-14T15:58:36Z</time>
      </trkpt>
      <trkpt lat="43.6035" lon="6.89733">
        <ele>105.941666</ele>
        <time>2013-09-14T15:58:40Z</time>
      </trkpt>
      <trkpt lat="43.60351" lon="6.89743">
        <ele>103.769577</ele>
        <time>2013-09-14T15:58:44Z</time>
      </trkpt>
      <trkpt lat="43.6035" lon="6.89753">
        <ele>101.873932</ele>
        <time>2013-09-14T15:58:48Z</time>
      </trkpt>
      <trkpt lat="43.60348" lon="6.89762">
        <ele>100.068802</ele>
        <time>2013-09-14T15:58:52Z</time>
      </trkpt>
      <trkpt lat="43.60345" lon="6.89769">
        <ele>99.53701</ele>
        <time>2013-09-14T15:58:55Z</time>
      </trkpt>
      <trkpt lat="43.60341" lon="6.89774">
        <ele>99.630516</ele>
        <time>2013-09-14T15:58:58Z</time>
      </trkpt>
      <trkpt lat="43.60337" lon="6.89778">
        <ele>100.067963</ele>
        <time>2013-09-14T15:59:01Z</time>
      </trkpt>
      <trkpt lat="43.60331" lon="6.89783">
        <ele>100.662819</ele>
        <time>2013-09-14T15:59:05Z</time>
      </trkpt>
      <trkpt lat="43.60327" lon="6.89786">
        <ele>101.275436</ele>
        <time>2013-09-14T15:59:08Z</time>
      </trkpt>
      <trkpt lat="43.60322" lon="6.89792">
        <ele>101.887222</ele>
        <time>2013-09-14T15:59:12Z</time>
      </trkpt>
      <trkpt lat="43.60318" lon="6.89797">
        <ele>102.170837</ele>
        <time>2013-09-14T15:59:15Z</time>
      </trkpt>
      <trkpt lat="43.60313" lon="6.89804">
        <ele>102.427589</ele>
        <time>2013-09-14T15:59:19Z</time>
      </trkpt>
      <trkpt lat="43.6031" lon="6.89809">
        <ele>102.614105</ele>
        <time>2013-09-14T15:59:22Z</time>
      </trkpt>
      <trkpt lat="43.60305" lon="6.89816">
        <ele>103.170227</ele>
        <time>2013-09-14T15:59:26Z</time>
      </trkpt>
      <trkpt lat="43.60301" lon="6.8982">
        <ele>104.019272</ele>
        <time>2013-09-14T15:59:29Z</time>
      </trkpt>
      <trkpt lat="43.60295" lon="6.89825">
        <ele>105.677628</ele>
        <time>2013-09-14T15:59:33Z</time>
      </trkpt>
      <trkpt lat="43.60288" lon="6.89828">
        <ele>107.734085</ele>
        <time>2013-09-14T15:59:37Z</time>
      </trkpt>
      <trkpt lat="43.60283" lon="6.89828">
        <ele>109.876663</ele>
        <time>2013-09-14T15:59:41Z</time>
      </trkpt>
      <trkpt lat="43.60277" lon="6.89827">
        <ele>112.331612</ele>
        <time>2013-09-14T15:59:45Z</time>
      </trkpt>
      <trkpt lat="43.60272" lon="6.89825">
        <ele>114.297821</ele>
        <time>2013-09-14T15:59:48Z</time>
      </trkpt>
      <trkpt lat="43.60267" lon="6.89824">
        <ele>116.389389</ele>
        <time>2013-09-14T15:59:51Z</time>
      </trkpt>
      <trkpt lat="43.60262" lon="6.89821">
        <ele>118.480865</ele>
        <time>2013-09-14T15:59:54Z</time>
      </trkpt>
      <trkpt lat="43.60256" lon="6.89817">
        <ele>121.263176</ele>
        <time>2013-09-14T15:59:58Z</time>
      </trkpt>
      <trkpt lat="43.6025" lon="6.89813">
        <ele>123.971107</ele>
        <time>2013-09-14T16:00:02Z</time>
      </trkpt>
      <trkpt lat="43.60245" lon="6.89811">
        <ele>125.38102</ele>
        <time>2013-09-14T16:00:05Z</time>
      </trkpt>
      <trkpt lat="43.60238" lon="6.89807">
        <ele>127.260002</ele>
        <time>2013-09-14T16:00:09Z</time>
      </trkpt>
      <trkpt lat="43.60234" lon="6.89804">
        <ele>128.65451</ele>
        <time>2013-09-14T16:00:12Z</time>
      </trkpt>
      <trkpt lat="43.60229" lon="6.89801">
        <ele>130.061584</ele>
        <time>2013-09-14T16:00:15Z</time>
      </trkpt>
      <trkpt lat="43.60224" lon="6.89797">
        <ele>131.954346</ele>
        <time>2013-09-14T16:00:19Z</time>
      </trkpt>
      <trkpt lat="43.60219" lon="6.89793">
        <ele>133.493073</ele>
        <time>2013-09-14T16:00:22Z</time>
      </trkpt>
      <trkpt lat="43.60214" lon="6.8979">
        <ele>134.931778</ele>
        <time>2013-09-14T16:00:25Z</time>
      </trkpt>
      <trkpt lat="43.60208" lon="6.89787">
        <ele>136.938614</ele>
        <time>2013-09-14T16:00:29Z</time>
      </trkpt>
      <trkpt lat="43.60202" lon="6.89783">
        <ele>139.03009</ele>
        <time>2013-09-14T16:00:33Z</time>
      </trkpt>
      <trkpt lat="43.60195" lon="6.89779">
        <ele>141.308105</ele>
        <time>2013-09-14T16:00:37Z</time>
      </trkpt>
      <trkpt lat="43.60188" lon="6.89773">
        <ele>143.821747</ele>
        <time>2013-09-14T16:00:41Z</time>
      </trkpt>
      <trkpt lat="43.60184" lon="6.89768">
        <ele>145.6297</ele>
        <time>2013-09-14T16:00:44Z</time>
      </trkpt>
      <trkpt lat="43.60179" lon="6.89762">
        <ele>147.95842</ele>
        <time>2013-09-14T16:00:48Z</time>
      </trkpt>
      <trkpt lat="43.60175" lon="6.89757">
        <ele>149.7668</ele>
        <time>2013-09-14T16:00:51Z</time>
      </trkpt>
      <trkpt lat="43.60169" lon="6.89751">
        <ele>152.300812</ele>
        <time>2013-09-14T16:00:55Z</time>
      </trkpt>
      <trkpt lat="43.60163" lon="6.89745">
        <ele>154.398438</ele>
        <time>2013-09-14T16:00:59Z</time>
      </trkpt>
      <trkpt lat="43.60158" lon="6.89739">
        <ele>156.251465</ele>
        <time>2013-09-14T16:01:03Z</time>
      </trkpt>
      <trkpt lat="43.60155" lon="6.89734">
        <ele>157.65918</ele>
        <time>2013-09-14T16:01:06Z</time>
      </trkpt>
      <trkpt lat="43.60151" lon="6.89729">
        <ele>159.055176</ele>
        <time>2013-09-14T16:01:09Z</time>
      </trkpt>
      <trkpt lat="43.60146" lon="6.89722">
        <ele>160.868652</ele>
        <time>2013-09-14T16:01:13Z</time>
      </trkpt>
      <trkpt lat="43.60143" lon="6.89717">
        <ele>162.382812</ele>
        <time>2013-09-14T16:01:16Z</time>
      </trkpt>
      <trkpt lat="43.60138" lon="6.8971">
        <ele>164.258301</ele>
        <time>2013-09-14T16:01:20Z</time>
      </trkpt>
      <trkpt lat="43.60134" lon="6.89704">
        <ele>165.959473</ele>
        <time>2013-09-14T16:01:24Z</time>
      </trkpt>
      <trkpt lat="43.6013" lon="6.89699">
        <ele>167.335938</ele>
        <time>2013-09-14T16:01:27Z</time>
      </trkpt>
      <trkpt lat="43.60125" lon="6.89693">
        <ele>169.209961</ele>
        <time>2013-09-14T16:01:31Z</time>
      </trkpt>
      <trkpt lat="43.60119" lon="6.89687">
        <ele>171.216309</ele>
        <time>2013-09-14T16:01:35Z</time>
      </trkpt>
      <trkpt lat="43.60112" lon="6.89684">
        <ele>172.923828</ele>
        <time>2013-09-14T16:01:39Z</time>
      </trkpt>
      <trkpt lat="43.60107" lon="6.89687">
        <ele>173.50293</ele>
        <time>2013-09-14T16:01:42Z</time>
      </trkpt>
      <trkpt lat="43.60102" lon="6.89693">
        <ele>173.665039</ele>
        <time>2013-09-14T16:01:46Z</time>
      </trkpt>
      <trkpt lat="43.60098" lon="6.89702">
        <ele>173.075684</ele>
        <time>2013-09-14T16:01:50Z</time>
      </trkpt>
      <trkpt lat="43.60098" lon="6.8971">
        <ele>171.922852</ele>
        <time>2013-09-14T16:01:53Z</time>
      </trkpt>
      <trkpt lat="43.60098" lon="6.8972">
        <ele>170.461914</ele>
        <time>2013-09-14T16:01:57Z</time>
      </trkpt>
      <trkpt lat="43.60098" lon="6.89729">
        <ele>169.171387</ele>
        <time>2013-09-14T16:02:01Z</time>
      </trkpt>
      <trkpt lat="43.60099" lon="6.89736">
        <ele>168.004395</ele>
        <time>2013-09-14T16:02:04Z</time>
      </trkpt>
      <trkpt lat="43.60099" lon="6.89746">
        <ele>166.586914</ele>
        <time>2013-09-14T16:02:08Z</time>
      </trkpt>
      <trkpt lat="43.60098" lon="6.89752">
        <ele>165.765625</ele>
        <time>2013-09-14T16:02:11Z</time>
      </trkpt>
      <trkpt lat="43.60097" lon="6.89759">
        <ele>164.895386</ele>
        <time>2013-09-14T16:02:14Z</time>
      </trkpt>
      <trkpt lat="43.60095" lon="6.89769">
        <ele>163.865723</ele>
        <time>2013-09-14T16:02:18Z</time>
      </trkpt>
      <trkpt lat="43.60092" lon="6.89774">
        <ele>163.572998</ele>
        <time>2013-09-14T16:02:21Z</time>
      </trkpt>
      <trkpt lat="43.60088" lon="6.89779">
        <ele>163.609375</ele>
        <time>2013-09-14T16:02:24Z</time>
      </trkpt>
      <trkpt lat="43.60084" lon="6.89787">
        <ele>163.16272</ele>
        <time>2013-09-14T16:02:28Z</time>
      </trkpt>
      <trkpt lat="43.6008" lon="6.89795">
        <ele>162.20166</ele>
        <time>2013-09-14T16:02:32Z</time>
      </trkpt>
      <trkpt lat="43.60078" lon="6.89802">
        <ele>161.306656</ele>
        <time>2013-09-14T16:02:35Z</time>
      </trkpt>
      <trkpt lat="43.60077" lon="6.89812">
        <ele>159.656281</ele>
        <time>2013-09-14T16:02:39Z</time>
      </trkpt>
      <trkpt lat="43.60079" lon="6.89823">
        <ele>157.910263</ele>
        <time>2013-09-14T16:02:43Z</time>
      </trkpt>
      <trkpt lat="43.6008" lon="6.8983">
        <ele>156.622772</ele>
        <time>2013-09-14T16:02:46Z</time>
      </trkpt>
      <trkpt lat="43.60082" lon="6.89841">
        <ele>154.716309</ele>
        <time>2013-09-14T16:02:50Z</time>
      </trkpt>
      <trkpt lat="43.60084" lon="6.89853">
        <ele>152.569855</ele>
        <time>2013-09-14T16:02:54Z</time>
      </trkpt>
      <trkpt lat="43.60085" lon="6.89865">
        <ele>150.394318</ele>
        <time>2013-09-14T16:02:58Z</time>
      </trkpt>
      <trkpt lat="43.60087" lon="6.89876">
        <ele>148.144806</ele>
        <time>2013-09-14T16:03:02Z</time>
      </trkpt>
      <trkpt lat="43.60089" lon="6.89887">
        <ele>145.985352</ele>
        <time>2013-09-14T16:03:06Z</time>
      </trkpt>
      <trkpt lat="43.60089" lon="6.89895">
        <ele>144.64946</ele>
        <time>2013-09-14T16:03:09Z</time>
      </trkpt>
      <trkpt lat="43.60089" lon="6.89907">
        <ele>142.887619</ele>
        <time>2013-09-14T16:03:13Z</time>
      </trkpt>
      <trkpt lat="43.60087" lon="6.89915">
        <ele>141.781784</ele>
        <time>2013-09-14T16:03:16Z</time>
      </trkpt>
      <trkpt lat="43.60085" lon="6.89922">
        <ele>141.01593</ele>
        <time>2013-09-14T16:03:19Z</time>
      </trkpt>
      <trkpt lat="43.60079" lon="6.89928">
        <ele>140.344666</ele>
        <time>2013-09-14T16:03:23Z</time>
      </trkpt>
      <trkpt lat="43.6007" lon="6.89931">
        <ele>139.992523</ele>
        <time>2013-09-14T16:03:27Z</time>
      </trkpt>
      <trkpt lat="43.60062" lon="6.89927">
        <ele>140.604065</ele>
        <time>2013-09-14T16:03:31Z</time>
      </trkpt>
      <trkpt lat="43.60056" lon="6.89923">
        <ele>141.37738</ele>
        <time>2013-09-14T16:03:34Z</time>
      </trkpt>
      <trkpt lat="43.60049" lon="6.89917">
        <ele>142.320465</ele>
        <time>2013-09-14T16:03:38Z</time>
      </trkpt>
      <trkpt lat="43.60041" lon="6.89912">
        <ele>143.361511</ele>
        <time>2013-09-14T16:03:42Z</time>
      </trkpt>
      <trkpt lat="43.60034" lon="6.89907">
        <ele>144.52861</ele>
        <time>2013-09-14T16:03:46Z</time>
      </trkpt>
      <trkpt lat="43.60027" lon="6.89901">
        <ele>145.724304</ele>
        <time>2013-09-14T16:03:50Z</time>
      </trkpt>
      <trkpt lat="43.6002" lon="6.89897">
        <ele>146.558197</ele>
        <time>2013-09-14T16:03:54Z</time>
      </trkpt>
      <trkpt lat="43.60013" lon="6.89893">
        <ele>147.508896</ele>
        <time>2013-09-14T16:03:58Z</time>
      </trkpt>
      <trkpt lat="43.60007" lon="6.89888">
        <ele>148.666443</ele>
        <time>2013-09-14T16:04:02Z</time>
      </trkpt>
      <trkpt lat="43.60001" lon="6.89882">
        <ele>150.061646</ele>
        <time>2013-09-14T16:04:06Z</time>
      </trkpt>
      <trkpt lat="43.59995" lon="6.89878">
        <ele>150.033737</ele>
        <time>2013-09-14T16:04:10Z</time>
      </trkpt>
      <trkpt lat="43.5999" lon="6.89873">
        <ele>150.03743</ele>
        <time>2013-09-14T16:04:14Z</time>
      </trkpt>
      <trkpt lat="43.59984" lon="6.89867">
        <ele>150.296906</ele>
        <time>2013-09-14T16:04:18Z</time>
      </trkpt>
      <trkpt lat="43.5998" lon="6.89863">
        <ele>150.564957</ele>
        <time>2013-09-14T16:04:21Z</time>
      </trkpt>
      <trkpt lat="43.59975" lon="6.89856">
        <ele>151.141815</ele>
        <time>2013-09-14T16:04:25Z</time>
      </trkpt>
      <trkpt lat="43.5997" lon="6.89851">
        <ele>151.379181</ele>
        <time>2013-09-14T16:04:29Z</time>
      </trkpt>
      <trkpt lat="43.59965" lon="6.89848">
        <ele>151.319382</ele>
        <time>2013-09-14T16:04:32Z</time>
      </trkpt>
      <trkpt lat="43.59962" lon="6.89843">
        <ele>151.681519</ele>
        <time>2013-09-14T16:04:35Z</time>
      </trkpt>
      <trkpt lat="43.59957" lon="6.89839">
        <ele>152.02449</ele>
        <time>2013-09-14T16:04:38Z</time>
      </trkpt>
      <trkpt lat="43.59954" lon="6.89834">
        <ele>152.689972</ele>
        <time>2013-09-14T16:04:41Z</time>
      </trkpt>
      <trkpt lat="43.5995" lon="6.89826">
        <ele>154.131866</ele>
        <time>2013-09-14T16:04:45Z</time>
      </trkpt>
      <trkpt lat="43.59946" lon="6.89819">
        <ele>155.423355</ele>
        <time>2013-09-14T16:04:49Z</time>
      </trkpt>
      <trkpt lat="43.59944" lon="6.89811">
        <ele>157.153885</ele>
        <time>2013-09-14T16:04:53Z</time>
      </trkpt>
      <trkpt lat="43.59941" lon="6.89806">
        <ele>158.330933</ele>
        <time>2013-09-14T16:04:56Z</time>
      </trkpt>
      <trkpt lat="43.59939" lon="6.898">
        <ele>159.663513</ele>
        <time>2013-09-14T16:04:59Z</time>
      </trkpt>
      <trkpt lat="43.59936" lon="6.89792">
        <ele>161.652817</ele>
        <time>2013-09-14T16:05:03Z</time>
      </trkpt>
      <trkpt lat="43.59934" lon="6.89786">
        <ele>163.012848</ele>
        <time>2013-09-14T16:05:06Z</time>
      </trkpt>
      <trkpt lat="43.59931" lon="6.89781">
        <ele>164.17041</ele>
        <time>2013-09-14T16:05:09Z</time>
      </trkpt>
      <trkpt lat="43.59927" lon="6.89772">
        <ele>166.180374</ele>
        <time>2013-09-14T16:05:13Z</time>
      </trkpt>
      <trkpt lat="43.59924" lon="6.89763">
        <ele>168.586563</ele>
        <time>2013-09-14T16:05:17Z</time>
      </trkpt>
      <trkpt lat="43.59921" lon="6.89755">
        <ele>170.754517</ele>
        <time>2013-09-14T16:05:21Z</time>
      </trkpt>
      <trkpt lat="43.59919" lon="6.89746">
        <ele>173.290375</ele>
        <time>2013-09-14T16:05:25Z</time>
      </trkpt>
      <trkpt lat="43.59917" lon="6.89739">
        <ele>175.488861</ele>
        <time>2013-09-14T16:05:28Z</time>
      </trkpt>
      <trkpt lat="43.59916" lon="6.89733">
        <ele>177.313461</ele>
        <time>2013-09-14T16:05:31Z</time>
      </trkpt>
      <trkpt lat="43.59915" lon="6.89726">
        <ele>179.070267</ele>
        <time>2013-09-14T16:05:34Z</time>
      </trkpt>
      <trkpt lat="43.59913" lon="6.89717">
        <ele>181.474808</ele>
        <time>2013-09-14T16:05:38Z</time>
      </trkpt>
      <trkpt lat="43.59911" lon="6.89707">
        <ele>184.053955</ele>
        <time>2013-09-14T16:05:42Z</time>
      </trkpt>
      <trkpt lat="43.5991" lon="6.897">
        <ele>185.924576</ele>
        <time>2013-09-14T16:05:45Z</time>
      </trkpt>
      <trkpt lat="43.59909" lon="6.89691">
        <ele>188.522308</ele>
        <time>2013-09-14T16:05:49Z</time>
      </trkpt>
      <trkpt lat="43.59908" lon="6.89684">
        <ele>190.487839</ele>
        <time>2013-09-14T16:05:52Z</time>
      </trkpt>
      <trkpt lat="43.59906" lon="6.89675">
        <ele>193.173401</ele>
        <time>2013-09-14T16:05:56Z</time>
      </trkpt>
      <trkpt lat="43.59905" lon="6.89668">
        <ele>195.134628</ele>
        <time>2013-09-14T16:05:59Z</time>
      </trkpt>
      <trkpt lat="43.59901" lon="6.89661">
        <ele>195.50795</ele>
        <time>2013-09-14T16:06:03Z</time>
      </trkpt>
      <trkpt lat="43.59896" lon="6.89658">
        <ele>194.694931</ele>
        <time>2013-09-14T16:06:06Z</time>
      </trkpt>
      <trkpt lat="43.59889" lon="6.89655">
        <ele>193.346527</ele>
        <time>2013-09-14T16:06:10Z</time>
      </trkpt>
      <trkpt lat="43.59882" lon="6.89653">
        <ele>192.298798</ele>
        <time>2013-09-14T16:06:14Z</time>
      </trkpt>
      <trkpt lat="43.59877" lon="6.89648">
        <ele>191.909607</ele>
        <time>2013-09-14T16:06:18Z</time>
      </trkpt>
      <trkpt lat="43.59871" lon="6.89643">
        <ele>191.825134</ele>
        <time>2013-09-14T16:06:22Z</time>
      </trkpt>
      <trkpt lat="43.59866" lon="6.8964">
        <ele>191.290253</ele>
        <time>2013-09-14T16:06:25Z</time>
      </trkpt>
      <trkpt lat="43.5986" lon="6.89636">
        <ele>190.902969</ele>
        <time>2013-09-14T16:06:29Z</time>
      </trkpt>
      <trkpt lat="43.59855" lon="6.89633">
        <ele>190.617828</ele>
        <time>2013-09-14T16:06:32Z</time>
      </trkpt>
      <trkpt lat="43.59851" lon="6.89631">
        <ele>190.023819</ele>
        <time>2013-09-14T16:06:35Z</time>
      </trkpt>
      <trkpt lat="43.59844" lon="6.89628">
        <ele>189.454605</ele>
        <time>2013-09-14T16:06:39Z</time>
      </trkpt>
      <trkpt lat="43.59841" lon="6.89624">
        <ele>189.877655</ele>
        <time>2013-09-14T16:06:42Z</time>
      </trkpt>
      <trkpt lat="43.59838" lon="6.89616">
        <ele>191.904922</ele>
        <time>2013-09-14T16:06:46Z</time>
      </trkpt>
      <trkpt lat="43.59835" lon="6.8961">
        <ele>193.545166</ele>
        <time>2013-09-14T16:06:49Z</time>
      </trkpt>
      <trkpt lat="43.59833" lon="6.89601">
        <ele>195.806274</ele>
        <time>2013-09-14T16:06:53Z</time>
      </trkpt>
      <trkpt lat="43.5983" lon="6.89594">
        <ele>196.865982</ele>
        <time>2013-09-14T16:06:56Z</time>
      </trkpt>
      <trkpt lat="43.59827" lon="6.89585">
        <ele>198.203278</ele>
        <time>2013-09-14T16:07:00Z</time>
      </trkpt>
      <trkpt lat="43.59825" lon="6.89577">
        <ele>198.938675</ele>
        <time>2013-09-14T16:07:04Z</time>
      </trkpt>
      <trkpt lat="43.59821" lon="6.89569">
        <ele>199.103821</ele>
        <time>2013-09-14T16:07:08Z</time>
      </trkpt>
      <trkpt lat="43.59819" lon="6.89563">
        <ele>198.985504</ele>
        <time>2013-09-14T16:07:11Z</time>
      </trkpt>
      <trkpt lat="43.59814" lon="6.89557">
        <ele>198.291321</ele>
        <time>2013-09-14T16:07:15Z</time>
      </trkpt>
      <trkpt lat="43.59808" lon="6.89551">
        <ele>196.806091</ele>
        <time>2013-09-14T16:07:19Z</time>
      </trkpt>
      <trkpt lat="43.59802" lon="6.89547">
        <ele>194.972839</ele>
        <time>2013-09-14T16:07:23Z</time>
      </trkpt>
      <trkpt lat="43.59798" lon="6.89542">
        <ele>193.956161</ele>
        <time>2013-09-14T16:07:26Z</time>
      </trkpt>
      <trkpt lat="43.59794" lon="6.89537">
        <ele>193.871033</ele>
        <time>2013-09-14T16:07:29Z</time>
      </trkpt>
      <trkpt lat="43.59792" lon="6.8953">
        <ele>194.594757</ele>
        <time>2013-09-14T16:07:32Z</time>
      </trkpt>
      <trkpt lat="43.59791" lon="6.8952">
        <ele>196.641571</ele>
        <time>2013-09-14T16:07:36Z</time>
      </trkpt>
      <trkpt lat="43.59792" lon="6.89509">
        <ele>199.461441</ele>
        <time>2013-09-14T16:07:40Z</time>
      </trkpt>
      <trkpt lat="43.59795" lon="6.895">
        <ele>202.750214</ele>
        <time>2013-09-14T16:07:44Z</time>
      </trkpt>
      <trkpt lat="43.59797" lon="6.89493">
        <ele>205.195099</ele>
        <time>2013-09-14T16:07:47Z</time>
      </trkpt>
      <trkpt lat="43.59801" lon="6.89485">
        <ele>208.359787</ele>
        <time>2013-09-14T16:07:51Z</time>
      </trkpt>
      <trkpt lat="43.59805" lon="6.8948">
        <ele>210.744324</ele>
        <time>2013-09-14T16:07:54Z</time>
      </trkpt>
      <trkpt lat="43.59808" lon="6.89472">
        <ele>213.586731</ele>
        <time>2013-09-14T16:07:58Z</time>
      </trkpt>
      <trkpt lat="43.59808" lon="6.89465">
        <ele>214.83371</ele>
        <time>2013-09-14T16:08:01Z</time>
      </trkpt>
      <trkpt lat="43.59805" lon="6.89459">
        <ele>215.224487</ele>
        <time>2013-09-14T16:08:04Z</time>
      </trkpt>
      <trkpt lat="43.59801" lon="6.89452">
        <ele>214.866119</ele>
        <time>2013-09-14T16:08:08Z</time>
      </trkpt>
      <trkpt lat="43.59797" lon="6.89447">
        <ele>214.310394</ele>
        <time>2013-09-14T16:08:11Z</time>
      </trkpt>
      <trkpt lat="43.59792" lon="6.89445">
        <ele>213.155411</ele>
        <time>2013-09-14T16:08:14Z</time>
      </trkpt>
      <trkpt lat="43.59785" lon="6.89443">
        <ele>211.296387</ele>
        <time>2013-09-14T16:08:18Z</time>
      </trkpt>
      <trkpt lat="43.59781" lon="6.89439">
        <ele>210.471222</ele>
        <time>2013-09-14T16:08:21Z</time>
      </trkpt>
      <trkpt lat="43.59775" lon="6.89434">
        <ele>209.655609</ele>
        <time>2013-09-14T16:08:25Z</time>
      </trkpt>
      <trkpt lat="43.59772" lon="6.89429">
        <ele>209.743912</ele>
        <time>2013-09-14T16:08:28Z</time>
      </trkpt>
      <trkpt lat="43.59769" lon="6.8942">
        <ele>210.766769</ele>
        <time>2013-09-14T16:08:32Z</time>
      </trkpt>
      <trkpt lat="43.59768" lon="6.89411">
        <ele>212.362061</ele>
        <time>2013-09-14T16:08:36Z</time>
      </trkpt>
      <trkpt lat="43.59766" lon="6.89401">
        <ele>214.140686</ele>
        <time>2013-09-14T16:08:40Z</time>
      </trkpt>
      <trkpt lat="43.59765" lon="6.89392">
        <ele>216.114883</ele>
        <time>2013-09-14T16:08:44Z</time>
      </trkpt>
      <trkpt lat="43.59764" lon="6.89385">
        <ele>217.472458</ele>
        <time>2013-09-14T16:08:47Z</time>
      </trkpt>
      <trkpt lat="43.59764" lon="6.89378">
        <ele>218.880096</ele>
        <time>2013-09-14T16:08:50Z</time>
      </trkpt>
      <trkpt lat="43.59762" lon="6.89369">
        <ele>220.787231</ele>
        <time>2013-09-14T16:08:54Z</time>
      </trkpt>
      <trkpt lat="43.59761" lon="6.89362">
        <ele>222.255798</ele>
        <time>2013-09-14T16:08:57Z</time>
      </trkpt>
      <trkpt lat="43.5976" lon="6.89353">
        <ele>224.052139</ele>
        <time>2013-09-14T16:09:01Z</time>
      </trkpt>
      <trkpt lat="43.5976" lon="6.89344">
        <ele>226.067093</ele>
        <time>2013-09-14T16:09:05Z</time>
      </trkpt>
      <trkpt lat="43.59759" lon="6.89335">
        <ele>227.987671</ele>
        <time>2013-09-14T16:09:09Z</time>
      </trkpt>
      <trkpt lat="43.59758" lon="6.89326">
        <ele>230.160309</ele>
        <time>2013-09-14T16:09:13Z</time>
      </trkpt>
      <trkpt lat="43.59757" lon="6.89316">
        <ele>232.497375</ele>
        <time>2013-09-14T16:09:17Z</time>
      </trkpt>
      <trkpt lat="43.59756" lon="6.89308">
        <ele>234.508911</ele>
        <time>2013-09-14T16:09:21Z</time>
      </trkpt>
      <trkpt lat="43.59752" lon="6.893">
        <ele>235.63681</ele>
        <time>2013-09-14T16:09:25Z</time>
      </trkpt>
      <trkpt lat="43.59746" lon="6.89296">
        <ele>235.067566</ele>
        <time>2013-09-14T16:09:29Z</time>
      </trkpt>
      <trkpt lat="43.59738" lon="6.89297">
        <ele>232.419754</ele>
        <time>2013-09-14T16:09:33Z</time>
      </trkpt>
      <trkpt lat="43.59731" lon="6.89301">
        <ele>229.223053</ele>
        <time>2013-09-14T16:09:37Z</time>
      </trkpt>
      <trkpt lat="43.59727" lon="6.89305">
        <ele>226.817062</ele>
        <time>2013-09-14T16:09:40Z</time>
      </trkpt>
      <trkpt lat="43.59721" lon="6.8931">
        <ele>223.258499</ele>
        <time>2013-09-14T16:09:44Z</time>
      </trkpt>
      <trkpt lat="43.59716" lon="6.89314">
        <ele>220.779968</ele>
        <time>2013-09-14T16:09:47Z</time>
      </trkpt>
      <trkpt lat="43.59709" lon="6.89315">
        <ele>218.147812</ele>
        <time>2013-09-14T16:09:51Z</time>
      </trkpt>
      <trkpt lat="43.59701" lon="6.89312">
        <ele>216.726593</ele>
        <time>2013-09-14T16:09:55Z</time>
      </trkpt>
      <trkpt lat="43.59696" lon="6.89309">
        <ele>216.177536</ele>
        <time>2013-09-14T16:09:58Z</time>
      </trkpt>
      <trkpt lat="43.59691" lon="6.89305">
        <ele>215.658783</ele>
        <time>2013-09-14T16:10:01Z</time>
      </trkpt>
      <trkpt lat="43.59686" lon="6.89299">
        <ele>215.925537</ele>
        <time>2013-09-14T16:10:05Z</time>
      </trkpt>
      <trkpt lat="43.59687" lon="6.8929">
        <ele>219.289185</ele>
        <time>2013-09-14T16:10:09Z</time>
      </trkpt>
      <trkpt lat="43.59696" lon="6.8929">
        <ele>221.919312</ele>
        <time>2013-09-14T16:10:13Z</time>
      </trkpt>
      <trkpt lat="43.59704" lon="6.89296">
        <ele>222.419861</ele>
        <time>2013-09-14T16:10:17Z</time>
      </trkpt>
      <trkpt lat="43.59711" lon="6.893">
        <ele>223.401566</ele>
        <time>2013-09-14T16:10:21Z</time>
      </trkpt>
      <trkpt lat="43.59717" lon="6.89301">
        <ele>225.033417</ele>
        <time>2013-09-14T16:10:25Z</time>
      </trkpt>
      <trkpt lat="43.59722" lon="6.89298">
        <ele>227.038513</ele>
        <time>2013-09-14T16:10:28Z</time>
      </trkpt>
      <trkpt lat="43.59727" lon="6.89293">
        <ele>230.192795</ele>
        <time>2013-09-14T16:10:32Z</time>
      </trkpt>
      <trkpt lat="43.59731" lon="6.89287">
        <ele>233.353149</ele>
        <time>2013-09-14T16:10:36Z</time>
      </trkpt>
      <trkpt lat="43.59734" lon="6.89281">
        <ele>235.615143</ele>
        <time>2013-09-14T16:10:39Z</time>
      </trkpt>
      <trkpt lat="43.59736" lon="6.89273">
        <ele>238.594925</ele>
        <time>2013-09-14T16:10:43Z</time>
      </trkpt>
      <trkpt lat="43.59739" lon="6.89267">
        <ele>240.962158</ele>
        <time>2013-09-14T16:10:46Z</time>
      </trkpt>
      <trkpt lat="43.59742" lon="6.8926">
        <ele>244.060532</ele>
        <time>2013-09-14T16:10:50Z</time>
      </trkpt>
      <trkpt lat="43.59748" lon="6.89255">
        <ele>246.936935</ele>
        <time>2013-09-14T16:10:54Z</time>
      </trkpt>
      <trkpt lat="43.59753" lon="6.89255">
        <ele>248.077454</ele>
        <time>2013-09-14T16:10:57Z</time>
      </trkpt>
      <trkpt lat="43.5976" lon="6.89258">
        <ele>248.371964</ele>
        <time>2013-09-14T16:11:01Z</time>
      </trkpt>
      <trkpt lat="43.59765" lon="6.89261">
        <ele>248.095123</ele>
        <time>2013-09-14T16:11:04Z</time>
      </trkpt>
      <trkpt lat="43.59769" lon="6.89266">
        <ele>247.509796</ele>
        <time>2013-09-14T16:11:07Z</time>
      </trkpt>
      <trkpt lat="43.59772" lon="6.89272">
        <ele>246.775574</ele>
        <time>2013-09-14T16:11:10Z</time>
      </trkpt>
      <trkpt lat="43.59777" lon="6.8928">
        <ele>245.708405</ele>
        <time>2013-09-14T16:11:14Z</time>
      </trkpt>
      <trkpt lat="43.59779" lon="6.89289">
        <ele>244.087433</ele>
        <time>2013-09-14T16:11:18Z</time>
      </trkpt>
      <trkpt lat="43.59781" lon="6.89298">
        <ele>242.442062</ele>
        <time>2013-09-14T16:11:22Z</time>
      </trkpt>
      <trkpt lat="43.59782" lon="6.89305">
        <ele>241.150955</ele>
        <time>2013-09-14T16:11:25Z</time>
      </trkpt>
      <trkpt lat="43.59784" lon="6.89312">
        <ele>239.888977</ele>
        <time>2013-09-14T16:11:28Z</time>
      </trkpt>
      <trkpt lat="43.59785" lon="6.89321">
        <ele>238.382217</ele>
        <time>2013-09-14T16:11:32Z</time>
      </trkpt>
      <trkpt lat="43.59789" lon="6.8933">
        <ele>237.50824</ele>
        <time>2013-09-14T16:11:36Z</time>
      </trkpt>
      <trkpt lat="43.59793" lon="6.89338">
        <ele>236.63649</ele>
        <time>2013-09-14T16:11:40Z</time>
      </trkpt>
      <trkpt lat="43.59795" lon="6.89345">
        <ele>235.952606</ele>
        <time>2013-09-14T16:11:43Z</time>
      </trkpt>
      <trkpt lat="43.59798" lon="6.89353">
        <ele>235.074661</ele>
        <time>2013-09-14T16:11:47Z</time>
      </trkpt>
      <trkpt lat="43.59803" lon="6.89359">
        <ele>235.054703</ele>
        <time>2013-09-14T16:11:50Z</time>
      </trkpt>
      <trkpt lat="43.59807" lon="6.89365">
        <ele>234.988251</ele>
        <time>2013-09-14T16:11:53Z</time>
      </trkpt>
      <trkpt lat="43.59811" lon="6.89373">
        <ele>234.485352</ele>
        <time>2013-09-14T16:11:57Z</time>
      </trkpt>
      <trkpt lat="43.59814" lon="6.89377">
        <ele>234.742706</ele>
        <time>2013-09-14T16:12:00Z</time>
      </trkpt>
      <trkpt lat="43.59821" lon="6.89375">
        <ele>237.07692</ele>
        <time>2013-09-14T16:12:04Z</time>
      </trkpt>
      <trkpt lat="43.59822" lon="6.89367">
        <ele>239.141388</ele>
        <time>2013-09-14T16:12:07Z</time>
      </trkpt>
      <trkpt lat="43.5982" lon="6.89358">
        <ele>240.249756</ele>
        <time>2013-09-14T16:12:10Z</time>
      </trkpt>
      <trkpt lat="43.59816" lon="6.89349">
        <ele>240.860733</ele>
        <time>2013-09-14T16:12:14Z</time>
      </trkpt>
      <trkpt lat="43.59812" lon="6.89343">
        <ele>240.913712</ele>
        <time>2013-09-14T16:12:17Z</time>
      </trkpt>
      <trkpt lat="43.59809" lon="6.89337">
        <ele>241.333755</ele>
        <time>2013-09-14T16:12:20Z</time>
      </trkpt>
      <trkpt lat="43.59806" lon="6.89328">
        <ele>242.507767</ele>
        <time>2013-09-14T16:12:24Z</time>
      </trkpt>
      <trkpt lat="43.59805" lon="6.89321">
        <ele>243.483551</ele>
        <time>2013-09-14T16:12:27Z</time>
      </trkpt>
      <trkpt lat="43.59804" lon="6.89314">
        <ele>244.470474</ele>
        <time>2013-09-14T16:12:30Z</time>
      </trkpt>
      <trkpt lat="43.59803" lon="6.89307">
        <ele>245.463318</ele>
        <time>2013-09-14T16:12:33Z</time>
      </trkpt>
      <trkpt lat="43.59802" lon="6.893">
        <ele>246.505707</ele>
        <time>2013-09-14T16:12:36Z</time>
      </trkpt>
      <trkpt lat="43.59801" lon="6.89291">
        <ele>248.03363</ele>
        <time>2013-09-14T16:12:40Z</time>
      </trkpt>
      <trkpt lat="43.59799" lon="6.89281">
        <ele>249.598358</ele>
        <time>2013-09-14T16:12:44Z</time>
      </trkpt>
      <trkpt lat="43.59796" lon="6.89272">
        <ele>250.864594</ele>
        <time>2013-09-14T16:12:48Z</time>
      </trkpt>
      <trkpt lat="43.59795" lon="6.89265">
        <ele>252.070496</ele>
        <time>2013-09-14T16:12:51Z</time>
      </trkpt>
      <trkpt lat="43.59795" lon="6.89258">
        <ele>253.315887</ele>
        <time>2013-09-14T16:12:54Z</time>
      </trkpt>
      <trkpt lat="43.59792" lon="6.89249">
        <ele>254.679123</ele>
        <time>2013-09-14T16:12:58Z</time>
      </trkpt>
      <trkpt lat="43.59789" lon="6.89243">
        <ele>254.59108</ele>
        <time>2013-09-14T16:13:01Z</time>
      </trkpt>
      <trkpt lat="43.59784" lon="6.89236">
        <ele>254.521271</ele>
        <time>2013-09-14T16:13:05Z</time>
      </trkpt>
      <trkpt lat="43.59778" lon="6.8923">
        <ele>254.504181</ele>
        <time>2013-09-14T16:13:09Z</time>
      </trkpt>
      <trkpt lat="43.59773" lon="6.89223">
        <ele>254.611725</ele>
        <time>2013-09-14T16:13:13Z</time>
      </trkpt>
      <trkpt lat="43.59769" lon="6.89216">
        <ele>255.002762</ele>
        <time>2013-09-14T16:13:17Z</time>
      </trkpt>
      <trkpt lat="43.59765" lon="6.89209">
        <ele>255.418991</ele>
        <time>2013-09-14T16:13:21Z</time>
      </trkpt>
      <trkpt lat="43.5976" lon="6.89204">
        <ele>255.589035</ele>
        <time>2013-09-14T16:13:25Z</time>
      </trkpt>
      <trkpt lat="43.59753" lon="6.89205">
        <ele>255.129074</ele>
        <time>2013-09-14T16:13:29Z</time>
      </trkpt>
      <trkpt lat="43.59745" lon="6.89206">
        <ele>254.008911</ele>
        <time>2013-09-14T16:13:33Z</time>
      </trkpt>
      <trkpt lat="43.5974" lon="6.89207">
        <ele>252.749542</ele>
        <time>2013-09-14T16:13:36Z</time>
      </trkpt>
      <trkpt lat="43.59733" lon="6.89211">
        <ele>250.878662</ele>
        <time>2013-09-14T16:13:40Z</time>
      </trkpt>
      <trkpt lat="43.59725" lon="6.89214">
        <ele>248.73233</ele>
        <time>2013-09-14T16:13:44Z</time>
      </trkpt>
      <trkpt lat="43.59719" lon="6.89216">
        <ele>247.229584</ele>
        <time>2013-09-14T16:13:47Z</time>
      </trkpt>
      <trkpt lat="43.59714" lon="6.89218">
        <ele>245.788849</ele>
        <time>2013-09-14T16:13:50Z</time>
      </trkpt>
      <trkpt lat="43.59709" lon="6.89217">
        <ele>244.98851</ele>
        <time>2013-09-14T16:13:53Z</time>
      </trkpt>
      <trkpt lat="43.59703" lon="6.89213">
        <ele>244.760529</ele>
        <time>2013-09-14T16:13:57Z</time>
      </trkpt>
      <trkpt lat="43.59699" lon="6.89207">
        <ele>245.308487</ele>
        <time>2013-09-14T16:14:00Z</time>
      </trkpt>
      <trkpt lat="43.59694" lon="6.892">
        <ele>246.233398</ele>
        <time>2013-09-14T16:14:04Z</time>
      </trkpt>
      <trkpt lat="43.59691" lon="6.89195">
        <ele>246.83136</ele>
        <time>2013-09-14T16:14:07Z</time>
      </trkpt>
      <trkpt lat="43.59687" lon="6.89191">
        <ele>247.521088</ele>
        <time>2013-09-14T16:14:10Z</time>
      </trkpt>
      <trkpt lat="43.59682" lon="6.89185">
        <ele>248.482712</ele>
        <time>2013-09-14T16:14:14Z</time>
      </trkpt>
      <trkpt lat="43.59677" lon="6.89178">
        <ele>249.66687</ele>
        <time>2013-09-14T16:14:18Z</time>
      </trkpt>
      <trkpt lat="43.59673" lon="6.89172">
        <ele>251.170456</ele>
        <time>2013-09-14T16:14:22Z</time>
      </trkpt>
      <trkpt lat="43.59672" lon="6.89165">
        <ele>252.617615</ele>
        <time>2013-09-14T16:14:25Z</time>
      </trkpt>
      <trkpt lat="43.59672" lon="6.89157">
        <ele>253.206268</ele>
        <time>2013-09-14T16:14:28Z</time>
      </trkpt>
      <trkpt lat="43.59673" lon="6.89147">
        <ele>254.095291</ele>
        <time>2013-09-14T16:14:32Z</time>
      </trkpt>
      <trkpt lat="43.59675" lon="6.89137">
        <ele>254.992493</ele>
        <time>2013-09-14T16:14:36Z</time>
      </trkpt>
      <trkpt lat="43.59677" lon="6.89128">
        <ele>255.870926</ele>
        <time>2013-09-14T16:14:40Z</time>
      </trkpt>
      <trkpt lat="43.59679" lon="6.89118">
        <ele>256.696655</ele>
        <time>2013-09-14T16:14:44Z</time>
      </trkpt>
      <trkpt lat="43.5968" lon="6.8911">
        <ele>257.260742</ele>
        <time>2013-09-14T16:14:47Z</time>
      </trkpt>
      <trkpt lat="43.5968" lon="6.891">
        <ele>257.973206</ele>
        <time>2013-09-14T16:14:51Z</time>
      </trkpt>
      <trkpt lat="43.59679" lon="6.89093">
        <ele>258.468689</ele>
        <time>2013-09-14T16:14:54Z</time>
      </trkpt>
      <trkpt lat="43.59677" lon="6.89083">
        <ele>259.099335</ele>
        <time>2013-09-14T16:14:58Z</time>
      </trkpt>
      <trkpt lat="43.59674" lon="6.89076">
        <ele>258.613098</ele>
        <time>2013-09-14T16:15:01Z</time>
      </trkpt>
      <trkpt lat="43.5967" lon="6.89071">
        <ele>258.144409</ele>
        <time>2013-09-14T16:15:04Z</time>
      </trkpt>
      <trkpt lat="43.59664" lon="6.89066">
        <ele>257.372589</ele>
        <time>2013-09-14T16:15:08Z</time>
      </trkpt>
      <trkpt lat="43.59658" lon="6.89066">
        <ele>256.661255</ele>
        <time>2013-09-14T16:16:51Z</time>
      </trkpt>
      <trkpt lat="43.59653" lon="6.89066">
        <ele>255.927383</ele>
        <time>2013-09-14T16:16:54Z</time>
      </trkpt>
      <trkpt lat="43.59647" lon="6.89066">
        <ele>255.212601</ele>
        <time>2013-09-14T16:16:57Z</time>
      </trkpt>
      <trkpt lat="43.59638" lon="6.89063">
        <ele>253.887222</ele>
        <time>2013-09-14T16:17:01Z</time>
      </trkpt>
      <trkpt lat="43.5963" lon="6.8906">
        <ele>252.712967</ele>
        <time>2013-09-14T16:17:04Z</time>
      </trkpt>
      <trkpt lat="43.59622" lon="6.89055">
        <ele>251.412598</ele>
        <time>2013-09-14T16:17:07Z</time>
      </trkpt>
      <trkpt lat="43.59612" lon="6.89049">
        <ele>249.880249</ele>
        <time>2013-09-14T16:17:10Z</time>
      </trkpt>
      <trkpt lat="43.596" lon="6.89037">
        <ele>247.712006</ele>
        <time>2013-09-14T16:17:14Z</time>
      </trkpt>
      <trkpt lat="43.59591" lon="6.8903">
        <ele>246.387726</ele>
        <time>2013-09-14T16:17:17Z</time>
      </trkpt>
      <trkpt lat="43.59582" lon="6.89023">
        <ele>245.022171</ele>
        <time>2013-09-14T16:17:21Z</time>
      </trkpt>
      <trkpt lat="43.59575" lon="6.89018">
        <ele>244.585907</ele>
        <time>2013-09-14T16:17:24Z</time>
      </trkpt>
      <trkpt lat="43.59567" lon="6.89011">
        <ele>244.050873</ele>
        <time>2013-09-14T16:17:28Z</time>
      </trkpt>
      <trkpt lat="43.59561" lon="6.89007">
        <ele>243.721771</ele>
        <time>2013-09-14T16:17:31Z</time>
      </trkpt>
      <trkpt lat="43.59553" lon="6.89001">
        <ele>243.309464</ele>
        <time>2013-09-14T16:17:35Z</time>
      </trkpt>
      <trkpt lat="43.59547" lon="6.88996">
        <ele>242.913284</ele>
        <time>2013-09-14T16:17:38Z</time>
      </trkpt>
      <trkpt lat="43.59539" lon="6.88991">
        <ele>242.442444</ele>
        <time>2013-09-14T16:17:42Z</time>
      </trkpt>
      <trkpt lat="43.59531" lon="6.88986">
        <ele>242.090179</ele>
        <time>2013-09-14T16:17:46Z</time>
      </trkpt>
      <trkpt lat="43.59522" lon="6.88983">
        <ele>241.831238</ele>
        <time>2013-09-14T16:17:50Z</time>
      </trkpt>
      <trkpt lat="43.59513" lon="6.88978">
        <ele>241.582489</ele>
        <time>2013-09-14T16:17:54Z</time>
      </trkpt>
      <trkpt lat="43.59507" lon="6.88975">
        <ele>241.444687</ele>
        <time>2013-09-14T16:17:57Z</time>
      </trkpt>
      <trkpt lat="43.595" lon="6.88973">
        <ele>241.357452</ele>
        <time>2013-09-14T16:18:00Z</time>
      </trkpt>
      <trkpt lat="43.59492" lon="6.88969">
        <ele>241.262695</ele>
        <time>2013-09-14T16:18:04Z</time>
      </trkpt>
      <trkpt lat="43.59485" lon="6.88966">
        <ele>241.192139</ele>
        <time>2013-09-14T16:18:07Z</time>
      </trkpt>
      <trkpt lat="43.59479" lon="6.88962">
        <ele>241.08667</ele>
        <time>2013-09-14T16:18:10Z</time>
      </trkpt>
      <trkpt lat="43.59472" lon="6.88955">
        <ele>240.916992</ele>
        <time>2013-09-14T16:18:14Z</time>
      </trkpt>
      <trkpt lat="43.59467" lon="6.8895">
        <ele>240.789307</ele>
        <time>2013-09-14T16:18:17Z</time>
      </trkpt>
      <trkpt lat="43.59462" lon="6.88944">
        <ele>240.662598</ele>
        <time>2013-09-14T16:18:20Z</time>
      </trkpt>
      <trkpt lat="43.59456" lon="6.8894">
        <ele>240.548096</ele>
        <time>2013-09-14T16:18:23Z</time>
      </trkpt>
      <trkpt lat="43.59451" lon="6.88935">
        <ele>240.435547</ele>
        <time>2013-09-14T16:18:26Z</time>
      </trkpt>
      <trkpt lat="43.59443" lon="6.88929">
        <ele>240.30542</ele>
        <time>2013-09-14T16:18:30Z</time>
      </trkpt>
      <trkpt lat="43.59437" lon="6.88922">
        <ele>240.128418</ele>
        <time>2013-09-14T16:18:34Z</time>
      </trkpt>
      <trkpt lat="43.59432" lon="6.88918">
        <ele>240.022705</ele>
        <time>2013-09-14T16:18:37Z</time>
      </trkpt>
      <trkpt lat="43.59427" lon="6.88911">
        <ele>239.893768</ele>
        <time>2013-09-14T16:18:41Z</time>
      </trkpt>
      <trkpt lat="43.59423" lon="6.88905">
        <ele>239.857269</ele>
        <time>2013-09-14T16:18:44Z</time>
      </trkpt>
      <trkpt lat="43.59418" lon="6.88899">
        <ele>239.966171</ele>
        <time>2013-09-14T16:18:48Z</time>
      </trkpt>
      <trkpt lat="43.59413" lon="6.88892">
        <ele>240.072235</ele>
        <time>2013-09-14T16:18:52Z</time>
      </trkpt>
      <trkpt lat="43.59408" lon="6.88884">
        <ele>240.185715</ele>
        <time>2013-09-14T16:18:56Z</time>
      </trkpt>
      <trkpt lat="43.59402" lon="6.88876">
        <ele>240.346832</ele>
        <time>2013-09-14T16:19:00Z</time>
      </trkpt>
      <trkpt lat="43.59397" lon="6.8887">
        <ele>240.496017</ele>
        <time>2013-09-14T16:19:03Z</time>
      </trkpt>
      <trkpt lat="43.59392" lon="6.88865">
        <ele>240.653625</ele>
        <time>2013-09-14T16:19:06Z</time>
      </trkpt>
      <trkpt lat="43.59385" lon="6.88859">
        <ele>240.895874</ele>
        <time>2013-09-14T16:19:10Z</time>
      </trkpt>
      <trkpt lat="43.5938" lon="6.88855">
        <ele>241.085587</ele>
        <time>2013-09-14T16:19:13Z</time>
      </trkpt>
      <trkpt lat="43.59373" lon="6.8885">
        <ele>241.357239</ele>
        <time>2013-09-14T16:19:17Z</time>
      </trkpt>
      <trkpt lat="43.59368" lon="6.88847">
        <ele>241.578781</ele>
        <time>2013-09-14T16:19:20Z</time>
      </trkpt>
      <trkpt lat="43.5936" lon="6.88842">
        <ele>241.895981</ele>
        <time>2013-09-14T16:19:24Z</time>
      </trkpt>
      <trkpt lat="43.59355" lon="6.88838">
        <ele>242.139893</ele>
        <time>2013-09-14T16:19:27Z</time>
      </trkpt>
      <trkpt lat="43.59348" lon="6.88833">
        <ele>242.457016</ele>
        <time>2013-09-14T16:19:31Z</time>
      </trkpt>
      <trkpt lat="43.59341" lon="6.88827">
        <ele>242.613449</ele>
        <time>2013-09-14T16:19:35Z</time>
      </trkpt>
      <trkpt lat="43.59336" lon="6.88821">
        <ele>242.849655</ele>
        <time>2013-09-14T16:19:38Z</time>
      </trkpt>
      <trkpt lat="43.59329" lon="6.88813">
        <ele>243.845352</ele>
        <time>2013-09-14T16:19:42Z</time>
      </trkpt>
      <trkpt lat="43.59324" lon="6.88807">
        <ele>244.889008</ele>
        <time>2013-09-14T16:19:45Z</time>
      </trkpt>
      <trkpt lat="43.5932" lon="6.88803">
        <ele>245.947128</ele>
        <time>2013-09-14T16:19:48Z</time>
      </trkpt>
      <trkpt lat="43.59315" lon="6.88798">
        <ele>247.055161</ele>
        <time>2013-09-14T16:19:51Z</time>
      </trkpt>
      <trkpt lat="43.59309" lon="6.88791">
        <ele>248.467926</ele>
        <time>2013-09-14T16:19:55Z</time>
      </trkpt>
      <trkpt lat="43.59304" lon="6.88787">
        <ele>249.699615</ele>
        <time>2013-09-14T16:19:58Z</time>
      </trkpt>
      <trkpt lat="43.59297" lon="6.88781">
        <ele>251.312378</ele>
        <time>2013-09-14T16:20:02Z</time>
      </trkpt>
      <trkpt lat="43.59293" lon="6.88776">
        <ele>252.458038</ele>
        <time>2013-09-14T16:20:05Z</time>
      </trkpt>
      <trkpt lat="43.59289" lon="6.8877">
        <ele>253.628891</ele>
        <time>2013-09-14T16:20:08Z</time>
      </trkpt>
      <trkpt lat="43.59284" lon="6.88762">
        <ele>255.114151</ele>
        <time>2013-09-14T16:20:12Z</time>
      </trkpt>
      <trkpt lat="43.59279" lon="6.88754">
        <ele>256.658752</ele>
        <time>2013-09-14T16:20:16Z</time>
      </trkpt>
      <trkpt lat="43.59275" lon="6.88745">
        <ele>257.203766</ele>
        <time>2013-09-14T16:20:20Z</time>
      </trkpt>
      <trkpt lat="43.59272" lon="6.88738">
        <ele>256.957336</ele>
        <time>2013-09-14T16:20:23Z</time>
      </trkpt>
      <trkpt lat="43.5927" lon="6.88731">
        <ele>256.778503</ele>
        <time>2013-09-14T16:20:26Z</time>
      </trkpt>
      <trkpt lat="43.59267" lon="6.88722">
        <ele>256.454041</ele>
        <time>2013-09-14T16:20:30Z</time>
      </trkpt>
      <trkpt lat="43.59265" lon="6.88715">
        <ele>256.313721</ele>
        <time>2013-09-14T16:20:33Z</time>
      </trkpt>
      <trkpt lat="43.59261" lon="6.88706">
        <ele>256.380554</ele>
        <time>2013-09-14T16:20:37Z</time>
      </trkpt>
      <trkpt lat="43.59258" lon="6.88696">
        <ele>256.442719</ele>
        <time>2013-09-14T16:20:41Z</time>
      </trkpt>
      <trkpt lat="43.59254" lon="6.88689">
        <ele>257.004883</ele>
        <time>2013-09-14T16:20:45Z</time>
      </trkpt>
      <trkpt lat="43.59248" lon="6.88684">
        <ele>258.438599</ele>
        <time>2013-09-14T16:20:49Z</time>
      </trkpt>
      <trkpt lat="43.59243" lon="6.88681">
        <ele>259.981262</ele>
        <time>2013-09-14T16:20:52Z</time>
      </trkpt>
      <trkpt lat="43.59237" lon="6.88678">
        <ele>262.0737</ele>
        <time>2013-09-14T16:20:56Z</time>
      </trkpt>
      <trkpt lat="43.5923" lon="6.88676">
        <ele>264.588745</ele>
        <time>2013-09-14T16:21:00Z</time>
      </trkpt>
      <trkpt lat="43.59226" lon="6.88672">
        <ele>265.940155</ele>
        <time>2013-09-14T16:21:03Z</time>
      </trkpt>
      <trkpt lat="43.59221" lon="6.88668">
        <ele>267.764191</ele>
        <time>2013-09-14T16:21:07Z</time>
      </trkpt>
      <trkpt lat="43.59217" lon="6.88664">
        <ele>268.473938</ele>
        <time>2013-09-14T16:21:10Z</time>
      </trkpt>
      <trkpt lat="43.59213" lon="6.88657">
        <ele>268.614777</ele>
        <time>2013-09-14T16:21:14Z</time>
      </trkpt>
      <trkpt lat="43.5921" lon="6.88652">
        <ele>268.171265</ele>
        <time>2013-09-14T16:21:17Z</time>
      </trkpt>
      <trkpt lat="43.59207" lon="6.88642">
        <ele>267.218903</ele>
        <time>2013-09-14T16:21:21Z</time>
      </trkpt>
      <trkpt lat="43.59204" lon="6.88635">
        <ele>266.459625</ele>
        <time>2013-09-14T16:21:24Z</time>
      </trkpt>
      <trkpt lat="43.59199" lon="6.88622">
        <ele>264.66687</ele>
        <time>2013-09-14T16:21:28Z</time>
      </trkpt>
      <trkpt lat="43.59194" lon="6.8861">
        <ele>263.08255</ele>
        <time>2013-09-14T16:21:31Z</time>
      </trkpt>
      <trkpt lat="43.59188" lon="6.88596">
        <ele>261.091034</ele>
        <time>2013-09-14T16:21:34Z</time>
      </trkpt>
      <trkpt lat="43.59178" lon="6.88572">
        <ele>255.686646</ele>
        <time>2013-09-14T16:21:38Z</time>
      </trkpt>
      <trkpt lat="43.59168" lon="6.88559">
        <ele>252.728851</ele>
        <time>2013-09-14T16:21:41Z</time>
      </trkpt>
      <trkpt lat="43.59154" lon="6.88546">
        <ele>250.83284</ele>
        <time>2013-09-14T16:21:44Z</time>
      </trkpt>
      <trkpt lat="43.59135" lon="6.88529">
        <ele>248.750763</ele>
        <time>2013-09-14T16:21:48Z</time>
      </trkpt>
      <trkpt lat="43.59111" lon="6.8851">
        <ele>247.592346</ele>
        <time>2013-09-14T16:21:52Z</time>
      </trkpt>
      <trkpt lat="43.59091" lon="6.88494">
        <ele>247.191406</ele>
        <time>2013-09-14T16:21:55Z</time>
      </trkpt>
      <trkpt lat="43.59068" lon="6.88465">
        <ele>245.172516</ele>
        <time>2013-09-14T16:21:59Z</time>
      </trkpt>
      <trkpt lat="43.59039" lon="6.88439">
        <ele>248.345627</ele>
        <time>2013-09-14T16:22:03Z</time>
      </trkpt>
      <trkpt lat="43.59" lon="6.88434">
        <ele>260.891998</ele>
        <time>2013-09-14T16:22:07Z</time>
      </trkpt>
      <trkpt lat="43.58975" lon="6.88432">
        <ele>261.622955</ele>
        <time>2013-09-14T16:22:10Z</time>
      </trkpt>
      <trkpt lat="43.58953" lon="6.88435">
        <ele>262.240601</ele>
        <time>2013-09-14T16:22:13Z</time>
      </trkpt>
      <trkpt lat="43.58931" lon="6.88441">
        <ele>262.583679</ele>
        <time>2013-09-14T16:22:17Z</time>
      </trkpt>
      <trkpt lat="43.5892" lon="6.88442">
        <ele>262.717651</ele>
        <time>2013-09-14T16:22:20Z</time>
      </trkpt>
      <trkpt lat="43.58907" lon="6.88439">
        <ele>264.441864</ele>
        <time>2013-09-14T16:22:24Z</time>
      </trkpt>
      <trkpt lat="43.58895" lon="6.88435">
        <ele>266.625183</ele>
        <time>2013-09-14T16:22:28Z</time>
      </trkpt>
      <trkpt lat="43.58886" lon="6.88434">
        <ele>268.093811</ele>
        <time>2013-09-14T16:22:31Z</time>
      </trkpt>
      <trkpt lat="43.58875" lon="6.8843">
        <ele>270.248108</ele>
        <time>2013-09-14T16:22:35Z</time>
      </trkpt>
      <trkpt lat="43.58866" lon="6.88428">
        <ele>271.941925</ele>
        <time>2013-09-14T16:22:38Z</time>
      </trkpt>
      <trkpt lat="43.58855" lon="6.88427">
        <ele>273.79248</ele>
        <time>2013-09-14T16:22:42Z</time>
      </trkpt>
      <trkpt lat="43.58847" lon="6.88435">
        <ele>274.144348</ele>
        <time>2013-09-14T16:22:46Z</time>
      </trkpt>
      <trkpt lat="43.58843" lon="6.88444">
        <ele>273.591858</ele>
        <time>2013-09-14T16:22:49Z</time>
      </trkpt>
      <trkpt lat="43.58837" lon="6.88457">
        <ele>272.613281</ele>
        <time>2013-09-14T16:22:53Z</time>
      </trkpt>
      <trkpt lat="43.58833" lon="6.88471">
        <ele>271.246979</ele>
        <time>2013-09-14T16:22:57Z</time>
      </trkpt>
      <trkpt lat="43.58831" lon="6.88482">
        <ele>270.198059</ele>
        <time>2013-09-14T16:23:00Z</time>
      </trkpt>
      <trkpt lat="43.58828" lon="6.88492">
        <ele>269.179382</ele>
        <time>2013-09-14T16:23:03Z</time>
      </trkpt>
      <trkpt lat="43.58826" lon="6.88502">
        <ele>267.933868</ele>
        <time>2013-09-14T16:23:06Z</time>
      </trkpt>
      <trkpt lat="43.58822" lon="6.88515">
        <ele>265.629791</ele>
        <time>2013-09-14T16:23:10Z</time>
      </trkpt>
      <trkpt lat="43.58817" lon="6.88525">
        <ele>264.331787</ele>
        <time>2013-09-14T16:23:14Z</time>
      </trkpt>
      <trkpt lat="43.58809" lon="6.88529">
        <ele>265.142578</ele>
        <time>2013-09-14T16:23:18Z</time>
      </trkpt>
      <trkpt lat="43.588" lon="6.88526">
        <ele>267.660706</ele>
        <time>2013-09-14T16:23:22Z</time>
      </trkpt>
      <trkpt lat="43.58794" lon="6.88522">
        <ele>269.632629</ele>
        <time>2013-09-14T16:23:25Z</time>
      </trkpt>
      <trkpt lat="43.58787" lon="6.88516">
        <ele>272.340698</ele>
        <time>2013-09-14T16:23:29Z</time>
      </trkpt>
      <trkpt lat="43.58782" lon="6.88514">
        <ele>274.012054</ele>
        <time>2013-09-14T16:23:32Z</time>
      </trkpt>
      <trkpt lat="43.58774" lon="6.88514">
        <ele>275.526855</ele>
        <time>2013-09-14T16:23:36Z</time>
      </trkpt>
      <trkpt lat="43.58769" lon="6.88517">
        <ele>275.779938</ele>
        <time>2013-09-14T16:23:39Z</time>
      </trkpt>
      <trkpt lat="43.58764" lon="6.88522">
        <ele>275.786987</ele>
        <time>2013-09-14T16:23:42Z</time>
      </trkpt>
      <trkpt lat="43.58758" lon="6.8853">
        <ele>275.265686</ele>
        <time>2013-09-14T16:23:46Z</time>
      </trkpt>
      <trkpt lat="43.58753" lon="6.88539">
        <ele>274.316803</ele>
        <time>2013-09-14T16:23:50Z</time>
      </trkpt>
      <trkpt lat="43.58749" lon="6.88546">
        <ele>273.895508</ele>
        <time>2013-09-14T16:23:53Z</time>
      </trkpt>
      <trkpt lat="43.58741" lon="6.88552">
        <ele>273.724457</ele>
        <time>2013-09-14T16:23:57Z</time>
      </trkpt>
      <trkpt lat="43.58735" lon="6.88554">
        <ele>274.01651</ele>
        <time>2013-09-14T16:24:00Z</time>
      </trkpt>
      <trkpt lat="43.58728" lon="6.88555">
        <ele>274.824341</ele>
        <time>2013-09-14T16:24:03Z</time>
      </trkpt>
      <trkpt lat="43.58719" lon="6.88553">
        <ele>276.65155</ele>
        <time>2013-09-14T16:24:07Z</time>
      </trkpt>
      <trkpt lat="43.5871" lon="6.88549">
        <ele>278.765289</ele>
        <time>2013-09-14T16:24:11Z</time>
      </trkpt>
      <trkpt lat="43.58701" lon="6.88546">
        <ele>280.81604</ele>
        <time>2013-09-14T16:24:15Z</time>
      </trkpt>
      <trkpt lat="43.5869" lon="6.88545">
        <ele>282.673035</ele>
        <time>2013-09-14T16:24:19Z</time>
      </trkpt>
      <trkpt lat="43.58682" lon="6.88546">
        <ele>283.589661</ele>
        <time>2013-09-14T16:24:22Z</time>
      </trkpt>
      <trkpt lat="43.5867" lon="6.8855">
        <ele>284.266602</ele>
        <time>2013-09-14T16:24:26Z</time>
      </trkpt>
      <trkpt lat="43.58663" lon="6.88556">
        <ele>283.73584</ele>
        <time>2013-09-14T16:24:29Z</time>
      </trkpt>
      <trkpt lat="43.58657" lon="6.88565">
        <ele>282.430664</ele>
        <time>2013-09-14T16:24:32Z</time>
      </trkpt>
      <trkpt lat="43.58653" lon="6.8858">
        <ele>279.258545</ele>
        <time>2013-09-14T16:24:36Z</time>
      </trkpt>
      <trkpt lat="43.5865" lon="6.88594">
        <ele>276.60144</ele>
        <time>2013-09-14T16:24:40Z</time>
      </trkpt>
      <trkpt lat="43.58645" lon="6.88608">
        <ele>274.690369</ele>
        <time>2013-09-14T16:24:44Z</time>
      </trkpt>
      <trkpt lat="43.58638" lon="6.88615">
        <ele>274.330383</ele>
        <time>2013-09-14T16:24:47Z</time>
      </trkpt>
      <trkpt lat="43.58627" lon="6.88617">
        <ele>275.544067</ele>
        <time>2013-09-14T16:24:51Z</time>
      </trkpt>
      <trkpt lat="43.58619" lon="6.88619">
        <ele>276.381042</ele>
        <time>2013-09-14T16:24:54Z</time>
      </trkpt>
      <trkpt lat="43.58608" lon="6.88619">
        <ele>278.192535</ele>
        <time>2013-09-14T16:24:58Z</time>
      </trkpt>
      <trkpt lat="43.58598" lon="6.8862">
        <ele>279.823212</ele>
        <time>2013-09-14T16:25:02Z</time>
      </trkpt>
      <trkpt lat="43.58587" lon="6.88623">
        <ele>280.751373</ele>
        <time>2013-09-14T16:25:06Z</time>
      </trkpt>
      <trkpt lat="43.58581" lon="6.88628">
        <ele>280.570709</ele>
        <time>2013-09-14T16:25:09Z</time>
      </trkpt>
      <trkpt lat="43.58572" lon="6.88633">
        <ele>280.80304</ele>
        <time>2013-09-14T16:25:13Z</time>
      </trkpt>
      <trkpt lat="43.58565" lon="6.88635">
        <ele>281.511688</ele>
        <time>2013-09-14T16:25:16Z</time>
      </trkpt>
      <trkpt lat="43.58556" lon="6.88636">
        <ele>282.744202</ele>
        <time>2013-09-14T16:25:20Z</time>
      </trkpt>
      <trkpt lat="43.58546" lon="6.88636">
        <ele>283.983826</ele>
        <time>2013-09-14T16:25:24Z</time>
      </trkpt>
      <trkpt lat="43.5854" lon="6.88638">
        <ele>284.59491</ele>
        <time>2013-09-14T16:25:27Z</time>
      </trkpt>
      <trkpt lat="43.58531" lon="6.88641">
        <ele>285.379089</ele>
        <time>2013-09-14T16:25:31Z</time>
      </trkpt>
      <trkpt lat="43.58522" lon="6.88642">
        <ele>286.446136</ele>
        <time>2013-09-14T16:25:35Z</time>
      </trkpt>
      <trkpt lat="43.58514" lon="6.88645">
        <ele>287.266113</ele>
        <time>2013-09-14T16:25:39Z</time>
      </trkpt>
      <trkpt lat="43.58508" lon="6.8865">
        <ele>287.467224</ele>
        <time>2013-09-14T16:25:42Z</time>
      </trkpt>
      <trkpt lat="43.585" lon="6.88656">
        <ele>287.72287</ele>
        <time>2013-09-14T16:25:46Z</time>
      </trkpt>
      <trkpt lat="43.58493" lon="6.88661">
        <ele>286.936218</ele>
        <time>2013-09-14T16:25:49Z</time>
      </trkpt>
      <trkpt lat="43.58485" lon="6.88668">
        <ele>285.898712</ele>
        <time>2013-09-14T16:25:53Z</time>
      </trkpt>
      <trkpt lat="43.58479" lon="6.88673">
        <ele>285.259216</ele>
        <time>2013-09-14T16:25:56Z</time>
      </trkpt>
      <trkpt lat="43.58471" lon="6.88678">
        <ele>284.843384</ele>
        <time>2013-09-14T16:26:00Z</time>
      </trkpt>
      <trkpt lat="43.58466" lon="6.88684">
        <ele>284.345886</ele>
        <time>2013-09-14T16:26:03Z</time>
      </trkpt>
      <trkpt lat="43.5846" lon="6.88692">
        <ele>283.670319</ele>
        <time>2013-09-14T16:26:07Z</time>
      </trkpt>
      <trkpt lat="43.58458" lon="6.887">
        <ele>283.060425</ele>
        <time>2013-09-14T16:26:10Z</time>
      </trkpt>
      <trkpt lat="43.58456" lon="6.88711">
        <ele>282.099854</ele>
        <time>2013-09-14T16:26:14Z</time>
      </trkpt>
      <trkpt lat="43.58456" lon="6.88723">
        <ele>281.099854</ele>
        <time>2013-09-14T16:26:18Z</time>
      </trkpt>
      <trkpt lat="43.58457" lon="6.88731">
        <ele>280.306152</ele>
        <time>2013-09-14T16:26:21Z</time>
      </trkpt>
      <trkpt lat="43.58457" lon="6.8874">
        <ele>279.550781</ele>
        <time>2013-09-14T16:26:24Z</time>
      </trkpt>
      <trkpt lat="43.58456" lon="6.88751">
        <ele>278.754578</ele>
        <time>2013-09-14T16:26:28Z</time>
      </trkpt>
      <trkpt lat="43.58453" lon="6.88757">
        <ele>279.252197</ele>
        <time>2013-09-14T16:26:31Z</time>
      </trkpt>
      <trkpt lat="43.5845" lon="6.88763">
        <ele>279.792847</ele>
        <time>2013-09-14T16:26:34Z</time>
      </trkpt>
      <trkpt lat="43.58444" lon="6.88768">
        <ele>280.638947</ele>
        <time>2013-09-14T16:26:38Z</time>
      </trkpt>
      <trkpt lat="43.58439" lon="6.8877">
        <ele>281.406433</ele>
        <time>2013-09-14T16:26:41Z</time>
      </trkpt>
      <trkpt lat="43.58432" lon="6.88774">
        <ele>282.461121</ele>
        <time>2013-09-14T16:26:45Z</time>
      </trkpt>
      <trkpt lat="43.58425" lon="6.88778">
        <ele>283.585052</ele>
        <time>2013-09-14T16:26:49Z</time>
      </trkpt>
      <trkpt lat="43.58422" lon="6.88783">
        <ele>284.387421</ele>
        <time>2013-09-14T16:26:52Z</time>
      </trkpt>
      <trkpt lat="43.58418" lon="6.88787">
        <ele>285.258392</ele>
        <time>2013-09-14T16:26:55Z</time>
      </trkpt>
      <trkpt lat="43.58413" lon="6.88792">
        <ele>286.416321</ele>
        <time>2013-09-14T16:26:59Z</time>
      </trkpt>
      <trkpt lat="43.5841" lon="6.88796">
        <ele>287.264587</ele>
        <time>2013-09-14T16:27:02Z</time>
      </trkpt>
      <trkpt lat="43.58405" lon="6.888">
        <ele>288.390808</ele>
        <time>2013-09-14T16:27:06Z</time>
      </trkpt>
      <trkpt lat="43.58401" lon="6.88808">
        <ele>289.928589</ele>
        <time>2013-09-14T16:27:10Z</time>
      </trkpt>
      <trkpt lat="43.58396" lon="6.88815">
        <ele>291.652679</ele>
        <time>2013-09-14T16:27:14Z</time>
      </trkpt>
      <trkpt lat="43.5839" lon="6.8882">
        <ele>293.474579</ele>
        <time>2013-09-14T16:27:18Z</time>
      </trkpt>
      <trkpt lat="43.58385" lon="6.88822">
        <ele>294.681702</ele>
        <time>2013-09-14T16:27:21Z</time>
      </trkpt>
      <trkpt lat="43.5838" lon="6.88822">
        <ele>295.650208</ele>
        <time>2013-09-14T16:27:24Z</time>
      </trkpt>
      <trkpt lat="43.58374" lon="6.88823">
        <ele>296.829834</ele>
        <time>2013-09-14T16:27:27Z</time>
      </trkpt>
      <trkpt lat="43.58368" lon="6.88825">
        <ele>298.390442</ele>
        <time>2013-09-14T16:27:31Z</time>
      </trkpt>
      <trkpt lat="43.58363" lon="6.88827">
        <ele>299.714783</ele>
        <time>2013-09-14T16:27:34Z</time>
      </trkpt>
      <trkpt lat="43.58358" lon="6.88831">
        <ele>301.371063</ele>
        <time>2013-09-14T16:27:37Z</time>
      </trkpt>
      <trkpt lat="43.58354" lon="6.88835">
        <ele>303.078125</ele>
        <time>2013-09-14T16:27:40Z</time>
      </trkpt>
      <trkpt lat="43.58349" lon="6.88841">
        <ele>305.552612</ele>
        <time>2013-09-14T16:27:44Z</time>
      </trkpt>
      <trkpt lat="43.58345" lon="6.88846">
        <ele>307.48764</ele>
        <time>2013-09-14T16:27:47Z</time>
      </trkpt>
      <trkpt lat="43.58342" lon="6.88853">
        <ele>309.706268</ele>
        <time>2013-09-14T16:27:50Z</time>
      </trkpt>
      <trkpt lat="43.5834" lon="6.88862">
        <ele>312.392456</ele>
        <time>2013-09-14T16:27:54Z</time>
      </trkpt>
      <trkpt lat="43.58341" lon="6.88869">
        <ele>313.688599</ele>
        <time>2013-09-14T16:27:57Z</time>
      </trkpt>
      <trkpt lat="43.58348" lon="6.88874">
        <ele>312.960022</ele>
        <time>2013-09-14T16:28:01Z</time>
      </trkpt>
      <trkpt lat="43.58354" lon="6.88874">
        <ele>311.08725</ele>
        <time>2013-09-14T16:28:04Z</time>
      </trkpt>
      <trkpt lat="43.58361" lon="6.88872">
        <ele>308.449249</ele>
        <time>2013-09-14T16:28:08Z</time>
      </trkpt>
      <trkpt lat="43.58368" lon="6.88871">
        <ele>306.269012</ele>
        <time>2013-09-14T16:28:12Z</time>
      </trkpt>
      <trkpt lat="43.58372" lon="6.88869">
        <ele>304.624969</ele>
        <time>2013-09-14T16:28:15Z</time>
      </trkpt>
      <trkpt lat="43.58379" lon="6.88867">
        <ele>302.60321</ele>
        <time>2013-09-14T16:28:19Z</time>
      </trkpt>
      <trkpt lat="43.58384" lon="6.8887">
        <ele>301.262085</ele>
        <time>2013-09-14T16:28:23Z</time>
      </trkpt>
      <trkpt lat="43.5839" lon="6.88873">
        <ele>299.930115</ele>
        <time>2013-09-14T16:28:27Z</time>
      </trkpt>
      <trkpt lat="43.58395" lon="6.88876">
        <ele>298.852448</ele>
        <time>2013-09-14T16:28:30Z</time>
      </trkpt>
      <trkpt lat="43.584" lon="6.8888">
        <ele>297.699799</ele>
        <time>2013-09-14T16:28:34Z</time>
      </trkpt>
      <trkpt lat="43.58405" lon="6.88884">
        <ele>296.455688</ele>
        <time>2013-09-14T16:28:38Z</time>
      </trkpt>
      <trkpt lat="43.58408" lon="6.8889">
        <ele>295.575958</ele>
        <time>2013-09-14T16:28:42Z</time>
      </trkpt>
      <trkpt lat="43.58412" lon="6.88895">
        <ele>294.490845</ele>
        <time>2013-09-14T16:28:46Z</time>
      </trkpt>
      <trkpt lat="43.58416" lon="6.889">
        <ele>293.581482</ele>
        <time>2013-09-14T16:28:49Z</time>
      </trkpt>
      <trkpt lat="43.58419" lon="6.88905">
        <ele>292.915619</ele>
        <time>2013-09-14T16:28:52Z</time>
      </trkpt>
      <trkpt lat="43.58423" lon="6.88911">
        <ele>292.376617</ele>
        <time>2013-09-14T16:28:56Z</time>
      </trkpt>
      <trkpt lat="43.58426" lon="6.88917">
        <ele>291.839081</ele>
        <time>2013-09-14T16:29:00Z</time>
      </trkpt>
      <trkpt lat="43.58429" lon="6.88924">
        <ele>291.745361</ele>
        <time>2013-09-14T16:29:04Z</time>
      </trkpt>
      <trkpt lat="43.58431" lon="6.88932">
        <ele>291.952301</ele>
        <time>2013-09-14T16:29:08Z</time>
      </trkpt>
      <trkpt lat="43.58433" lon="6.88941">
        <ele>292.073303</ele>
        <time>2013-09-14T16:29:12Z</time>
      </trkpt>
      <trkpt lat="43.58434" lon="6.88949">
        <ele>292.382965</ele>
        <time>2013-09-14T16:29:16Z</time>
      </trkpt>
      <trkpt lat="43.58437" lon="6.88957">
        <ele>292.316925</ele>
        <time>2013-09-14T16:29:20Z</time>
      </trkpt>
      <trkpt lat="43.58439" lon="6.88965">
        <ele>292.219971</ele>
        <time>2013-09-14T16:29:24Z</time>
      </trkpt>
      <trkpt lat="43.58441" lon="6.88971">
        <ele>292.131165</ele>
        <time>2013-09-14T16:29:27Z</time>
      </trkpt>
      <trkpt lat="43.58443" lon="6.88979">
        <ele>292.351532</ele>
        <time>2013-09-14T16:29:31Z</time>
      </trkpt>
      <trkpt lat="43.58443" lon="6.88987">
        <ele>292.737</ele>
        <time>2013-09-14T16:29:35Z</time>
      </trkpt>
      <trkpt lat="43.58445" lon="6.88995">
        <ele>292.934387</ele>
        <time>2013-09-14T16:29:39Z</time>
      </trkpt>
      <trkpt lat="43.58446" lon="6.89002">
        <ele>292.920105</ele>
        <time>2013-09-14T16:29:42Z</time>
      </trkpt>
      <trkpt lat="43.58447" lon="6.89011">
        <ele>293.563812</ele>
        <time>2013-09-14T16:29:46Z</time>
      </trkpt>
      <trkpt lat="43.58446" lon="6.8902">
        <ele>294.434631</ele>
        <time>2013-09-14T16:29:50Z</time>
      </trkpt>
      <trkpt lat="43.58446" lon="6.89029">
        <ele>295.178375</ele>
        <time>2013-09-14T16:29:54Z</time>
      </trkpt>
      <trkpt lat="43.58446" lon="6.89039">
        <ele>296.106262</ele>
        <time>2013-09-14T16:29:58Z</time>
      </trkpt>
      <trkpt lat="43.58446" lon="6.89048">
        <ele>296.925446</ele>
        <time>2013-09-14T16:30:02Z</time>
      </trkpt>
      <trkpt lat="43.58445" lon="6.89055">
        <ele>297.682159</ele>
        <time>2013-09-14T16:30:05Z</time>
      </trkpt>
      <trkpt lat="43.58446" lon="6.89064">
        <ele>298.113647</ele>
        <time>2013-09-14T16:30:09Z</time>
      </trkpt>
      <trkpt lat="43.58448" lon="6.89072">
        <ele>298.097107</ele>
        <time>2013-09-14T16:30:12Z</time>
      </trkpt>
      <trkpt lat="43.58452" lon="6.89082">
        <ele>297.735382</ele>
        <time>2013-09-14T16:30:16Z</time>
      </trkpt>
      <trkpt lat="43.58454" lon="6.89089">
        <ele>297.230072</ele>
        <time>2013-09-14T16:30:19Z</time>
      </trkpt>
      <trkpt lat="43.58457" lon="6.89098">
        <ele>296.813477</ele>
        <time>2013-09-14T16:30:23Z</time>
      </trkpt>
      <trkpt lat="43.58459" lon="6.8911">
        <ele>296.847382</ele>
        <time>2013-09-14T16:30:27Z</time>
      </trkpt>
      <trkpt lat="43.58461" lon="6.89119">
        <ele>296.905151</ele>
        <time>2013-09-14T16:30:30Z</time>
      </trkpt>
      <trkpt lat="43.58463" lon="6.8913">
        <ele>296.930969</ele>
        <time>2013-09-14T16:30:34Z</time>
      </trkpt>
      <trkpt lat="43.58465" lon="6.89139">
        <ele>296.644958</ele>
        <time>2013-09-14T16:30:37Z</time>
      </trkpt>
      <trkpt lat="43.58466" lon="6.8915">
        <ele>297.056091</ele>
        <time>2013-09-14T16:30:41Z</time>
      </trkpt>
      <trkpt lat="43.58464" lon="6.89162">
        <ele>298.506409</ele>
        <time>2013-09-14T16:30:45Z</time>
      </trkpt>
      <trkpt lat="43.58461" lon="6.89174">
        <ele>300.512482</ele>
        <time>2013-09-14T16:30:49Z</time>
      </trkpt>
      <trkpt lat="43.58458" lon="6.89182">
        <ele>302.156342</ele>
        <time>2013-09-14T16:30:52Z</time>
      </trkpt>
      <trkpt lat="43.58453" lon="6.89192">
        <ele>304.854248</ele>
        <time>2013-09-14T16:30:56Z</time>
      </trkpt>
      <trkpt lat="43.58447" lon="6.89196">
        <ele>307.61264</ele>
        <time>2013-09-14T16:30:59Z</time>
      </trkpt>
      <trkpt lat="43.58439" lon="6.892">
        <ele>311.20047</ele>
        <time>2013-09-14T16:31:03Z</time>
      </trkpt>
      <trkpt lat="43.58432" lon="6.89205">
        <ele>314.687988</ele>
        <time>2013-09-14T16:31:07Z</time>
      </trkpt>
      <trkpt lat="43.58424" lon="6.89211">
        <ele>318.414856</ele>
        <time>2013-09-14T16:31:11Z</time>
      </trkpt>
      <trkpt lat="43.58417" lon="6.89217">
        <ele>321.925812</ele>
        <time>2013-09-14T16:31:15Z</time>
      </trkpt>
      <trkpt lat="43.58413" lon="6.89223">
        <ele>324.471405</ele>
        <time>2013-09-14T16:31:18Z</time>
      </trkpt>
      <trkpt lat="43.58407" lon="6.89228">
        <ele>327.415771</ele>
        <time>2013-09-14T16:31:21Z</time>
      </trkpt>
      <trkpt lat="43.58403" lon="6.89238">
        <ele>330.270782</ele>
        <time>2013-09-14T16:31:25Z</time>
      </trkpt>
      <trkpt lat="43.58401" lon="6.89249">
        <ele>331.809082</ele>
        <time>2013-09-14T16:31:29Z</time>
      </trkpt>
      <trkpt lat="43.584" lon="6.89257">
        <ele>332.77002</ele>
        <time>2013-09-14T16:31:32Z</time>
      </trkpt>
      <trkpt lat="43.58401" lon="6.89267">
        <ele>332.854584</ele>
        <time>2013-09-14T16:31:36Z</time>
      </trkpt>
      <trkpt lat="43.58402" lon="6.89274">
        <ele>333.071167</ele>
        <time>2013-09-14T16:31:39Z</time>
      </trkpt>
      <trkpt lat="43.58403" lon="6.89281">
        <ele>333.012512</ele>
        <time>2013-09-14T16:31:42Z</time>
      </trkpt>
      <trkpt lat="43.58402" lon="6.89291">
        <ele>333.700531</ele>
        <time>2013-09-14T16:31:46Z</time>
      </trkpt>
      <trkpt lat="43.584" lon="6.89299">
        <ele>335.058594</ele>
        <time>2013-09-14T16:31:50Z</time>
      </trkpt>
      <trkpt lat="43.58398" lon="6.89306">
        <ele>336.565613</ele>
        <time>2013-09-14T16:31:53Z</time>
      </trkpt>
      <trkpt lat="43.58393" lon="6.89313">
        <ele>339.059875</ele>
        <time>2013-09-14T16:31:57Z</time>
      </trkpt>
      <trkpt lat="43.58388" lon="6.8932">
        <ele>341.671692</ele>
        <time>2013-09-14T16:32:01Z</time>
      </trkpt>
      <trkpt lat="43.58384" lon="6.89326">
        <ele>343.5177</ele>
        <time>2013-09-14T16:32:04Z</time>
      </trkpt>
      <trkpt lat="43.58381" lon="6.89332">
        <ele>345.174561</ele>
        <time>2013-09-14T16:32:07Z</time>
      </trkpt>
      <trkpt lat="43.58378" lon="6.8934">
        <ele>346.84848</ele>
        <time>2013-09-14T16:32:11Z</time>
      </trkpt>
      <trkpt lat="43.58374" lon="6.89348">
        <ele>348.683929</ele>
        <time>2013-09-14T16:32:15Z</time>
      </trkpt>
      <trkpt lat="43.58371" lon="6.89356">
        <ele>350.349976</ele>
        <time>2013-09-14T16:32:19Z</time>
      </trkpt>
      <trkpt lat="43.58367" lon="6.89364">
        <ele>352.274719</ele>
        <time>2013-09-14T16:32:23Z</time>
      </trkpt>
      <trkpt lat="43.58366" lon="6.89374">
        <ele>353.359192</ele>
        <time>2013-09-14T16:32:27Z</time>
      </trkpt>
      <trkpt lat="43.58365" lon="6.89383">
        <ele>353.847687</ele>
        <time>2013-09-14T16:32:31Z</time>
      </trkpt>
      <trkpt lat="43.58366" lon="6.89392">
        <ele>353.938293</ele>
        <time>2013-09-14T16:32:35Z</time>
      </trkpt>
      <trkpt lat="43.58369" lon="6.89401">
        <ele>352.902893</ele>
        <time>2013-09-14T16:32:39Z</time>
      </trkpt>
      <trkpt lat="43.58371" lon="6.89409">
        <ele>351.838867</ele>
        <time>2013-09-14T16:32:43Z</time>
      </trkpt>
      <trkpt lat="43.58375" lon="6.89417">
        <ele>350.565491</ele>
        <time>2013-09-14T16:32:47Z</time>
      </trkpt>
      <trkpt lat="43.58378" lon="6.89424">
        <ele>348.797943</ele>
        <time>2013-09-14T16:32:51Z</time>
      </trkpt>
      <trkpt lat="43.5838" lon="6.89433">
        <ele>347.452698</ele>
        <time>2013-09-14T16:32:55Z</time>
      </trkpt>
      <trkpt lat="43.58382" lon="6.89441">
        <ele>346.297363</ele>
        <time>2013-09-14T16:32:59Z</time>
      </trkpt>
      <trkpt lat="43.58385" lon="6.89449">
        <ele>344.986877</ele>
        <time>2013-09-14T16:33:03Z</time>
      </trkpt>
      <trkpt lat="43.58386" lon="6.89456">
        <ele>344.187592</ele>
        <time>2013-09-14T16:33:06Z</time>
      </trkpt>
      <trkpt lat="43.58386" lon="6.89465">
        <ele>343.53949</ele>
        <time>2013-09-14T16:33:10Z</time>
      </trkpt>
      <trkpt lat="43.58387" lon="6.89472">
        <ele>343.067139</ele>
        <time>2013-09-14T16:33:13Z</time>
      </trkpt>
      <trkpt lat="43.58386" lon="6.89482">
        <ele>342.907043</ele>
        <time>2013-09-14T16:33:17Z</time>
      </trkpt>
      <trkpt lat="43.58385" lon="6.8949">
        <ele>343.11676</ele>
        <time>2013-09-14T16:33:20Z</time>
      </trkpt>
      <trkpt lat="43.58383" lon="6.89499">
        <ele>343.708313</ele>
        <time>2013-09-14T16:33:24Z</time>
      </trkpt>
      <trkpt lat="43.58381" lon="6.89506">
        <ele>343.808899</ele>
        <time>2013-09-14T16:33:27Z</time>
      </trkpt>
      <trkpt lat="43.58377" lon="6.89515">
        <ele>344.234741</ele>
        <time>2013-09-14T16:33:31Z</time>
      </trkpt>
      <trkpt lat="43.58375" lon="6.89521">
        <ele>344.65506</ele>
        <time>2013-09-14T16:33:34Z</time>
      </trkpt>
      <trkpt lat="43.58372" lon="6.89527">
        <ele>344.889954</ele>
        <time>2013-09-14T16:33:37Z</time>
      </trkpt>
      <trkpt lat="43.5837" lon="6.89533">
        <ele>345.011902</ele>
        <time>2013-09-14T16:33:40Z</time>
      </trkpt>
      <trkpt lat="43.58368" lon="6.89543">
        <ele>344.681183</ele>
        <time>2013-09-14T16:33:44Z</time>
      </trkpt>
      <trkpt lat="43.58367" lon="6.89552">
        <ele>344.020477</ele>
        <time>2013-09-14T16:33:48Z</time>
      </trkpt>
      <trkpt lat="43.58366" lon="6.89559">
        <ele>343.630005</ele>
        <time>2013-09-14T16:33:51Z</time>
      </trkpt>
      <trkpt lat="43.58364" lon="6.89569">
        <ele>343.154419</ele>
        <time>2013-09-14T16:33:55Z</time>
      </trkpt>
      <trkpt lat="43.58363" lon="6.89576">
        <ele>342.828186</ele>
        <time>2013-09-14T16:33:58Z</time>
      </trkpt>
      <trkpt lat="43.58362" lon="6.89582">
        <ele>342.449158</ele>
        <time>2013-09-14T16:34:01Z</time>
      </trkpt>
      <trkpt lat="43.5836" lon="6.89592">
        <ele>341.628418</ele>
        <time>2013-09-14T16:34:05Z</time>
      </trkpt>
      <trkpt lat="43.58357" lon="6.896">
        <ele>341.476807</ele>
        <time>2013-09-14T16:34:09Z</time>
      </trkpt>
      <trkpt lat="43.58352" lon="6.89605">
        <ele>342.543823</ele>
        <time>2013-09-14T16:34:13Z</time>
      </trkpt>
      <trkpt lat="43.58347" lon="6.89607">
        <ele>344.227661</ele>
        <time>2013-09-14T16:34:16Z</time>
      </trkpt>
      <trkpt lat="43.5834" lon="6.89606">
        <ele>347.309814</ele>
        <time>2013-09-14T16:34:20Z</time>
      </trkpt>
      <trkpt lat="43.58334" lon="6.89605">
        <ele>349.763184</ele>
        <time>2013-09-14T16:34:23Z</time>
      </trkpt>
      <trkpt lat="43.58327" lon="6.89604">
        <ele>353.054321</ele>
        <time>2013-09-14T16:34:27Z</time>
      </trkpt>
      <trkpt lat="43.58322" lon="6.89602">
        <ele>355.608643</ele>
        <time>2013-09-14T16:34:30Z</time>
      </trkpt>
      <trkpt lat="43.58315" lon="6.89599">
        <ele>359.288757</ele>
        <time>2013-09-14T16:34:34Z</time>
      </trkpt>
      <trkpt lat="43.5831" lon="6.89598">
        <ele>361.89679</ele>
        <time>2013-09-14T16:34:37Z</time>
      </trkpt>
      <trkpt lat="43.58303" lon="6.89596">
        <ele>365.187317</ele>
        <time>2013-09-14T16:34:41Z</time>
      </trkpt>
      <trkpt lat="43.58299" lon="6.89595">
        <ele>367.636719</ele>
        <time>2013-09-14T16:34:44Z</time>
      </trkpt>
      <trkpt lat="43.58293" lon="6.89594">
        <ele>370.436584</ele>
        <time>2013-09-14T16:34:48Z</time>
      </trkpt>
      <trkpt lat="43.58288" lon="6.89593">
        <ele>372.553467</ele>
        <time>2013-09-14T16:34:51Z</time>
      </trkpt>
      <trkpt lat="43.58281" lon="6.89592">
        <ele>375.701752</ele>
        <time>2013-09-14T16:34:55Z</time>
      </trkpt>
      <trkpt lat="43.58276" lon="6.8959">
        <ele>378.344666</ele>
        <time>2013-09-14T16:34:58Z</time>
      </trkpt>
      <trkpt lat="43.58269" lon="6.89588">
        <ele>381.956329</ele>
        <time>2013-09-14T16:35:02Z</time>
      </trkpt>
      <trkpt lat="43.58263" lon="6.89587">
        <ele>384.499695</ele>
        <time>2013-09-14T16:35:05Z</time>
      </trkpt>
      <trkpt lat="43.58258" lon="6.89587">
        <ele>387.049103</ele>
        <time>2013-09-14T16:35:08Z</time>
      </trkpt>
      <trkpt lat="43.58251" lon="6.89585">
        <ele>390.477875</ele>
        <time>2013-09-14T16:35:12Z</time>
      </trkpt>
      <trkpt lat="43.58245" lon="6.89585">
        <ele>392.545593</ele>
        <time>2013-09-14T16:35:15Z</time>
      </trkpt>
      <trkpt lat="43.58238" lon="6.89586">
        <ele>395.231903</ele>
        <time>2013-09-14T16:35:19Z</time>
      </trkpt>
      <trkpt lat="43.58232" lon="6.89587">
        <ele>397.404785</ele>
        <time>2013-09-14T16:35:23Z</time>
      </trkpt>
      <trkpt lat="43.58227" lon="6.89591">
        <ele>398.418854</ele>
        <time>2013-09-14T16:35:26Z</time>
      </trkpt>
      <trkpt lat="43.58223" lon="6.89596">
        <ele>399.102875</ele>
        <time>2013-09-14T16:35:29Z</time>
      </trkpt>
      <trkpt lat="43.58218" lon="6.89603">
        <ele>399.990479</ele>
        <time>2013-09-14T16:35:33Z</time>
      </trkpt>
      <trkpt lat="43.58214" lon="6.89612">
        <ele>399.873535</ele>
        <time>2013-09-14T16:35:37Z</time>
      </trkpt>
      <trkpt lat="43.5821" lon="6.8962">
        <ele>400.055847</ele>
        <time>2013-09-14T16:35:41Z</time>
      </trkpt>
      <trkpt lat="43.58206" lon="6.89625">
        <ele>400.40802</ele>
        <time>2013-09-14T16:35:44Z</time>
      </trkpt>
      <trkpt lat="43.58201" lon="6.89632">
        <ele>400.888367</ele>
        <time>2013-09-14T16:35:48Z</time>
      </trkpt>
      <trkpt lat="43.58196" lon="6.89636">
        <ele>401.596741</ele>
        <time>2013-09-14T16:35:51Z</time>
      </trkpt>
      <trkpt lat="43.58189" lon="6.8964">
        <ele>403.107697</ele>
        <time>2013-09-14T16:35:55Z</time>
      </trkpt>
      <trkpt lat="43.58184" lon="6.89644">
        <ele>403.963959</ele>
        <time>2013-09-14T16:35:58Z</time>
      </trkpt>
      <trkpt lat="43.5818" lon="6.89652">
        <ele>403.986267</ele>
        <time>2013-09-14T16:36:02Z</time>
      </trkpt>
      <trkpt lat="43.58177" lon="6.8966">
        <ele>403.202118</ele>
        <time>2013-09-14T16:36:06Z</time>
      </trkpt>
      <trkpt lat="43.58175" lon="6.89667">
        <ele>402.295868</ele>
        <time>2013-09-14T16:36:09Z</time>
      </trkpt>
      <trkpt lat="43.58174" lon="6.89674">
        <ele>401.628479</ele>
        <time>2013-09-14T16:36:12Z</time>
      </trkpt>
      <trkpt lat="43.58174" lon="6.89682">
        <ele>400.687531</ele>
        <time>2013-09-14T16:36:15Z</time>
      </trkpt>
      <trkpt lat="43.58175" lon="6.89689">
        <ele>399.462158</ele>
        <time>2013-09-14T16:36:18Z</time>
      </trkpt>
      <trkpt lat="43.58176" lon="6.89698">
        <ele>397.743805</ele>
        <time>2013-09-14T16:36:22Z</time>
      </trkpt>
      <trkpt lat="43.58177" lon="6.89705">
        <ele>396.518951</ele>
        <time>2013-09-14T16:36:25Z</time>
      </trkpt>
      <trkpt lat="43.58178" lon="6.89711">
        <ele>395.289215</ele>
        <time>2013-09-14T16:36:28Z</time>
      </trkpt>
      <trkpt lat="43.58179" lon="6.89718">
        <ele>394.106812</ele>
        <time>2013-09-14T16:36:31Z</time>
      </trkpt>
      <trkpt lat="43.58179" lon="6.89725">
        <ele>393.216827</ele>
        <time>2013-09-14T16:36:34Z</time>
      </trkpt>
      <trkpt lat="43.58178" lon="6.89733">
        <ele>392.293488</ele>
        <time>2013-09-14T16:36:37Z</time>
      </trkpt>
      <trkpt lat="43.58177" lon="6.89744">
        <ele>391.113098</ele>
        <time>2013-09-14T16:36:41Z</time>
      </trkpt>
      <trkpt lat="43.58175" lon="6.89752">
        <ele>390.482178</ele>
        <time>2013-09-14T16:36:44Z</time>
      </trkpt>
      <trkpt lat="43.58173" lon="6.89759">
        <ele>389.999054</ele>
        <time>2013-09-14T16:36:47Z</time>
      </trkpt>
      <trkpt lat="43.5817" lon="6.89768">
        <ele>389.456116</ele>
        <time>2013-09-14T16:36:51Z</time>
      </trkpt>
      <trkpt lat="43.58166" lon="6.89773">
        <ele>389.544647</ele>
        <time>2013-09-14T16:36:54Z</time>
      </trkpt>
      <trkpt lat="43.58162" lon="6.89779">
        <ele>389.836578</ele>
        <time>2013-09-14T16:36:57Z</time>
      </trkpt>
      <trkpt lat="43.58157" lon="6.89784">
        <ele>390.381104</ele>
        <time>2013-09-14T16:37:00Z</time>
      </trkpt>
      <trkpt lat="43.58152" lon="6.89787">
        <ele>391.252533</ele>
        <time>2013-09-14T16:37:03Z</time>
      </trkpt>
      <trkpt lat="43.58145" lon="6.8979">
        <ele>392.80603</ele>
        <time>2013-09-14T16:37:07Z</time>
      </trkpt>
      <trkpt lat="43.58138" lon="6.89793">
        <ele>394.293091</ele>
        <time>2013-09-14T16:37:11Z</time>
      </trkpt>
      <trkpt lat="43.58131" lon="6.89795">
        <ele>395.757507</ele>
        <time>2013-09-14T16:37:15Z</time>
      </trkpt>
      <trkpt lat="43.58126" lon="6.89797">
        <ele>396.743713</ele>
        <time>2013-09-14T16:37:18Z</time>
      </trkpt>
      <trkpt lat="43.58122" lon="6.89801">
        <ele>397.408447</ele>
        <time>2013-09-14T16:37:21Z</time>
      </trkpt>
      <trkpt lat="43.58116" lon="6.89805">
        <ele>398.302246</ele>
        <time>2013-09-14T16:37:25Z</time>
      </trkpt>
      <trkpt lat="43.58109" lon="6.89812">
        <ele>398.8703</ele>
        <time>2013-09-14T16:37:29Z</time>
      </trkpt>
      <trkpt lat="43.58107" lon="6.89819">
        <ele>398.417328</ele>
        <time>2013-09-14T16:37:32Z</time>
      </trkpt>
      <trkpt lat="43.58102" lon="6.89826">
        <ele>398.257874</ele>
        <time>2013-09-14T16:37:36Z</time>
      </trkpt>
      <trkpt lat="43.58096" lon="6.89832">
        <ele>398.984253</ele>
        <time>2013-09-14T16:37:40Z</time>
      </trkpt>
      <trkpt lat="43.58091" lon="6.89839">
        <ele>398.569031</ele>
        <time>2013-09-14T16:37:44Z</time>
      </trkpt>
      <trkpt lat="43.58088" lon="6.89845">
        <ele>397.789185</ele>
        <time>2013-09-14T16:37:47Z</time>
      </trkpt>
      <trkpt lat="43.58084" lon="6.89849">
        <ele>397.684967</ele>
        <time>2013-09-14T16:37:50Z</time>
      </trkpt>
      <trkpt lat="43.58079" lon="6.89855">
        <ele>397.49826</ele>
        <time>2013-09-14T16:37:54Z</time>
      </trkpt>
      <trkpt lat="43.58074" lon="6.8986">
        <ele>397.382111</ele>
        <time>2013-09-14T16:37:58Z</time>
      </trkpt>
      <trkpt lat="43.58069" lon="6.89865">
        <ele>397.292877</ele>
        <time>2013-09-14T16:38:02Z</time>
      </trkpt>
      <trkpt lat="43.58062" lon="6.89869">
        <ele>397.94516</ele>
        <time>2013-09-14T16:38:06Z</time>
      </trkpt>
      <trkpt lat="43.58054" lon="6.89871">
        <ele>399.366638</ele>
        <time>2013-09-14T16:38:10Z</time>
      </trkpt>
      <trkpt lat="43.58049" lon="6.89874">
        <ele>400.073212</ele>
        <time>2013-09-14T16:38:13Z</time>
      </trkpt>
      <trkpt lat="43.58044" lon="6.89878">
        <ele>400.204437</ele>
        <time>2013-09-14T16:38:17Z</time>
      </trkpt>
      <trkpt lat="43.58038" lon="6.89878">
        <ele>401.746094</ele>
        <time>2013-09-14T16:38:21Z</time>
      </trkpt>
      <trkpt lat="43.5803" lon="6.89876">
        <ele>404.071289</ele>
        <time>2013-09-14T16:38:25Z</time>
      </trkpt>
      <trkpt lat="43.58025" lon="6.89876">
        <ele>405.527954</ele>
        <time>2013-09-14T16:38:28Z</time>
      </trkpt>
      <trkpt lat="43.58019" lon="6.89878">
        <ele>406.547638</ele>
        <time>2013-09-14T16:38:31Z</time>
      </trkpt>
      <trkpt lat="43.58013" lon="6.8988">
        <ele>407.538788</ele>
        <time>2013-09-14T16:38:35Z</time>
      </trkpt>
      <trkpt lat="43.58008" lon="6.89881">
        <ele>408.573181</ele>
        <time>2013-09-14T16:38:38Z</time>
      </trkpt>
      <trkpt lat="43.58001" lon="6.89883">
        <ele>409.952026</ele>
        <time>2013-09-14T16:38:42Z</time>
      </trkpt>
      <trkpt lat="43.57996" lon="6.89884">
        <ele>410.333771</ele>
        <time>2013-09-14T16:38:45Z</time>
      </trkpt>
      <trkpt lat="43.57989" lon="6.89886">
        <ele>410.768829</ele>
        <time>2013-09-14T16:38:49Z</time>
      </trkpt>
      <trkpt lat="43.57982" lon="6.89887">
        <ele>411.296112</ele>
        <time>2013-09-14T16:38:53Z</time>
      </trkpt>
      <trkpt lat="43.57975" lon="6.89887">
        <ele>411.792603</ele>
        <time>2013-09-14T16:38:57Z</time>
      </trkpt>
      <trkpt lat="43.5797" lon="6.8989">
        <ele>411.902954</ele>
        <time>2013-09-14T16:39:00Z</time>
      </trkpt>
      <trkpt lat="43.57964" lon="6.89894">
        <ele>411.800842</ele>
        <time>2013-09-14T16:39:04Z</time>
      </trkpt>
      <trkpt lat="43.57959" lon="6.89898">
        <ele>411.743286</ele>
        <time>2013-09-14T16:39:07Z</time>
      </trkpt>
      <trkpt lat="43.57955" lon="6.89903">
        <ele>411.536987</ele>
        <time>2013-09-14T16:39:10Z</time>
      </trkpt>
      <trkpt lat="43.57951" lon="6.89908">
        <ele>411.255341</ele>
        <time>2013-09-14T16:39:13Z</time>
      </trkpt>
      <trkpt lat="43.57946" lon="6.89915">
        <ele>411.049255</ele>
        <time>2013-09-14T16:39:17Z</time>
      </trkpt>
      <trkpt lat="43.57942" lon="6.89923">
        <ele>409.787231</ele>
        <time>2013-09-14T16:39:21Z</time>
      </trkpt>
      <trkpt lat="43.5794" lon="6.89928">
        <ele>408.718781</ele>
        <time>2013-09-14T16:39:24Z</time>
      </trkpt>
      <trkpt lat="43.57934" lon="6.89934">
        <ele>407.975037</ele>
        <time>2013-09-14T16:39:28Z</time>
      </trkpt>
      <trkpt lat="43.5793" lon="6.89939">
        <ele>407.389832</ele>
        <time>2013-09-14T16:39:31Z</time>
      </trkpt>
      <trkpt lat="43.57924" lon="6.89945">
        <ele>406.721771</ele>
        <time>2013-09-14T16:39:35Z</time>
      </trkpt>
      <trkpt lat="43.57921" lon="6.89949">
        <ele>406.116425</ele>
        <time>2013-09-14T16:39:38Z</time>
      </trkpt>
      <trkpt lat="43.57916" lon="6.89953">
        <ele>405.852051</ele>
        <time>2013-09-14T16:39:41Z</time>
      </trkpt>
      <trkpt lat="43.57911" lon="6.89955">
        <ele>405.723938</ele>
        <time>2013-09-14T16:39:44Z</time>
      </trkpt>
      <trkpt lat="43.57903" lon="6.89958">
        <ele>405.920746</ele>
        <time>2013-09-14T16:39:48Z</time>
      </trkpt>
      <trkpt lat="43.57895" lon="6.8996">
        <ele>406.012878</ele>
        <time>2013-09-14T16:39:52Z</time>
      </trkpt>
      <trkpt lat="43.5789" lon="6.89962">
        <ele>405.980682</ele>
        <time>2013-09-14T16:39:55Z</time>
      </trkpt>
      <trkpt lat="43.57884" lon="6.89965">
        <ele>405.947083</ele>
        <time>2013-09-14T16:39:58Z</time>
      </trkpt>
      <trkpt lat="43.57877" lon="6.89968">
        <ele>405.968018</ele>
        <time>2013-09-14T16:40:02Z</time>
      </trkpt>
      <trkpt lat="43.5787" lon="6.89969">
        <ele>406.276825</ele>
        <time>2013-09-14T16:40:05Z</time>
      </trkpt>
      <trkpt lat="43.57862" lon="6.89972">
        <ele>406.584656</ele>
        <time>2013-09-14T16:40:09Z</time>
      </trkpt>
      <trkpt lat="43.57854" lon="6.89974">
        <ele>406.952667</ele>
        <time>2013-09-14T16:40:13Z</time>
      </trkpt>
      <trkpt lat="43.57849" lon="6.89976">
        <ele>407.082092</ele>
        <time>2013-09-14T16:40:16Z</time>
      </trkpt>
      <trkpt lat="43.57843" lon="6.89981">
        <ele>406.749268</ele>
        <time>2013-09-14T16:40:20Z</time>
      </trkpt>
      <trkpt lat="43.57838" lon="6.89983">
        <ele>406.653412</ele>
        <time>2013-09-14T16:40:23Z</time>
      </trkpt>
      <trkpt lat="43.57834" lon="6.89986">
        <ele>406.669312</ele>
        <time>2013-09-14T16:40:26Z</time>
      </trkpt>
      <trkpt lat="43.57828" lon="6.8999">
        <ele>406.840332</ele>
        <time>2013-09-14T16:40:30Z</time>
      </trkpt>
      <trkpt lat="43.57823" lon="6.89995">
        <ele>406.746124</ele>
        <time>2013-09-14T16:40:34Z</time>
      </trkpt>
      <trkpt lat="43.57819" lon="6.89999">
        <ele>406.769409</ele>
        <time>2013-09-14T16:40:38Z</time>
      </trkpt>
      <trkpt lat="43.57814" lon="6.90003">
        <ele>406.567627</ele>
        <time>2013-09-14T16:40:42Z</time>
      </trkpt>
      <trkpt lat="43.57811" lon="6.90012">
        <ele>404.588226</ele>
        <time>2013-09-14T16:40:46Z</time>
      </trkpt>
      <trkpt lat="43.57808" lon="6.90018">
        <ele>403.246399</ele>
        <time>2013-09-14T16:40:50Z</time>
      </trkpt>
      <trkpt lat="43.57805" lon="6.90023">
        <ele>402.294617</ele>
        <time>2013-09-14T16:40:55Z</time>
      </trkpt>
      <trkpt lat="43.57801" lon="6.90028">
        <ele>401.518616</ele>
        <time>2013-09-14T16:40:59Z</time>
      </trkpt>
      <trkpt lat="43.578" lon="6.90035">
        <ele>399.480042</ele>
        <time>2013-09-14T16:41:03Z</time>
      </trkpt>
      <trkpt lat="43.57796" lon="6.90042">
        <ele>398.039795</ele>
        <time>2013-09-14T16:41:07Z</time>
      </trkpt>
      <trkpt lat="43.57793" lon="6.90048">
        <ele>396.664429</ele>
        <time>2013-09-14T16:41:10Z</time>
      </trkpt>
      <trkpt lat="43.5779" lon="6.90055">
        <ele>395.018311</ele>
        <time>2013-09-14T16:41:13Z</time>
      </trkpt>
      <trkpt lat="43.57786" lon="6.90064">
        <ele>392.782104</ele>
        <time>2013-09-14T16:41:17Z</time>
      </trkpt>
      <trkpt lat="43.57783" lon="6.90071">
        <ele>390.992859</ele>
        <time>2013-09-14T16:41:20Z</time>
      </trkpt>
      <trkpt lat="43.5778" lon="6.90079">
        <ele>388.632935</ele>
        <time>2013-09-14T16:41:24Z</time>
      </trkpt>
      <trkpt lat="43.57776" lon="6.90087">
        <ele>386.706604</ele>
        <time>2013-09-14T16:41:28Z</time>
      </trkpt>
      <trkpt lat="43.57773" lon="6.90093">
        <ele>385.720032</ele>
        <time>2013-09-14T16:41:31Z</time>
      </trkpt>
      <trkpt lat="43.57768" lon="6.90098">
        <ele>384.801483</ele>
        <time>2013-09-14T16:41:34Z</time>
      </trkpt>
      <trkpt lat="43.57762" lon="6.90104">
        <ele>383.975586</ele>
        <time>2013-09-14T16:41:38Z</time>
      </trkpt>
      <trkpt lat="43.57757" lon="6.90107">
        <ele>383.691467</ele>
        <time>2013-09-14T16:41:41Z</time>
      </trkpt>
      <trkpt lat="43.5775" lon="6.90111">
        <ele>383.846436</ele>
        <time>2013-09-14T16:41:45Z</time>
      </trkpt>
      <trkpt lat="43.57744" lon="6.90113">
        <ele>384.939911</ele>
        <time>2013-09-14T16:41:48Z</time>
      </trkpt>
      <trkpt lat="43.57738" lon="6.90117">
        <ele>385.875885</ele>
        <time>2013-09-14T16:41:51Z</time>
      </trkpt>
      <trkpt lat="43.57733" lon="6.90121">
        <ele>386.14978</ele>
        <time>2013-09-14T16:41:54Z</time>
      </trkpt>
      <trkpt lat="43.57727" lon="6.90129">
        <ele>386.074921</ele>
        <time>2013-09-14T16:41:58Z</time>
      </trkpt>
      <trkpt lat="43.5772" lon="6.90136">
        <ele>386.304199</ele>
        <time>2013-09-14T16:42:02Z</time>
      </trkpt>
      <trkpt lat="43.57716" lon="6.90143">
        <ele>385.950714</ele>
        <time>2013-09-14T16:42:05Z</time>
      </trkpt>
      <trkpt lat="43.5771" lon="6.90149">
        <ele>386.100891</ele>
        <time>2013-09-14T16:42:08Z</time>
      </trkpt>
      <trkpt lat="43.57704" lon="6.90155">
        <ele>386.423859</ele>
        <time>2013-09-14T16:42:12Z</time>
      </trkpt>
      <trkpt lat="43.57699" lon="6.9016">
        <ele>386.550232</ele>
        <time>2013-09-14T16:42:15Z</time>
      </trkpt>
      <trkpt lat="43.57694" lon="6.90166">
        <ele>386.518738</ele>
        <time>2013-09-14T16:42:18Z</time>
      </trkpt>
      <trkpt lat="43.57689" lon="6.90173">
        <ele>387.046936</ele>
        <time>2013-09-14T16:42:21Z</time>
      </trkpt>
      <trkpt lat="43.57681" lon="6.90182">
        <ele>388.298157</ele>
        <time>2013-09-14T16:42:25Z</time>
      </trkpt>
      <trkpt lat="43.57671" lon="6.90192">
        <ele>390.32605</ele>
        <time>2013-09-14T16:42:28Z</time>
      </trkpt>
      <trkpt lat="43.57654" lon="6.90207">
        <ele>394.92981</ele>
        <time>2013-09-14T16:42:32Z</time>
      </trkpt>
      <trkpt lat="43.57638" lon="6.90218">
        <ele>399.290039</ele>
        <time>2013-09-14T16:42:35Z</time>
      </trkpt>
      <trkpt lat="43.57613" lon="6.90231">
        <ele>406.576904</ele>
        <time>2013-09-14T16:42:39Z</time>
      </trkpt>
      <trkpt lat="43.57594" lon="6.90252">
        <ele>411.003754</ele>
        <time>2013-09-14T16:42:43Z</time>
      </trkpt>
      <trkpt lat="43.57576" lon="6.90269">
        <ele>413.119049</ele>
        <time>2013-09-14T16:42:47Z</time>
      </trkpt>
      <trkpt lat="43.57562" lon="6.90276">
        <ele>413.584869</ele>
        <time>2013-09-14T16:42:50Z</time>
      </trkpt>
      <trkpt lat="43.57547" lon="6.90277">
        <ele>414.892273</ele>
        <time>2013-09-14T16:42:53Z</time>
      </trkpt>
      <trkpt lat="43.57533" lon="6.90282">
        <ele>415.798859</ele>
        <time>2013-09-14T16:42:57Z</time>
      </trkpt>
      <trkpt lat="43.57525" lon="6.90283">
        <ele>416.498779</ele>
        <time>2013-09-14T16:43:00Z</time>
      </trkpt>
      <trkpt lat="43.57517" lon="6.90287">
        <ele>417.008209</ele>
        <time>2013-09-14T16:43:03Z</time>
      </trkpt>
      <trkpt lat="43.57509" lon="6.90292">
        <ele>417.548737</ele>
        <time>2013-09-14T16:43:07Z</time>
      </trkpt>
      <trkpt lat="43.57501" lon="6.90297">
        <ele>418.117828</ele>
        <time>2013-09-14T16:43:11Z</time>
      </trkpt>
      <trkpt lat="43.57495" lon="6.90302">
        <ele>417.948853</ele>
        <time>2013-09-14T16:43:14Z</time>
      </trkpt>
      <trkpt lat="43.57488" lon="6.90309">
        <ele>417.73114</ele>
        <time>2013-09-14T16:43:18Z</time>
      </trkpt>
      <trkpt lat="43.57481" lon="6.90316">
        <ele>417.629425</ele>
        <time>2013-09-14T16:43:22Z</time>
      </trkpt>
      <trkpt lat="43.57477" lon="6.90323">
        <ele>417.482697</ele>
        <time>2013-09-14T16:43:25Z</time>
      </trkpt>
      <trkpt lat="43.57473" lon="6.9033">
        <ele>417.414276</ele>
        <time>2013-09-14T16:43:28Z</time>
      </trkpt>
      <trkpt lat="43.57468" lon="6.90339">
        <ele>416.756775</ele>
        <time>2013-09-14T16:43:32Z</time>
      </trkpt>
      <trkpt lat="43.57462" lon="6.90349">
        <ele>416.000061</ele>
        <time>2013-09-14T16:43:36Z</time>
      </trkpt>
      <trkpt lat="43.57458" lon="6.90356">
        <ele>415.388885</ele>
        <time>2013-09-14T16:43:39Z</time>
      </trkpt>
      <trkpt lat="43.57454" lon="6.90367">
        <ele>414.605682</ele>
        <time>2013-09-14T16:43:43Z</time>
      </trkpt>
      <trkpt lat="43.5745" lon="6.90374">
        <ele>414.168579</ele>
        <time>2013-09-14T16:43:46Z</time>
      </trkpt>
      <trkpt lat="43.57447" lon="6.90382">
        <ele>413.716248</ele>
        <time>2013-09-14T16:43:49Z</time>
      </trkpt>
      <trkpt lat="43.57441" lon="6.90391">
        <ele>413.556152</ele>
        <time>2013-09-14T16:43:53Z</time>
      </trkpt>
      <trkpt lat="43.57434" lon="6.90397">
        <ele>413.903473</ele>
        <time>2013-09-14T16:43:57Z</time>
      </trkpt>
      <trkpt lat="43.57427" lon="6.90405">
        <ele>414.234894</ele>
        <time>2013-09-14T16:44:01Z</time>
      </trkpt>
      <trkpt lat="43.57422" lon="6.90411">
        <ele>414.641846</ele>
        <time>2013-09-14T16:44:04Z</time>
      </trkpt>
      <trkpt lat="43.57418" lon="6.90418">
        <ele>414.560211</ele>
        <time>2013-09-14T16:44:07Z</time>
      </trkpt>
      <trkpt lat="43.57414" lon="6.90426">
        <ele>413.851013</ele>
        <time>2013-09-14T16:44:10Z</time>
      </trkpt>
      <trkpt lat="43.57407" lon="6.90435">
        <ele>413.292847</ele>
        <time>2013-09-14T16:44:14Z</time>
      </trkpt>
      <trkpt lat="43.574" lon="6.90442">
        <ele>413.060394</ele>
        <time>2013-09-14T16:44:18Z</time>
      </trkpt>
      <trkpt lat="43.57394" lon="6.90453">
        <ele>412.414307</ele>
        <time>2013-09-14T16:44:22Z</time>
      </trkpt>
      <trkpt lat="43.5739" lon="6.9046">
        <ele>412.24353</ele>
        <time>2013-09-14T16:44:25Z</time>
      </trkpt>
      <trkpt lat="43.57383" lon="6.90468">
        <ele>412.353149</ele>
        <time>2013-09-14T16:44:29Z</time>
      </trkpt>
      <trkpt lat="43.57379" lon="6.90475">
        <ele>412.391144</ele>
        <time>2013-09-14T16:44:32Z</time>
      </trkpt>
      <trkpt lat="43.57374" lon="6.90485">
        <ele>412.298431</ele>
        <time>2013-09-14T16:44:36Z</time>
      </trkpt>
      <trkpt lat="43.57369" lon="6.90491">
        <ele>412.78363</ele>
        <time>2013-09-14T16:44:39Z</time>
      </trkpt>
      <trkpt lat="43.57361" lon="6.90497">
        <ele>413.813354</ele>
        <time>2013-09-14T16:44:43Z</time>
      </trkpt>
      <trkpt lat="43.57354" lon="6.90502">
        <ele>414.854187</ele>
        <time>2013-09-14T16:44:47Z</time>
      </trkpt>
      <trkpt lat="43.57346" lon="6.90507">
        <ele>416.139343</ele>
        <time>2013-09-14T16:44:51Z</time>
      </trkpt>
      <trkpt lat="43.57337" lon="6.90509">
        <ele>417.763245</ele>
        <time>2013-09-14T16:44:55Z</time>
      </trkpt>
      <trkpt lat="43.57329" lon="6.9051">
        <ele>419.206146</ele>
        <time>2013-09-14T16:44:59Z</time>
      </trkpt>
      <trkpt lat="43.5732" lon="6.90509">
        <ele>420.502747</ele>
        <time>2013-09-14T16:45:03Z</time>
      </trkpt>
      <trkpt lat="43.57314" lon="6.90508">
        <ele>421.446594</ele>
        <time>2013-09-14T16:45:06Z</time>
      </trkpt>
      <trkpt lat="43.57307" lon="6.90507">
        <ele>422.343811</ele>
        <time>2013-09-14T16:45:09Z</time>
      </trkpt>
      <trkpt lat="43.57299" lon="6.90506">
        <ele>423.572998</ele>
        <time>2013-09-14T16:45:13Z</time>
      </trkpt>
      <trkpt lat="43.57292" lon="6.90505">
        <ele>424.475159</ele>
        <time>2013-09-14T16:45:16Z</time>
      </trkpt>
      <trkpt lat="43.57284" lon="6.90505">
        <ele>425.646637</ele>
        <time>2013-09-14T16:45:20Z</time>
      </trkpt>
      <trkpt lat="43.57276" lon="6.90507">
        <ele>426.847717</ele>
        <time>2013-09-14T16:45:24Z</time>
      </trkpt>
      <trkpt lat="43.57269" lon="6.90508">
        <ele>427.830841</ele>
        <time>2013-09-14T16:45:27Z</time>
      </trkpt>
      <trkpt lat="43.57261" lon="6.9051">
        <ele>429.099304</ele>
        <time>2013-09-14T16:45:31Z</time>
      </trkpt>
      <trkpt lat="43.57255" lon="6.90512">
        <ele>430.076294</ele>
        <time>2013-09-14T16:45:34Z</time>
      </trkpt>
      <trkpt lat="43.57246" lon="6.90511">
        <ele>431.250549</ele>
        <time>2013-09-14T16:45:38Z</time>
      </trkpt>
      <trkpt lat="43.5724" lon="6.90508">
        <ele>431.666809</ele>
        <time>2013-09-14T16:45:41Z</time>
      </trkpt>
      <trkpt lat="43.57233" lon="6.905">
        <ele>431.902985</ele>
        <time>2013-09-14T16:45:45Z</time>
      </trkpt>
      <trkpt lat="43.57226" lon="6.90492">
        <ele>431.748596</ele>
        <time>2013-09-14T16:45:49Z</time>
      </trkpt>
      <trkpt lat="43.5722" lon="6.90487">
        <ele>431.879944</ele>
        <time>2013-09-14T16:45:52Z</time>
      </trkpt>
      <trkpt lat="43.57211" lon="6.90483">
        <ele>432.217682</ele>
        <time>2013-09-14T16:45:56Z</time>
      </trkpt>
      <trkpt lat="43.57203" lon="6.90482">
        <ele>432.846313</ele>
        <time>2013-09-14T16:46:00Z</time>
      </trkpt>
      <trkpt lat="43.57197" lon="6.90482">
        <ele>433.391174</ele>
        <time>2013-09-14T16:46:03Z</time>
      </trkpt>
      <trkpt lat="43.5719" lon="6.90482">
        <ele>433.952728</ele>
        <time>2013-09-14T16:46:06Z</time>
      </trkpt>
      <trkpt lat="43.57181" lon="6.90481">
        <ele>434.756195</ele>
        <time>2013-09-14T16:46:10Z</time>
      </trkpt>
      <trkpt lat="43.57172" lon="6.90482">
        <ele>435.709015</ele>
        <time>2013-09-14T16:46:14Z</time>
      </trkpt>
      <trkpt lat="43.57164" lon="6.90484">
        <ele>436.769165</ele>
        <time>2013-09-14T16:46:18Z</time>
      </trkpt>
      <trkpt lat="43.57156" lon="6.90484">
        <ele>437.479492</ele>
        <time>2013-09-14T16:46:22Z</time>
      </trkpt>
      <trkpt lat="43.57149" lon="6.90482">
        <ele>437.713013</ele>
        <time>2013-09-14T16:46:25Z</time>
      </trkpt>
      <trkpt lat="43.57142" lon="6.90478">
        <ele>437.675232</ele>
        <time>2013-09-14T16:46:28Z</time>
      </trkpt>
      <trkpt lat="43.57133" lon="6.90475">
        <ele>437.812408</ele>
        <time>2013-09-14T16:46:32Z</time>
      </trkpt>
      <trkpt lat="43.57125" lon="6.90471">
        <ele>437.776581</ele>
        <time>2013-09-14T16:46:36Z</time>
      </trkpt>
      <trkpt lat="43.57119" lon="6.90468">
        <ele>437.635223</ele>
        <time>2013-09-14T16:46:39Z</time>
      </trkpt>
      <trkpt lat="43.57113" lon="6.90465">
        <ele>437.558899</ele>
        <time>2013-09-14T16:46:42Z</time>
      </trkpt>
      <trkpt lat="43.57105" lon="6.90462">
        <ele>437.683167</ele>
        <time>2013-09-14T16:46:46Z</time>
      </trkpt>
      <trkpt lat="43.57098" lon="6.90459">
        <ele>437.601196</ele>
        <time>2013-09-14T16:46:49Z</time>
      </trkpt>
      <trkpt lat="43.57091" lon="6.90456">
        <ele>437.497864</ele>
        <time>2013-09-14T16:46:52Z</time>
      </trkpt>
      <trkpt lat="43.57081" lon="6.90454">
        <ele>437.910126</ele>
        <time>2013-09-14T16:46:56Z</time>
      </trkpt>
      <trkpt lat="43.57074" lon="6.90452">
        <ele>438.797638</ele>
        <time>2013-09-14T16:46:59Z</time>
      </trkpt>
      <trkpt lat="43.57065" lon="6.90449">
        <ele>439.820953</ele>
        <time>2013-09-14T16:47:03Z</time>
      </trkpt>
      <trkpt lat="43.57059" lon="6.90447">
        <ele>440.624329</ele>
        <time>2013-09-14T16:47:06Z</time>
      </trkpt>
      <trkpt lat="43.5705" lon="6.90444">
        <ele>441.773132</ele>
        <time>2013-09-14T16:47:10Z</time>
      </trkpt>
      <trkpt lat="43.57044" lon="6.90443">
        <ele>442.748962</ele>
        <time>2013-09-14T16:47:13Z</time>
      </trkpt>
      <trkpt lat="43.57038" lon="6.90442">
        <ele>443.566254</ele>
        <time>2013-09-14T16:47:16Z</time>
      </trkpt>
      <trkpt lat="43.57031" lon="6.90439">
        <ele>444.387085</ele>
        <time>2013-09-14T16:47:19Z</time>
      </trkpt>
      <trkpt lat="43.57022" lon="6.90434">
        <ele>445.153259</ele>
        <time>2013-09-14T16:47:23Z</time>
      </trkpt>
      <trkpt lat="43.57016" lon="6.90428">
        <ele>445.478821</ele>
        <time>2013-09-14T16:47:26Z</time>
      </trkpt>
      <trkpt lat="43.57009" lon="6.90419">
        <ele>445.447021</ele>
        <time>2013-09-14T16:47:30Z</time>
      </trkpt>
      <trkpt lat="43.57004" lon="6.90414">
        <ele>445.659576</ele>
        <time>2013-09-14T16:47:33Z</time>
      </trkpt>
      <trkpt lat="43.57" lon="6.90407">
        <ele>445.513763</ele>
        <time>2013-09-14T16:47:36Z</time>
      </trkpt>
      <trkpt lat="43.56995" lon="6.90401">
        <ele>444.526489</ele>
        <time>2013-09-14T16:47:39Z</time>
      </trkpt>
      <trkpt lat="43.56987" lon="6.90394">
        <ele>443.292023</ele>
        <time>2013-09-14T16:47:43Z</time>
      </trkpt>
      <trkpt lat="43.56979" lon="6.9039">
        <ele>442.574219</ele>
        <time>2013-09-14T16:47:47Z</time>
      </trkpt>
      <trkpt lat="43.56973" lon="6.9039">
        <ele>442.364655</ele>
        <time>2013-09-14T16:47:50Z</time>
      </trkpt>
      <trkpt lat="43.56964" lon="6.90393">
        <ele>442.678894</ele>
        <time>2013-09-14T16:47:54Z</time>
      </trkpt>
      <trkpt lat="43.56956" lon="6.90399">
        <ele>443.548615</ele>
        <time>2013-09-14T16:47:58Z</time>
      </trkpt>
      <trkpt lat="43.56948" lon="6.90406">
        <ele>444.600769</ele>
        <time>2013-09-14T16:48:02Z</time>
      </trkpt>
      <trkpt lat="43.56939" lon="6.90412">
        <ele>445.483521</ele>
        <time>2013-09-14T16:48:06Z</time>
      </trkpt>
      <trkpt lat="43.56932" lon="6.9042">
        <ele>446.599426</ele>
        <time>2013-09-14T16:48:10Z</time>
      </trkpt>
      <trkpt lat="43.56925" lon="6.90427">
        <ele>447.650391</ele>
        <time>2013-09-14T16:48:14Z</time>
      </trkpt>
      <trkpt lat="43.56918" lon="6.90436">
        <ele>448.859802</ele>
        <time>2013-09-14T16:48:18Z</time>
      </trkpt>
      <trkpt lat="43.5691" lon="6.90445">
        <ele>449.470001</ele>
        <time>2013-09-14T16:48:22Z</time>
      </trkpt>
      <trkpt lat="43.56904" lon="6.90451">
        <ele>449.778778</ele>
        <time>2013-09-14T16:48:25Z</time>
      </trkpt>
      <trkpt lat="43.56899" lon="6.90456">
        <ele>450.005249</ele>
        <time>2013-09-14T16:48:28Z</time>
      </trkpt>
      <trkpt lat="43.56891" lon="6.90462">
        <ele>450.196136</ele>
        <time>2013-09-14T16:48:32Z</time>
      </trkpt>
      <trkpt lat="43.56885" lon="6.90466">
        <ele>450.240723</ele>
        <time>2013-09-14T16:48:35Z</time>
      </trkpt>
      <trkpt lat="43.56879" lon="6.9047">
        <ele>450.384613</ele>
        <time>2013-09-14T16:48:38Z</time>
      </trkpt>
      <trkpt lat="43.56872" lon="6.90476">
        <ele>450.62384</ele>
        <time>2013-09-14T16:48:42Z</time>
      </trkpt>
      <trkpt lat="43.56866" lon="6.90481">
        <ele>450.832977</ele>
        <time>2013-09-14T16:48:45Z</time>
      </trkpt>
      <trkpt lat="43.5686" lon="6.90489">
        <ele>451.576233</ele>
        <time>2013-09-14T16:48:49Z</time>
      </trkpt>
      <trkpt lat="43.56855" lon="6.90499">
        <ele>452.62561</ele>
        <time>2013-09-14T16:48:53Z</time>
      </trkpt>
      <trkpt lat="43.56851" lon="6.90505">
        <ele>453.690918</ele>
        <time>2013-09-14T16:48:56Z</time>
      </trkpt>
      <trkpt lat="43.56847" lon="6.90512">
        <ele>454.703094</ele>
        <time>2013-09-14T16:48:59Z</time>
      </trkpt>
      <trkpt lat="43.56839" lon="6.90518">
        <ele>455.643982</ele>
        <time>2013-09-14T16:49:03Z</time>
      </trkpt>
      <trkpt lat="43.56833" lon="6.90521">
        <ele>455.690979</ele>
        <time>2013-09-14T16:49:06Z</time>
      </trkpt>
      <trkpt lat="43.56824" lon="6.90521">
        <ele>456.053986</ele>
        <time>2013-09-14T16:49:10Z</time>
      </trkpt>
      <trkpt lat="43.56817" lon="6.90522">
        <ele>456.242554</ele>
        <time>2013-09-14T16:49:13Z</time>
      </trkpt>
      <trkpt lat="43.56807" lon="6.90522">
        <ele>456.456512</ele>
        <time>2013-09-14T16:49:17Z</time>
      </trkpt>
      <trkpt lat="43.56798" lon="6.90522">
        <ele>456.527893</ele>
        <time>2013-09-14T16:49:21Z</time>
      </trkpt>
      <trkpt lat="43.56791" lon="6.90521">
        <ele>456.439575</ele>
        <time>2013-09-14T16:49:24Z</time>
      </trkpt>
      <trkpt lat="43.56782" lon="6.90519">
        <ele>456.219147</ele>
        <time>2013-09-14T16:49:28Z</time>
      </trkpt>
      <trkpt lat="43.56775" lon="6.90517">
        <ele>456.084045</ele>
        <time>2013-09-14T16:49:31Z</time>
      </trkpt>
      <trkpt lat="43.56768" lon="6.90515">
        <ele>455.605713</ele>
        <time>2013-09-14T16:49:34Z</time>
      </trkpt>
      <trkpt lat="43.56758" lon="6.90511">
        <ele>455.01532</ele>
        <time>2013-09-14T16:49:38Z</time>
      </trkpt>
      <trkpt lat="43.5675" lon="6.90503">
        <ele>453.686432</ele>
        <time>2013-09-14T16:49:42Z</time>
      </trkpt>
      <trkpt lat="43.56741" lon="6.90498">
        <ele>453.658142</ele>
        <time>2013-09-14T16:49:46Z</time>
      </trkpt>
      <trkpt lat="43.56732" lon="6.90494">
        <ele>453.977264</ele>
        <time>2013-09-14T16:49:50Z</time>
      </trkpt>
      <trkpt lat="43.56726" lon="6.90491">
        <ele>454.392456</ele>
        <time>2013-09-14T16:49:53Z</time>
      </trkpt>
      <trkpt lat="43.56717" lon="6.90491">
        <ele>455.298828</ele>
        <time>2013-09-14T16:49:57Z</time>
      </trkpt>
      <trkpt lat="43.56708" lon="6.9049">
        <ele>456.155457</ele>
        <time>2013-09-14T16:50:01Z</time>
      </trkpt>
      <trkpt lat="43.56702" lon="6.9049">
        <ele>456.812988</ele>
        <time>2013-09-14T16:50:04Z</time>
      </trkpt>
      <trkpt lat="43.56693" lon="6.90489">
        <ele>457.743011</ele>
        <time>2013-09-14T16:50:08Z</time>
      </trkpt>
      <trkpt lat="43.56687" lon="6.9049">
        <ele>458.458557</ele>
        <time>2013-09-14T16:50:11Z</time>
      </trkpt>
      <trkpt lat="43.56678" lon="6.90489">
        <ele>459.428925</ele>
        <time>2013-09-14T16:50:15Z</time>
      </trkpt>
      <trkpt lat="43.56669" lon="6.90487">
        <ele>460.195435</ele>
        <time>2013-09-14T16:50:19Z</time>
      </trkpt>
      <trkpt lat="43.56662" lon="6.90486">
        <ele>460.69516</ele>
        <time>2013-09-14T16:50:22Z</time>
      </trkpt>
      <trkpt lat="43.56653" lon="6.90481">
        <ele>460.812317</ele>
        <time>2013-09-14T16:50:26Z</time>
      </trkpt>
      <trkpt lat="43.56646" lon="6.90475">
        <ele>460.387817</ele>
        <time>2013-09-14T16:50:30Z</time>
      </trkpt>
      <trkpt lat="43.5664" lon="6.90471">
        <ele>460.1763</ele>
        <time>2013-09-14T16:50:33Z</time>
      </trkpt>
      <trkpt lat="43.56633" lon="6.90468">
        <ele>460.098633</ele>
        <time>2013-09-14T16:50:37Z</time>
      </trkpt>
      <trkpt lat="43.56626" lon="6.90461">
        <ele>459.284485</ele>
        <time>2013-09-14T16:50:41Z</time>
      </trkpt>
      <trkpt lat="43.56621" lon="6.90454">
        <ele>458.073029</ele>
        <time>2013-09-14T16:50:44Z</time>
      </trkpt>
      <trkpt lat="43.56614" lon="6.90443">
        <ele>456.18158</ele>
        <time>2013-09-14T16:50:47Z</time>
      </trkpt>
      <trkpt lat="43.56603" lon="6.90427">
        <ele>452.827942</ele>
        <time>2013-09-14T16:50:51Z</time>
      </trkpt>
      <trkpt lat="43.56593" lon="6.90418">
        <ele>450.418884</ele>
        <time>2013-09-14T16:50:54Z</time>
      </trkpt>
      <trkpt lat="43.56571" lon="6.90409">
        <ele>444.93631</ele>
        <time>2013-09-14T16:50:58Z</time>
      </trkpt>
      <trkpt lat="43.56558" lon="6.90406">
        <ele>439.870728</ele>
        <time>2013-09-14T16:51:01Z</time>
      </trkpt>
      <trkpt lat="43.56544" lon="6.90402">
        <ele>434.447144</ele>
        <time>2013-09-14T16:51:04Z</time>
      </trkpt>
      <trkpt lat="43.56528" lon="6.90403">
        <ele>429.108948</ele>
        <time>2013-09-14T16:51:08Z</time>
      </trkpt>
      <trkpt lat="43.56517" lon="6.90407">
        <ele>425.823456</ele>
        <time>2013-09-14T16:51:11Z</time>
      </trkpt>
      <trkpt lat="43.56507" lon="6.90411">
        <ele>422.796631</ele>
        <time>2013-09-14T16:51:14Z</time>
      </trkpt>
      <trkpt lat="43.56497" lon="6.90416">
        <ele>419.977295</ele>
        <time>2013-09-14T16:51:17Z</time>
      </trkpt>
      <trkpt lat="43.56485" lon="6.90424">
        <ele>419.771057</ele>
        <time>2013-09-14T16:51:21Z</time>
      </trkpt>
      <trkpt lat="43.56473" lon="6.90435">
        <ele>420.657104</ele>
        <time>2013-09-14T16:51:25Z</time>
      </trkpt>
      <trkpt lat="43.56465" lon="6.90447">
        <ele>422.558441</ele>
        <time>2013-09-14T16:51:28Z</time>
      </trkpt>
      <trkpt lat="43.56455" lon="6.90461">
        <ele>424.570679</ele>
        <time>2013-09-14T16:51:31Z</time>
      </trkpt>
      <trkpt lat="43.56442" lon="6.90486">
        <ele>428.365479</ele>
        <time>2013-09-14T16:51:35Z</time>
      </trkpt>
      <trkpt lat="43.56431" lon="6.90504">
        <ele>429.821106</ele>
        <time>2013-09-14T16:51:38Z</time>
      </trkpt>
      <trkpt lat="43.56417" lon="6.90529">
        <ele>431.640289</ele>
        <time>2013-09-14T16:51:42Z</time>
      </trkpt>
      <trkpt lat="43.56408" lon="6.90544">
        <ele>433.787659</ele>
        <time>2013-09-14T16:51:45Z</time>
      </trkpt>
      <trkpt lat="43.56395" lon="6.90566">
        <ele>436.916718</ele>
        <time>2013-09-14T16:51:49Z</time>
      </trkpt>
      <trkpt lat="43.56382" lon="6.9059">
        <ele>439.226746</ele>
        <time>2013-09-14T16:51:53Z</time>
      </trkpt>
      <trkpt lat="43.56366" lon="6.90604">
        <ele>436.907257</ele>
        <time>2013-09-14T16:51:56Z</time>
      </trkpt>
      <trkpt lat="43.56342" lon="6.90611">
        <ele>431.130707</ele>
        <time>2013-09-14T16:52:00Z</time>
      </trkpt>
      <trkpt lat="43.5632" lon="6.90619">
        <ele>427.264648</ele>
        <time>2013-09-14T16:52:04Z</time>
      </trkpt>
      <trkpt lat="43.56307" lon="6.90637">
        <ele>427.700806</ele>
        <time>2013-09-14T16:52:07Z</time>
      </trkpt>
      <trkpt lat="43.563" lon="6.90658">
        <ele>429.875977</ele>
        <time>2013-09-14T16:52:10Z</time>
      </trkpt>
      <trkpt lat="43.56287" lon="6.90677">
        <ele>429.588318</ele>
        <time>2013-09-14T16:52:14Z</time>
      </trkpt>
      <trkpt lat="43.5628" lon="6.9068">
        <ele>428.730988</ele>
        <time>2013-09-14T16:52:17Z</time>
      </trkpt>
      <trkpt lat="43.56272" lon="6.90682">
        <ele>427.613312</ele>
        <time>2013-09-14T16:52:21Z</time>
      </trkpt>
      <trkpt lat="43.56262" lon="6.90687">
        <ele>426.413116</ele>
        <time>2013-09-14T16:52:25Z</time>
      </trkpt>
      <trkpt lat="43.56256" lon="6.90691">
        <ele>425.637512</ele>
        <time>2013-09-14T16:52:28Z</time>
      </trkpt>
      <trkpt lat="43.5625" lon="6.907">
        <ele>425.201508</ele>
        <time>2013-09-14T16:52:32Z</time>
      </trkpt>
      <trkpt lat="43.56253" lon="6.90712">
        <ele>426.023315</ele>
        <time>2013-09-14T16:52:36Z</time>
      </trkpt>
      <trkpt lat="43.56261" lon="6.90721">
        <ele>427.344299</ele>
        <time>2013-09-14T16:52:40Z</time>
      </trkpt>
      <trkpt lat="43.5627" lon="6.90732">
        <ele>428.79071</ele>
        <time>2013-09-14T16:52:44Z</time>
      </trkpt>
      <trkpt lat="43.56279" lon="6.90741">
        <ele>430.189209</ele>
        <time>2013-09-14T16:52:47Z</time>
      </trkpt>
      <trkpt lat="43.56288" lon="6.90746">
        <ele>431.435425</ele>
        <time>2013-09-14T16:52:50Z</time>
      </trkpt>
      <trkpt lat="43.56298" lon="6.90755">
        <ele>432.486267</ele>
        <time>2013-09-14T16:52:54Z</time>
      </trkpt>
      <trkpt lat="43.56305" lon="6.90763">
        <ele>432.740173</ele>
        <time>2013-09-14T16:52:57Z</time>
      </trkpt>
      <trkpt lat="43.56312" lon="6.9077">
        <ele>432.971191</ele>
        <time>2013-09-14T16:53:00Z</time>
      </trkpt>
      <trkpt lat="43.56317" lon="6.90773">
        <ele>433.284485</ele>
        <time>2013-09-14T16:53:03Z</time>
      </trkpt>
      <trkpt lat="43.56321" lon="6.90769">
        <ele>434.070312</ele>
        <time>2013-09-14T16:53:07Z</time>
      </trkpt>
      <trkpt lat="43.56327" lon="6.90769">
        <ele>434.743469</ele>
        <time>2013-09-14T16:53:40Z</time>
      </trkpt>
      <trkpt lat="43.56334" lon="6.90769">
        <ele>435.487946</ele>
        <time>2013-09-14T16:53:49Z</time>
      </trkpt>
      <trkpt lat="43.56349" lon="6.90777">
        <ele>437.750244</ele>
        <time>2013-09-14T16:53:53Z</time>
      </trkpt>
      <trkpt lat="43.56364" lon="6.90783">
        <ele>439.784882</ele>
        <time>2013-09-14T16:53:56Z</time>
      </trkpt>
      <trkpt lat="43.5638" lon="6.90804">
        <ele>439.878174</ele>
        <time>2013-09-14T16:54:00Z</time>
      </trkpt>
      <trkpt lat="43.56385" lon="6.90827">
        <ele>437.059998</ele>
        <time>2013-09-14T16:54:03Z</time>
      </trkpt>
      <trkpt lat="43.56383" lon="6.90852">
        <ele>432.106018</ele>
        <time>2013-09-14T16:54:06Z</time>
      </trkpt>
      <trkpt lat="43.5638" lon="6.90879">
        <ele>426.506165</ele>
        <time>2013-09-14T16:54:09Z</time>
      </trkpt>
      <trkpt lat="43.56374" lon="6.90917">
        <ele>418.903198</ele>
        <time>2013-09-14T16:54:13Z</time>
      </trkpt>
      <trkpt lat="43.5636" lon="6.90942">
        <ele>413.276794</ele>
        <time>2013-09-14T16:54:16Z</time>
      </trkpt>
      <trkpt lat="43.56334" lon="6.90962">
        <ele>410.238495</ele>
        <time>2013-09-14T16:54:19Z</time>
      </trkpt>
      <trkpt lat="43.5631" lon="6.90991">
        <ele>409.662567</ele>
        <time>2013-09-14T16:54:23Z</time>
      </trkpt>
      <trkpt lat="43.56296" lon="6.91032">
        <ele>408.6203</ele>
        <time>2013-09-14T16:54:27Z</time>
      </trkpt>
      <trkpt lat="43.56291" lon="6.91066">
        <ele>407.069214</ele>
        <time>2013-09-14T16:54:30Z</time>
      </trkpt>
      <trkpt lat="43.56286" lon="6.91101">
        <ele>408.201843</ele>
        <time>2013-09-14T16:54:33Z</time>
      </trkpt>
      <trkpt lat="43.56284" lon="6.91145">
        <ele>410.65686</ele>
        <time>2013-09-14T16:54:37Z</time>
      </trkpt>
      <trkpt lat="43.56288" lon="6.91176">
        <ele>410.131958</ele>
        <time>2013-09-14T16:54:40Z</time>
      </trkpt>
      <trkpt lat="43.56283" lon="6.91214">
        <ele>416.17395</ele>
        <time>2013-09-14T16:54:44Z</time>
      </trkpt>
      <trkpt lat="43.56268" lon="6.91243">
        <ele>425.406555</ele>
        <time>2013-09-14T16:54:48Z</time>
      </trkpt>
      <trkpt lat="43.56256" lon="6.91264">
        <ele>430.994812</ele>
        <time>2013-09-14T16:54:51Z</time>
      </trkpt>
      <trkpt lat="43.56255" lon="6.91299">
        <ele>430.217682</ele>
        <time>2013-09-14T16:54:55Z</time>
      </trkpt>
      <trkpt lat="43.56268" lon="6.91332">
        <ele>424.635132</ele>
        <time>2013-09-14T16:54:59Z</time>
      </trkpt>
      <trkpt lat="43.56282" lon="6.91362">
        <ele>418.292847</ele>
        <time>2013-09-14T16:55:03Z</time>
      </trkpt>
      <trkpt lat="43.56296" lon="6.91382">
        <ele>413.297363</ele>
        <time>2013-09-14T16:55:06Z</time>
      </trkpt>
      <trkpt lat="43.5631" lon="6.91403">
        <ele>408.519653</ele>
        <time>2013-09-14T16:55:09Z</time>
      </trkpt>
      <trkpt lat="43.56314" lon="6.91442">
        <ele>406.320496</ele>
        <time>2013-09-14T16:55:13Z</time>
      </trkpt>
      <trkpt lat="43.56307" lon="6.91473">
        <ele>407.087158</ele>
        <time>2013-09-14T16:55:16Z</time>
      </trkpt>
      <trkpt lat="43.56293" lon="6.91509">
        <ele>408.700531</ele>
        <time>2013-09-14T16:55:20Z</time>
      </trkpt>
      <trkpt lat="43.56272" lon="6.91528">
        <ele>411.762695</ele>
        <time>2013-09-14T16:55:24Z</time>
      </trkpt>
      <trkpt lat="43.5626" lon="6.91541">
        <ele>412.851807</ele>
        <time>2013-09-14T16:55:28Z</time>
      </trkpt>
      <trkpt lat="43.56254" lon="6.91543">
        <ele>413.398621</ele>
        <time>2013-09-14T16:55:47Z</time>
      </trkpt>
      <trkpt lat="43.5625" lon="6.91548">
        <ele>413.514771</ele>
        <time>2013-09-14T16:55:56Z</time>
      </trkpt>
      <trkpt lat="43.5625" lon="6.91554">
        <ele>413.016815</ele>
        <time>2013-09-14T16:56:07Z</time>
      </trkpt>
      <trkpt lat="43.56246" lon="6.91548">
        <ele>412.779022</ele>
        <time>2013-09-14T17:04:18Z</time>
      </trkpt>
      <trkpt lat="43.56233" lon="6.91554">
        <ele>409.979095</ele>
        <time>2013-09-14T17:04:22Z</time>
      </trkpt>
      <trkpt lat="43.56225" lon="6.91554">
        <ele>408.38385</ele>
        <time>2013-09-14T17:04:25Z</time>
      </trkpt>
      <trkpt lat="43.56214" lon="6.91556">
        <ele>405.966492</ele>
        <time>2013-09-14T17:04:29Z</time>
      </trkpt>
      <trkpt lat="43.56205" lon="6.9156">
        <ele>403.747986</ele>
        <time>2013-09-14T17:04:32Z</time>
      </trkpt>
      <trkpt lat="43.56192" lon="6.9156">
        <ele>401.084808</ele>
        <time>2013-09-14T17:04:36Z</time>
      </trkpt>
      <trkpt lat="43.56179" lon="6.91559">
        <ele>398.561554</ele>
        <time>2013-09-14T17:04:40Z</time>
      </trkpt>
      <trkpt lat="43.56172" lon="6.9155">
        <ele>399.123016</ele>
        <time>2013-09-14T17:04:43Z</time>
      </trkpt>
      <trkpt lat="43.56165" lon="6.91537">
        <ele>400.764465</ele>
        <time>2013-09-14T17:04:47Z</time>
      </trkpt>
      <trkpt lat="43.56157" lon="6.91529">
        <ele>401.053101</ele>
        <time>2013-09-14T17:04:51Z</time>
      </trkpt>
      <trkpt lat="43.56152" lon="6.91527">
        <ele>400.876984</ele>
        <time>2013-09-14T17:04:54Z</time>
      </trkpt>
      <trkpt lat="43.56144" lon="6.91525">
        <ele>400.155273</ele>
        <time>2013-09-14T17:04:57Z</time>
      </trkpt>
      <trkpt lat="43.56123" lon="6.91526">
        <ele>396.488953</ele>
        <time>2013-09-14T17:05:01Z</time>
      </trkpt>
      <trkpt lat="43.56111" lon="6.91526">
        <ele>394.805542</ele>
        <time>2013-09-14T17:05:04Z</time>
      </trkpt>
      <trkpt lat="43.56097" lon="6.9153">
        <ele>391.477173</ele>
        <time>2013-09-14T17:05:08Z</time>
      </trkpt>
      <trkpt lat="43.56081" lon="6.91545">
        <ele>384.139648</ele>
        <time>2013-09-14T17:05:12Z</time>
      </trkpt>
      <trkpt lat="43.56067" lon="6.91559">
        <ele>378.213898</ele>
        <time>2013-09-14T17:05:16Z</time>
      </trkpt>
      <trkpt lat="43.56057" lon="6.9157">
        <ele>373.494843</ele>
        <time>2013-09-14T17:05:19Z</time>
      </trkpt>
      <trkpt lat="43.56046" lon="6.91576">
        <ele>369.914368</ele>
        <time>2013-09-14T17:05:23Z</time>
      </trkpt>
      <trkpt lat="43.56033" lon="6.91566">
        <ele>371.888733</ele>
        <time>2013-09-14T17:05:27Z</time>
      </trkpt>
      <trkpt lat="43.56026" lon="6.91562">
        <ele>372.686279</ele>
        <time>2013-09-14T17:05:31Z</time>
      </trkpt>
      <trkpt lat="43.56018" lon="6.91561">
        <ele>372.057739</ele>
        <time>2013-09-14T17:05:34Z</time>
      </trkpt>
      <trkpt lat="43.56004" lon="6.9155">
        <ele>374.474152</ele>
        <time>2013-09-14T17:05:38Z</time>
      </trkpt>
      <trkpt lat="43.55992" lon="6.91542">
        <ele>375.630554</ele>
        <time>2013-09-14T17:05:41Z</time>
      </trkpt>
      <trkpt lat="43.55979" lon="6.91538">
        <ele>374.988281</ele>
        <time>2013-09-14T17:05:44Z</time>
      </trkpt>
      <trkpt lat="43.55968" lon="6.91529">
        <ele>376.621521</ele>
        <time>2013-09-14T17:05:47Z</time>
      </trkpt>
      <trkpt lat="43.55959" lon="6.91519">
        <ele>379.019165</ele>
        <time>2013-09-14T17:05:50Z</time>
      </trkpt>
      <trkpt lat="43.55946" lon="6.91502">
        <ele>383.049805</ele>
        <time>2013-09-14T17:05:54Z</time>
      </trkpt>
      <trkpt lat="43.55935" lon="6.91504">
        <ele>380.359375</ele>
        <time>2013-09-14T17:05:58Z</time>
      </trkpt>
      <trkpt lat="43.5592" lon="6.9151">
        <ele>375.970734</ele>
        <time>2013-09-14T17:06:02Z</time>
      </trkpt>
      <trkpt lat="43.55917" lon="6.91502">
        <ele>378.321594</ele>
        <time>2013-09-14T17:06:05Z</time>
      </trkpt>
      <trkpt lat="43.55912" lon="6.91495">
        <ele>378.399109</ele>
        <time>2013-09-14T17:06:08Z</time>
      </trkpt>
      <trkpt lat="43.559" lon="6.915">
        <ele>374.785095</ele>
        <time>2013-09-14T17:06:12Z</time>
      </trkpt>
      <trkpt lat="43.55891" lon="6.91505">
        <ele>370.903076</ele>
        <time>2013-09-14T17:06:15Z</time>
      </trkpt>
      <trkpt lat="43.55887" lon="6.91517">
        <ele>366.560577</ele>
        <time>2013-09-14T17:06:19Z</time>
      </trkpt>
      <trkpt lat="43.55882" lon="6.91526">
        <ele>362.86499</ele>
        <time>2013-09-14T17:06:22Z</time>
      </trkpt>
      <trkpt lat="43.55873" lon="6.91532">
        <ele>359.551117</ele>
        <time>2013-09-14T17:06:26Z</time>
      </trkpt>
      <trkpt lat="43.55864" lon="6.91538">
        <ele>356.374756</ele>
        <time>2013-09-14T17:06:30Z</time>
      </trkpt>
      <trkpt lat="43.55856" lon="6.91535">
        <ele>355.509521</ele>
        <time>2013-09-14T17:06:33Z</time>
      </trkpt>
      <trkpt lat="43.55846" lon="6.91542">
        <ele>352.161255</ele>
        <time>2013-09-14T17:06:37Z</time>
      </trkpt>
      <trkpt lat="43.55839" lon="6.91544">
        <ele>350.411652</ele>
        <time>2013-09-14T17:06:40Z</time>
      </trkpt>
      <trkpt lat="43.55836" lon="6.91537">
        <ele>351.423523</ele>
        <time>2013-09-14T17:06:43Z</time>
      </trkpt>
      <trkpt lat="43.55832" lon="6.91529">
        <ele>352.214661</ele>
        <time>2013-09-14T17:06:47Z</time>
      </trkpt>
      <trkpt lat="43.55825" lon="6.91539">
        <ele>348.780396</ele>
        <time>2013-09-14T17:06:51Z</time>
      </trkpt>
      <trkpt lat="43.55816" lon="6.9156">
        <ele>344.015747</ele>
        <time>2013-09-14T17:06:55Z</time>
      </trkpt>
      <trkpt lat="43.5581" lon="6.91562">
        <ele>342.999054</ele>
        <time>2013-09-14T17:06:58Z</time>
      </trkpt>
      <trkpt lat="43.55804" lon="6.91554">
        <ele>343.115234</ele>
        <time>2013-09-14T17:07:01Z</time>
      </trkpt>
      <trkpt lat="43.55795" lon="6.91557">
        <ele>341.378357</ele>
        <time>2013-09-14T17:07:04Z</time>
      </trkpt>
      <trkpt lat="43.55784" lon="6.91569">
        <ele>339.141724</ele>
        <time>2013-09-14T17:07:08Z</time>
      </trkpt>
      <trkpt lat="43.55781" lon="6.91582">
        <ele>338.332886</ele>
        <time>2013-09-14T17:07:11Z</time>
      </trkpt>
      <trkpt lat="43.55781" lon="6.91589">
        <ele>336.922791</ele>
        <time>2013-09-14T17:07:15Z</time>
      </trkpt>
      <trkpt lat="43.55778" lon="6.91585">
        <ele>337.777557</ele>
        <time>2013-09-14T17:07:43Z</time>
      </trkpt>
      <trkpt lat="43.55778" lon="6.91593">
        <ele>335.874512</ele>
        <time>2013-09-14T17:08:12Z</time>
      </trkpt>
      <trkpt lat="43.55775" lon="6.91612">
        <ele>331.725616</ele>
        <time>2013-09-14T17:08:15Z</time>
      </trkpt>
      <trkpt lat="43.55772" lon="6.91629">
        <ele>328.082214</ele>
        <time>2013-09-14T17:08:18Z</time>
      </trkpt>
      <trkpt lat="43.55757" lon="6.91652">
        <ele>323.604095</ele>
        <time>2013-09-14T17:08:22Z</time>
      </trkpt>
      <trkpt lat="43.55753" lon="6.91674">
        <ele>319.383514</ele>
        <time>2013-09-14T17:08:26Z</time>
      </trkpt>
      <trkpt lat="43.55752" lon="6.91689">
        <ele>316.078461</ele>
        <time>2013-09-14T17:08:29Z</time>
      </trkpt>
      <trkpt lat="43.55736" lon="6.91704">
        <ele>312.222504</ele>
        <time>2013-09-14T17:08:33Z</time>
      </trkpt>
      <trkpt lat="43.5572" lon="6.91713">
        <ele>309.943115</ele>
        <time>2013-09-14T17:08:37Z</time>
      </trkpt>
      <trkpt lat="43.55712" lon="6.91717">
        <ele>309.024597</ele>
        <time>2013-09-14T17:08:40Z</time>
      </trkpt>
      <trkpt lat="43.55702" lon="6.91719">
        <ele>308.531158</ele>
        <time>2013-09-14T17:08:43Z</time>
      </trkpt>
      <trkpt lat="43.55684" lon="6.91725">
        <ele>307.320557</ele>
        <time>2013-09-14T17:08:47Z</time>
      </trkpt>
      <trkpt lat="43.55671" lon="6.91729">
        <ele>306.800293</ele>
        <time>2013-09-14T17:08:50Z</time>
      </trkpt>
      <trkpt lat="43.5566" lon="6.91731">
        <ele>305.92276</ele>
        <time>2013-09-14T17:08:54Z</time>
      </trkpt>
      <trkpt lat="43.55642" lon="6.91724">
        <ele>304.434021</ele>
        <time>2013-09-14T17:08:58Z</time>
      </trkpt>
      <trkpt lat="43.55631" lon="6.91722">
        <ele>303.170349</ele>
        <time>2013-09-14T17:09:01Z</time>
      </trkpt>
      <trkpt lat="43.5562" lon="6.91719">
        <ele>301.941528</ele>
        <time>2013-09-14T17:09:04Z</time>
      </trkpt>
      <trkpt lat="43.5561" lon="6.91727">
        <ele>300.793671</ele>
        <time>2013-09-14T17:09:08Z</time>
      </trkpt>
      <trkpt lat="43.55603" lon="6.91734">
        <ele>300.109741</ele>
        <time>2013-09-14T17:09:12Z</time>
      </trkpt>
      <trkpt lat="43.55598" lon="6.91739">
        <ele>299.826904</ele>
        <time>2013-09-14T17:09:16Z</time>
      </trkpt>
      <trkpt lat="43.55594" lon="6.91744">
        <ele>299.565857</ele>
        <time>2013-09-14T17:09:19Z</time>
      </trkpt>
      <trkpt lat="43.55587" lon="6.91753">
        <ele>298.865204</ele>
        <time>2013-09-14T17:09:22Z</time>
      </trkpt>
      <trkpt lat="43.55578" lon="6.91772">
        <ele>294.657654</ele>
        <time>2013-09-14T17:09:26Z</time>
      </trkpt>
      <trkpt lat="43.55573" lon="6.91792">
        <ele>290.812469</ele>
        <time>2013-09-14T17:09:29Z</time>
      </trkpt>
      <trkpt lat="43.5556" lon="6.91807">
        <ele>286.873901</ele>
        <time>2013-09-14T17:09:33Z</time>
      </trkpt>
      <trkpt lat="43.55548" lon="6.91804">
        <ele>285.564453</ele>
        <time>2013-09-14T17:09:36Z</time>
      </trkpt>
      <trkpt lat="43.55545" lon="6.91821">
        <ele>283.160095</ele>
        <time>2013-09-14T17:09:40Z</time>
      </trkpt>
      <trkpt lat="43.55543" lon="6.91836">
        <ele>281.057434</ele>
        <time>2013-09-14T17:09:43Z</time>
      </trkpt>
      <trkpt lat="43.55534" lon="6.9185">
        <ele>277.521362</ele>
        <time>2013-09-14T17:09:47Z</time>
      </trkpt>
      <trkpt lat="43.55519" lon="6.91845">
        <ele>277.182922</ele>
        <time>2013-09-14T17:09:51Z</time>
      </trkpt>
      <trkpt lat="43.55515" lon="6.91843">
        <ele>277.221832</ele>
        <time>2013-09-14T17:09:54Z</time>
      </trkpt>
      <trkpt lat="43.55514" lon="6.91849">
        <ele>276.1409</ele>
        <time>2013-09-14T17:10:06Z</time>
      </trkpt>
      <trkpt lat="43.55512" lon="6.91856">
        <ele>275.024048</ele>
        <time>2013-09-14T17:10:13Z</time>
      </trkpt>
      <trkpt lat="43.55511" lon="6.91863">
        <ele>274.087433</ele>
        <time>2013-09-14T17:10:18Z</time>
      </trkpt>
      <trkpt lat="43.55507" lon="6.91868">
        <ele>273.138824</ele>
        <time>2013-09-14T17:10:21Z</time>
      </trkpt>
      <trkpt lat="43.55503" lon="6.91876">
        <ele>272.00119</ele>
        <time>2013-09-14T17:10:25Z</time>
      </trkpt>
      <trkpt lat="43.55505" lon="6.9187">
        <ele>272.8284</ele>
        <time>2013-09-14T17:12:22Z</time>
      </trkpt>
      <trkpt lat="43.55508" lon="6.91876">
        <ele>272.107697</ele>
        <time>2013-09-14T17:12:58Z</time>
      </trkpt>
      <trkpt lat="43.55504" lon="6.91886">
        <ele>270.690613</ele>
        <time>2013-09-14T17:13:01Z</time>
      </trkpt>
      <trkpt lat="43.55494" lon="6.91903">
        <ele>268.757599</ele>
        <time>2013-09-14T17:13:04Z</time>
      </trkpt>
      <trkpt lat="43.5549" lon="6.91917">
        <ele>267.254211</ele>
        <time>2013-09-14T17:13:07Z</time>
      </trkpt>
      <trkpt lat="43.55487" lon="6.91929">
        <ele>265.489624</ele>
        <time>2013-09-14T17:13:11Z</time>
      </trkpt>
      <trkpt lat="43.55493" lon="6.91946">
        <ele>262.134644</ele>
        <time>2013-09-14T17:13:14Z</time>
      </trkpt>
      <trkpt lat="43.55497" lon="6.91958">
        <ele>259.790863</ele>
        <time>2013-09-14T17:13:17Z</time>
      </trkpt>
      <trkpt lat="43.55498" lon="6.91971">
        <ele>257.483307</ele>
        <time>2013-09-14T17:13:20Z</time>
      </trkpt>
      <trkpt lat="43.555" lon="6.91984">
        <ele>254.860748</ele>
        <time>2013-09-14T17:13:24Z</time>
      </trkpt>
      <trkpt lat="43.55502" lon="6.92003">
        <ele>250.815643</ele>
        <time>2013-09-14T17:13:28Z</time>
      </trkpt>
      <trkpt lat="43.55504" lon="6.92034">
        <ele>242.219879</ele>
        <time>2013-09-14T17:13:32Z</time>
      </trkpt>
      <trkpt lat="43.55501" lon="6.92061">
        <ele>235.712784</ele>
        <time>2013-09-14T17:13:36Z</time>
      </trkpt>
      <trkpt lat="43.55501" lon="6.92079">
        <ele>231.049286</ele>
        <time>2013-09-14T17:13:40Z</time>
      </trkpt>
      <trkpt lat="43.55504" lon="6.92098">
        <ele>225.994141</ele>
        <time>2013-09-14T17:13:43Z</time>
      </trkpt>
      <trkpt lat="43.55504" lon="6.92116">
        <ele>221.809326</ele>
        <time>2013-09-14T17:13:46Z</time>
      </trkpt>
      <trkpt lat="43.55503" lon="6.92135">
        <ele>217.765137</ele>
        <time>2013-09-14T17:13:50Z</time>
      </trkpt>
      <trkpt lat="43.55508" lon="6.92135">
        <ele>216.862671</ele>
        <time>2013-09-14T17:13:53Z</time>
      </trkpt>
      <trkpt lat="43.55514" lon="6.92126">
        <ele>218.011353</ele>
        <time>2013-09-14T17:13:56Z</time>
      </trkpt>
      <trkpt lat="43.55529" lon="6.92088">
        <ele>223.966675</ele>
        <time>2013-09-14T17:14:00Z</time>
      </trkpt>
      <trkpt lat="43.55538" lon="6.9206">
        <ele>229.927277</ele>
        <time>2013-09-14T17:14:03Z</time>
      </trkpt>
      <trkpt lat="43.55562" lon="6.92038">
        <ele>231.934982</ele>
        <time>2013-09-14T17:14:07Z</time>
      </trkpt>
      <trkpt lat="43.55572" lon="6.92033">
        <ele>231.768112</ele>
        <time>2013-09-14T17:14:10Z</time>
      </trkpt>
      <trkpt lat="43.55577" lon="6.92032">
        <ele>231.154266</ele>
        <time>2013-09-14T17:14:16Z</time>
      </trkpt>
      <trkpt lat="43.55582" lon="6.9203">
        <ele>231.015228</ele>
        <time>2013-09-14T17:14:20Z</time>
      </trkpt>
      <trkpt lat="43.55588" lon="6.9203">
        <ele>230.579559</ele>
        <time>2013-09-14T17:14:29Z</time>
      </trkpt>
      <trkpt lat="43.55596" lon="6.92027">
        <ele>230.791382</ele>
        <time>2013-09-14T17:14:32Z</time>
      </trkpt>
      <trkpt lat="43.5561" lon="6.92026">
        <ele>230.404388</ele>
        <time>2013-09-14T17:14:36Z</time>
      </trkpt>
      <trkpt lat="43.55612" lon="6.92034">
        <ele>228.367599</ele>
        <time>2013-09-14T17:14:39Z</time>
      </trkpt>
      <trkpt lat="43.55612" lon="6.92041">
        <ele>226.618454</ele>
        <time>2013-09-14T17:14:42Z</time>
      </trkpt>
      <trkpt lat="43.55617" lon="6.92044">
        <ele>225.715485</ele>
        <time>2013-09-14T17:14:46Z</time>
      </trkpt>
      <trkpt lat="43.55622" lon="6.92045">
        <ele>225.325378</ele>
        <time>2013-09-14T17:14:55Z</time>
      </trkpt>
      <trkpt lat="43.55626" lon="6.92049">
        <ele>224.335541</ele>
        <time>2013-09-14T17:15:05Z</time>
      </trkpt>
      <trkpt lat="43.55628" lon="6.92054">
        <ele>223.06131</ele>
        <time>2013-09-14T17:15:17Z</time>
      </trkpt>
      <trkpt lat="43.55634" lon="6.92056">
        <ele>222.508591</ele>
        <time>2013-09-14T17:15:20Z</time>
      </trkpt>
      <trkpt lat="43.55641" lon="6.92073">
        <ele>218.915436</ele>
        <time>2013-09-14T17:15:24Z</time>
      </trkpt>
      <trkpt lat="43.55633" lon="6.92081">
        <ele>217.006989</ele>
        <time>2013-09-14T17:15:27Z</time>
      </trkpt>
      <trkpt lat="43.55623" lon="6.92086">
        <ele>215.95224</ele>
        <time>2013-09-14T17:15:30Z</time>
      </trkpt>
      <trkpt lat="43.55613" lon="6.921">
        <ele>212.994125</ele>
        <time>2013-09-14T17:15:34Z</time>
      </trkpt>
      <trkpt lat="43.55612" lon="6.92119">
        <ele>209.015747</ele>
        <time>2013-09-14T17:15:37Z</time>
      </trkpt>
      <trkpt lat="43.55617" lon="6.92148">
        <ele>203.227661</ele>
        <time>2013-09-14T17:15:41Z</time>
      </trkpt>
      <trkpt lat="43.55624" lon="6.92169">
        <ele>199.517593</ele>
        <time>2013-09-14T17:15:44Z</time>
      </trkpt>
      <trkpt lat="43.55637" lon="6.922">
        <ele>195.80545</ele>
        <time>2013-09-14T17:15:48Z</time>
      </trkpt>
      <trkpt lat="43.55645" lon="6.92223">
        <ele>193.578003</ele>
        <time>2013-09-14T17:15:51Z</time>
      </trkpt>
      <trkpt lat="43.55649" lon="6.92245">
        <ele>191.29834</ele>
        <time>2013-09-14T17:15:54Z</time>
      </trkpt>
      <trkpt lat="43.55653" lon="6.92273">
        <ele>188.386551</ele>
        <time>2013-09-14T17:15:58Z</time>
      </trkpt>
      <trkpt lat="43.55658" lon="6.9229">
        <ele>187.520065</ele>
        <time>2013-09-14T17:16:02Z</time>
      </trkpt>
      <trkpt lat="43.55664" lon="6.92294">
        <ele>188.189499</ele>
        <time>2013-09-14T17:16:05Z</time>
      </trkpt>
      <trkpt lat="43.55669" lon="6.92295">
        <ele>189.576248</ele>
        <time>2013-09-14T17:16:09Z</time>
      </trkpt>
      <trkpt lat="43.55673" lon="6.92292">
        <ele>191.555847</ele>
        <time>2013-09-14T17:16:13Z</time>
      </trkpt>
      <trkpt lat="43.55669" lon="6.92293">
        <ele>189.494751</ele>
        <time>2013-09-14T17:16:31Z</time>
      </trkpt>
      <trkpt lat="43.55664" lon="6.92296">
        <ele>187.877335</ele>
        <time>2013-09-14T17:16:34Z</time>
      </trkpt>
      <trkpt lat="43.55656" lon="6.92299">
        <ele>185.89859</ele>
        <time>2013-09-14T17:16:37Z</time>
      </trkpt>
      <trkpt lat="43.55645" lon="6.92301">
        <ele>183.438232</ele>
        <time>2013-09-14T17:16:41Z</time>
      </trkpt>
      <trkpt lat="43.55641" lon="6.92306">
        <ele>182.025406</ele>
        <time>2013-09-14T17:16:49Z</time>
      </trkpt>
      <trkpt lat="43.55633" lon="6.92313">
        <ele>179.407745</ele>
        <time>2013-09-14T17:16:53Z</time>
      </trkpt>
      <trkpt lat="43.55632" lon="6.92303">
        <ele>180.425293</ele>
        <time>2013-09-14T17:16:56Z</time>
      </trkpt>
      <trkpt lat="43.55633" lon="6.92288">
        <ele>182.477783</ele>
        <time>2013-09-14T17:16:59Z</time>
      </trkpt>
      <trkpt lat="43.55626" lon="6.92267">
        <ele>184.023712</ele>
        <time>2013-09-14T17:17:02Z</time>
      </trkpt>
      <trkpt lat="43.55608" lon="6.92254">
        <ele>182.31366</ele>
        <time>2013-09-14T17:17:06Z</time>
      </trkpt>
      <trkpt lat="43.556" lon="6.92265">
        <ele>179.07782</ele>
        <time>2013-09-14T17:17:10Z</time>
      </trkpt>
      <trkpt lat="43.55607" lon="6.92263">
        <ele>180.641541</ele>
        <time>2013-09-14T17:17:58Z</time>
      </trkpt>
      <trkpt lat="43.55603" lon="6.9227">
        <ele>179.056854</ele>
        <time>2013-09-14T17:19:20Z</time>
      </trkpt>
      <trkpt lat="43.55597" lon="6.92278">
        <ele>176.754852</ele>
        <time>2013-09-14T17:19:24Z</time>
      </trkpt>
      <trkpt lat="43.55588" lon="6.92286">
        <ele>173.782486</ele>
        <time>2013-09-14T17:19:28Z</time>
      </trkpt>
      <trkpt lat="43.55582" lon="6.92291">
        <ele>172.156708</ele>
        <time>2013-09-14T17:19:32Z</time>
      </trkpt>
      <trkpt lat="43.55577" lon="6.92303">
        <ele>170.975754</ele>
        <time>2013-09-14T17:19:36Z</time>
      </trkpt>
      <trkpt lat="43.5557" lon="6.92314">
        <ele>169.757874</ele>
        <time>2013-09-14T17:19:39Z</time>
      </trkpt>
      <trkpt lat="43.55563" lon="6.92327">
        <ele>168.052246</ele>
        <time>2013-09-14T17:19:43Z</time>
      </trkpt>
      <trkpt lat="43.5556" lon="6.92332">
        <ele>167.33577</ele>
        <time>2013-09-14T17:19:47Z</time>
      </trkpt>
      <trkpt lat="43.55564" lon="6.9233">
        <ele>167.546967</ele>
        <time>2013-09-14T17:20:05Z</time>
      </trkpt>
      <trkpt lat="43.5556" lon="6.9233">
        <ele>167.737686</ele>
        <time>2013-09-14T17:20:58Z</time>
      </trkpt>
      <trkpt lat="43.55556" lon="6.92333">
        <ele>167.334717</ele>
        <time>2013-09-14T17:21:02Z</time>
      </trkpt>
      <trkpt lat="43.55551" lon="6.9234">
        <ele>166.637283</ele>
        <time>2013-09-14T17:21:07Z</time>
      </trkpt>
      <trkpt lat="43.55543" lon="6.92345">
        <ele>166.14386</ele>
        <time>2013-09-14T17:21:10Z</time>
      </trkpt>
      <trkpt lat="43.5553" lon="6.92341">
        <ele>167.271881</ele>
        <time>2013-09-14T17:21:14Z</time>
      </trkpt>
      <trkpt lat="43.55518" lon="6.92337">
        <ele>168.54689</ele>
        <time>2013-09-14T17:21:17Z</time>
      </trkpt>
      <trkpt lat="43.55502" lon="6.92339">
        <ele>168.873154</ele>
        <time>2013-09-14T17:21:21Z</time>
      </trkpt>
      <trkpt lat="43.55491" lon="6.92342">
        <ele>169.17308</ele>
        <time>2013-09-14T17:21:24Z</time>
      </trkpt>
      <trkpt lat="43.5548" lon="6.92344">
        <ele>169.967758</ele>
        <time>2013-09-14T17:21:27Z</time>
      </trkpt>
      <trkpt lat="43.55468" lon="6.92337">
        <ele>172.452545</ele>
        <time>2013-09-14T17:21:31Z</time>
      </trkpt>
      <trkpt lat="43.55458" lon="6.92334">
        <ele>173.862976</ele>
        <time>2013-09-14T17:21:34Z</time>
      </trkpt>
      <trkpt lat="43.55449" lon="6.92345">
        <ele>172.695221</ele>
        <time>2013-09-14T17:21:38Z</time>
      </trkpt>
      <trkpt lat="43.55445" lon="6.92349">
        <ele>172.394943</ele>
        <time>2013-09-14T17:21:42Z</time>
      </trkpt>
      <trkpt lat="43.55444" lon="6.92357">
        <ele>171.052261</ele>
        <time>2013-09-14T17:21:49Z</time>
      </trkpt>
      <trkpt lat="43.55442" lon="6.92364">
        <ele>170.023026</ele>
        <time>2013-09-14T17:21:52Z</time>
      </trkpt>
      <trkpt lat="43.55439" lon="6.92375">
        <ele>168.305161</ele>
        <time>2013-09-14T17:21:56Z</time>
      </trkpt>
      <trkpt lat="43.5544" lon="6.92389">
        <ele>165.617523</ele>
        <time>2013-09-14T17:22:00Z</time>
      </trkpt>
      <trkpt lat="43.55438" lon="6.92398">
        <ele>164.183197</ele>
        <time>2013-09-14T17:23:20Z</time>
      </trkpt>
      <trkpt lat="43.55426" lon="6.92411">
        <ele>163.004318</ele>
        <time>2013-09-14T17:23:23Z</time>
      </trkpt>
      <trkpt lat="43.55413" lon="6.9243">
        <ele>160.51474</ele>
        <time>2013-09-14T17:23:26Z</time>
      </trkpt>
      <trkpt lat="43.55402" lon="6.92452">
        <ele>157.110626</ele>
        <time>2013-09-14T17:23:29Z</time>
      </trkpt>
      <trkpt lat="43.55389" lon="6.92484">
        <ele>152.454086</ele>
        <time>2013-09-14T17:23:33Z</time>
      </trkpt>
      <trkpt lat="43.55382" lon="6.92516">
        <ele>147.4711</ele>
        <time>2013-09-14T17:23:37Z</time>
      </trkpt>
      <trkpt lat="43.55377" lon="6.92531">
        <ele>145.275421</ele>
        <time>2013-09-14T17:23:40Z</time>
      </trkpt>
      <trkpt lat="43.55372" lon="6.92541">
        <ele>144.244125</ele>
        <time>2013-09-14T17:23:43Z</time>
      </trkpt>
      <trkpt lat="43.55358" lon="6.92547">
        <ele>145.430237</ele>
        <time>2013-09-14T17:23:47Z</time>
      </trkpt>
      <trkpt lat="43.55352" lon="6.92552">
        <ele>145.753479</ele>
        <time>2013-09-14T17:23:50Z</time>
      </trkpt>
      <trkpt lat="43.55346" lon="6.9256">
        <ele>145.460602</ele>
        <time>2013-09-14T17:23:53Z</time>
      </trkpt>
      <trkpt lat="43.55337" lon="6.92572">
        <ele>145.697998</ele>
        <time>2013-09-14T17:23:57Z</time>
      </trkpt>
      <trkpt lat="43.55328" lon="6.9258">
        <ele>145.927734</ele>
        <time>2013-09-14T17:24:00Z</time>
      </trkpt>
      <trkpt lat="43.55318" lon="6.92584">
        <ele>146.401611</ele>
        <time>2013-09-14T17:24:04Z</time>
      </trkpt>
      <trkpt lat="43.55321" lon="6.92589">
        <ele>145.193893</ele>
        <time>2013-09-14T17:24:32Z</time>
      </trkpt>
      <trkpt lat="43.55327" lon="6.92591">
        <ele>144.332764</ele>
        <time>2013-09-14T17:24:35Z</time>
      </trkpt>
      <trkpt lat="43.55332" lon="6.92594">
        <ele>143.48233</ele>
        <time>2013-09-14T17:24:39Z</time>
      </trkpt>
      <trkpt lat="43.5533" lon="6.92602">
        <ele>142.255783</ele>
        <time>2013-09-14T17:24:43Z</time>
      </trkpt>
      <trkpt lat="43.55333" lon="6.92609">
        <ele>140.81279</ele>
        <time>2013-09-14T17:25:22Z</time>
      </trkpt>
      <trkpt lat="43.55337" lon="6.92609">
        <ele>139.714386</ele>
        <time>2013-09-14T17:28:20Z</time>
      </trkpt>
      <trkpt lat="43.5534" lon="6.92615">
        <ele>138.042969</ele>
        <time>2013-09-14T17:28:42Z</time>
      </trkpt>
      <trkpt lat="43.55337" lon="6.92622">
        <ele>137.657791</ele>
        <time>2013-09-14T17:28:46Z</time>
      </trkpt>
      <trkpt lat="43.55329" lon="6.92627">
        <ele>138.077713</ele>
        <time>2013-09-14T17:28:50Z</time>
      </trkpt>
      <trkpt lat="43.55322" lon="6.9263">
        <ele>138.556808</ele>
        <time>2013-09-14T17:28:53Z</time>
      </trkpt>
      <trkpt lat="43.55323" lon="6.92637">
        <ele>137.236145</ele>
        <time>2013-09-14T17:28:56Z</time>
      </trkpt>
      <trkpt lat="43.55331" lon="6.92642">
        <ele>135.40657</ele>
        <time>2013-09-14T17:29:00Z</time>
      </trkpt>
      <trkpt lat="43.55337" lon="6.92647">
        <ele>133.37915</ele>
        <time>2013-09-14T17:29:03Z</time>
      </trkpt>
      <trkpt lat="43.55344" lon="6.92651">
        <ele>130.655121</ele>
        <time>2013-09-14T17:29:06Z</time>
      </trkpt>
      <trkpt lat="43.55344" lon="6.92662">
        <ele>128.846542</ele>
        <time>2013-09-14T17:29:10Z</time>
      </trkpt>
      <trkpt lat="43.55342" lon="6.9267">
        <ele>128.07579</ele>
        <time>2013-09-14T17:29:14Z</time>
      </trkpt>
      <trkpt lat="43.55347" lon="6.92674">
        <ele>126.026825</ele>
        <time>2013-09-14T17:29:17Z</time>
      </trkpt>
      <trkpt lat="43.55344" lon="6.92686">
        <ele>125.600342</ele>
        <time>2013-09-14T17:29:21Z</time>
      </trkpt>
      <trkpt lat="43.55351" lon="6.92688">
        <ele>123.113518</ele>
        <time>2013-09-14T17:29:25Z</time>
      </trkpt>
      <trkpt lat="43.55354" lon="6.92694">
        <ele>121.45089</ele>
        <time>2013-09-14T17:29:29Z</time>
      </trkpt>
      <trkpt lat="43.55349" lon="6.92702">
        <ele>122.107956</ele>
        <time>2013-09-14T17:29:32Z</time>
      </trkpt>
      <trkpt lat="43.55345" lon="6.92713">
        <ele>122.047226</ele>
        <time>2013-09-14T17:29:36Z</time>
      </trkpt>
      <trkpt lat="43.5534" lon="6.92717">
        <ele>122.993073</ele>
        <time>2013-09-14T17:29:39Z</time>
      </trkpt>
      <trkpt lat="43.55345" lon="6.92725">
        <ele>120.542351</ele>
        <time>2013-09-14T17:29:43Z</time>
      </trkpt>
      <trkpt lat="43.55353" lon="6.92726">
        <ele>118.178986</ele>
        <time>2013-09-14T17:29:46Z</time>
      </trkpt>
      <trkpt lat="43.55361" lon="6.92724">
        <ele>116.009155</ele>
        <time>2013-09-14T17:29:50Z</time>
      </trkpt>
      <trkpt lat="43.5536" lon="6.92731">
        <ele>115.625023</ele>
        <time>2013-09-14T17:29:55Z</time>
      </trkpt>
      <trkpt lat="43.55358" lon="6.92737">
        <ele>115.299225</ele>
        <time>2013-09-14T17:29:59Z</time>
      </trkpt>
      <trkpt lat="43.55363" lon="6.92738">
        <ele>113.858292</ele>
        <time>2013-09-14T17:30:02Z</time>
      </trkpt>
      <trkpt lat="43.55369" lon="6.9274">
        <ele>111.946121</ele>
        <time>2013-09-14T17:30:06Z</time>
      </trkpt>
      <trkpt lat="43.55374" lon="6.92747">
        <ele>109.799347</ele>
        <time>2013-09-14T17:30:09Z</time>
      </trkpt>
      <trkpt lat="43.55374" lon="6.9276">
        <ele>108.619553</ele>
        <time>2013-09-14T17:30:12Z</time>
      </trkpt>
      <trkpt lat="43.55382" lon="6.92784">
        <ele>105.046799</ele>
        <time>2013-09-14T17:30:16Z</time>
      </trkpt>
      <trkpt lat="43.55393" lon="6.92821">
        <ele>99.942261</ele>
        <time>2013-09-14T17:30:20Z</time>
      </trkpt>
      <trkpt lat="43.55394" lon="6.92856">
        <ele>97.759048</ele>
        <time>2013-09-14T17:30:24Z</time>
      </trkpt>
      <trkpt lat="43.55394" lon="6.9288">
        <ele>96.397057</ele>
        <time>2013-09-14T17:30:27Z</time>
      </trkpt>
      <trkpt lat="43.55395" lon="6.92893">
        <ele>95.463699</ele>
        <time>2013-09-14T17:30:31Z</time>
      </trkpt>
      <trkpt lat="43.55394" lon="6.92902">
        <ele>95.104744</ele>
        <time>2013-09-14T17:31:50Z</time>
      </trkpt>
      <trkpt lat="43.55395" lon="6.92914">
        <ele>94.238914</ele>
        <time>2013-09-14T17:31:53Z</time>
      </trkpt>
      <trkpt lat="43.55395" lon="6.92927">
        <ele>93.534904</ele>
        <time>2013-09-14T17:31:57Z</time>
      </trkpt>
      <trkpt lat="43.55399" lon="6.92932">
        <ele>91.993301</ele>
        <time>2013-09-14T17:32:06Z</time>
      </trkpt>
      <trkpt lat="43.55402" lon="6.92947">
        <ele>90.558365</ele>
        <time>2013-09-14T17:32:10Z</time>
      </trkpt>
      <trkpt lat="43.55403" lon="6.92963">
        <ele>89.531036</ele>
        <time>2013-09-14T17:32:13Z</time>
      </trkpt>
      <trkpt lat="43.55407" lon="6.92983">
        <ele>87.488159</ele>
        <time>2013-09-14T17:32:17Z</time>
      </trkpt>
      <trkpt lat="43.55408" lon="6.92998">
        <ele>86.322838</ele>
        <time>2013-09-14T17:32:20Z</time>
      </trkpt>
      <trkpt lat="43.55407" lon="6.93013">
        <ele>85.489258</ele>
        <time>2013-09-14T17:32:23Z</time>
      </trkpt>
      <trkpt lat="43.55407" lon="6.93033">
        <ele>84.132935</ele>
        <time>2013-09-14T17:32:27Z</time>
      </trkpt>
      <trkpt lat="43.55405" lon="6.93054">
        <ele>83.301392</ele>
        <time>2013-09-14T17:32:31Z</time>
      </trkpt>
      <trkpt lat="43.55403" lon="6.93076">
        <ele>82.038086</ele>
        <time>2013-09-14T17:32:35Z</time>
      </trkpt>
      <trkpt lat="43.55407" lon="6.93092">
        <ele>79.67205</ele>
        <time>2013-09-14T17:32:38Z</time>
      </trkpt>
      <trkpt lat="43.55414" lon="6.93108">
        <ele>76.222481</ele>
        <time>2013-09-14T17:32:41Z</time>
      </trkpt>
      <trkpt lat="43.55421" lon="6.93129">
        <ele>73.052818</ele>
        <time>2013-09-14T17:32:45Z</time>
      </trkpt>
      <trkpt lat="43.55422" lon="6.93143">
        <ele>71.476311</ele>
        <time>2013-09-14T17:32:49Z</time>
      </trkpt>
      <trkpt lat="43.55427" lon="6.93148">
        <ele>70.262024</ele>
        <time>2013-09-14T17:33:11Z</time>
      </trkpt>
      <trkpt lat="43.55434" lon="6.93159">
        <ele>68.114815</ele>
        <time>2013-09-14T17:33:15Z</time>
      </trkpt>
      <trkpt lat="43.55437" lon="6.93166">
        <ele>66.898338</ele>
        <time>2013-09-14T17:33:49Z</time>
      </trkpt>
      <trkpt lat="43.55431" lon="6.93174">
        <ele>66.636848</ele>
        <time>2013-09-14T17:33:53Z</time>
      </trkpt>
      <trkpt lat="43.55429" lon="6.93184">
        <ele>65.371452</ele>
        <time>2013-09-14T17:33:57Z</time>
      </trkpt>
      <trkpt lat="43.55439" lon="6.93189">
        <ele>63.151871</ele>
        <time>2013-09-14T17:34:00Z</time>
      </trkpt>
      <trkpt lat="43.55448" lon="6.932">
        <ele>60.01165</ele>
        <time>2013-09-14T17:34:04Z</time>
      </trkpt>
      <trkpt lat="43.55452" lon="6.93212">
        <ele>57.748756</ele>
        <time>2013-09-14T17:34:07Z</time>
      </trkpt>
      <trkpt lat="43.55454" lon="6.93224">
        <ele>55.582451</ele>
        <time>2013-09-14T17:34:10Z</time>
      </trkpt>
      <trkpt lat="43.55456" lon="6.93239">
        <ele>52.999584</ele>
        <time>2013-09-14T17:34:14Z</time>
      </trkpt>
      <trkpt lat="43.55453" lon="6.93249">
        <ele>51.940239</ele>
        <time>2013-09-14T17:34:17Z</time>
      </trkpt>
      <trkpt lat="43.55449" lon="6.93262">
        <ele>50.436085</ele>
        <time>2013-09-14T17:34:21Z</time>
      </trkpt>
      <trkpt lat="43.55458" lon="6.93269">
        <ele>48.128571</ele>
        <time>2013-09-14T17:34:25Z</time>
      </trkpt>
      <trkpt lat="43.55464" lon="6.93273">
        <ele>46.737141</ele>
        <time>2013-09-14T17:34:29Z</time>
      </trkpt>
      <trkpt lat="43.5546" lon="6.93277">
        <ele>46.653423</ele>
        <time>2013-09-14T17:34:35Z</time>
      </trkpt>
      <trkpt lat="43.55456" lon="6.93275">
        <ele>47.549538</ele>
        <time>2013-09-14T17:34:53Z</time>
      </trkpt>
      <trkpt lat="43.55451" lon="6.93279">
        <ele>47.707428</ele>
        <time>2013-09-14T17:35:13Z</time>
      </trkpt>
      <trkpt lat="43.55454" lon="6.93283">
        <ele>46.644417</ele>
        <time>2013-09-14T17:36:12Z</time>
      </trkpt>
      <trkpt lat="43.5546" lon="6.93289">
        <ele>44.855736</ele>
        <time>2013-09-14T17:36:39Z</time>
      </trkpt>
      <trkpt lat="43.55465" lon="6.93295">
        <ele>43.363304</ele>
        <time>2013-09-14T17:37:37Z</time>
      </trkpt>
      <trkpt lat="43.55471" lon="6.93295">
        <ele>42.387001</ele>
        <time>2013-09-14T17:37:40Z</time>
      </trkpt>
      <trkpt lat="43.55479" lon="6.93293">
        <ele>41.73645</ele>
        <time>2013-09-14T17:37:44Z</time>
      </trkpt>
      <trkpt lat="43.55484" lon="6.93285">
        <ele>42.178436</ele>
        <time>2013-09-14T17:37:48Z</time>
      </trkpt>
      <trkpt lat="43.55492" lon="6.93272">
        <ele>42.918957</ele>
        <time>2013-09-14T17:37:52Z</time>
      </trkpt>
      <trkpt lat="43.55502" lon="6.93273">
        <ele>41.978157</ele>
        <time>2013-09-14T17:37:56Z</time>
      </trkpt>
      <trkpt lat="43.55508" lon="6.93281">
        <ele>41.442272</ele>
        <time>2013-09-14T17:37:59Z</time>
      </trkpt>
      <trkpt lat="43.55511" lon="6.93276">
        <ele>42.509918</ele>
        <time>2013-09-14T17:38:02Z</time>
      </trkpt>
      <trkpt lat="43.55509" lon="6.93263">
        <ele>44.243828</ele>
        <time>2013-09-14T17:38:06Z</time>
      </trkpt>
      <trkpt lat="43.55505" lon="6.9325">
        <ele>45.660946</ele>
        <time>2013-09-14T17:38:10Z</time>
      </trkpt>
      <trkpt lat="43.55499" lon="6.93237">
        <ele>47.003693</ele>
        <time>2013-09-14T17:38:14Z</time>
      </trkpt>
      <trkpt lat="43.55498" lon="6.93221">
        <ele>49.541332</ele>
        <time>2013-09-14T17:38:18Z</time>
      </trkpt>
      <trkpt lat="43.555" lon="6.93205">
        <ele>51.439407</ele>
        <time>2013-09-14T17:38:21Z</time>
      </trkpt>
      <trkpt lat="43.55503" lon="6.93186">
        <ele>54.725487</ele>
        <time>2013-09-14T17:38:25Z</time>
      </trkpt>
      <trkpt lat="43.55503" lon="6.93172">
        <ele>56.746281</ele>
        <time>2013-09-14T17:38:28Z</time>
      </trkpt>
      <trkpt lat="43.55501" lon="6.93162">
        <ele>57.938412</ele>
        <time>2013-09-14T17:38:31Z</time>
      </trkpt>
      <trkpt lat="43.55499" lon="6.93152">
        <ele>59.24498</ele>
        <time>2013-09-14T17:38:34Z</time>
      </trkpt>
      <trkpt lat="43.55496" lon="6.93138">
        <ele>61.665009</ele>
        <time>2013-09-14T17:38:38Z</time>
      </trkpt>
      <trkpt lat="43.55492" lon="6.93123">
        <ele>64.364357</ele>
        <time>2013-09-14T17:38:42Z</time>
      </trkpt>
      <trkpt lat="43.55489" lon="6.93112">
        <ele>66.263863</ele>
        <time>2013-09-14T17:38:45Z</time>
      </trkpt>
      <trkpt lat="43.55485" lon="6.93102">
        <ele>68.132721</ele>
        <time>2013-09-14T17:38:48Z</time>
      </trkpt>
      <trkpt lat="43.55484" lon="6.93086">
        <ele>70.422638</ele>
        <time>2013-09-14T17:38:52Z</time>
      </trkpt>
      <trkpt lat="43.55483" lon="6.93067">
        <ele>72.986267</ele>
        <time>2013-09-14T17:38:56Z</time>
      </trkpt>
      <trkpt lat="43.5548" lon="6.93056">
        <ele>74.583244</ele>
        <time>2013-09-14T17:38:59Z</time>
      </trkpt>
      <trkpt lat="43.55486" lon="6.93057">
        <ele>74.033287</ele>
        <time>2013-09-14T17:39:08Z</time>
      </trkpt>
      <trkpt lat="43.55494" lon="6.93068">
        <ele>71.799561</ele>
        <time>2013-09-14T17:39:12Z</time>
      </trkpt>
      <trkpt lat="43.55499" lon="6.93084">
        <ele>68.937386</ele>
        <time>2013-09-14T17:39:15Z</time>
      </trkpt>
      <trkpt lat="43.55508" lon="6.93105">
        <ele>67.492989</ele>
        <time>2013-09-14T17:39:19Z</time>
      </trkpt>
      <trkpt lat="43.55513" lon="6.93124">
        <ele>65.457413</ele>
        <time>2013-09-14T17:39:22Z</time>
      </trkpt>
      <trkpt lat="43.55516" lon="6.93141">
        <ele>63.359783</ele>
        <time>2013-09-14T17:39:25Z</time>
      </trkpt>
      <trkpt lat="43.55523" lon="6.93153">
        <ele>62.689209</ele>
        <time>2013-09-14T17:39:28Z</time>
      </trkpt>
      <trkpt lat="43.55533" lon="6.93158">
        <ele>63.568321</ele>
        <time>2013-09-14T17:39:31Z</time>
      </trkpt>
      <trkpt lat="43.5554" lon="6.93162">
        <ele>64.042587</ele>
        <time>2013-09-14T17:39:35Z</time>
      </trkpt>
      <trkpt lat="43.5554" lon="6.93169">
        <ele>62.870113</ele>
        <time>2013-09-14T17:39:42Z</time>
      </trkpt>
      <trkpt lat="43.55536" lon="6.93173">
        <ele>61.685097</ele>
        <time>2013-09-14T17:39:46Z</time>
      </trkpt>
      <trkpt lat="43.55535" lon="6.93179">
        <ele>60.519531</ele>
        <time>2013-09-14T17:39:52Z</time>
      </trkpt>
      <trkpt lat="43.55535" lon="6.93185">
        <ele>59.455288</ele>
        <time>2013-09-14T17:39:57Z</time>
      </trkpt>
      <trkpt lat="43.55534" lon="6.93192">
        <ele>58.386059</ele>
        <time>2013-09-14T17:40:01Z</time>
      </trkpt>
      <trkpt lat="43.55535" lon="6.93199">
        <ele>57.351391</ele>
        <time>2013-09-14T17:40:06Z</time>
      </trkpt>
      <trkpt lat="43.55535" lon="6.93207">
        <ele>56.089615</ele>
        <time>2013-09-14T17:40:11Z</time>
      </trkpt>
      <trkpt lat="43.55537" lon="6.93213">
        <ele>55.240822</ele>
        <time>2013-09-14T17:40:28Z</time>
      </trkpt>
      <trkpt lat="43.55538" lon="6.9322">
        <ele>54.403534</ele>
        <time>2013-09-14T17:40:35Z</time>
      </trkpt>
      <trkpt lat="43.55541" lon="6.93226">
        <ele>53.893555</ele>
        <time>2013-09-14T17:40:38Z</time>
      </trkpt>
      <trkpt lat="43.55548" lon="6.93242">
        <ele>52.165459</ele>
        <time>2013-09-14T17:40:42Z</time>
      </trkpt>
      <trkpt lat="43.55554" lon="6.93255">
        <ele>50.703964</ele>
        <time>2013-09-14T17:40:45Z</time>
      </trkpt>
      <trkpt lat="43.55562" lon="6.93268">
        <ele>49.525417</ele>
        <time>2013-09-14T17:40:48Z</time>
      </trkpt>
      <trkpt lat="43.55573" lon="6.93289">
        <ele>47.451828</ele>
        <time>2013-09-14T17:40:52Z</time>
      </trkpt>
      <trkpt lat="43.55584" lon="6.93309">
        <ele>45.112232</ele>
        <time>2013-09-14T17:40:56Z</time>
      </trkpt>
      <trkpt lat="43.55587" lon="6.93332">
        <ele>42.39724</ele>
        <time>2013-09-14T17:41:00Z</time>
      </trkpt>
      <trkpt lat="43.55585" lon="6.93348">
        <ele>39.861511</ele>
        <time>2013-09-14T17:41:03Z</time>
      </trkpt>
      <trkpt lat="43.55575" lon="6.93367">
        <ele>36.489384</ele>
        <time>2013-09-14T17:41:07Z</time>
      </trkpt>
      <trkpt lat="43.55566" lon="6.93382">
        <ele>33.974476</ele>
        <time>2013-09-14T17:41:10Z</time>
      </trkpt>
      <trkpt lat="43.55566" lon="6.934">
        <ele>31.945518</ele>
        <time>2013-09-14T17:41:14Z</time>
      </trkpt>
      <trkpt lat="43.55567" lon="6.93413">
        <ele>30.610676</ele>
        <time>2013-09-14T17:41:18Z</time>
      </trkpt>
      <trkpt lat="43.5556" lon="6.93426">
        <ele>28.735847</ele>
        <time>2013-09-14T17:41:22Z</time>
      </trkpt>
      <trkpt lat="43.55556" lon="6.93431">
        <ele>27.920582</ele>
        <time>2013-09-14T17:41:25Z</time>
      </trkpt>
      <trkpt lat="43.5556" lon="6.93436">
        <ele>27.799297</ele>
        <time>2013-09-14T17:45:35Z</time>
      </trkpt>
      <trkpt lat="43.55564" lon="6.93447">
        <ele>27.333649</ele>
        <time>2013-09-14T17:45:39Z</time>
      </trkpt>
      <trkpt lat="43.55568" lon="6.93461">
        <ele>26.503979</ele>
        <time>2013-09-14T17:45:43Z</time>
      </trkpt>
      <trkpt lat="43.55571" lon="6.93472">
        <ele>25.783838</ele>
        <time>2013-09-14T17:45:46Z</time>
      </trkpt>
      <trkpt lat="43.55576" lon="6.93486">
        <ele>24.842548</ele>
        <time>2013-09-14T17:45:50Z</time>
      </trkpt>
      <trkpt lat="43.55582" lon="6.93499">
        <ele>23.974735</ele>
        <time>2013-09-14T17:45:54Z</time>
      </trkpt>
      <trkpt lat="43.5559" lon="6.93508">
        <ele>25.498562</ele>
        <time>2013-09-14T17:45:58Z</time>
      </trkpt>
      <trkpt lat="43.55598" lon="6.93509">
        <ele>27.853271</ele>
        <time>2013-09-14T17:46:01Z</time>
      </trkpt>
      <trkpt lat="43.55608" lon="6.93505">
        <ele>31.047066</ele>
        <time>2013-09-14T17:46:05Z</time>
      </trkpt>
      <trkpt lat="43.55618" lon="6.93509">
        <ele>33.73328</ele>
        <time>2013-09-14T17:46:09Z</time>
      </trkpt>
      <trkpt lat="43.55621" lon="6.93519">
        <ele>34.014416</ele>
        <time>2013-09-14T17:46:13Z</time>
      </trkpt>
      <trkpt lat="43.55614" lon="6.93532">
        <ele>31.046173</ele>
        <time>2013-09-14T17:46:17Z</time>
      </trkpt>
      <trkpt lat="43.55599" lon="6.93552">
        <ele>25.684067</ele>
        <time>2013-09-14T17:46:21Z</time>
      </trkpt>
      <trkpt lat="43.55588" lon="6.93573">
        <ele>21.763206</ele>
        <time>2013-09-14T17:46:24Z</time>
      </trkpt>
      <trkpt lat="43.55578" lon="6.93599">
        <ele>19.510736</ele>
        <time>2013-09-14T17:46:28Z</time>
      </trkpt>
      <trkpt lat="43.5557" lon="6.93615">
        <ele>18.976116</ele>
        <time>2013-09-14T17:46:31Z</time>
      </trkpt>
      <trkpt lat="43.55562" lon="6.93643">
        <ele>18.23938</ele>
        <time>2013-09-14T17:46:35Z</time>
      </trkpt>
      <trkpt lat="43.55551" lon="6.9367">
        <ele>17.557743</ele>
        <time>2013-09-14T17:46:39Z</time>
      </trkpt>
      <trkpt lat="43.55541" lon="6.93686">
        <ele>17.136562</ele>
        <time>2013-09-14T17:46:42Z</time>
      </trkpt>
      <trkpt lat="43.55524" lon="6.93701">
        <ele>16.584017</ele>
        <time>2013-09-14T17:46:46Z</time>
      </trkpt>
      <trkpt lat="43.55515" lon="6.93718">
        <ele>16.056103</ele>
        <time>2013-09-14T17:46:49Z</time>
      </trkpt>
      <trkpt lat="43.55505" lon="6.93744">
        <ele>15.270197</ele>
        <time>2013-09-14T17:46:53Z</time>
      </trkpt>
      <trkpt lat="43.55498" lon="6.93766">
        <ele>14.828838</ele>
        <time>2013-09-14T17:46:56Z</time>
      </trkpt>
      <trkpt lat="43.555" lon="6.93795">
        <ele>14.470119</ele>
        <time>2013-09-14T17:47:00Z</time>
      </trkpt>
      <trkpt lat="43.55517" lon="6.93802">
        <ele>14.663034</ele>
        <time>2013-09-14T17:47:03Z</time>
      </trkpt>
      <trkpt lat="43.55534" lon="6.93808">
        <ele>14.849516</ele>
        <time>2013-09-14T17:47:07Z</time>
      </trkpt>
      <trkpt lat="43.5553" lon="6.93815">
        <ele>14.666605</ele>
        <time>2013-09-14T17:47:51Z</time>
      </trkpt>
      <trkpt lat="43.55533" lon="6.93808">
        <ele>14.822756</ele>
        <time>2013-09-14T17:49:17Z</time>
      </trkpt>
      <trkpt lat="43.55538" lon="6.93807">
        <ele>14.920191</ele>
        <time>2013-09-14T17:49:44Z</time>
      </trkpt>
      <trkpt lat="43.55543" lon="6.93809">
        <ele>14.964733</ele>
        <time>2013-09-14T17:50:40Z</time>
      </trkpt>
      <trkpt lat="43.55549" lon="6.93813">
        <ele>14.969718</ele>
        <time>2013-09-14T17:50:43Z</time>
      </trkpt>
      <trkpt lat="43.55555" lon="6.93824">
        <ele>14.849667</ele>
        <time>2013-09-14T17:50:47Z</time>
      </trkpt>
      <trkpt lat="43.55559" lon="6.93835">
        <ele>14.687256</ele>
        <time>2013-09-14T17:50:51Z</time>
      </trkpt>
      <trkpt lat="43.55565" lon="6.93838">
        <ele>14.725464</ele>
        <time>2013-09-14T17:50:54Z</time>
      </trkpt>
      <trkpt lat="43.55576" lon="6.93838">
        <ele>14.861267</ele>
        <time>2013-09-14T17:50:58Z</time>
      </trkpt>
      <trkpt lat="43.55585" lon="6.93836">
        <ele>15.025511</ele>
        <time>2013-09-14T17:51:01Z</time>
      </trkpt>
      <trkpt lat="43.55595" lon="6.93837">
        <ele>15.351353</ele>
        <time>2013-09-14T17:51:04Z</time>
      </trkpt>
      <trkpt lat="43.55606" lon="6.93836">
        <ele>15.788179</ele>
        <time>2013-09-14T17:51:08Z</time>
      </trkpt>
      <trkpt lat="43.55618" lon="6.93834">
        <ele>16.237564</ele>
        <time>2013-09-14T17:51:12Z</time>
      </trkpt>
      <trkpt lat="43.55627" lon="6.93834">
        <ele>16.567333</ele>
        <time>2013-09-14T17:51:15Z</time>
      </trkpt>
      <trkpt lat="43.55637" lon="6.93837">
        <ele>16.858574</ele>
        <time>2013-09-14T17:51:19Z</time>
      </trkpt>
      <trkpt lat="43.55641" lon="6.93842">
        <ele>16.90683</ele>
        <time>2013-09-14T17:51:22Z</time>
      </trkpt>
      <trkpt lat="43.55647" lon="6.93846">
        <ele>17.012424</ele>
        <time>2013-09-14T17:51:26Z</time>
      </trkpt>
      <trkpt lat="43.55655" lon="6.9385">
        <ele>17.202269</ele>
        <time>2013-09-14T17:51:30Z</time>
      </trkpt>
      <trkpt lat="43.55661" lon="6.93853">
        <ele>17.353426</ele>
        <time>2013-09-14T17:51:33Z</time>
      </trkpt>
      <trkpt lat="43.55671" lon="6.93855">
        <ele>17.585938</ele>
        <time>2013-09-14T17:51:37Z</time>
      </trkpt>
      <trkpt lat="43.5568" lon="6.93857">
        <ele>17.752563</ele>
        <time>2013-09-14T17:51:41Z</time>
      </trkpt>
      <trkpt lat="43.5569" lon="6.93861">
        <ele>17.901123</ele>
        <time>2013-09-14T17:51:45Z</time>
      </trkpt>
      <trkpt lat="43.55697" lon="6.93863">
        <ele>18.027466</ele>
        <time>2013-09-14T17:51:48Z</time>
      </trkpt>
      <trkpt lat="43.55707" lon="6.93867">
        <ele>18.172241</ele>
        <time>2013-09-14T17:51:52Z</time>
      </trkpt>
      <trkpt lat="43.55716" lon="6.93868">
        <ele>18.342407</ele>
        <time>2013-09-14T17:51:56Z</time>
      </trkpt>
      <trkpt lat="43.55722" lon="6.9387">
        <ele>18.444214</ele>
        <time>2013-09-14T17:51:59Z</time>
      </trkpt>
      <trkpt lat="43.5573" lon="6.93872">
        <ele>18.588501</ele>
        <time>2013-09-14T17:52:03Z</time>
      </trkpt>
      <trkpt lat="43.55736" lon="6.93875">
        <ele>18.651733</ele>
        <time>2013-09-14T17:52:06Z</time>
      </trkpt>
      <trkpt lat="43.55744" lon="6.93878">
        <ele>18.763306</ele>
        <time>2013-09-14T17:52:10Z</time>
      </trkpt>
      <trkpt lat="43.5575" lon="6.9388">
        <ele>18.872559</ele>
        <time>2013-09-14T17:52:13Z</time>
      </trkpt>
      <trkpt lat="43.55755" lon="6.93881">
        <ele>18.872633</ele>
        <time>2013-09-14T17:52:16Z</time>
      </trkpt>
      <trkpt lat="43.55763" lon="6.93884">
        <ele>18.854416</ele>
        <time>2013-09-14T17:52:20Z</time>
      </trkpt>
      <trkpt lat="43.55769" lon="6.93886">
        <ele>18.823929</ele>
        <time>2013-09-14T17:52:23Z</time>
      </trkpt>
      <trkpt lat="43.55777" lon="6.93888">
        <ele>18.787985</ele>
        <time>2013-09-14T17:52:27Z</time>
      </trkpt>
      <trkpt lat="43.55783" lon="6.93889">
        <ele>18.795389</ele>
        <time>2013-09-14T17:52:30Z</time>
      </trkpt>
      <trkpt lat="43.55788" lon="6.9389">
        <ele>18.796</ele>
        <time>2013-09-14T17:52:33Z</time>
      </trkpt>
      <trkpt lat="43.55795" lon="6.93891">
        <ele>18.786896</ele>
        <time>2013-09-14T17:52:37Z</time>
      </trkpt>
      <trkpt lat="43.55801" lon="6.93893">
        <ele>18.751163</ele>
        <time>2013-09-14T17:52:40Z</time>
      </trkpt>
      <trkpt lat="43.55809" lon="6.93895">
        <ele>18.701132</ele>
        <time>2013-09-14T17:52:44Z</time>
      </trkpt>
      <trkpt lat="43.55815" lon="6.93897">
        <ele>18.656174</ele>
        <time>2013-09-14T17:52:47Z</time>
      </trkpt>
      <trkpt lat="43.55822" lon="6.93898">
        <ele>18.641052</ele>
        <time>2013-09-14T17:52:50Z</time>
      </trkpt>
      <trkpt lat="43.55828" lon="6.93898">
        <ele>18.653296</ele>
        <time>2013-09-14T17:52:53Z</time>
      </trkpt>
      <trkpt lat="43.55834" lon="6.93899">
        <ele>18.632668</ele>
        <time>2013-09-14T17:52:56Z</time>
      </trkpt>
      <trkpt lat="43.55842" lon="6.93899">
        <ele>18.586006</ele>
        <time>2013-09-14T17:53:00Z</time>
      </trkpt>
      <trkpt lat="43.55848" lon="6.939">
        <ele>18.543266</ele>
        <time>2013-09-14T17:53:03Z</time>
      </trkpt>
      <trkpt lat="43.55853" lon="6.93899">
        <ele>18.547329</ele>
        <time>2013-09-14T17:53:06Z</time>
      </trkpt>
      <trkpt lat="43.5586" lon="6.93897">
        <ele>18.555159</ele>
        <time>2013-09-14T17:53:10Z</time>
      </trkpt>
      <trkpt lat="43.55865" lon="6.93897">
        <ele>18.526094</ele>
        <time>2013-09-14T17:53:13Z</time>
      </trkpt>
      <trkpt lat="43.5587" lon="6.939">
        <ele>18.427019</ele>
        <time>2013-09-14T17:53:22Z</time>
      </trkpt>
      <trkpt lat="43.55876" lon="6.93901">
        <ele>18.382492</ele>
        <time>2013-09-14T17:53:26Z</time>
      </trkpt>
      <trkpt lat="43.55884" lon="6.93899">
        <ele>18.379753</ele>
        <time>2013-09-14T17:53:30Z</time>
      </trkpt>
      <trkpt lat="43.5589" lon="6.93898">
        <ele>18.367569</ele>
        <time>2013-09-14T17:53:33Z</time>
      </trkpt>
      <trkpt lat="43.559" lon="6.93895">
        <ele>18.370462</ele>
        <time>2013-09-14T17:53:37Z</time>
      </trkpt>
      <trkpt lat="43.55909" lon="6.93893">
        <ele>18.334633</ele>
        <time>2013-09-14T17:53:40Z</time>
      </trkpt>
      <trkpt lat="43.55923" lon="6.93891">
        <ele>18.2565</ele>
        <time>2013-09-14T17:53:44Z</time>
      </trkpt>
      <trkpt lat="43.55935" lon="6.9389">
        <ele>18.164696</ele>
        <time>2013-09-14T17:53:47Z</time>
      </trkpt>
      <trkpt lat="43.55957" lon="6.93888">
        <ele>18.02169</ele>
        <time>2013-09-14T17:53:50Z</time>
      </trkpt>
      <trkpt lat="43.55985" lon="6.93889">
        <ele>17.77647</ele>
        <time>2013-09-14T17:53:54Z</time>
      </trkpt>
      <trkpt lat="43.56009" lon="6.93894">
        <ele>17.534424</ele>
        <time>2013-09-14T17:53:57Z</time>
      </trkpt>
      <trkpt lat="43.56032" lon="6.93897">
        <ele>17.469727</ele>
        <time>2013-09-14T17:54:00Z</time>
      </trkpt>
      <trkpt lat="43.56059" lon="6.93898">
        <ele>17.460693</ele>
        <time>2013-09-14T17:54:04Z</time>
      </trkpt>
      <trkpt lat="43.56077" lon="6.93903">
        <ele>17.336914</ele>
        <time>2013-09-14T17:54:08Z</time>
      </trkpt>
      <trkpt lat="43.56096" lon="6.93906">
        <ele>17.250977</ele>
        <time>2013-09-14T17:54:11Z</time>
      </trkpt>
      <trkpt lat="43.56124" lon="6.93911">
        <ele>17.139893</ele>
        <time>2013-09-14T17:54:15Z</time>
      </trkpt>
      <trkpt lat="43.5614" lon="6.93917">
        <ele>16.999878</ele>
        <time>2013-09-14T17:54:18Z</time>
      </trkpt>
      <trkpt lat="43.56153" lon="6.93921">
        <ele>16.95459</ele>
        <time>2013-09-14T17:54:21Z</time>
      </trkpt>
      <trkpt lat="43.56163" lon="6.93925">
        <ele>16.900391</ele>
        <time>2013-09-14T17:54:24Z</time>
      </trkpt>
      <trkpt lat="43.5617" lon="6.93931">
        <ele>16.830933</ele>
        <time>2013-09-14T17:54:28Z</time>
      </trkpt>
      <trkpt lat="43.56176" lon="6.93937">
        <ele>16.750854</ele>
        <time>2013-09-14T17:54:32Z</time>
      </trkpt>
      <trkpt lat="43.56186" lon="6.93937">
        <ele>16.753784</ele>
        <time>2013-09-14T17:54:36Z</time>
      </trkpt>
      <trkpt lat="43.56196" lon="6.93932">
        <ele>16.822388</ele>
        <time>2013-09-14T17:54:40Z</time>
      </trkpt>
      <trkpt lat="43.56204" lon="6.93931">
        <ele>16.829956</ele>
        <time>2013-09-14T17:54:43Z</time>
      </trkpt>
      <trkpt lat="43.56213" lon="6.93932">
        <ele>16.815674</ele>
        <time>2013-09-14T17:54:46Z</time>
      </trkpt>
      <trkpt lat="43.56223" lon="6.93936">
        <ele>16.774048</ele>
        <time>2013-09-14T17:54:50Z</time>
      </trkpt>
      <trkpt lat="43.56233" lon="6.93938">
        <ele>16.747192</ele>
        <time>2013-09-14T17:54:54Z</time>
      </trkpt>
      <trkpt lat="43.56241" lon="6.93941">
        <ele>16.709717</ele>
        <time>2013-09-14T17:54:57Z</time>
      </trkpt>
      <trkpt lat="43.56248" lon="6.93945">
        <ele>16.665039</ele>
        <time>2013-09-14T17:55:00Z</time>
      </trkpt>
      <trkpt lat="43.56256" lon="6.93947">
        <ele>16.637451</ele>
        <time>2013-09-14T17:55:03Z</time>
      </trkpt>
      <trkpt lat="43.56266" lon="6.93949">
        <ele>16.609253</ele>
        <time>2013-09-14T17:55:07Z</time>
      </trkpt>
      <trkpt lat="43.56274" lon="6.93951">
        <ele>16.583984</ele>
        <time>2013-09-14T17:55:10Z</time>
      </trkpt>
      <trkpt lat="43.56283" lon="6.93954">
        <ele>16.55249</ele>
        <time>2013-09-14T17:55:13Z</time>
      </trkpt>
      <trkpt lat="43.56293" lon="6.93957">
        <ele>16.518799</ele>
        <time>2013-09-14T17:55:16Z</time>
      </trkpt>
      <trkpt lat="43.56308" lon="6.93961">
        <ele>16.467041</ele>
        <time>2013-09-14T17:55:20Z</time>
      </trkpt>
      <trkpt lat="43.56319" lon="6.93963">
        <ele>16.440186</ele>
        <time>2013-09-14T17:55:23Z</time>
      </trkpt>
      <trkpt lat="43.56335" lon="6.93963">
        <ele>16.434422</ele>
        <time>2013-09-14T17:55:27Z</time>
      </trkpt>
      <trkpt lat="43.56346" lon="6.93964">
        <ele>16.345978</ele>
        <time>2013-09-14T17:55:30Z</time>
      </trkpt>
      <trkpt lat="43.56362" lon="6.9397">
        <ele>16.143291</ele>
        <time>2013-09-14T17:55:34Z</time>
      </trkpt>
      <trkpt lat="43.56374" lon="6.93976">
        <ele>15.942806</ele>
        <time>2013-09-14T17:55:37Z</time>
      </trkpt>
      <trkpt lat="43.5639" lon="6.93982">
        <ele>15.676465</ele>
        <time>2013-09-14T17:55:41Z</time>
      </trkpt>
      <trkpt lat="43.56405" lon="6.93988">
        <ele>15.402985</ele>
        <time>2013-09-14T17:55:45Z</time>
      </trkpt>
      <trkpt lat="43.5642" lon="6.9399">
        <ele>15.276475</ele>
        <time>2013-09-14T17:55:49Z</time>
      </trkpt>
      <trkpt lat="43.56435" lon="6.93989">
        <ele>15.452629</ele>
        <time>2013-09-14T17:55:53Z</time>
      </trkpt>
      <trkpt lat="43.5645" lon="6.93989">
        <ele>15.597799</ele>
        <time>2013-09-14T17:55:57Z</time>
      </trkpt>
      <trkpt lat="43.5646" lon="6.9399">
        <ele>15.695623</ele>
        <time>2013-09-14T17:56:00Z</time>
      </trkpt>
      <trkpt lat="43.56473" lon="6.93991">
        <ele>15.813204</ele>
        <time>2013-09-14T17:56:04Z</time>
      </trkpt>
      <trkpt lat="43.56482" lon="6.93992">
        <ele>15.908769</ele>
        <time>2013-09-14T17:56:07Z</time>
      </trkpt>
      <trkpt lat="43.56494" lon="6.9399">
        <ele>16.059408</ele>
        <time>2013-09-14T17:56:11Z</time>
      </trkpt>
      <trkpt lat="43.56506" lon="6.93988">
        <ele>16.075428</ele>
        <time>2013-09-14T17:56:15Z</time>
      </trkpt>
      <trkpt lat="43.56517" lon="6.93987">
        <ele>15.978827</ele>
        <time>2013-09-14T17:56:19Z</time>
      </trkpt>
      <trkpt lat="43.56527" lon="6.93986">
        <ele>15.8985</ele>
        <time>2013-09-14T17:56:23Z</time>
      </trkpt>
      <trkpt lat="43.56535" lon="6.93986">
        <ele>15.827042</ele>
        <time>2013-09-14T17:56:26Z</time>
      </trkpt>
      <trkpt lat="43.56545" lon="6.93986">
        <ele>15.721133</ele>
        <time>2013-09-14T17:56:30Z</time>
      </trkpt>
      <trkpt lat="43.56552" lon="6.93987">
        <ele>15.632321</ele>
        <time>2013-09-14T17:56:33Z</time>
      </trkpt>
      <trkpt lat="43.5656" lon="6.93988">
        <ele>15.528098</ele>
        <time>2013-09-14T17:56:37Z</time>
      </trkpt>
      <trkpt lat="43.56564" lon="6.93995">
        <ele>15.327082</ele>
        <time>2013-09-14T17:56:41Z</time>
      </trkpt>
      <trkpt lat="43.56568" lon="6.94002">
        <ele>15.162675</ele>
        <time>2013-09-14T17:56:46Z</time>
      </trkpt>
      <trkpt lat="43.56572" lon="6.94007">
        <ele>15.036325</ele>
        <time>2013-09-14T17:56:50Z</time>
      </trkpt>
      <trkpt lat="43.56577" lon="6.94013">
        <ele>14.902129</ele>
        <time>2013-09-14T17:56:54Z</time>
      </trkpt>
      <trkpt lat="43.5658" lon="6.94023">
        <ele>14.758817</ele>
        <time>2013-09-14T17:56:57Z</time>
      </trkpt>
      <trkpt lat="43.56581" lon="6.94037">
        <ele>14.580221</ele>
        <time>2013-09-14T17:57:01Z</time>
      </trkpt>
      <trkpt lat="43.56581" lon="6.94047">
        <ele>14.451613</ele>
        <time>2013-09-14T17:57:04Z</time>
      </trkpt>
      <trkpt lat="43.56581" lon="6.94057">
        <ele>14.322609</ele>
        <time>2013-09-14T17:57:07Z</time>
      </trkpt>
      <trkpt lat="43.56582" lon="6.94069">
        <ele>14.181765</ele>
        <time>2013-09-14T17:57:10Z</time>
      </trkpt>
      <trkpt lat="43.56584" lon="6.94085">
        <ele>13.980347</ele>
        <time>2013-09-14T17:57:14Z</time>
      </trkpt>
      <trkpt lat="43.56585" lon="6.94097">
        <ele>13.833008</ele>
        <time>2013-09-14T17:57:17Z</time>
      </trkpt>
      <trkpt lat="43.56587" lon="6.9411">
        <ele>13.680908</ele>
        <time>2013-09-14T17:57:20Z</time>
      </trkpt>
      <trkpt lat="43.56589" lon="6.94129">
        <ele>13.453735</ele>
        <time>2013-09-14T17:57:23Z</time>
      </trkpt>
      <trkpt lat="43.5659" lon="6.94155">
        <ele>13.142334</ele>
        <time>2013-09-14T17:57:26Z</time>
      </trkpt>
      <trkpt lat="43.56592" lon="6.94178">
        <ele>12.736084</ele>
        <time>2013-09-14T17:57:29Z</time>
      </trkpt>
      <trkpt lat="43.56596" lon="6.94211">
        <ele>11.940186</ele>
        <time>2013-09-14T17:57:33Z</time>
      </trkpt>
      <trkpt lat="43.56599" lon="6.94248">
        <ele>11.037354</ele>
        <time>2013-09-14T17:57:37Z</time>
      </trkpt>
      <trkpt lat="43.56605" lon="6.94285">
        <ele>10.585449</ele>
        <time>2013-09-14T17:57:41Z</time>
      </trkpt>
      <trkpt lat="43.56607" lon="6.94321">
        <ele>10.153931</ele>
        <time>2013-09-14T17:57:45Z</time>
      </trkpt>
      <trkpt lat="43.56611" lon="6.94345">
        <ele>9.720215</ele>
        <time>2013-09-14T17:57:48Z</time>
      </trkpt>
      <trkpt lat="43.56615" lon="6.94374">
        <ele>9.016357</ele>
        <time>2013-09-14T17:57:52Z</time>
      </trkpt>
      <trkpt lat="43.56617" lon="6.94394">
        <ele>8.547607</ele>
        <time>2013-09-14T17:57:55Z</time>
      </trkpt>
      <trkpt lat="43.56625" lon="6.94415">
        <ele>8.034912</ele>
        <time>2013-09-14T17:57:59Z</time>
      </trkpt>
      <trkpt lat="43.56626" lon="6.94432">
        <ele>7.913361</ele>
        <time>2013-09-14T17:58:02Z</time>
      </trkpt>
      <trkpt lat="43.56629" lon="6.94454">
        <ele>7.800302</ele>
        <time>2013-09-14T17:58:06Z</time>
      </trkpt>
      <trkpt lat="43.56632" lon="6.94469">
        <ele>7.738096</ele>
        <time>2013-09-14T17:58:09Z</time>
      </trkpt>
      <trkpt lat="43.56634" lon="6.9449">
        <ele>7.656604</ele>
        <time>2013-09-14T17:58:13Z</time>
      </trkpt>
      <trkpt lat="43.56635" lon="6.94507">
        <ele>7.616821</ele>
        <time>2013-09-14T17:58:16Z</time>
      </trkpt>
      <trkpt lat="43.56635" lon="6.94528">
        <ele>7.614868</ele>
        <time>2013-09-14T17:58:19Z</time>
      </trkpt>
      <trkpt lat="43.56639" lon="6.94552">
        <ele>7.66571</ele>
        <time>2013-09-14T17:58:23Z</time>
      </trkpt>
      <trkpt lat="43.5664" lon="6.94573">
        <ele>7.682739</ele>
        <time>2013-09-14T17:58:26Z</time>
      </trkpt>
      <trkpt lat="43.56643" lon="6.94593">
        <ele>7.750363</ele>
        <time>2013-09-14T17:58:29Z</time>
      </trkpt>
      <trkpt lat="43.56646" lon="6.9462">
        <ele>7.858544</ele>
        <time>2013-09-14T17:58:33Z</time>
      </trkpt>
      <trkpt lat="43.5665" lon="6.94638">
        <ele>7.929244</ele>
        <time>2013-09-14T17:58:36Z</time>
      </trkpt>
      <trkpt lat="43.5665" lon="6.94662">
        <ele>7.988845</ele>
        <time>2013-09-14T17:58:40Z</time>
      </trkpt>
      <trkpt lat="43.56651" lon="6.94685">
        <ele>8.176802</ele>
        <time>2013-09-14T17:58:44Z</time>
      </trkpt>
      <trkpt lat="43.56651" lon="6.94702">
        <ele>8.346339</ele>
        <time>2013-09-14T17:58:48Z</time>
      </trkpt>
      <trkpt lat="43.56656" lon="6.94713">
        <ele>8.48147</ele>
        <time>2013-09-14T17:58:51Z</time>
      </trkpt>
      <trkpt lat="43.56659" lon="6.94728">
        <ele>8.672325</ele>
        <time>2013-09-14T17:58:55Z</time>
      </trkpt>
      <trkpt lat="43.5666" lon="6.94747">
        <ele>8.884131</ele>
        <time>2013-09-14T17:58:59Z</time>
      </trkpt>
      <trkpt lat="43.56661" lon="6.94761">
        <ele>8.936011</ele>
        <time>2013-09-14T17:59:02Z</time>
      </trkpt>
      <trkpt lat="43.56661" lon="6.94781">
        <ele>8.95854</ele>
        <time>2013-09-14T17:59:06Z</time>
      </trkpt>
      <trkpt lat="43.56662" lon="6.94801">
        <ele>8.978222</ele>
        <time>2013-09-14T17:59:10Z</time>
      </trkpt>
      <trkpt lat="43.56661" lon="6.94818">
        <ele>8.987823</ele>
        <time>2013-09-14T17:59:14Z</time>
      </trkpt>
      <trkpt lat="43.56656" lon="6.94829">
        <ele>8.993177</ele>
        <time>2013-09-14T17:59:17Z</time>
      </trkpt>
      <trkpt lat="43.56648" lon="6.94843">
        <ele>9.119019</ele>
        <time>2013-09-14T17:59:21Z</time>
      </trkpt>
      <trkpt lat="43.56643" lon="6.94854">
        <ele>9.249756</ele>
        <time>2013-09-14T17:59:24Z</time>
      </trkpt>
      <trkpt lat="43.56641" lon="6.94869">
        <ele>9.422119</ele>
        <time>2013-09-14T17:59:28Z</time>
      </trkpt>
      <trkpt lat="43.56643" lon="6.94875">
        <ele>9.497192</ele>
        <time>2013-09-14T17:59:36Z</time>
      </trkpt>
      <trkpt lat="43.56645" lon="6.94881">
        <ele>9.566162</ele>
        <time>2013-09-14T17:59:39Z</time>
      </trkpt>
      <trkpt lat="43.56648" lon="6.94888">
        <ele>9.659912</ele>
        <time>2013-09-14T17:59:43Z</time>
      </trkpt>
      <trkpt lat="43.56656" lon="6.94894">
        <ele>9.723267</ele>
        <time>2013-09-14T17:59:47Z</time>
      </trkpt>
      <trkpt lat="43.56664" lon="6.94897">
        <ele>9.766724</ele>
        <time>2013-09-14T17:59:50Z</time>
      </trkpt>
      <trkpt lat="43.56671" lon="6.94904">
        <ele>9.843262</ele>
        <time>2013-09-14T17:59:53Z</time>
      </trkpt>
      <trkpt lat="43.56679" lon="6.9492">
        <ele>10</ele>
        <time>2013-09-14T17:59:57Z</time>
      </trkpt>
      <trkpt lat="43.56684" lon="6.94934">
        <ele>10</ele>
        <time>2013-09-14T18:00:00Z</time>
      </trkpt>
      <trkpt lat="43.56687" lon="6.94954">
        <ele>10</ele>
        <time>2013-09-14T18:00:04Z</time>
      </trkpt>
      <trkpt lat="43.56689" lon="6.94972">
        <ele>10</ele>
        <time>2013-09-14T18:00:08Z</time>
      </trkpt>
      <trkpt lat="43.56691" lon="6.94984">
        <ele>10</ele>
        <time>2013-09-14T18:00:11Z</time>
      </trkpt>
      <trkpt lat="43.56692" lon="6.94994">
        <ele>10</ele>
        <time>2013-09-14T18:00:14Z</time>
      </trkpt>
      <trkpt lat="43.56693" lon="6.95008">
        <ele>10.069096</ele>
        <time>2013-09-14T18:00:18Z</time>
      </trkpt>
      <trkpt lat="43.56695" lon="6.95021">
        <ele>10.165884</ele>
        <time>2013-09-14T18:00:22Z</time>
      </trkpt>
      <trkpt lat="43.56696" lon="6.95032">
        <ele>10.245178</ele>
        <time>2013-09-14T18:00:25Z</time>
      </trkpt>
      <trkpt lat="43.567" lon="6.95047">
        <ele>10.338154</ele>
        <time>2013-09-14T18:00:29Z</time>
      </trkpt>
      <trkpt lat="43.56703" lon="6.95058">
        <ele>10.391338</ele>
        <time>2013-09-14T18:00:32Z</time>
      </trkpt>
      <trkpt lat="43.5671" lon="6.95075">
        <ele>10.435431</ele>
        <time>2013-09-14T18:00:36Z</time>
      </trkpt>
      <trkpt lat="43.56707" lon="6.95106">
        <ele>10.649322</ele>
        <time>2013-09-14T18:00:39Z</time>
      </trkpt>
      <trkpt lat="43.56717" lon="6.95113">
        <ele>10.606972</ele>
        <time>2013-09-14T18:00:43Z</time>
      </trkpt>
      <trkpt lat="43.56721" lon="6.9514">
        <ele>10.793177</ele>
        <time>2013-09-14T18:00:47Z</time>
      </trkpt>
      <trkpt lat="43.56724" lon="6.95172">
        <ele>11.020457</ele>
        <time>2013-09-14T18:00:51Z</time>
      </trkpt>
      <trkpt lat="43.56732" lon="6.95177">
        <ele>11.02569</ele>
        <time>2013-09-14T18:00:54Z</time>
      </trkpt>
      <trkpt lat="43.5674" lon="6.95185">
        <ele>11.025822</ele>
        <time>2013-09-14T18:00:57Z</time>
      </trkpt>
      <trkpt lat="43.56748" lon="6.95206">
        <ele>11.013916</ele>
        <time>2013-09-14T18:01:01Z</time>
      </trkpt>
      <trkpt lat="43.5675" lon="6.95225">
        <ele>11</ele>
        <time>2013-09-14T18:01:04Z</time>
      </trkpt>
      <trkpt lat="43.56752" lon="6.95251">
        <ele>11.000207</ele>
        <time>2013-09-14T18:01:08Z</time>
      </trkpt>
      <trkpt lat="43.5675" lon="6.95278">
        <ele>11.000427</ele>
        <time>2013-09-14T18:01:12Z</time>
      </trkpt>
      <trkpt lat="43.56747" lon="6.95303">
        <ele>11.037903</ele>
        <time>2013-09-14T18:01:16Z</time>
      </trkpt>
      <trkpt lat="43.56741" lon="6.95326">
        <ele>11.105042</ele>
        <time>2013-09-14T18:01:20Z</time>
      </trkpt>
      <trkpt lat="43.56737" lon="6.95342">
        <ele>11.24773</ele>
        <time>2013-09-14T18:01:23Z</time>
      </trkpt>
      <trkpt lat="43.56729" lon="6.95362">
        <ele>11.509992</ele>
        <time>2013-09-14T18:01:27Z</time>
      </trkpt>
      <trkpt lat="43.56719" lon="6.9538">
        <ele>11.719772</ele>
        <time>2013-09-14T18:01:31Z</time>
      </trkpt>
      <trkpt lat="43.56711" lon="6.95392">
        <ele>11.841323</ele>
        <time>2013-09-14T18:01:34Z</time>
      </trkpt>
      <trkpt lat="43.56704" lon="6.95404">
        <ele>11.933001</ele>
        <time>2013-09-14T18:01:37Z</time>
      </trkpt>
      <trkpt lat="43.56694" lon="6.9542">
        <ele>12.029357</ele>
        <time>2013-09-14T18:01:41Z</time>
      </trkpt>
      <trkpt lat="43.56691" lon="6.95434">
        <ele>12.145309</ele>
        <time>2013-09-14T18:01:44Z</time>
      </trkpt>
      <trkpt lat="43.56688" lon="6.95452">
        <ele>12.312714</ele>
        <time>2013-09-14T18:01:48Z</time>
      </trkpt>
      <trkpt lat="43.56687" lon="6.95465">
        <ele>12.433078</ele>
        <time>2013-09-14T18:01:52Z</time>
      </trkpt>
      <trkpt lat="43.56695" lon="6.95467">
        <ele>12.396531</ele>
        <time>2013-09-14T18:01:55Z</time>
      </trkpt>
      <trkpt lat="43.56702" lon="6.9548">
        <ele>12.444351</ele>
        <time>2013-09-14T18:01:59Z</time>
      </trkpt>
      <trkpt lat="43.56698" lon="6.95494">
        <ele>12.574511</ele>
        <time>2013-09-14T18:02:02Z</time>
      </trkpt>
      <trkpt lat="43.56695" lon="6.95513">
        <ele>12.711227</ele>
        <time>2013-09-14T18:02:06Z</time>
      </trkpt>
      <trkpt lat="43.56694" lon="6.95533">
        <ele>12.80482</ele>
        <time>2013-09-14T18:02:10Z</time>
      </trkpt>
      <trkpt lat="43.56694" lon="6.95548">
        <ele>12.858568</ele>
        <time>2013-09-14T18:02:13Z</time>
      </trkpt>
      <trkpt lat="43.56704" lon="6.95563">
        <ele>12.888946</ele>
        <time>2013-09-14T18:02:17Z</time>
      </trkpt>
      <trkpt lat="43.56717" lon="6.95576">
        <ele>12.943507</ele>
        <time>2013-09-14T18:02:21Z</time>
      </trkpt>
      <trkpt lat="43.56727" lon="6.95585">
        <ele>13.023787</ele>
        <time>2013-09-14T18:02:24Z</time>
      </trkpt>
      <trkpt lat="43.56737" lon="6.95595">
        <ele>13.158132</ele>
        <time>2013-09-14T18:02:27Z</time>
      </trkpt>
      <trkpt lat="43.56747" lon="6.95605">
        <ele>13.266464</ele>
        <time>2013-09-14T18:02:30Z</time>
      </trkpt>
      <trkpt lat="43.56756" lon="6.95616">
        <ele>13.497485</ele>
        <time>2013-09-14T18:02:33Z</time>
      </trkpt>
      <trkpt lat="43.56769" lon="6.95631">
        <ele>13.920875</ele>
        <time>2013-09-14T18:02:37Z</time>
      </trkpt>
      <trkpt lat="43.56779" lon="6.9564">
        <ele>14.26578</ele>
        <time>2013-09-14T18:02:40Z</time>
      </trkpt>
      <trkpt lat="43.56789" lon="6.95649">
        <ele>14.62421</ele>
        <time>2013-09-14T18:02:43Z</time>
      </trkpt>
      <trkpt lat="43.56803" lon="6.95657">
        <ele>15.067448</ele>
        <time>2013-09-14T18:02:47Z</time>
      </trkpt>
      <trkpt lat="43.56809" lon="6.95661">
        <ele>15.292433</ele>
        <time>2013-09-14T18:02:50Z</time>
      </trkpt>
      <trkpt lat="43.56813" lon="6.95665">
        <ele>15.477636</ele>
        <time>2013-09-14T18:02:54Z</time>
      </trkpt>
      <trkpt lat="43.56818" lon="6.95665">
        <ele>15.575161</ele>
        <time>2013-09-14T18:02:57Z</time>
      </trkpt>
      <trkpt lat="43.56822" lon="6.95656">
        <ele>15.499006</ele>
        <time>2013-09-14T18:03:00Z</time>
      </trkpt>
      <trkpt lat="43.56829" lon="6.95644">
        <ele>15.368071</ele>
        <time>2013-09-14T18:03:04Z</time>
      </trkpt>
      <trkpt lat="43.56839" lon="6.9563">
        <ele>15.90095</ele>
        <time>2013-09-14T18:03:08Z</time>
      </trkpt>
      <trkpt lat="43.56846" lon="6.9562">
        <ele>16.554403</ele>
        <time>2013-09-14T18:03:11Z</time>
      </trkpt>
      <trkpt lat="43.56859" lon="6.95606">
        <ele>17.132326</ele>
        <time>2013-09-14T18:03:15Z</time>
      </trkpt>
      <trkpt lat="43.56872" lon="6.95594">
        <ele>17.351044</ele>
        <time>2013-09-14T18:03:19Z</time>
      </trkpt>
      <trkpt lat="43.56882" lon="6.95583">
        <ele>16.900867</ele>
        <time>2013-09-14T18:03:22Z</time>
      </trkpt>
      <trkpt lat="43.56895" lon="6.95568">
        <ele>16.787962</ele>
        <time>2013-09-14T18:03:26Z</time>
      </trkpt>
      <trkpt lat="43.5691" lon="6.95556">
        <ele>16.698835</ele>
        <time>2013-09-14T18:03:30Z</time>
      </trkpt>
      <trkpt lat="43.56923" lon="6.95544">
        <ele>16.405014</ele>
        <time>2013-09-14T18:03:34Z</time>
      </trkpt>
      <trkpt lat="43.56934" lon="6.95537">
        <ele>16.118559</ele>
        <time>2013-09-14T18:03:37Z</time>
      </trkpt>
      <trkpt lat="43.56946" lon="6.95531">
        <ele>15.866288</ele>
        <time>2013-09-14T18:03:40Z</time>
      </trkpt>
      <trkpt lat="43.56959" lon="6.95526">
        <ele>15.629554</ele>
        <time>2013-09-14T18:03:43Z</time>
      </trkpt>
      <trkpt lat="43.56975" lon="6.95518">
        <ele>15.102114</ele>
        <time>2013-09-14T18:03:47Z</time>
      </trkpt>
      <trkpt lat="43.56988" lon="6.95514">
        <ele>14.705563</ele>
        <time>2013-09-14T18:03:50Z</time>
      </trkpt>
      <trkpt lat="43.57006" lon="6.95509">
        <ele>14.215705</ele>
        <time>2013-09-14T18:03:54Z</time>
      </trkpt>
      <trkpt lat="43.57019" lon="6.95505">
        <ele>14.025405</ele>
        <time>2013-09-14T18:03:57Z</time>
      </trkpt>
      <trkpt lat="43.57035" lon="6.95501">
        <ele>13.973776</ele>
        <time>2013-09-14T18:04:00Z</time>
      </trkpt>
      <trkpt lat="43.57058" lon="6.95504">
        <ele>14.752068</ele>
        <time>2013-09-14T18:04:04Z</time>
      </trkpt>
      <trkpt lat="43.57075" lon="6.95513">
        <ele>15.800618</ele>
        <time>2013-09-14T18:04:07Z</time>
      </trkpt>
      <trkpt lat="43.57096" lon="6.95526">
        <ele>17.367214</ele>
        <time>2013-09-14T18:04:11Z</time>
      </trkpt>
      <trkpt lat="43.57119" lon="6.95526">
        <ele>18.271904</ele>
        <time>2013-09-14T18:04:15Z</time>
      </trkpt>
      <trkpt lat="43.57137" lon="6.95516">
        <ele>18.213089</ele>
        <time>2013-09-14T18:04:19Z</time>
      </trkpt>
      <trkpt lat="43.57149" lon="6.95502">
        <ele>17.537304</ele>
        <time>2013-09-14T18:04:23Z</time>
      </trkpt>
      <trkpt lat="43.57156" lon="6.95488">
        <ele>17.077993</ele>
        <time>2013-09-14T18:04:26Z</time>
      </trkpt>
      <trkpt lat="43.57168" lon="6.95468">
        <ele>16.523539</ele>
        <time>2013-09-14T18:04:30Z</time>
      </trkpt>
      <trkpt lat="43.57179" lon="6.9545">
        <ele>16.230125</ele>
        <time>2013-09-14T18:04:33Z</time>
      </trkpt>
      <trkpt lat="43.57191" lon="6.9543">
        <ele>15.620384</ele>
        <time>2013-09-14T18:04:36Z</time>
      </trkpt>
      <trkpt lat="43.57203" lon="6.95411">
        <ele>15.176243</ele>
        <time>2013-09-14T18:04:39Z</time>
      </trkpt>
      <trkpt lat="43.57224" lon="6.95393">
        <ele>15.38438</ele>
        <time>2013-09-14T18:04:43Z</time>
      </trkpt>
      <trkpt lat="43.57241" lon="6.95382">
        <ele>15.493722</ele>
        <time>2013-09-14T18:04:46Z</time>
      </trkpt>
      <trkpt lat="43.57256" lon="6.95366">
        <ele>15.334595</ele>
        <time>2013-09-14T18:04:50Z</time>
      </trkpt>
      <trkpt lat="43.5727" lon="6.95355">
        <ele>15.24939</ele>
        <time>2013-09-14T18:04:53Z</time>
      </trkpt>
      <trkpt lat="43.57287" lon="6.95339">
        <ele>15.108398</ele>
        <time>2013-09-14T18:04:57Z</time>
      </trkpt>
      <trkpt lat="43.57307" lon="6.95323">
        <ele>15.075119</ele>
        <time>2013-09-14T18:05:01Z</time>
      </trkpt>
      <trkpt lat="43.57322" lon="6.9531">
        <ele>14.970048</ele>
        <time>2013-09-14T18:05:04Z</time>
      </trkpt>
      <trkpt lat="43.57338" lon="6.95289">
        <ele>14.479696</ele>
        <time>2013-09-14T18:05:08Z</time>
      </trkpt>
      <trkpt lat="43.57354" lon="6.95269">
        <ele>14.001929</ele>
        <time>2013-09-14T18:05:12Z</time>
      </trkpt>
      <trkpt lat="43.57368" lon="6.95254">
        <ele>13.590412</ele>
        <time>2013-09-14T18:05:15Z</time>
      </trkpt>
      <trkpt lat="43.57386" lon="6.95234">
        <ele>13.510682</ele>
        <time>2013-09-14T18:05:19Z</time>
      </trkpt>
      <trkpt lat="43.57403" lon="6.95223">
        <ele>13.570224</ele>
        <time>2013-09-14T18:05:22Z</time>
      </trkpt>
      <trkpt lat="43.57425" lon="6.95209">
        <ele>13.565285</ele>
        <time>2013-09-14T18:05:26Z</time>
      </trkpt>
      <trkpt lat="43.57442" lon="6.95202">
        <ele>13.544687</ele>
        <time>2013-09-14T18:05:29Z</time>
      </trkpt>
      <trkpt lat="43.57464" lon="6.95187">
        <ele>13.384504</ele>
        <time>2013-09-14T18:05:33Z</time>
      </trkpt>
      <trkpt lat="43.57479" lon="6.95173">
        <ele>13.142114</ele>
        <time>2013-09-14T18:05:36Z</time>
      </trkpt>
      <trkpt lat="43.57503" lon="6.95169">
        <ele>13.044484</ele>
        <time>2013-09-14T18:05:40Z</time>
      </trkpt>
      <trkpt lat="43.57524" lon="6.95167">
        <ele>13.009561</ele>
        <time>2013-09-14T18:05:44Z</time>
      </trkpt>
      <trkpt lat="43.57544" lon="6.95166">
        <ele>12.989258</ele>
        <time>2013-09-14T18:05:48Z</time>
      </trkpt>
      <trkpt lat="43.57566" lon="6.95172">
        <ele>13.024939</ele>
        <time>2013-09-14T18:05:52Z</time>
      </trkpt>
      <trkpt lat="43.5758" lon="6.95179">
        <ele>13.011678</ele>
        <time>2013-09-14T18:05:55Z</time>
      </trkpt>
      <trkpt lat="43.576" lon="6.9519">
        <ele>13</ele>
        <time>2013-09-14T18:05:59Z</time>
      </trkpt>
      <trkpt lat="43.57624" lon="6.95204">
        <ele>13</ele>
        <time>2013-09-14T18:06:03Z</time>
      </trkpt>
      <trkpt lat="43.57648" lon="6.95221">
        <ele>13</ele>
        <time>2013-09-14T18:06:07Z</time>
      </trkpt>
      <trkpt lat="43.57664" lon="6.9523">
        <ele>13</ele>
        <time>2013-09-14T18:06:10Z</time>
      </trkpt>
      <trkpt lat="43.57683" lon="6.95232">
        <ele>13.299472</ele>
        <time>2013-09-14T18:06:13Z</time>
      </trkpt>
      <trkpt lat="43.57705" lon="6.95221">
        <ele>13.598661</ele>
        <time>2013-09-14T18:06:17Z</time>
      </trkpt>
      <trkpt lat="43.5772" lon="6.95206">
        <ele>13.593926</ele>
        <time>2013-09-14T18:06:20Z</time>
      </trkpt>
      <trkpt lat="43.57734" lon="6.95176">
        <ele>13.174586</ele>
        <time>2013-09-14T18:06:24Z</time>
      </trkpt>
      <trkpt lat="43.57743" lon="6.95144">
        <ele>12.977346</ele>
        <time>2013-09-14T18:06:28Z</time>
      </trkpt>
      <trkpt lat="43.57754" lon="6.95122">
        <ele>13.063121</ele>
        <time>2013-09-14T18:06:31Z</time>
      </trkpt>
      <trkpt lat="43.57771" lon="6.95098">
        <ele>13.293602</ele>
        <time>2013-09-14T18:06:35Z</time>
      </trkpt>
      <trkpt lat="43.57786" lon="6.95081">
        <ele>13.417248</ele>
        <time>2013-09-14T18:06:38Z</time>
      </trkpt>
      <trkpt lat="43.57808" lon="6.95063">
        <ele>13.521289</ele>
        <time>2013-09-14T18:06:42Z</time>
      </trkpt>
      <trkpt lat="43.57822" lon="6.95048">
        <ele>13.498804</ele>
        <time>2013-09-14T18:06:45Z</time>
      </trkpt>
      <trkpt lat="43.57839" lon="6.95031">
        <ele>13.434021</ele>
        <time>2013-09-14T18:06:49Z</time>
      </trkpt>
      <trkpt lat="43.57855" lon="6.95013">
        <ele>13.419067</ele>
        <time>2013-09-14T18:06:53Z</time>
      </trkpt>
      <trkpt lat="43.57868" lon="6.95">
        <ele>13.414978</ele>
        <time>2013-09-14T18:06:56Z</time>
      </trkpt>
      <trkpt lat="43.57886" lon="6.94983">
        <ele>13.504684</ele>
        <time>2013-09-14T18:07:00Z</time>
      </trkpt>
      <trkpt lat="43.57901" lon="6.94965">
        <ele>13.468165</ele>
        <time>2013-09-14T18:07:04Z</time>
      </trkpt>
      <trkpt lat="43.57914" lon="6.94946">
        <ele>13.34304</ele>
        <time>2013-09-14T18:07:08Z</time>
      </trkpt>
      <trkpt lat="43.57924" lon="6.94931">
        <ele>13.726672</ele>
        <time>2013-09-14T18:07:11Z</time>
      </trkpt>
      <trkpt lat="43.57936" lon="6.94914">
        <ele>14.359541</ele>
        <time>2013-09-14T18:07:15Z</time>
      </trkpt>
      <trkpt lat="43.57949" lon="6.94897">
        <ele>15.056822</ele>
        <time>2013-09-14T18:07:19Z</time>
      </trkpt>
      <trkpt lat="43.57961" lon="6.94878">
        <ele>15.470867</ele>
        <time>2013-09-14T18:07:23Z</time>
      </trkpt>
      <trkpt lat="43.5797" lon="6.94866">
        <ele>15.694511</ele>
        <time>2013-09-14T18:07:26Z</time>
      </trkpt>
      <trkpt lat="43.57981" lon="6.94851">
        <ele>15.78892</ele>
        <time>2013-09-14T18:07:29Z</time>
      </trkpt>
      <trkpt lat="43.57991" lon="6.94841">
        <ele>15.889873</ele>
        <time>2013-09-14T18:07:32Z</time>
      </trkpt>
      <trkpt lat="43.58002" lon="6.94823">
        <ele>15.816895</ele>
        <time>2013-09-14T18:07:36Z</time>
      </trkpt>
      <trkpt lat="43.58014" lon="6.94803">
        <ele>15.775635</ele>
        <time>2013-09-14T18:07:40Z</time>
      </trkpt>
      <trkpt lat="43.58023" lon="6.9479">
        <ele>15.799316</ele>
        <time>2013-09-14T18:07:43Z</time>
      </trkpt>
      <trkpt lat="43.58032" lon="6.94778">
        <ele>15.80249</ele>
        <time>2013-09-14T18:07:46Z</time>
      </trkpt>
      <trkpt lat="43.58042" lon="6.94759">
        <ele>15.731995</ele>
        <time>2013-09-14T18:07:50Z</time>
      </trkpt>
      <trkpt lat="43.58055" lon="6.94741">
        <ele>15.856628</ele>
        <time>2013-09-14T18:07:54Z</time>
      </trkpt>
      <trkpt lat="43.58064" lon="6.94727">
        <ele>16.036499</ele>
        <time>2013-09-14T18:07:57Z</time>
      </trkpt>
      <trkpt lat="43.58077" lon="6.94708">
        <ele>16.254578</ele>
        <time>2013-09-14T18:08:01Z</time>
      </trkpt>
      <trkpt lat="43.58085" lon="6.94693">
        <ele>16.341125</ele>
        <time>2013-09-14T18:08:04Z</time>
      </trkpt>
      <trkpt lat="43.58097" lon="6.94676">
        <ele>16.272827</ele>
        <time>2013-09-14T18:08:08Z</time>
      </trkpt>
      <trkpt lat="43.58106" lon="6.94657">
        <ele>16.074928</ele>
        <time>2013-09-14T18:08:12Z</time>
      </trkpt>
      <trkpt lat="43.58114" lon="6.94635">
        <ele>15.747694</ele>
        <time>2013-09-14T18:08:16Z</time>
      </trkpt>
      <trkpt lat="43.5812" lon="6.94618">
        <ele>15.518931</ele>
        <time>2013-09-14T18:08:19Z</time>
      </trkpt>
      <trkpt lat="43.58128" lon="6.94595">
        <ele>15.269202</ele>
        <time>2013-09-14T18:08:23Z</time>
      </trkpt>
      <trkpt lat="43.58138" lon="6.94572">
        <ele>15.254332</ele>
        <time>2013-09-14T18:08:27Z</time>
      </trkpt>
      <trkpt lat="43.58145" lon="6.94546">
        <ele>15.358651</ele>
        <time>2013-09-14T18:08:31Z</time>
      </trkpt>
      <trkpt lat="43.58152" lon="6.94525">
        <ele>15.519419</ele>
        <time>2013-09-14T18:08:34Z</time>
      </trkpt>
      <trkpt lat="43.58158" lon="6.94506">
        <ele>15.679186</ele>
        <time>2013-09-14T18:08:37Z</time>
      </trkpt>
      <trkpt lat="43.58165" lon="6.94481">
        <ele>15.711233</ele>
        <time>2013-09-14T18:08:41Z</time>
      </trkpt>
      <trkpt lat="43.58172" lon="6.94457">
        <ele>15.70875</ele>
        <time>2013-09-14T18:08:45Z</time>
      </trkpt>
      <trkpt lat="43.5818" lon="6.94435">
        <ele>15.816016</ele>
        <time>2013-09-14T18:08:49Z</time>
      </trkpt>
      <trkpt lat="43.58176" lon="6.94423">
        <ele>15.53266</ele>
        <time>2013-09-14T18:08:52Z</time>
      </trkpt>
      <trkpt lat="43.58162" lon="6.94419">
        <ele>14.900329</ele>
        <time>2013-09-14T18:08:56Z</time>
      </trkpt>
      <trkpt lat="43.58156" lon="6.94414">
        <ele>14.706055</ele>
        <time>2013-09-14T18:08:59Z</time>
      </trkpt>
    </trkseg>
  </trk>
</gpx>